<?xml version="1.0" encoding="UTF-8" standalone="no" ?>
<gpx xmlns="http://www.topografix.com/GPX/1/1" xmlns:xsi="http://www.w3.org/2001/XMLSchema-instance" xsi:schemaLocation="http://www.topografix.com/GPX/1/1 http://www.topografix.com/GPX/1/1/gpx.xsd" version="1.1" creator="VisuGPX - https://www.visugpx.com">
  <metadata>
    <name>PASS PORTES 2015</name>
    <desc><![CDATA[pass portes avec les bickets]]></desc>
  </metadata>
  <wpt lat="42.73746" lon="-0.01152">
    <ele>1350.29</ele>
    <name><![CDATA[MAP]]></name>
  </wpt>
  <trk>
    <name><![CDATA[ACTIVE LOG: 28 JUN 2015 09:00]]></name>
    <trkseg>
      <trkpt lat="46.15727" lon="6.66914">
        <ele>1180.64</ele>
        <time>2015-06-28T07:00:52Z</time>
      </trkpt>
      <trkpt lat="46.15732" lon="6.66907">
        <ele>1191.69</ele>
        <time>2015-06-28T07:01:07Z</time>
      </trkpt>
      <trkpt lat="46.15745" lon="6.66915">
        <ele>1184</ele>
        <time>2015-06-28T07:01:15Z</time>
      </trkpt>
      <trkpt lat="46.15764" lon="6.669">
        <ele>1177.27</ele>
        <time>2015-06-28T07:01:21Z</time>
      </trkpt>
      <trkpt lat="46.158" lon="6.66929">
        <ele>1172.95</ele>
        <time>2015-06-28T07:01:34Z</time>
      </trkpt>
      <trkpt lat="46.15839" lon="6.66945">
        <ele>1170.54</ele>
        <time>2015-06-28T07:01:44Z</time>
      </trkpt>
      <trkpt lat="46.15883" lon="6.66964">
        <ele>1166.7</ele>
        <time>2015-06-28T07:01:57Z</time>
      </trkpt>
      <trkpt lat="46.15883" lon="6.66963">
        <ele>1167.18</ele>
        <time>2015-06-28T07:02:42Z</time>
      </trkpt>
      <trkpt lat="46.15883" lon="6.66963">
        <ele>1167.66</ele>
        <time>2015-06-28T07:04:03Z</time>
      </trkpt>
      <trkpt lat="46.15883" lon="6.66962">
        <ele>1167.66</ele>
        <time>2015-06-28T07:05:20Z</time>
      </trkpt>
      <trkpt lat="46.15913" lon="6.66994">
        <ele>1171.98</ele>
        <time>2015-06-28T07:05:35Z</time>
      </trkpt>
      <trkpt lat="46.15948" lon="6.67025">
        <ele>1172.47</ele>
        <time>2015-06-28T07:05:49Z</time>
      </trkpt>
      <trkpt lat="46.15956" lon="6.67032">
        <ele>1172.95</ele>
        <time>2015-06-28T07:05:52Z</time>
      </trkpt>
      <trkpt lat="46.15963" lon="6.6705">
        <ele>1172.95</ele>
        <time>2015-06-28T07:05:58Z</time>
      </trkpt>
      <trkpt lat="46.15969" lon="6.67081">
        <ele>1173.43</ele>
        <time>2015-06-28T07:06:04Z</time>
      </trkpt>
      <trkpt lat="46.15976" lon="6.67102">
        <ele>1173.91</ele>
        <time>2015-06-28T07:06:08Z</time>
      </trkpt>
      <trkpt lat="46.15994" lon="6.67177">
        <ele>1174.39</ele>
        <time>2015-06-28T07:06:21Z</time>
      </trkpt>
      <trkpt lat="46.16018" lon="6.67219">
        <ele>1175.83</ele>
        <time>2015-06-28T07:06:31Z</time>
      </trkpt>
      <trkpt lat="46.16026" lon="6.67214">
        <ele>1171.02</ele>
        <time>2015-06-28T07:06:34Z</time>
      </trkpt>
      <trkpt lat="46.16038" lon="6.67208">
        <ele>1170.06</ele>
        <time>2015-06-28T07:06:37Z</time>
      </trkpt>
      <trkpt lat="46.16057" lon="6.67209">
        <ele>1170.54</ele>
        <time>2015-06-28T07:06:41Z</time>
      </trkpt>
      <trkpt lat="46.16098" lon="6.67242">
        <ele>1168.14</ele>
        <time>2015-06-28T07:06:47Z</time>
      </trkpt>
      <trkpt lat="46.16139" lon="6.67283">
        <ele>1165.26</ele>
        <time>2015-06-28T07:06:53Z</time>
      </trkpt>
      <trkpt lat="46.16179" lon="6.67323">
        <ele>1164.77</ele>
        <time>2015-06-28T07:06:59Z</time>
      </trkpt>
      <trkpt lat="46.16213" lon="6.67337">
        <ele>1164.77</ele>
        <time>2015-06-28T07:07:04Z</time>
      </trkpt>
      <trkpt lat="46.16246" lon="6.67338">
        <ele>1163.81</ele>
        <time>2015-06-28T07:07:09Z</time>
      </trkpt>
      <trkpt lat="46.16272" lon="6.67348">
        <ele>1162.85</ele>
        <time>2015-06-28T07:07:13Z</time>
      </trkpt>
      <trkpt lat="46.16387" lon="6.67459">
        <ele>1159.01</ele>
        <time>2015-06-28T07:07:31Z</time>
      </trkpt>
      <trkpt lat="46.16523" lon="6.67543">
        <ele>1152.28</ele>
        <time>2015-06-28T07:07:48Z</time>
      </trkpt>
      <trkpt lat="46.1661" lon="6.67623">
        <ele>1147.47</ele>
        <time>2015-06-28T07:07:59Z</time>
      </trkpt>
      <trkpt lat="46.16618" lon="6.6763">
        <ele>1146.99</ele>
        <time>2015-06-28T07:08:00Z</time>
      </trkpt>
      <trkpt lat="46.1668" lon="6.67661">
        <ele>1143.63</ele>
        <time>2015-06-28T07:08:07Z</time>
      </trkpt>
      <trkpt lat="46.16815" lon="6.67744">
        <ele>1142.18</ele>
        <time>2015-06-28T07:08:23Z</time>
      </trkpt>
      <trkpt lat="46.16958" lon="6.67833">
        <ele>1140.26</ele>
        <time>2015-06-28T07:08:43Z</time>
      </trkpt>
      <trkpt lat="46.17059" lon="6.67865">
        <ele>1139.3</ele>
        <time>2015-06-28T07:08:57Z</time>
      </trkpt>
      <trkpt lat="46.17152" lon="6.67956">
        <ele>1135.45</ele>
        <time>2015-06-28T07:09:11Z</time>
      </trkpt>
      <trkpt lat="46.17224" lon="6.68035">
        <ele>1135.94</ele>
        <time>2015-06-28T07:09:23Z</time>
      </trkpt>
      <trkpt lat="46.17244" lon="6.68048">
        <ele>1136.42</ele>
        <time>2015-06-28T07:09:26Z</time>
      </trkpt>
      <trkpt lat="46.17273" lon="6.6806">
        <ele>1135.45</ele>
        <time>2015-06-28T07:09:30Z</time>
      </trkpt>
      <trkpt lat="46.17316" lon="6.68066">
        <ele>1135.94</ele>
        <time>2015-06-28T07:09:35Z</time>
      </trkpt>
      <trkpt lat="46.17377" lon="6.68076">
        <ele>1132.09</ele>
        <time>2015-06-28T07:09:43Z</time>
      </trkpt>
      <trkpt lat="46.17442" lon="6.68122">
        <ele>1133.05</ele>
        <time>2015-06-28T07:09:52Z</time>
      </trkpt>
      <trkpt lat="46.17538" lon="6.68155">
        <ele>1128.73</ele>
        <time>2015-06-28T07:10:05Z</time>
      </trkpt>
      <trkpt lat="46.17572" lon="6.68151">
        <ele>1130.65</ele>
        <time>2015-06-28T07:10:10Z</time>
      </trkpt>
      <trkpt lat="46.17591" lon="6.68136">
        <ele>1130.65</ele>
        <time>2015-06-28T07:10:13Z</time>
      </trkpt>
      <trkpt lat="46.1765" lon="6.68141">
        <ele>1126.8</ele>
        <time>2015-06-28T07:10:21Z</time>
      </trkpt>
      <trkpt lat="46.17662" lon="6.68157">
        <ele>1126.8</ele>
        <time>2015-06-28T07:10:23Z</time>
      </trkpt>
      <trkpt lat="46.17758" lon="6.68288">
        <ele>1119.11</ele>
        <time>2015-06-28T07:10:38Z</time>
      </trkpt>
      <trkpt lat="46.17794" lon="6.68315">
        <ele>1117.19</ele>
        <time>2015-06-28T07:10:42Z</time>
      </trkpt>
      <trkpt lat="46.17834" lon="6.68327">
        <ele>1116.23</ele>
        <time>2015-06-28T07:10:46Z</time>
      </trkpt>
      <trkpt lat="46.17874" lon="6.68322">
        <ele>1113.82</ele>
        <time>2015-06-28T07:10:50Z</time>
      </trkpt>
      <trkpt lat="46.17912" lon="6.68326">
        <ele>1111.9</ele>
        <time>2015-06-28T07:10:54Z</time>
      </trkpt>
      <trkpt lat="46.17965" lon="6.68343">
        <ele>1106.61</ele>
        <time>2015-06-28T07:10:59Z</time>
      </trkpt>
      <trkpt lat="46.17998" lon="6.68335">
        <ele>1103.73</ele>
        <time>2015-06-28T07:11:02Z</time>
      </trkpt>
      <trkpt lat="46.1804" lon="6.68312">
        <ele>1100.37</ele>
        <time>2015-06-28T07:11:06Z</time>
      </trkpt>
      <trkpt lat="46.18095" lon="6.68294">
        <ele>1096.52</ele>
        <time>2015-06-28T07:11:11Z</time>
      </trkpt>
      <trkpt lat="46.18158" lon="6.68253">
        <ele>1092.68</ele>
        <time>2015-06-28T07:11:17Z</time>
      </trkpt>
      <trkpt lat="46.18202" lon="6.68235">
        <ele>1089.79</ele>
        <time>2015-06-28T07:11:21Z</time>
      </trkpt>
      <trkpt lat="46.18292" lon="6.68149">
        <ele>1083.54</ele>
        <time>2015-06-28T07:11:31Z</time>
      </trkpt>
      <trkpt lat="46.18336" lon="6.68138">
        <ele>1082.58</ele>
        <time>2015-06-28T07:11:35Z</time>
      </trkpt>
      <trkpt lat="46.18391" lon="6.68155">
        <ele>1081.14</ele>
        <time>2015-06-28T07:11:40Z</time>
      </trkpt>
      <trkpt lat="46.18548" lon="6.68249">
        <ele>1072.01</ele>
        <time>2015-06-28T07:11:55Z</time>
      </trkpt>
      <trkpt lat="46.18637" lon="6.6826">
        <ele>1066.24</ele>
        <time>2015-06-28T07:12:03Z</time>
      </trkpt>
      <trkpt lat="46.18766" lon="6.68331">
        <ele>1060.95</ele>
        <time>2015-06-28T07:12:15Z</time>
      </trkpt>
      <trkpt lat="46.18871" lon="6.68409">
        <ele>1057.11</ele>
        <time>2015-06-28T07:12:25Z</time>
      </trkpt>
      <trkpt lat="46.18881" lon="6.68416">
        <ele>1057.11</ele>
        <time>2015-06-28T07:12:26Z</time>
      </trkpt>
      <trkpt lat="46.18901" lon="6.68428">
        <ele>1056.15</ele>
        <time>2015-06-28T07:12:28Z</time>
      </trkpt>
      <trkpt lat="46.18997" lon="6.68496">
        <ele>1056.63</ele>
        <time>2015-06-28T07:12:38Z</time>
      </trkpt>
      <trkpt lat="46.19044" lon="6.68542">
        <ele>1053.26</ele>
        <time>2015-06-28T07:12:43Z</time>
      </trkpt>
      <trkpt lat="46.19063" lon="6.68562">
        <ele>1053.26</ele>
        <time>2015-06-28T07:12:45Z</time>
      </trkpt>
      <trkpt lat="46.19089" lon="6.68636">
        <ele>1053.74</ele>
        <time>2015-06-28T07:12:50Z</time>
      </trkpt>
      <trkpt lat="46.19093" lon="6.68669">
        <ele>1054.22</ele>
        <time>2015-06-28T07:12:52Z</time>
      </trkpt>
      <trkpt lat="46.19097" lon="6.68717">
        <ele>1055.67</ele>
        <time>2015-06-28T07:12:55Z</time>
      </trkpt>
      <trkpt lat="46.19054" lon="6.68821">
        <ele>1057.11</ele>
        <time>2015-06-28T07:13:02Z</time>
      </trkpt>
      <trkpt lat="46.18975" lon="6.68959">
        <ele>1059.99</ele>
        <time>2015-06-28T07:13:12Z</time>
      </trkpt>
      <trkpt lat="46.18874" lon="6.69091">
        <ele>1062.39</ele>
        <time>2015-06-28T07:13:23Z</time>
      </trkpt>
      <trkpt lat="46.18854" lon="6.69106">
        <ele>1062.87</ele>
        <time>2015-06-28T07:13:25Z</time>
      </trkpt>
      <trkpt lat="46.18808" lon="6.69176">
        <ele>1054.22</ele>
        <time>2015-06-28T07:13:32Z</time>
      </trkpt>
      <trkpt lat="46.18745" lon="6.69255">
        <ele>1047.49</ele>
        <time>2015-06-28T07:13:41Z</time>
      </trkpt>
      <trkpt lat="46.18715" lon="6.69286">
        <ele>1044.61</ele>
        <time>2015-06-28T07:13:45Z</time>
      </trkpt>
      <trkpt lat="46.18692" lon="6.69306">
        <ele>1042.69</ele>
        <time>2015-06-28T07:13:48Z</time>
      </trkpt>
      <trkpt lat="46.18652" lon="6.69358">
        <ele>1040.28</ele>
        <time>2015-06-28T07:13:54Z</time>
      </trkpt>
      <trkpt lat="46.18632" lon="6.69382">
        <ele>1038.36</ele>
        <time>2015-06-28T07:13:57Z</time>
      </trkpt>
      <trkpt lat="46.18606" lon="6.69393">
        <ele>1036.44</ele>
        <time>2015-06-28T07:14:00Z</time>
      </trkpt>
      <trkpt lat="46.1858" lon="6.69406">
        <ele>1035</ele>
        <time>2015-06-28T07:14:03Z</time>
      </trkpt>
      <trkpt lat="46.18531" lon="6.69453">
        <ele>1033.55</ele>
        <time>2015-06-28T07:14:09Z</time>
      </trkpt>
      <trkpt lat="46.18459" lon="6.69488">
        <ele>1027.79</ele>
        <time>2015-06-28T07:14:17Z</time>
      </trkpt>
      <trkpt lat="46.18388" lon="6.6959">
        <ele>1022.98</ele>
        <time>2015-06-28T07:14:28Z</time>
      </trkpt>
      <trkpt lat="46.18308" lon="6.69669">
        <ele>1015.29</ele>
        <time>2015-06-28T07:14:38Z</time>
      </trkpt>
      <trkpt lat="46.1827" lon="6.69794">
        <ele>1001.35</ele>
        <time>2015-06-28T07:14:49Z</time>
      </trkpt>
      <trkpt lat="46.18219" lon="6.69914">
        <ele>996.06</ele>
        <time>2015-06-28T07:15:00Z</time>
      </trkpt>
      <trkpt lat="46.18152" lon="6.70045">
        <ele>992.22</ele>
        <time>2015-06-28T07:15:13Z</time>
      </trkpt>
      <trkpt lat="46.18135" lon="6.70097">
        <ele>991.26</ele>
        <time>2015-06-28T07:15:21Z</time>
      </trkpt>
      <trkpt lat="46.18135" lon="6.70099">
        <ele>988.85</ele>
        <time>2015-06-28T07:15:33Z</time>
      </trkpt>
      <trkpt lat="46.18136" lon="6.70101">
        <ele>985.97</ele>
        <time>2015-06-28T07:16:10Z</time>
      </trkpt>
      <trkpt lat="46.18141" lon="6.70115">
        <ele>986.45</ele>
        <time>2015-06-28T07:16:14Z</time>
      </trkpt>
      <trkpt lat="46.1814" lon="6.70176">
        <ele>984.53</ele>
        <time>2015-06-28T07:16:23Z</time>
      </trkpt>
      <trkpt lat="46.18157" lon="6.70212">
        <ele>981.16</ele>
        <time>2015-06-28T07:16:30Z</time>
      </trkpt>
      <trkpt lat="46.18206" lon="6.7029">
        <ele>981.16</ele>
        <time>2015-06-28T07:16:46Z</time>
      </trkpt>
      <trkpt lat="46.18221" lon="6.70322">
        <ele>978.76</ele>
        <time>2015-06-28T07:16:55Z</time>
      </trkpt>
      <trkpt lat="46.18199" lon="6.70341">
        <ele>978.28</ele>
        <time>2015-06-28T07:17:03Z</time>
      </trkpt>
      <trkpt lat="46.18196" lon="6.70344">
        <ele>979.72</ele>
        <time>2015-06-28T07:17:04Z</time>
      </trkpt>
      <trkpt lat="46.18172" lon="6.70391">
        <ele>982.6</ele>
        <time>2015-06-28T07:17:20Z</time>
      </trkpt>
      <trkpt lat="46.1815" lon="6.70416">
        <ele>984.05</ele>
        <time>2015-06-28T07:17:33Z</time>
      </trkpt>
      <trkpt lat="46.1814" lon="6.70433">
        <ele>984.53</ele>
        <time>2015-06-28T07:17:44Z</time>
      </trkpt>
      <trkpt lat="46.18138" lon="6.70446">
        <ele>984.53</ele>
        <time>2015-06-28T07:17:50Z</time>
      </trkpt>
      <trkpt lat="46.18138" lon="6.70451">
        <ele>984.53</ele>
        <time>2015-06-28T07:17:52Z</time>
      </trkpt>
      <trkpt lat="46.18135" lon="6.70445">
        <ele>984.05</ele>
        <time>2015-06-28T07:17:58Z</time>
      </trkpt>
      <trkpt lat="46.18151" lon="6.70411">
        <ele>983.09</ele>
        <time>2015-06-28T07:18:15Z</time>
      </trkpt>
      <trkpt lat="46.18167" lon="6.70396">
        <ele>982.6</ele>
        <time>2015-06-28T07:18:41Z</time>
      </trkpt>
      <trkpt lat="46.18177" lon="6.70383">
        <ele>982.6</ele>
        <time>2015-06-28T07:18:45Z</time>
      </trkpt>
      <trkpt lat="46.18191" lon="6.70367">
        <ele>982.12</ele>
        <time>2015-06-28T07:18:49Z</time>
      </trkpt>
      <trkpt lat="46.18201" lon="6.70348">
        <ele>981.64</ele>
        <time>2015-06-28T07:18:53Z</time>
      </trkpt>
      <trkpt lat="46.18222" lon="6.70323">
        <ele>980.68</ele>
        <time>2015-06-28T07:19:00Z</time>
      </trkpt>
      <trkpt lat="46.18272" lon="6.70247">
        <ele>978.28</ele>
        <time>2015-06-28T07:19:16Z</time>
      </trkpt>
      <trkpt lat="46.18293" lon="6.70239">
        <ele>977.32</ele>
        <time>2015-06-28T07:19:21Z</time>
      </trkpt>
      <trkpt lat="46.18307" lon="6.70267">
        <ele>978.28</ele>
        <time>2015-06-28T07:19:32Z</time>
      </trkpt>
      <trkpt lat="46.18307" lon="6.70268">
        <ele>978.28</ele>
        <time>2015-06-28T07:20:28Z</time>
      </trkpt>
      <trkpt lat="46.18311" lon="6.70274">
        <ele>977.8</ele>
        <time>2015-06-28T07:20:53Z</time>
      </trkpt>
      <trkpt lat="46.18313" lon="6.70277">
        <ele>977.8</ele>
        <time>2015-06-28T07:21:57Z</time>
      </trkpt>
      <trkpt lat="46.18316" lon="6.70281">
        <ele>977.32</ele>
        <time>2015-06-28T07:23:51Z</time>
      </trkpt>
      <trkpt lat="46.18318" lon="6.70284">
        <ele>977.32</ele>
        <time>2015-06-28T07:24:28Z</time>
      </trkpt>
      <trkpt lat="46.18319" lon="6.70288">
        <ele>978.28</ele>
        <time>2015-06-28T07:24:57Z</time>
      </trkpt>
      <trkpt lat="46.1832" lon="6.70292">
        <ele>978.76</ele>
        <time>2015-06-28T07:25:14Z</time>
      </trkpt>
      <trkpt lat="46.18327" lon="6.70295">
        <ele>980.68</ele>
        <time>2015-06-28T07:26:28Z</time>
      </trkpt>
      <trkpt lat="46.18328" lon="6.70299">
        <ele>980.68</ele>
        <time>2015-06-28T07:27:00Z</time>
      </trkpt>
      <trkpt lat="46.18331" lon="6.70306">
        <ele>979.24</ele>
        <time>2015-06-28T07:27:40Z</time>
      </trkpt>
      <trkpt lat="46.18333" lon="6.70311">
        <ele>979.24</ele>
        <time>2015-06-28T07:28:27Z</time>
      </trkpt>
      <trkpt lat="46.18333" lon="6.70312">
        <ele>979.24</ele>
        <time>2015-06-28T07:29:01Z</time>
      </trkpt>
      <trkpt lat="46.18337" lon="6.70312">
        <ele>981.16</ele>
        <time>2015-06-28T07:29:27Z</time>
      </trkpt>
      <trkpt lat="46.18338" lon="6.70313">
        <ele>981.16</ele>
        <time>2015-06-28T07:30:17Z</time>
      </trkpt>
      <trkpt lat="46.1834" lon="6.70315">
        <ele>981.64</ele>
        <time>2015-06-28T07:31:05Z</time>
      </trkpt>
      <trkpt lat="46.18341" lon="6.70321">
        <ele>981.16</ele>
        <time>2015-06-28T07:32:09Z</time>
      </trkpt>
      <trkpt lat="46.18344" lon="6.70324">
        <ele>981.64</ele>
        <time>2015-06-28T07:32:45Z</time>
      </trkpt>
      <trkpt lat="46.18346" lon="6.70328">
        <ele>981.64</ele>
        <time>2015-06-28T07:33:11Z</time>
      </trkpt>
      <trkpt lat="46.18347" lon="6.70331">
        <ele>980.68</ele>
        <time>2015-06-28T07:33:55Z</time>
      </trkpt>
      <trkpt lat="46.18348" lon="6.70333">
        <ele>979.72</ele>
        <time>2015-06-28T07:34:35Z</time>
      </trkpt>
      <trkpt lat="46.18347" lon="6.70336">
        <ele>979.24</ele>
        <time>2015-06-28T07:35:05Z</time>
      </trkpt>
      <trkpt lat="46.18352" lon="6.70333">
        <ele>979.24</ele>
        <time>2015-06-28T07:35:42Z</time>
      </trkpt>
      <trkpt lat="46.18355" lon="6.70333">
        <ele>979.72</ele>
        <time>2015-06-28T07:36:13Z</time>
      </trkpt>
      <trkpt lat="46.18357" lon="6.70333">
        <ele>979.72</ele>
        <time>2015-06-28T07:36:49Z</time>
      </trkpt>
      <trkpt lat="46.18354" lon="6.70342">
        <ele>980.2</ele>
        <time>2015-06-28T07:37:35Z</time>
      </trkpt>
      <trkpt lat="46.18378" lon="6.70377">
        <ele>983.57</ele>
        <time>2015-06-28T07:37:59Z</time>
      </trkpt>
      <trkpt lat="46.18428" lon="6.70476">
        <ele>995.1</ele>
        <time>2015-06-28T07:38:20Z</time>
      </trkpt>
      <trkpt lat="46.18499" lon="6.70607">
        <ele>1016.73</ele>
        <time>2015-06-28T07:38:49Z</time>
      </trkpt>
      <trkpt lat="46.18553" lon="6.70708">
        <ele>1053.26</ele>
        <time>2015-06-28T07:39:13Z</time>
      </trkpt>
      <trkpt lat="46.18608" lon="6.70811">
        <ele>1106.13</ele>
        <time>2015-06-28T07:39:39Z</time>
      </trkpt>
      <trkpt lat="46.18653" lon="6.70899">
        <ele>1159.01</ele>
        <time>2015-06-28T07:40:02Z</time>
      </trkpt>
      <trkpt lat="46.18717" lon="6.71023">
        <ele>1225.82</ele>
        <time>2015-06-28T07:40:34Z</time>
      </trkpt>
      <trkpt lat="46.18763" lon="6.71112">
        <ele>1272.92</ele>
        <time>2015-06-28T07:40:57Z</time>
      </trkpt>
      <trkpt lat="46.18819" lon="6.71218">
        <ele>1327.24</ele>
        <time>2015-06-28T07:41:24Z</time>
      </trkpt>
      <trkpt lat="46.18876" lon="6.71323">
        <ele>1359.92</ele>
        <time>2015-06-28T07:41:49Z</time>
      </trkpt>
      <trkpt lat="46.18952" lon="6.71469">
        <ele>1401.74</ele>
        <time>2015-06-28T07:42:23Z</time>
      </trkpt>
      <trkpt lat="46.19034" lon="6.71623">
        <ele>1445.48</ele>
        <time>2015-06-28T07:42:59Z</time>
      </trkpt>
      <trkpt lat="46.19109" lon="6.71765">
        <ele>1473.84</ele>
        <time>2015-06-28T07:43:32Z</time>
      </trkpt>
      <trkpt lat="46.19108" lon="6.7177">
        <ele>1465.67</ele>
        <time>2015-06-28T07:43:41Z</time>
      </trkpt>
      <trkpt lat="46.19105" lon="6.71771">
        <ele>1466.15</ele>
        <time>2015-06-28T07:43:54Z</time>
      </trkpt>
      <trkpt lat="46.19097" lon="6.71828">
        <ele>1470.95</ele>
        <time>2015-06-28T07:44:08Z</time>
      </trkpt>
      <trkpt lat="46.19087" lon="6.71823">
        <ele>1479.13</ele>
        <time>2015-06-28T07:44:13Z</time>
      </trkpt>
      <trkpt lat="46.19059" lon="6.7181">
        <ele>1476.24</ele>
        <time>2015-06-28T07:44:17Z</time>
      </trkpt>
      <trkpt lat="46.19018" lon="6.71776">
        <ele>1469.51</ele>
        <time>2015-06-28T07:44:25Z</time>
      </trkpt>
      <trkpt lat="46.1902" lon="6.71778">
        <ele>1466.15</ele>
        <time>2015-06-28T07:44:33Z</time>
      </trkpt>
      <trkpt lat="46.19018" lon="6.7178">
        <ele>1463.26</ele>
        <time>2015-06-28T07:45:06Z</time>
      </trkpt>
      <trkpt lat="46.19017" lon="6.71786">
        <ele>1461.34</ele>
        <time>2015-06-28T07:45:30Z</time>
      </trkpt>
      <trkpt lat="46.19017" lon="6.7179">
        <ele>1460.86</ele>
        <time>2015-06-28T07:45:52Z</time>
      </trkpt>
      <trkpt lat="46.19017" lon="6.71794">
        <ele>1458.94</ele>
        <time>2015-06-28T07:46:20Z</time>
      </trkpt>
      <trkpt lat="46.19018" lon="6.71796">
        <ele>1457.5</ele>
        <time>2015-06-28T07:46:42Z</time>
      </trkpt>
      <trkpt lat="46.1902" lon="6.718">
        <ele>1457.02</ele>
        <time>2015-06-28T07:47:00Z</time>
      </trkpt>
      <trkpt lat="46.19022" lon="6.71801">
        <ele>1456.05</ele>
        <time>2015-06-28T07:47:39Z</time>
      </trkpt>
      <trkpt lat="46.19023" lon="6.71803">
        <ele>1454.61</ele>
        <time>2015-06-28T07:47:52Z</time>
      </trkpt>
      <trkpt lat="46.19031" lon="6.71812">
        <ele>1455.57</ele>
        <time>2015-06-28T07:48:06Z</time>
      </trkpt>
      <trkpt lat="46.19039" lon="6.71831">
        <ele>1456.53</ele>
        <time>2015-06-28T07:48:18Z</time>
      </trkpt>
      <trkpt lat="46.19066" lon="6.71889">
        <ele>1482.49</ele>
        <time>2015-06-28T07:48:31Z</time>
      </trkpt>
      <trkpt lat="46.19101" lon="6.71969">
        <ele>1503.16</ele>
        <time>2015-06-28T07:48:50Z</time>
      </trkpt>
      <trkpt lat="46.1918" lon="6.72157">
        <ele>1551.71</ele>
        <time>2015-06-28T07:49:32Z</time>
      </trkpt>
      <trkpt lat="46.19235" lon="6.72287">
        <ele>1595.45</ele>
        <time>2015-06-28T07:50:02Z</time>
      </trkpt>
      <trkpt lat="46.19274" lon="6.72381">
        <ele>1619.96</ele>
        <time>2015-06-28T07:50:23Z</time>
      </trkpt>
      <trkpt lat="46.19314" lon="6.72476">
        <ele>1638.7</ele>
        <time>2015-06-28T07:50:44Z</time>
      </trkpt>
      <trkpt lat="46.19397" lon="6.72674">
        <ele>1669.95</ele>
        <time>2015-06-28T07:51:27Z</time>
      </trkpt>
      <trkpt lat="46.19491" lon="6.72898">
        <ele>1707.92</ele>
        <time>2015-06-28T07:52:16Z</time>
      </trkpt>
      <trkpt lat="46.19532" lon="6.72994">
        <ele>1724.74</ele>
        <time>2015-06-28T07:52:37Z</time>
      </trkpt>
      <trkpt lat="46.19608" lon="6.73176">
        <ele>1761.27</ele>
        <time>2015-06-28T07:53:17Z</time>
      </trkpt>
      <trkpt lat="46.19627" lon="6.7322">
        <ele>1763.68</ele>
        <time>2015-06-28T07:53:30Z</time>
      </trkpt>
      <trkpt lat="46.1963" lon="6.73229">
        <ele>1760.79</ele>
        <time>2015-06-28T07:53:39Z</time>
      </trkpt>
      <trkpt lat="46.19628" lon="6.73246">
        <ele>1759.35</ele>
        <time>2015-06-28T07:53:50Z</time>
      </trkpt>
      <trkpt lat="46.19628" lon="6.73248">
        <ele>1760.31</ele>
        <time>2015-06-28T07:56:37Z</time>
      </trkpt>
      <trkpt lat="46.19628" lon="6.73248">
        <ele>1760.31</ele>
        <time>2015-06-28T07:56:42Z</time>
      </trkpt>
      <trkpt lat="46.19629" lon="6.73259">
        <ele>1758.87</ele>
        <time>2015-06-28T07:56:48Z</time>
      </trkpt>
      <trkpt lat="46.19612" lon="6.73325">
        <ele>1756.47</ele>
        <time>2015-06-28T07:57:02Z</time>
      </trkpt>
      <trkpt lat="46.19604" lon="6.73361">
        <ele>1753.58</ele>
        <time>2015-06-28T07:57:06Z</time>
      </trkpt>
      <trkpt lat="46.19613" lon="6.73466">
        <ele>1749.26</ele>
        <time>2015-06-28T07:57:17Z</time>
      </trkpt>
      <trkpt lat="46.19641" lon="6.73556">
        <ele>1753.1</ele>
        <time>2015-06-28T07:57:35Z</time>
      </trkpt>
      <trkpt lat="46.19676" lon="6.73621">
        <ele>1753.1</ele>
        <time>2015-06-28T07:57:50Z</time>
      </trkpt>
      <trkpt lat="46.19732" lon="6.73696">
        <ele>1757.43</ele>
        <time>2015-06-28T07:58:11Z</time>
      </trkpt>
      <trkpt lat="46.1977" lon="6.73759">
        <ele>1758.39</ele>
        <time>2015-06-28T07:58:28Z</time>
      </trkpt>
      <trkpt lat="46.19809" lon="6.73824">
        <ele>1762.23</ele>
        <time>2015-06-28T07:58:45Z</time>
      </trkpt>
      <trkpt lat="46.19828" lon="6.73855">
        <ele>1763.2</ele>
        <time>2015-06-28T07:58:55Z</time>
      </trkpt>
      <trkpt lat="46.1984" lon="6.73885">
        <ele>1761.75</ele>
        <time>2015-06-28T07:59:04Z</time>
      </trkpt>
      <trkpt lat="46.19855" lon="6.73931">
        <ele>1758.39</ele>
        <time>2015-06-28T07:59:16Z</time>
      </trkpt>
      <trkpt lat="46.1988" lon="6.73977">
        <ele>1759.83</ele>
        <time>2015-06-28T07:59:29Z</time>
      </trkpt>
      <trkpt lat="46.19914" lon="6.74022">
        <ele>1760.31</ele>
        <time>2015-06-28T07:59:44Z</time>
      </trkpt>
      <trkpt lat="46.19952" lon="6.74073">
        <ele>1764.16</ele>
        <time>2015-06-28T08:00:02Z</time>
      </trkpt>
      <trkpt lat="46.19994" lon="6.74135">
        <ele>1763.68</ele>
        <time>2015-06-28T08:00:20Z</time>
      </trkpt>
      <trkpt lat="46.19998" lon="6.74144">
        <ele>1763.2</ele>
        <time>2015-06-28T08:00:21Z</time>
      </trkpt>
      <trkpt lat="46.20014" lon="6.74186">
        <ele>1759.83</ele>
        <time>2015-06-28T08:00:25Z</time>
      </trkpt>
      <trkpt lat="46.20048" lon="6.74262">
        <ele>1761.75</ele>
        <time>2015-06-28T08:00:34Z</time>
      </trkpt>
      <trkpt lat="46.20054" lon="6.74274">
        <ele>1763.68</ele>
        <time>2015-06-28T08:00:38Z</time>
      </trkpt>
      <trkpt lat="46.20061" lon="6.74287">
        <ele>1766.56</ele>
        <time>2015-06-28T08:00:43Z</time>
      </trkpt>
      <trkpt lat="46.20071" lon="6.74337">
        <ele>1768.48</ele>
        <time>2015-06-28T08:00:55Z</time>
      </trkpt>
      <trkpt lat="46.20067" lon="6.74409">
        <ele>1765.12</ele>
        <time>2015-06-28T08:01:09Z</time>
      </trkpt>
      <trkpt lat="46.20068" lon="6.74429">
        <ele>1764.16</ele>
        <time>2015-06-28T08:01:11Z</time>
      </trkpt>
      <trkpt lat="46.20075" lon="6.74467">
        <ele>1763.2</ele>
        <time>2015-06-28T08:01:14Z</time>
      </trkpt>
      <trkpt lat="46.20087" lon="6.74527">
        <ele>1760.79</ele>
        <time>2015-06-28T08:01:18Z</time>
      </trkpt>
      <trkpt lat="46.20107" lon="6.74704">
        <ele>1754.54</ele>
        <time>2015-06-28T08:01:29Z</time>
      </trkpt>
      <trkpt lat="46.20111" lon="6.74746">
        <ele>1752.62</ele>
        <time>2015-06-28T08:01:32Z</time>
      </trkpt>
      <trkpt lat="46.20115" lon="6.74813">
        <ele>1753.1</ele>
        <time>2015-06-28T08:01:37Z</time>
      </trkpt>
      <trkpt lat="46.20128" lon="6.74872">
        <ele>1758.39</ele>
        <time>2015-06-28T08:01:46Z</time>
      </trkpt>
      <trkpt lat="46.20135" lon="6.74909">
        <ele>1759.83</ele>
        <time>2015-06-28T08:01:57Z</time>
      </trkpt>
      <trkpt lat="46.20143" lon="6.74947">
        <ele>1762.23</ele>
        <time>2015-06-28T08:02:10Z</time>
      </trkpt>
      <trkpt lat="46.20146" lon="6.74977">
        <ele>1763.68</ele>
        <time>2015-06-28T08:02:19Z</time>
      </trkpt>
      <trkpt lat="46.20152" lon="6.75013">
        <ele>1765.6</ele>
        <time>2015-06-28T08:02:32Z</time>
      </trkpt>
      <trkpt lat="46.20155" lon="6.75037">
        <ele>1767.52</ele>
        <time>2015-06-28T08:02:41Z</time>
      </trkpt>
      <trkpt lat="46.20165" lon="6.75061">
        <ele>1770.89</ele>
        <time>2015-06-28T08:02:50Z</time>
      </trkpt>
      <trkpt lat="46.20176" lon="6.75113">
        <ele>1770.89</ele>
        <time>2015-06-28T08:03:02Z</time>
      </trkpt>
      <trkpt lat="46.2018" lon="6.75124">
        <ele>1770.89</ele>
        <time>2015-06-28T08:03:06Z</time>
      </trkpt>
      <trkpt lat="46.20178" lon="6.75129">
        <ele>1770.89</ele>
        <time>2015-06-28T08:03:22Z</time>
      </trkpt>
      <trkpt lat="46.20178" lon="6.7513">
        <ele>1770.89</ele>
        <time>2015-06-28T08:03:48Z</time>
      </trkpt>
      <trkpt lat="46.20178" lon="6.75129">
        <ele>1772.81</ele>
        <time>2015-06-28T08:06:22Z</time>
      </trkpt>
      <trkpt lat="46.20161" lon="6.75169">
        <ele>1770.41</ele>
        <time>2015-06-28T08:06:29Z</time>
      </trkpt>
      <trkpt lat="46.20155" lon="6.752">
        <ele>1767.04</ele>
        <time>2015-06-28T08:06:32Z</time>
      </trkpt>
      <trkpt lat="46.2015" lon="6.75261">
        <ele>1765.12</ele>
        <time>2015-06-28T08:06:37Z</time>
      </trkpt>
      <trkpt lat="46.20155" lon="6.75339">
        <ele>1765.12</ele>
        <time>2015-06-28T08:06:46Z</time>
      </trkpt>
      <trkpt lat="46.20161" lon="6.75389">
        <ele>1766.08</ele>
        <time>2015-06-28T08:06:57Z</time>
      </trkpt>
      <trkpt lat="46.20166" lon="6.75409">
        <ele>1766.56</ele>
        <time>2015-06-28T08:07:03Z</time>
      </trkpt>
      <trkpt lat="46.20172" lon="6.75442">
        <ele>1770.41</ele>
        <time>2015-06-28T08:07:14Z</time>
      </trkpt>
      <trkpt lat="46.20174" lon="6.75486">
        <ele>1777.61</ele>
        <time>2015-06-28T08:07:27Z</time>
      </trkpt>
      <trkpt lat="46.20171" lon="6.75527">
        <ele>1778.1</ele>
        <time>2015-06-28T08:07:37Z</time>
      </trkpt>
      <trkpt lat="46.20168" lon="6.75549">
        <ele>1778.1</ele>
        <time>2015-06-28T08:07:41Z</time>
      </trkpt>
      <trkpt lat="46.20158" lon="6.75583">
        <ele>1778.1</ele>
        <time>2015-06-28T08:07:45Z</time>
      </trkpt>
      <trkpt lat="46.20126" lon="6.75673">
        <ele>1774.73</ele>
        <time>2015-06-28T08:07:55Z</time>
      </trkpt>
      <trkpt lat="46.20115" lon="6.75696">
        <ele>1773.29</ele>
        <time>2015-06-28T08:07:57Z</time>
      </trkpt>
      <trkpt lat="46.20072" lon="6.75763">
        <ele>1762.23</ele>
        <time>2015-06-28T08:08:04Z</time>
      </trkpt>
      <trkpt lat="46.20056" lon="6.75781">
        <ele>1759.83</ele>
        <time>2015-06-28T08:08:08Z</time>
      </trkpt>
      <trkpt lat="46.20041" lon="6.75796">
        <ele>1758.87</ele>
        <time>2015-06-28T08:08:12Z</time>
      </trkpt>
      <trkpt lat="46.20026" lon="6.75818">
        <ele>1759.35</ele>
        <time>2015-06-28T08:08:16Z</time>
      </trkpt>
      <trkpt lat="46.20016" lon="6.75872">
        <ele>1767.04</ele>
        <time>2015-06-28T08:08:29Z</time>
      </trkpt>
      <trkpt lat="46.20003" lon="6.75927">
        <ele>1768.96</ele>
        <time>2015-06-28T08:08:47Z</time>
      </trkpt>
      <trkpt lat="46.20006" lon="6.75931">
        <ele>1768.96</ele>
        <time>2015-06-28T08:08:49Z</time>
      </trkpt>
      <trkpt lat="46.20015" lon="6.75932">
        <ele>1767.52</ele>
        <time>2015-06-28T08:09:05Z</time>
      </trkpt>
      <trkpt lat="46.20015" lon="6.75932">
        <ele>1767.52</ele>
        <time>2015-06-28T08:09:14Z</time>
      </trkpt>
      <trkpt lat="46.20034" lon="6.75922">
        <ele>1763.2</ele>
        <time>2015-06-28T08:09:24Z</time>
      </trkpt>
      <trkpt lat="46.20039" lon="6.75933">
        <ele>1760.79</ele>
        <time>2015-06-28T08:09:28Z</time>
      </trkpt>
      <trkpt lat="46.20035" lon="6.75949">
        <ele>1758.87</ele>
        <time>2015-06-28T08:09:31Z</time>
      </trkpt>
      <trkpt lat="46.20017" lon="6.75991">
        <ele>1751.66</ele>
        <time>2015-06-28T08:09:39Z</time>
      </trkpt>
      <trkpt lat="46.20023" lon="6.76001">
        <ele>1747.81</ele>
        <time>2015-06-28T08:09:42Z</time>
      </trkpt>
      <trkpt lat="46.20036" lon="6.75996">
        <ele>1743.49</ele>
        <time>2015-06-28T08:09:46Z</time>
      </trkpt>
      <trkpt lat="46.20037" lon="6.76022">
        <ele>1736.28</ele>
        <time>2015-06-28T08:09:54Z</time>
      </trkpt>
      <trkpt lat="46.20053" lon="6.76038">
        <ele>1730.51</ele>
        <time>2015-06-28T08:09:59Z</time>
      </trkpt>
      <trkpt lat="46.20062" lon="6.76046">
        <ele>1728.59</ele>
        <time>2015-06-28T08:10:01Z</time>
      </trkpt>
      <trkpt lat="46.20066" lon="6.76082">
        <ele>1723.3</ele>
        <time>2015-06-28T08:10:09Z</time>
      </trkpt>
      <trkpt lat="46.20064" lon="6.76091">
        <ele>1722.34</ele>
        <time>2015-06-28T08:10:11Z</time>
      </trkpt>
      <trkpt lat="46.20069" lon="6.76118">
        <ele>1719.46</ele>
        <time>2015-06-28T08:10:16Z</time>
      </trkpt>
      <trkpt lat="46.20061" lon="6.76148">
        <ele>1715.13</ele>
        <time>2015-06-28T08:10:26Z</time>
      </trkpt>
      <trkpt lat="46.20057" lon="6.7617">
        <ele>1713.69</ele>
        <time>2015-06-28T08:10:34Z</time>
      </trkpt>
      <trkpt lat="46.20052" lon="6.76194">
        <ele>1712.25</ele>
        <time>2015-06-28T08:10:37Z</time>
      </trkpt>
      <trkpt lat="46.20049" lon="6.76225">
        <ele>1709.84</ele>
        <time>2015-06-28T08:10:41Z</time>
      </trkpt>
      <trkpt lat="46.20056" lon="6.76252">
        <ele>1709.36</ele>
        <time>2015-06-28T08:10:46Z</time>
      </trkpt>
      <trkpt lat="46.20059" lon="6.76314">
        <ele>1708.4</ele>
        <time>2015-06-28T08:10:55Z</time>
      </trkpt>
      <trkpt lat="46.20059" lon="6.76341">
        <ele>1706.48</ele>
        <time>2015-06-28T08:10:59Z</time>
      </trkpt>
      <trkpt lat="46.20061" lon="6.76368">
        <ele>1705.52</ele>
        <time>2015-06-28T08:11:03Z</time>
      </trkpt>
      <trkpt lat="46.20065" lon="6.76402">
        <ele>1706</ele>
        <time>2015-06-28T08:11:10Z</time>
      </trkpt>
      <trkpt lat="46.20084" lon="6.76432">
        <ele>1707.44</ele>
        <time>2015-06-28T08:11:16Z</time>
      </trkpt>
      <trkpt lat="46.2008" lon="6.76452">
        <ele>1704.07</ele>
        <time>2015-06-28T08:11:19Z</time>
      </trkpt>
      <trkpt lat="46.20079" lon="6.76487">
        <ele>1702.15</ele>
        <time>2015-06-28T08:11:24Z</time>
      </trkpt>
      <trkpt lat="46.20087" lon="6.76501">
        <ele>1699.27</ele>
        <time>2015-06-28T08:11:30Z</time>
      </trkpt>
      <trkpt lat="46.20095" lon="6.76504">
        <ele>1693.02</ele>
        <time>2015-06-28T08:11:33Z</time>
      </trkpt>
      <trkpt lat="46.20096" lon="6.76499">
        <ele>1690.62</ele>
        <time>2015-06-28T08:11:51Z</time>
      </trkpt>
      <trkpt lat="46.20098" lon="6.765">
        <ele>1691.1</ele>
        <time>2015-06-28T08:12:25Z</time>
      </trkpt>
      <trkpt lat="46.201" lon="6.76498">
        <ele>1691.1</ele>
        <time>2015-06-28T08:12:57Z</time>
      </trkpt>
      <trkpt lat="46.20101" lon="6.76492">
        <ele>1690.62</ele>
        <time>2015-06-28T08:13:00Z</time>
      </trkpt>
      <trkpt lat="46.20099" lon="6.76491">
        <ele>1691.1</ele>
        <time>2015-06-28T08:13:05Z</time>
      </trkpt>
      <trkpt lat="46.20104" lon="6.76493">
        <ele>1689.17</ele>
        <time>2015-06-28T08:13:15Z</time>
      </trkpt>
      <trkpt lat="46.20104" lon="6.76493">
        <ele>1689.65</ele>
        <time>2015-06-28T08:13:23Z</time>
      </trkpt>
      <trkpt lat="46.201" lon="6.7651">
        <ele>1689.65</ele>
        <time>2015-06-28T08:13:32Z</time>
      </trkpt>
      <trkpt lat="46.20123" lon="6.76553">
        <ele>1686.29</ele>
        <time>2015-06-28T08:13:39Z</time>
      </trkpt>
      <trkpt lat="46.20133" lon="6.76579">
        <ele>1682.93</ele>
        <time>2015-06-28T08:13:45Z</time>
      </trkpt>
      <trkpt lat="46.20127" lon="6.76598">
        <ele>1681.48</ele>
        <time>2015-06-28T08:13:48Z</time>
      </trkpt>
      <trkpt lat="46.20116" lon="6.76668">
        <ele>1674.75</ele>
        <time>2015-06-28T08:13:57Z</time>
      </trkpt>
      <trkpt lat="46.20117" lon="6.76671">
        <ele>1673.79</ele>
        <time>2015-06-28T08:13:58Z</time>
      </trkpt>
      <trkpt lat="46.20107" lon="6.76709">
        <ele>1668.02</ele>
        <time>2015-06-28T08:14:03Z</time>
      </trkpt>
      <trkpt lat="46.20101" lon="6.76738">
        <ele>1664.66</ele>
        <time>2015-06-28T08:14:07Z</time>
      </trkpt>
      <trkpt lat="46.20103" lon="6.76776">
        <ele>1661.3</ele>
        <time>2015-06-28T08:14:12Z</time>
      </trkpt>
      <trkpt lat="46.201" lon="6.76804">
        <ele>1658.89</ele>
        <time>2015-06-28T08:14:16Z</time>
      </trkpt>
      <trkpt lat="46.20103" lon="6.7683">
        <ele>1655.53</ele>
        <time>2015-06-28T08:14:22Z</time>
      </trkpt>
      <trkpt lat="46.20111" lon="6.76816">
        <ele>1654.57</ele>
        <time>2015-06-28T08:14:24Z</time>
      </trkpt>
      <trkpt lat="46.20128" lon="6.76826">
        <ele>1651.68</ele>
        <time>2015-06-28T08:14:30Z</time>
      </trkpt>
      <trkpt lat="46.20147" lon="6.76853">
        <ele>1650.24</ele>
        <time>2015-06-28T08:14:35Z</time>
      </trkpt>
      <trkpt lat="46.20158" lon="6.76872">
        <ele>1647.84</ele>
        <time>2015-06-28T08:14:39Z</time>
      </trkpt>
      <trkpt lat="46.2017" lon="6.76873">
        <ele>1644.95</ele>
        <time>2015-06-28T08:14:42Z</time>
      </trkpt>
      <trkpt lat="46.20193" lon="6.76873">
        <ele>1643.99</ele>
        <time>2015-06-28T08:14:46Z</time>
      </trkpt>
      <trkpt lat="46.20222" lon="6.76882">
        <ele>1641.59</ele>
        <time>2015-06-28T08:14:51Z</time>
      </trkpt>
      <trkpt lat="46.20236" lon="6.76887">
        <ele>1641.59</ele>
        <time>2015-06-28T08:14:53Z</time>
      </trkpt>
      <trkpt lat="46.20291" lon="6.7688">
        <ele>1642.07</ele>
        <time>2015-06-28T08:15:04Z</time>
      </trkpt>
      <trkpt lat="46.20298" lon="6.76878">
        <ele>1643.51</ele>
        <time>2015-06-28T08:15:08Z</time>
      </trkpt>
      <trkpt lat="46.20303" lon="6.76876">
        <ele>1643.99</ele>
        <time>2015-06-28T08:15:10Z</time>
      </trkpt>
      <trkpt lat="46.20313" lon="6.76875">
        <ele>1643.51</ele>
        <time>2015-06-28T08:15:12Z</time>
      </trkpt>
      <trkpt lat="46.20332" lon="6.76874">
        <ele>1643.99</ele>
        <time>2015-06-28T08:15:16Z</time>
      </trkpt>
      <trkpt lat="46.20348" lon="6.76869">
        <ele>1644.47</ele>
        <time>2015-06-28T08:15:20Z</time>
      </trkpt>
      <trkpt lat="46.20366" lon="6.76862">
        <ele>1647.36</ele>
        <time>2015-06-28T08:15:25Z</time>
      </trkpt>
      <trkpt lat="46.20383" lon="6.76859">
        <ele>1648.32</ele>
        <time>2015-06-28T08:15:29Z</time>
      </trkpt>
      <trkpt lat="46.204" lon="6.76854">
        <ele>1646.88</ele>
        <time>2015-06-28T08:15:33Z</time>
      </trkpt>
      <trkpt lat="46.20422" lon="6.76836">
        <ele>1648.32</ele>
        <time>2015-06-28T08:15:39Z</time>
      </trkpt>
      <trkpt lat="46.20441" lon="6.7683">
        <ele>1644.95</ele>
        <time>2015-06-28T08:15:44Z</time>
      </trkpt>
      <trkpt lat="46.2046" lon="6.76844">
        <ele>1642.55</ele>
        <time>2015-06-28T08:15:47Z</time>
      </trkpt>
      <trkpt lat="46.2048" lon="6.76852">
        <ele>1642.07</ele>
        <time>2015-06-28T08:15:51Z</time>
      </trkpt>
      <trkpt lat="46.20487" lon="6.76853">
        <ele>1641.59</ele>
        <time>2015-06-28T08:15:53Z</time>
      </trkpt>
      <trkpt lat="46.20494" lon="6.76883">
        <ele>1640.63</ele>
        <time>2015-06-28T08:15:57Z</time>
      </trkpt>
      <trkpt lat="46.20503" lon="6.7696">
        <ele>1638.7</ele>
        <time>2015-06-28T08:16:05Z</time>
      </trkpt>
      <trkpt lat="46.205" lon="6.76998">
        <ele>1637.74</ele>
        <time>2015-06-28T08:16:09Z</time>
      </trkpt>
      <trkpt lat="46.205" lon="6.77027">
        <ele>1639.19</ele>
        <time>2015-06-28T08:16:13Z</time>
      </trkpt>
      <trkpt lat="46.2051" lon="6.77059">
        <ele>1639.19</ele>
        <time>2015-06-28T08:16:17Z</time>
      </trkpt>
      <trkpt lat="46.20507" lon="6.77111">
        <ele>1643.03</ele>
        <time>2015-06-28T08:16:22Z</time>
      </trkpt>
      <trkpt lat="46.20502" lon="6.77142">
        <ele>1642.55</ele>
        <time>2015-06-28T08:16:26Z</time>
      </trkpt>
      <trkpt lat="46.20501" lon="6.77173">
        <ele>1642.07</ele>
        <time>2015-06-28T08:16:30Z</time>
      </trkpt>
      <trkpt lat="46.20484" lon="6.77209">
        <ele>1636.3</ele>
        <time>2015-06-28T08:16:40Z</time>
      </trkpt>
      <trkpt lat="46.20491" lon="6.77236">
        <ele>1633.9</ele>
        <time>2015-06-28T08:16:49Z</time>
      </trkpt>
      <trkpt lat="46.20493" lon="6.77239">
        <ele>1633.42</ele>
        <time>2015-06-28T08:16:51Z</time>
      </trkpt>
      <trkpt lat="46.20492" lon="6.7725">
        <ele>1632.46</ele>
        <time>2015-06-28T08:16:55Z</time>
      </trkpt>
      <trkpt lat="46.20477" lon="6.77316">
        <ele>1632.46</ele>
        <time>2015-06-28T08:17:04Z</time>
      </trkpt>
      <trkpt lat="46.20472" lon="6.77326">
        <ele>1630.53</ele>
        <time>2015-06-28T08:17:05Z</time>
      </trkpt>
      <trkpt lat="46.20463" lon="6.77344">
        <ele>1629.09</ele>
        <time>2015-06-28T08:17:07Z</time>
      </trkpt>
      <trkpt lat="46.20452" lon="6.77358">
        <ele>1629.09</ele>
        <time>2015-06-28T08:17:09Z</time>
      </trkpt>
      <trkpt lat="46.20441" lon="6.77374">
        <ele>1628.61</ele>
        <time>2015-06-28T08:17:12Z</time>
      </trkpt>
      <trkpt lat="46.2043" lon="6.77391">
        <ele>1621.88</ele>
        <time>2015-06-28T08:17:15Z</time>
      </trkpt>
      <trkpt lat="46.20393" lon="6.77432">
        <ele>1614.67</ele>
        <time>2015-06-28T08:17:22Z</time>
      </trkpt>
      <trkpt lat="46.20377" lon="6.77458">
        <ele>1608.42</ele>
        <time>2015-06-28T08:17:28Z</time>
      </trkpt>
      <trkpt lat="46.20367" lon="6.77475">
        <ele>1605.06</ele>
        <time>2015-06-28T08:17:31Z</time>
      </trkpt>
      <trkpt lat="46.20363" lon="6.77507">
        <ele>1599.77</ele>
        <time>2015-06-28T08:17:36Z</time>
      </trkpt>
      <trkpt lat="46.20363" lon="6.77551">
        <ele>1589.68</ele>
        <time>2015-06-28T08:17:43Z</time>
      </trkpt>
      <trkpt lat="46.20361" lon="6.77565">
        <ele>1590.16</ele>
        <time>2015-06-28T08:17:45Z</time>
      </trkpt>
      <trkpt lat="46.20365" lon="6.77605">
        <ele>1594.96</ele>
        <time>2015-06-28T08:17:51Z</time>
      </trkpt>
      <trkpt lat="46.20365" lon="6.77605">
        <ele>1594.96</ele>
        <time>2015-06-28T08:19:32Z</time>
      </trkpt>
      <trkpt lat="46.20372" lon="6.77634">
        <ele>1598.81</ele>
        <time>2015-06-28T08:22:52Z</time>
      </trkpt>
      <trkpt lat="46.20383" lon="6.77643">
        <ele>1599.29</ele>
        <time>2015-06-28T08:22:56Z</time>
      </trkpt>
      <trkpt lat="46.20392" lon="6.77666">
        <ele>1598.33</ele>
        <time>2015-06-28T08:23:01Z</time>
      </trkpt>
      <trkpt lat="46.20384" lon="6.77692">
        <ele>1595.45</ele>
        <time>2015-06-28T08:23:05Z</time>
      </trkpt>
      <trkpt lat="46.20359" lon="6.77736">
        <ele>1594.96</ele>
        <time>2015-06-28T08:23:13Z</time>
      </trkpt>
      <trkpt lat="46.20336" lon="6.7778">
        <ele>1594</ele>
        <time>2015-06-28T08:23:23Z</time>
      </trkpt>
      <trkpt lat="46.20334" lon="6.77839">
        <ele>1590.16</ele>
        <time>2015-06-28T08:23:32Z</time>
      </trkpt>
      <trkpt lat="46.20336" lon="6.77845">
        <ele>1589.2</ele>
        <time>2015-06-28T08:23:33Z</time>
      </trkpt>
      <trkpt lat="46.20342" lon="6.779">
        <ele>1588.24</ele>
        <time>2015-06-28T08:23:40Z</time>
      </trkpt>
      <trkpt lat="46.20341" lon="6.77907">
        <ele>1588.24</ele>
        <time>2015-06-28T08:23:42Z</time>
      </trkpt>
      <trkpt lat="46.20332" lon="6.77925">
        <ele>1590.64</ele>
        <time>2015-06-28T08:23:46Z</time>
      </trkpt>
      <trkpt lat="46.20313" lon="6.77931">
        <ele>1592.08</ele>
        <time>2015-06-28T08:23:50Z</time>
      </trkpt>
      <trkpt lat="46.20296" lon="6.77956">
        <ele>1592.08</ele>
        <time>2015-06-28T08:23:55Z</time>
      </trkpt>
      <trkpt lat="46.20291" lon="6.77976">
        <ele>1592.56</ele>
        <time>2015-06-28T08:23:58Z</time>
      </trkpt>
      <trkpt lat="46.20288" lon="6.78039">
        <ele>1592.08</ele>
        <time>2015-06-28T08:24:08Z</time>
      </trkpt>
      <trkpt lat="46.20256" lon="6.78072">
        <ele>1591.12</ele>
        <time>2015-06-28T08:24:16Z</time>
      </trkpt>
      <trkpt lat="46.20236" lon="6.78097">
        <ele>1591.12</ele>
        <time>2015-06-28T08:24:21Z</time>
      </trkpt>
      <trkpt lat="46.20222" lon="6.78135">
        <ele>1589.2</ele>
        <time>2015-06-28T08:24:29Z</time>
      </trkpt>
      <trkpt lat="46.20219" lon="6.78145">
        <ele>1591.12</ele>
        <time>2015-06-28T08:24:31Z</time>
      </trkpt>
      <trkpt lat="46.20211" lon="6.78164">
        <ele>1590.64</ele>
        <time>2015-06-28T08:24:35Z</time>
      </trkpt>
      <trkpt lat="46.20198" lon="6.7819">
        <ele>1591.12</ele>
        <time>2015-06-28T08:24:41Z</time>
      </trkpt>
      <trkpt lat="46.20177" lon="6.78223">
        <ele>1588.72</ele>
        <time>2015-06-28T08:24:49Z</time>
      </trkpt>
      <trkpt lat="46.20167" lon="6.78245">
        <ele>1586.31</ele>
        <time>2015-06-28T08:24:53Z</time>
      </trkpt>
      <trkpt lat="46.20157" lon="6.78258">
        <ele>1584.39</ele>
        <time>2015-06-28T08:24:57Z</time>
      </trkpt>
      <trkpt lat="46.20136" lon="6.7828">
        <ele>1581.51</ele>
        <time>2015-06-28T08:25:02Z</time>
      </trkpt>
      <trkpt lat="46.20122" lon="6.78314">
        <ele>1575.26</ele>
        <time>2015-06-28T08:25:08Z</time>
      </trkpt>
      <trkpt lat="46.20124" lon="6.78311">
        <ele>1571.89</ele>
        <time>2015-06-28T08:25:30Z</time>
      </trkpt>
      <trkpt lat="46.20124" lon="6.78311">
        <ele>1571.89</ele>
        <time>2015-06-28T08:25:33Z</time>
      </trkpt>
      <trkpt lat="46.20138" lon="6.78317">
        <ele>1574.78</ele>
        <time>2015-06-28T08:25:37Z</time>
      </trkpt>
      <trkpt lat="46.2015" lon="6.78312">
        <ele>1574.3</ele>
        <time>2015-06-28T08:25:40Z</time>
      </trkpt>
      <trkpt lat="46.20163" lon="6.783">
        <ele>1573.82</ele>
        <time>2015-06-28T08:25:46Z</time>
      </trkpt>
      <trkpt lat="46.20175" lon="6.78289">
        <ele>1573.82</ele>
        <time>2015-06-28T08:25:49Z</time>
      </trkpt>
      <trkpt lat="46.20209" lon="6.7827">
        <ele>1571.41</ele>
        <time>2015-06-28T08:25:56Z</time>
      </trkpt>
      <trkpt lat="46.2024" lon="6.78242">
        <ele>1566.61</ele>
        <time>2015-06-28T08:26:01Z</time>
      </trkpt>
      <trkpt lat="46.20258" lon="6.78229">
        <ele>1564.2</ele>
        <time>2015-06-28T08:26:05Z</time>
      </trkpt>
      <trkpt lat="46.20266" lon="6.78243">
        <ele>1561.32</ele>
        <time>2015-06-28T08:26:10Z</time>
      </trkpt>
      <trkpt lat="46.2027" lon="6.7825">
        <ele>1557.95</ele>
        <time>2015-06-28T08:26:14Z</time>
      </trkpt>
      <trkpt lat="46.20284" lon="6.78243">
        <ele>1556.51</ele>
        <time>2015-06-28T08:26:16Z</time>
      </trkpt>
      <trkpt lat="46.20309" lon="6.78244">
        <ele>1552.19</ele>
        <time>2015-06-28T08:26:20Z</time>
      </trkpt>
      <trkpt lat="46.20336" lon="6.78261">
        <ele>1548.34</ele>
        <time>2015-06-28T08:26:26Z</time>
      </trkpt>
      <trkpt lat="46.20354" lon="6.78291">
        <ele>1546.42</ele>
        <time>2015-06-28T08:26:31Z</time>
      </trkpt>
      <trkpt lat="46.2038" lon="6.78269">
        <ele>1544.5</ele>
        <time>2015-06-28T08:26:36Z</time>
      </trkpt>
      <trkpt lat="46.20393" lon="6.78257">
        <ele>1544.98</ele>
        <time>2015-06-28T08:26:39Z</time>
      </trkpt>
      <trkpt lat="46.20415" lon="6.78215">
        <ele>1545.94</ele>
        <time>2015-06-28T08:26:46Z</time>
      </trkpt>
      <trkpt lat="46.20444" lon="6.78151">
        <ele>1547.38</ele>
        <time>2015-06-28T08:26:58Z</time>
      </trkpt>
      <trkpt lat="46.20447" lon="6.78136">
        <ele>1546.42</ele>
        <time>2015-06-28T08:27:01Z</time>
      </trkpt>
      <trkpt lat="46.20464" lon="6.7811">
        <ele>1544.5</ele>
        <time>2015-06-28T08:27:06Z</time>
      </trkpt>
      <trkpt lat="46.20501" lon="6.78057">
        <ele>1537.77</ele>
        <time>2015-06-28T08:27:12Z</time>
      </trkpt>
      <trkpt lat="46.20512" lon="6.78037">
        <ele>1535.36</ele>
        <time>2015-06-28T08:27:14Z</time>
      </trkpt>
      <trkpt lat="46.20526" lon="6.78">
        <ele>1530.56</ele>
        <time>2015-06-28T08:27:18Z</time>
      </trkpt>
      <trkpt lat="46.20568" lon="6.77921">
        <ele>1519.5</ele>
        <time>2015-06-28T08:27:25Z</time>
      </trkpt>
      <trkpt lat="46.20594" lon="6.77865">
        <ele>1512.29</ele>
        <time>2015-06-28T08:27:29Z</time>
      </trkpt>
      <trkpt lat="46.20646" lon="6.77795">
        <ele>1507.97</ele>
        <time>2015-06-28T08:27:37Z</time>
      </trkpt>
      <trkpt lat="46.20667" lon="6.77775">
        <ele>1506.04</ele>
        <time>2015-06-28T08:27:41Z</time>
      </trkpt>
      <trkpt lat="46.20683" lon="6.77756">
        <ele>1505.08</ele>
        <time>2015-06-28T08:27:45Z</time>
      </trkpt>
      <trkpt lat="46.20706" lon="6.77726">
        <ele>1502.68</ele>
        <time>2015-06-28T08:27:53Z</time>
      </trkpt>
      <trkpt lat="46.20722" lon="6.77712">
        <ele>1500.76</ele>
        <time>2015-06-28T08:28:00Z</time>
      </trkpt>
      <trkpt lat="46.20732" lon="6.777">
        <ele>1499.79</ele>
        <time>2015-06-28T08:28:05Z</time>
      </trkpt>
      <trkpt lat="46.2074" lon="6.77698">
        <ele>1499.31</ele>
        <time>2015-06-28T08:28:08Z</time>
      </trkpt>
      <trkpt lat="46.20736" lon="6.77695">
        <ele>1498.35</ele>
        <time>2015-06-28T08:28:15Z</time>
      </trkpt>
      <trkpt lat="46.2074" lon="6.77697">
        <ele>1498.83</ele>
        <time>2015-06-28T08:28:21Z</time>
      </trkpt>
      <trkpt lat="46.20755" lon="6.77679">
        <ele>1498.35</ele>
        <time>2015-06-28T08:29:14Z</time>
      </trkpt>
      <trkpt lat="46.20757" lon="6.77678">
        <ele>1498.35</ele>
        <time>2015-06-28T08:29:15Z</time>
      </trkpt>
      <trkpt lat="46.20759" lon="6.77673">
        <ele>1498.35</ele>
        <time>2015-06-28T08:29:27Z</time>
      </trkpt>
      <trkpt lat="46.20758" lon="6.77673">
        <ele>1498.35</ele>
        <time>2015-06-28T08:29:29Z</time>
      </trkpt>
      <trkpt lat="46.2075" lon="6.77666">
        <ele>1498.35</ele>
        <time>2015-06-28T08:29:34Z</time>
      </trkpt>
      <trkpt lat="46.20739" lon="6.77655">
        <ele>1498.35</ele>
        <time>2015-06-28T08:29:38Z</time>
      </trkpt>
      <trkpt lat="46.20723" lon="6.77653">
        <ele>1498.35</ele>
        <time>2015-06-28T08:29:46Z</time>
      </trkpt>
      <trkpt lat="46.20724" lon="6.7766">
        <ele>1499.31</ele>
        <time>2015-06-28T08:30:05Z</time>
      </trkpt>
      <trkpt lat="46.20728" lon="6.77661">
        <ele>1498.83</ele>
        <time>2015-06-28T08:30:23Z</time>
      </trkpt>
      <trkpt lat="46.20737" lon="6.77655">
        <ele>1502.68</ele>
        <time>2015-06-28T08:39:52Z</time>
      </trkpt>
      <trkpt lat="46.20738" lon="6.77655">
        <ele>1502.2</ele>
        <time>2015-06-28T08:39:54Z</time>
      </trkpt>
      <trkpt lat="46.20743" lon="6.77658">
        <ele>1501.72</ele>
        <time>2015-06-28T08:39:59Z</time>
      </trkpt>
      <trkpt lat="46.20752" lon="6.77667">
        <ele>1499.79</ele>
        <time>2015-06-28T08:40:04Z</time>
      </trkpt>
      <trkpt lat="46.20755" lon="6.77669">
        <ele>1499.79</ele>
        <time>2015-06-28T08:40:06Z</time>
      </trkpt>
      <trkpt lat="46.20761" lon="6.77684">
        <ele>1499.31</ele>
        <time>2015-06-28T08:40:16Z</time>
      </trkpt>
      <trkpt lat="46.20758" lon="6.77687">
        <ele>1499.31</ele>
        <time>2015-06-28T08:40:17Z</time>
      </trkpt>
      <trkpt lat="46.20723" lon="6.77715">
        <ele>1500.76</ele>
        <time>2015-06-28T08:40:31Z</time>
      </trkpt>
      <trkpt lat="46.20697" lon="6.77755">
        <ele>1500.76</ele>
        <time>2015-06-28T08:40:45Z</time>
      </trkpt>
      <trkpt lat="46.20686" lon="6.77776">
        <ele>1499.79</ele>
        <time>2015-06-28T08:40:52Z</time>
      </trkpt>
      <trkpt lat="46.20689" lon="6.77785">
        <ele>1498.83</ele>
        <time>2015-06-28T08:41:03Z</time>
      </trkpt>
      <trkpt lat="46.20689" lon="6.77786">
        <ele>1499.31</ele>
        <time>2015-06-28T08:41:31Z</time>
      </trkpt>
      <trkpt lat="46.20691" lon="6.7779">
        <ele>1499.31</ele>
        <time>2015-06-28T08:42:11Z</time>
      </trkpt>
      <trkpt lat="46.20692" lon="6.77792">
        <ele>1499.31</ele>
        <time>2015-06-28T08:43:02Z</time>
      </trkpt>
      <trkpt lat="46.20693" lon="6.77794">
        <ele>1499.79</ele>
        <time>2015-06-28T08:44:10Z</time>
      </trkpt>
      <trkpt lat="46.20695" lon="6.77797">
        <ele>1499.79</ele>
        <time>2015-06-28T08:44:42Z</time>
      </trkpt>
      <trkpt lat="46.20696" lon="6.77799">
        <ele>1499.79</ele>
        <time>2015-06-28T08:45:10Z</time>
      </trkpt>
      <trkpt lat="46.20695" lon="6.77801">
        <ele>1499.31</ele>
        <time>2015-06-28T08:45:43Z</time>
      </trkpt>
      <trkpt lat="46.20696" lon="6.77807">
        <ele>1499.31</ele>
        <time>2015-06-28T08:46:14Z</time>
      </trkpt>
      <trkpt lat="46.20698" lon="6.7781">
        <ele>1498.83</ele>
        <time>2015-06-28T08:46:43Z</time>
      </trkpt>
      <trkpt lat="46.207" lon="6.77813">
        <ele>1499.79</ele>
        <time>2015-06-28T08:47:22Z</time>
      </trkpt>
      <trkpt lat="46.20701" lon="6.77814">
        <ele>1500.27</ele>
        <time>2015-06-28T08:47:48Z</time>
      </trkpt>
      <trkpt lat="46.20703" lon="6.77818">
        <ele>1500.27</ele>
        <time>2015-06-28T08:48:52Z</time>
      </trkpt>
      <trkpt lat="46.20706" lon="6.77826">
        <ele>1500.76</ele>
        <time>2015-06-28T08:49:10Z</time>
      </trkpt>
      <trkpt lat="46.20715" lon="6.77852">
        <ele>1501.24</ele>
        <time>2015-06-28T08:49:23Z</time>
      </trkpt>
      <trkpt lat="46.20743" lon="6.77922">
        <ele>1520.94</ele>
        <time>2015-06-28T08:49:40Z</time>
      </trkpt>
      <trkpt lat="46.20792" lon="6.78046">
        <ele>1552.19</ele>
        <time>2015-06-28T08:50:10Z</time>
      </trkpt>
      <trkpt lat="46.20835" lon="6.78157">
        <ele>1578.14</ele>
        <time>2015-06-28T08:50:37Z</time>
      </trkpt>
      <trkpt lat="46.20902" lon="6.78331">
        <ele>1643.99</ele>
        <time>2015-06-28T08:51:21Z</time>
      </trkpt>
      <trkpt lat="46.2095" lon="6.78454">
        <ele>1705.52</ele>
        <time>2015-06-28T08:51:54Z</time>
      </trkpt>
      <trkpt lat="46.21008" lon="6.78603">
        <ele>1779.54</ele>
        <time>2015-06-28T08:52:34Z</time>
      </trkpt>
      <trkpt lat="46.21062" lon="6.78742">
        <ele>1829.53</ele>
        <time>2015-06-28T08:53:09Z</time>
      </trkpt>
      <trkpt lat="46.21135" lon="6.78929">
        <ele>1894.9</ele>
        <time>2015-06-28T08:53:56Z</time>
      </trkpt>
      <trkpt lat="46.21174" lon="6.7903">
        <ele>1921.33</ele>
        <time>2015-06-28T08:54:22Z</time>
      </trkpt>
      <trkpt lat="46.21176" lon="6.79035">
        <ele>1920.85</ele>
        <time>2015-06-28T08:54:33Z</time>
      </trkpt>
      <trkpt lat="46.21179" lon="6.79047">
        <ele>1918.45</ele>
        <time>2015-06-28T08:54:45Z</time>
      </trkpt>
      <trkpt lat="46.21179" lon="6.79048">
        <ele>1918.45</ele>
        <time>2015-06-28T08:55:09Z</time>
      </trkpt>
      <trkpt lat="46.21179" lon="6.79048">
        <ele>1918.45</ele>
        <time>2015-06-28T08:55:17Z</time>
      </trkpt>
      <trkpt lat="46.2119" lon="6.79039">
        <ele>1920.85</ele>
        <time>2015-06-28T08:55:24Z</time>
      </trkpt>
      <trkpt lat="46.21227" lon="6.79028">
        <ele>1920.85</ele>
        <time>2015-06-28T08:55:33Z</time>
      </trkpt>
      <trkpt lat="46.21257" lon="6.78999">
        <ele>1919.89</ele>
        <time>2015-06-28T08:55:42Z</time>
      </trkpt>
      <trkpt lat="46.21262" lon="6.7899">
        <ele>1920.37</ele>
        <time>2015-06-28T08:55:47Z</time>
      </trkpt>
      <trkpt lat="46.21263" lon="6.78986">
        <ele>1920.37</ele>
        <time>2015-06-28T08:55:51Z</time>
      </trkpt>
      <trkpt lat="46.21271" lon="6.78948">
        <ele>1921.33</ele>
        <time>2015-06-28T08:56:08Z</time>
      </trkpt>
      <trkpt lat="46.21282" lon="6.78914">
        <ele>1920.85</ele>
        <time>2015-06-28T08:56:22Z</time>
      </trkpt>
      <trkpt lat="46.21289" lon="6.78894">
        <ele>1919.41</ele>
        <time>2015-06-28T08:56:26Z</time>
      </trkpt>
      <trkpt lat="46.21313" lon="6.78849">
        <ele>1918.45</ele>
        <time>2015-06-28T08:56:32Z</time>
      </trkpt>
      <trkpt lat="46.21333" lon="6.78825">
        <ele>1918.45</ele>
        <time>2015-06-28T08:56:40Z</time>
      </trkpt>
      <trkpt lat="46.21327" lon="6.78831">
        <ele>1917.97</ele>
        <time>2015-06-28T08:56:43Z</time>
      </trkpt>
      <trkpt lat="46.21322" lon="6.78836">
        <ele>1917.97</ele>
        <time>2015-06-28T08:56:47Z</time>
      </trkpt>
      <trkpt lat="46.21315" lon="6.78855">
        <ele>1916.53</ele>
        <time>2015-06-28T08:57:00Z</time>
      </trkpt>
      <trkpt lat="46.21319" lon="6.78853">
        <ele>1916.04</ele>
        <time>2015-06-28T08:57:02Z</time>
      </trkpt>
      <trkpt lat="46.21325" lon="6.78842">
        <ele>1917.01</ele>
        <time>2015-06-28T08:57:09Z</time>
      </trkpt>
      <trkpt lat="46.21331" lon="6.78834">
        <ele>1917.49</ele>
        <time>2015-06-28T08:57:14Z</time>
      </trkpt>
      <trkpt lat="46.21361" lon="6.78779">
        <ele>1914.6</ele>
        <time>2015-06-28T08:57:28Z</time>
      </trkpt>
      <trkpt lat="46.21375" lon="6.78751">
        <ele>1912.2</ele>
        <time>2015-06-28T08:57:32Z</time>
      </trkpt>
      <trkpt lat="46.21385" lon="6.78721">
        <ele>1910.28</ele>
        <time>2015-06-28T08:57:35Z</time>
      </trkpt>
      <trkpt lat="46.21406" lon="6.78684">
        <ele>1908.83</ele>
        <time>2015-06-28T08:57:39Z</time>
      </trkpt>
      <trkpt lat="46.21427" lon="6.78664">
        <ele>1906.43</ele>
        <time>2015-06-28T08:57:42Z</time>
      </trkpt>
      <trkpt lat="46.21484" lon="6.78592">
        <ele>1896.82</ele>
        <time>2015-06-28T08:57:49Z</time>
      </trkpt>
      <trkpt lat="46.2152" lon="6.78565">
        <ele>1903.07</ele>
        <time>2015-06-28T08:57:53Z</time>
      </trkpt>
      <trkpt lat="46.21554" lon="6.78527">
        <ele>1906.91</ele>
        <time>2015-06-28T08:58:05Z</time>
      </trkpt>
      <trkpt lat="46.21561" lon="6.78516">
        <ele>1907.87</ele>
        <time>2015-06-28T08:58:09Z</time>
      </trkpt>
      <trkpt lat="46.2156" lon="6.7851">
        <ele>1907.39</ele>
        <time>2015-06-28T08:58:13Z</time>
      </trkpt>
      <trkpt lat="46.21602" lon="6.78432">
        <ele>1906.91</ele>
        <time>2015-06-28T08:58:27Z</time>
      </trkpt>
      <trkpt lat="46.21612" lon="6.78413">
        <ele>1906.43</ele>
        <time>2015-06-28T08:58:30Z</time>
      </trkpt>
      <trkpt lat="46.21623" lon="6.78367">
        <ele>1905.95</ele>
        <time>2015-06-28T08:58:36Z</time>
      </trkpt>
      <trkpt lat="46.2163" lon="6.78311">
        <ele>1906.43</ele>
        <time>2015-06-28T08:58:43Z</time>
      </trkpt>
      <trkpt lat="46.21631" lon="6.78275">
        <ele>1906.91</ele>
        <time>2015-06-28T08:58:48Z</time>
      </trkpt>
      <trkpt lat="46.2163" lon="6.78243">
        <ele>1903.55</ele>
        <time>2015-06-28T08:58:52Z</time>
      </trkpt>
      <trkpt lat="46.21629" lon="6.78228">
        <ele>1901.63</ele>
        <time>2015-06-28T08:58:54Z</time>
      </trkpt>
      <trkpt lat="46.2163" lon="6.78174">
        <ele>1900.18</ele>
        <time>2015-06-28T08:59:00Z</time>
      </trkpt>
      <trkpt lat="46.21629" lon="6.78128">
        <ele>1902.11</ele>
        <time>2015-06-28T08:59:08Z</time>
      </trkpt>
      <trkpt lat="46.21651" lon="6.78087">
        <ele>1896.82</ele>
        <time>2015-06-28T08:59:14Z</time>
      </trkpt>
      <trkpt lat="46.21668" lon="6.78048">
        <ele>1892.97</ele>
        <time>2015-06-28T08:59:19Z</time>
      </trkpt>
      <trkpt lat="46.217" lon="6.78">
        <ele>1896.82</ele>
        <time>2015-06-28T08:59:28Z</time>
      </trkpt>
      <trkpt lat="46.21712" lon="6.77992">
        <ele>1894.9</ele>
        <time>2015-06-28T08:59:35Z</time>
      </trkpt>
      <trkpt lat="46.21711" lon="6.77992">
        <ele>1894.9</ele>
        <time>2015-06-28T08:59:52Z</time>
      </trkpt>
      <trkpt lat="46.21714" lon="6.77987">
        <ele>1893.45</ele>
        <time>2015-06-28T08:59:55Z</time>
      </trkpt>
      <trkpt lat="46.21732" lon="6.77973">
        <ele>1891.53</ele>
        <time>2015-06-28T08:59:59Z</time>
      </trkpt>
      <trkpt lat="46.2177" lon="6.77939">
        <ele>1886.24</ele>
        <time>2015-06-28T09:00:05Z</time>
      </trkpt>
      <trkpt lat="46.21792" lon="6.77916">
        <ele>1879.51</ele>
        <time>2015-06-28T09:00:09Z</time>
      </trkpt>
      <trkpt lat="46.21815" lon="6.77896">
        <ele>1876.63</ele>
        <time>2015-06-28T09:00:13Z</time>
      </trkpt>
      <trkpt lat="46.21833" lon="6.77879">
        <ele>1875.19</ele>
        <time>2015-06-28T09:00:17Z</time>
      </trkpt>
      <trkpt lat="46.21865" lon="6.7784">
        <ele>1871.34</ele>
        <time>2015-06-28T09:00:22Z</time>
      </trkpt>
      <trkpt lat="46.21887" lon="6.77825">
        <ele>1872.79</ele>
        <time>2015-06-28T09:00:25Z</time>
      </trkpt>
      <trkpt lat="46.2191" lon="6.77795">
        <ele>1874.23</ele>
        <time>2015-06-28T09:00:30Z</time>
      </trkpt>
      <trkpt lat="46.2191" lon="6.77828">
        <ele>1872.3</ele>
        <time>2015-06-28T09:00:36Z</time>
      </trkpt>
      <trkpt lat="46.21919" lon="6.7785">
        <ele>1870.86</ele>
        <time>2015-06-28T09:00:38Z</time>
      </trkpt>
      <trkpt lat="46.21933" lon="6.77887">
        <ele>1866.54</ele>
        <time>2015-06-28T09:00:42Z</time>
      </trkpt>
      <trkpt lat="46.21946" lon="6.77896">
        <ele>1862.21</ele>
        <time>2015-06-28T09:00:47Z</time>
      </trkpt>
      <trkpt lat="46.21943" lon="6.77866">
        <ele>1856.92</ele>
        <time>2015-06-28T09:00:52Z</time>
      </trkpt>
      <trkpt lat="46.2195" lon="6.77879">
        <ele>1854.52</ele>
        <time>2015-06-28T09:00:54Z</time>
      </trkpt>
      <trkpt lat="46.21982" lon="6.77939">
        <ele>1846.83</ele>
        <time>2015-06-28T09:01:02Z</time>
      </trkpt>
      <trkpt lat="46.21989" lon="6.77964">
        <ele>1844.91</ele>
        <time>2015-06-28T09:01:05Z</time>
      </trkpt>
      <trkpt lat="46.21997" lon="6.77986">
        <ele>1838.18</ele>
        <time>2015-06-28T09:01:11Z</time>
      </trkpt>
      <trkpt lat="46.21997" lon="6.77979">
        <ele>1837.22</ele>
        <time>2015-06-28T09:01:13Z</time>
      </trkpt>
      <trkpt lat="46.21995" lon="6.77941">
        <ele>1833.85</ele>
        <time>2015-06-28T09:01:18Z</time>
      </trkpt>
      <trkpt lat="46.21987" lon="6.77907">
        <ele>1831.93</ele>
        <time>2015-06-28T09:01:23Z</time>
      </trkpt>
      <trkpt lat="46.21987" lon="6.77883">
        <ele>1830.49</ele>
        <time>2015-06-28T09:01:29Z</time>
      </trkpt>
      <trkpt lat="46.22002" lon="6.77895">
        <ele>1827.6</ele>
        <time>2015-06-28T09:01:34Z</time>
      </trkpt>
      <trkpt lat="46.22001" lon="6.77878">
        <ele>1827.6</ele>
        <time>2015-06-28T09:01:36Z</time>
      </trkpt>
      <trkpt lat="46.21995" lon="6.77858">
        <ele>1826.16</ele>
        <time>2015-06-28T09:01:38Z</time>
      </trkpt>
      <trkpt lat="46.21996" lon="6.77846">
        <ele>1818.95</ele>
        <time>2015-06-28T09:01:42Z</time>
      </trkpt>
      <trkpt lat="46.22008" lon="6.7786">
        <ele>1816.55</ele>
        <time>2015-06-28T09:01:44Z</time>
      </trkpt>
      <trkpt lat="46.22038" lon="6.77905">
        <ele>1809.82</ele>
        <time>2015-06-28T09:01:49Z</time>
      </trkpt>
      <trkpt lat="46.22056" lon="6.77938">
        <ele>1806.45</ele>
        <time>2015-06-28T09:01:52Z</time>
      </trkpt>
      <trkpt lat="46.22059" lon="6.77998">
        <ele>1801.17</ele>
        <time>2015-06-28T09:01:57Z</time>
      </trkpt>
      <trkpt lat="46.22052" lon="6.78008">
        <ele>1800.21</ele>
        <time>2015-06-28T09:01:58Z</time>
      </trkpt>
      <trkpt lat="46.22039" lon="6.78026">
        <ele>1799.24</ele>
        <time>2015-06-28T09:02:00Z</time>
      </trkpt>
      <trkpt lat="46.22031" lon="6.78063">
        <ele>1798.28</ele>
        <time>2015-06-28T09:02:04Z</time>
      </trkpt>
      <trkpt lat="46.22028" lon="6.78082">
        <ele>1798.28</ele>
        <time>2015-06-28T09:02:06Z</time>
      </trkpt>
      <trkpt lat="46.22028" lon="6.78112">
        <ele>1797.8</ele>
        <time>2015-06-28T09:02:09Z</time>
      </trkpt>
      <trkpt lat="46.22036" lon="6.7815">
        <ele>1797.8</ele>
        <time>2015-06-28T09:02:13Z</time>
      </trkpt>
      <trkpt lat="46.22041" lon="6.78195">
        <ele>1799.73</ele>
        <time>2015-06-28T09:02:18Z</time>
      </trkpt>
      <trkpt lat="46.22041" lon="6.78213">
        <ele>1797.8</ele>
        <time>2015-06-28T09:02:20Z</time>
      </trkpt>
      <trkpt lat="46.22035" lon="6.78243">
        <ele>1796.84</ele>
        <time>2015-06-28T09:02:23Z</time>
      </trkpt>
      <trkpt lat="46.22031" lon="6.78261">
        <ele>1794.92</ele>
        <time>2015-06-28T09:02:25Z</time>
      </trkpt>
      <trkpt lat="46.22029" lon="6.78281">
        <ele>1793.48</ele>
        <time>2015-06-28T09:02:27Z</time>
      </trkpt>
      <trkpt lat="46.22007" lon="6.78327">
        <ele>1792.03</ele>
        <time>2015-06-28T09:02:32Z</time>
      </trkpt>
      <trkpt lat="46.21983" lon="6.78342">
        <ele>1792.03</ele>
        <time>2015-06-28T09:02:36Z</time>
      </trkpt>
      <trkpt lat="46.21969" lon="6.78357">
        <ele>1791.55</ele>
        <time>2015-06-28T09:02:39Z</time>
      </trkpt>
      <trkpt lat="46.21955" lon="6.78395">
        <ele>1792.52</ele>
        <time>2015-06-28T09:02:43Z</time>
      </trkpt>
      <trkpt lat="46.21959" lon="6.78409">
        <ele>1791.07</ele>
        <time>2015-06-28T09:02:48Z</time>
      </trkpt>
      <trkpt lat="46.21982" lon="6.78391">
        <ele>1786.27</ele>
        <time>2015-06-28T09:02:51Z</time>
      </trkpt>
      <trkpt lat="46.22011" lon="6.78365">
        <ele>1780.98</ele>
        <time>2015-06-28T09:02:56Z</time>
      </trkpt>
      <trkpt lat="46.22034" lon="6.78358">
        <ele>1777.61</ele>
        <time>2015-06-28T09:03:00Z</time>
      </trkpt>
      <trkpt lat="46.22046" lon="6.78342">
        <ele>1773.29</ele>
        <time>2015-06-28T09:03:03Z</time>
      </trkpt>
      <trkpt lat="46.22054" lon="6.78337">
        <ele>1767.52</ele>
        <time>2015-06-28T09:03:07Z</time>
      </trkpt>
      <trkpt lat="46.22063" lon="6.78337">
        <ele>1762.23</ele>
        <time>2015-06-28T09:03:13Z</time>
      </trkpt>
      <trkpt lat="46.22073" lon="6.78316">
        <ele>1758.87</ele>
        <time>2015-06-28T09:03:18Z</time>
      </trkpt>
      <trkpt lat="46.22063" lon="6.78371">
        <ele>1755.02</ele>
        <time>2015-06-28T09:03:23Z</time>
      </trkpt>
      <trkpt lat="46.22038" lon="6.78424">
        <ele>1749.74</ele>
        <time>2015-06-28T09:03:29Z</time>
      </trkpt>
      <trkpt lat="46.22022" lon="6.78462">
        <ele>1745.89</ele>
        <time>2015-06-28T09:03:33Z</time>
      </trkpt>
      <trkpt lat="46.22017" lon="6.78479">
        <ele>1745.41</ele>
        <time>2015-06-28T09:03:35Z</time>
      </trkpt>
      <trkpt lat="46.22003" lon="6.78502">
        <ele>1743.49</ele>
        <time>2015-06-28T09:03:38Z</time>
      </trkpt>
      <trkpt lat="46.21975" lon="6.78516">
        <ele>1742.05</ele>
        <time>2015-06-28T09:03:42Z</time>
      </trkpt>
      <trkpt lat="46.21955" lon="6.7853">
        <ele>1740.12</ele>
        <time>2015-06-28T09:03:47Z</time>
      </trkpt>
      <trkpt lat="46.21909" lon="6.78556">
        <ele>1736.76</ele>
        <time>2015-06-28T09:03:54Z</time>
      </trkpt>
      <trkpt lat="46.2189" lon="6.78571">
        <ele>1735.8</ele>
        <time>2015-06-28T09:03:57Z</time>
      </trkpt>
      <trkpt lat="46.2185" lon="6.78627">
        <ele>1731.95</ele>
        <time>2015-06-28T09:04:04Z</time>
      </trkpt>
      <trkpt lat="46.2183" lon="6.78684">
        <ele>1731.95</ele>
        <time>2015-06-28T09:04:11Z</time>
      </trkpt>
      <trkpt lat="46.21822" lon="6.78701">
        <ele>1730.99</ele>
        <time>2015-06-28T09:04:13Z</time>
      </trkpt>
      <trkpt lat="46.218" lon="6.78735">
        <ele>1727.63</ele>
        <time>2015-06-28T09:04:17Z</time>
      </trkpt>
      <trkpt lat="46.2178" lon="6.78775">
        <ele>1724.74</ele>
        <time>2015-06-28T09:04:21Z</time>
      </trkpt>
      <trkpt lat="46.21749" lon="6.78818">
        <ele>1720.42</ele>
        <time>2015-06-28T09:04:27Z</time>
      </trkpt>
      <trkpt lat="46.2174" lon="6.7887">
        <ele>1716.57</ele>
        <time>2015-06-28T09:04:32Z</time>
      </trkpt>
      <trkpt lat="46.21729" lon="6.78893">
        <ele>1715.13</ele>
        <time>2015-06-28T09:04:35Z</time>
      </trkpt>
      <trkpt lat="46.2174" lon="6.78941">
        <ele>1706.96</ele>
        <time>2015-06-28T09:04:41Z</time>
      </trkpt>
      <trkpt lat="46.21773" lon="6.78977">
        <ele>1701.19</ele>
        <time>2015-06-28T09:04:46Z</time>
      </trkpt>
      <trkpt lat="46.21777" lon="6.79006">
        <ele>1698.31</ele>
        <time>2015-06-28T09:04:50Z</time>
      </trkpt>
      <trkpt lat="46.21768" lon="6.79021">
        <ele>1696.38</ele>
        <time>2015-06-28T09:04:52Z</time>
      </trkpt>
      <trkpt lat="46.21762" lon="6.79036">
        <ele>1696.38</ele>
        <time>2015-06-28T09:04:54Z</time>
      </trkpt>
      <trkpt lat="46.21755" lon="6.7907">
        <ele>1693.98</ele>
        <time>2015-06-28T09:04:58Z</time>
      </trkpt>
      <trkpt lat="46.21739" lon="6.79084">
        <ele>1693.5</ele>
        <time>2015-06-28T09:05:02Z</time>
      </trkpt>
      <trkpt lat="46.21726" lon="6.79079">
        <ele>1693.5</ele>
        <time>2015-06-28T09:05:07Z</time>
      </trkpt>
      <trkpt lat="46.21721" lon="6.79084">
        <ele>1693.5</ele>
        <time>2015-06-28T09:05:17Z</time>
      </trkpt>
      <trkpt lat="46.21718" lon="6.79084">
        <ele>1693.5</ele>
        <time>2015-06-28T09:07:25Z</time>
      </trkpt>
      <trkpt lat="46.21718" lon="6.79084">
        <ele>1693.5</ele>
        <time>2015-06-28T09:07:59Z</time>
      </trkpt>
      <trkpt lat="46.21717" lon="6.79092">
        <ele>1693.5</ele>
        <time>2015-06-28T09:08:02Z</time>
      </trkpt>
      <trkpt lat="46.21713" lon="6.7912">
        <ele>1690.62</ele>
        <time>2015-06-28T09:08:06Z</time>
      </trkpt>
      <trkpt lat="46.21711" lon="6.79131">
        <ele>1689.17</ele>
        <time>2015-06-28T09:08:08Z</time>
      </trkpt>
      <trkpt lat="46.21701" lon="6.79154">
        <ele>1684.85</ele>
        <time>2015-06-28T09:08:12Z</time>
      </trkpt>
      <trkpt lat="46.21691" lon="6.79183">
        <ele>1681.96</ele>
        <time>2015-06-28T09:08:15Z</time>
      </trkpt>
      <trkpt lat="46.21673" lon="6.79229">
        <ele>1676.2</ele>
        <time>2015-06-28T09:08:19Z</time>
      </trkpt>
      <trkpt lat="46.21665" lon="6.79318">
        <ele>1664.66</ele>
        <time>2015-06-28T09:08:26Z</time>
      </trkpt>
      <trkpt lat="46.21712" lon="6.79338">
        <ele>1656.01</ele>
        <time>2015-06-28T09:08:32Z</time>
      </trkpt>
      <trkpt lat="46.21723" lon="6.79327">
        <ele>1654.09</ele>
        <time>2015-06-28T09:08:34Z</time>
      </trkpt>
      <trkpt lat="46.21733" lon="6.79311">
        <ele>1651.68</ele>
        <time>2015-06-28T09:08:36Z</time>
      </trkpt>
      <trkpt lat="46.21783" lon="6.79281">
        <ele>1647.84</ele>
        <time>2015-06-28T09:08:46Z</time>
      </trkpt>
      <trkpt lat="46.21786" lon="6.79278">
        <ele>1647.84</ele>
        <time>2015-06-28T09:08:50Z</time>
      </trkpt>
      <trkpt lat="46.21805" lon="6.7928">
        <ele>1644.95</ele>
        <time>2015-06-28T09:08:59Z</time>
      </trkpt>
      <trkpt lat="46.218" lon="6.79276">
        <ele>1644.95</ele>
        <time>2015-06-28T09:09:08Z</time>
      </trkpt>
      <trkpt lat="46.21798" lon="6.79283">
        <ele>1643.99</ele>
        <time>2015-06-28T09:09:10Z</time>
      </trkpt>
      <trkpt lat="46.21796" lon="6.79284">
        <ele>1642.55</ele>
        <time>2015-06-28T09:09:30Z</time>
      </trkpt>
      <trkpt lat="46.21796" lon="6.79282">
        <ele>1642.55</ele>
        <time>2015-06-28T09:10:11Z</time>
      </trkpt>
      <trkpt lat="46.2182" lon="6.79254">
        <ele>1644.47</ele>
        <time>2015-06-28T09:10:24Z</time>
      </trkpt>
      <trkpt lat="46.21834" lon="6.79225">
        <ele>1646.4</ele>
        <time>2015-06-28T09:10:37Z</time>
      </trkpt>
      <trkpt lat="46.21828" lon="6.79226">
        <ele>1645.91</ele>
        <time>2015-06-28T09:10:45Z</time>
      </trkpt>
      <trkpt lat="46.21836" lon="6.79226">
        <ele>1644.47</ele>
        <time>2015-06-28T09:10:51Z</time>
      </trkpt>
      <trkpt lat="46.21851" lon="6.79215">
        <ele>1643.51</ele>
        <time>2015-06-28T09:11:02Z</time>
      </trkpt>
      <trkpt lat="46.21858" lon="6.79209">
        <ele>1643.51</ele>
        <time>2015-06-28T09:11:14Z</time>
      </trkpt>
      <trkpt lat="46.21859" lon="6.79209">
        <ele>1643.03</ele>
        <time>2015-06-28T09:12:25Z</time>
      </trkpt>
      <trkpt lat="46.21859" lon="6.7921">
        <ele>1643.03</ele>
        <time>2015-06-28T09:12:26Z</time>
      </trkpt>
      <trkpt lat="46.21864" lon="6.79208">
        <ele>1643.99</ele>
        <time>2015-06-28T09:12:29Z</time>
      </trkpt>
      <trkpt lat="46.21905" lon="6.79155">
        <ele>1643.51</ele>
        <time>2015-06-28T09:12:38Z</time>
      </trkpt>
      <trkpt lat="46.21904" lon="6.7916">
        <ele>1642.55</ele>
        <time>2015-06-28T09:12:51Z</time>
      </trkpt>
      <trkpt lat="46.21908" lon="6.79157">
        <ele>1641.59</ele>
        <time>2015-06-28T09:13:19Z</time>
      </trkpt>
      <trkpt lat="46.21913" lon="6.79155">
        <ele>1639.67</ele>
        <time>2015-06-28T09:13:23Z</time>
      </trkpt>
      <trkpt lat="46.21922" lon="6.79159">
        <ele>1638.22</ele>
        <time>2015-06-28T09:13:31Z</time>
      </trkpt>
      <trkpt lat="46.21938" lon="6.79149">
        <ele>1633.9</ele>
        <time>2015-06-28T09:13:42Z</time>
      </trkpt>
      <trkpt lat="46.21946" lon="6.79109">
        <ele>1633.42</ele>
        <time>2015-06-28T09:13:47Z</time>
      </trkpt>
      <trkpt lat="46.21957" lon="6.79091">
        <ele>1631.98</ele>
        <time>2015-06-28T09:13:50Z</time>
      </trkpt>
      <trkpt lat="46.21979" lon="6.79077">
        <ele>1625.25</ele>
        <time>2015-06-28T09:13:56Z</time>
      </trkpt>
      <trkpt lat="46.21989" lon="6.79079">
        <ele>1619.48</ele>
        <time>2015-06-28T09:14:01Z</time>
      </trkpt>
      <trkpt lat="46.21999" lon="6.79089">
        <ele>1616.11</ele>
        <time>2015-06-28T09:14:05Z</time>
      </trkpt>
      <trkpt lat="46.2199" lon="6.79108">
        <ele>1614.19</ele>
        <time>2015-06-28T09:14:07Z</time>
      </trkpt>
      <trkpt lat="46.21991" lon="6.79132">
        <ele>1608.42</ele>
        <time>2015-06-28T09:14:13Z</time>
      </trkpt>
      <trkpt lat="46.21998" lon="6.79117">
        <ele>1606.98</ele>
        <time>2015-06-28T09:14:16Z</time>
      </trkpt>
      <trkpt lat="46.2201" lon="6.79122">
        <ele>1602.66</ele>
        <time>2015-06-28T09:14:20Z</time>
      </trkpt>
      <trkpt lat="46.22012" lon="6.79138">
        <ele>1596.89</ele>
        <time>2015-06-28T09:14:25Z</time>
      </trkpt>
      <trkpt lat="46.22014" lon="6.79138">
        <ele>1595.45</ele>
        <time>2015-06-28T09:14:26Z</time>
      </trkpt>
      <trkpt lat="46.22021" lon="6.7912">
        <ele>1593.52</ele>
        <time>2015-06-28T09:14:28Z</time>
      </trkpt>
      <trkpt lat="46.22028" lon="6.7908">
        <ele>1586.31</ele>
        <time>2015-06-28T09:14:34Z</time>
      </trkpt>
      <trkpt lat="46.22032" lon="6.79106">
        <ele>1582.47</ele>
        <time>2015-06-28T09:14:38Z</time>
      </trkpt>
      <trkpt lat="46.22031" lon="6.79121">
        <ele>1579.58</ele>
        <time>2015-06-28T09:14:40Z</time>
      </trkpt>
      <trkpt lat="46.22036" lon="6.79116">
        <ele>1573.82</ele>
        <time>2015-06-28T09:14:44Z</time>
      </trkpt>
      <trkpt lat="46.22038" lon="6.79101">
        <ele>1572.85</ele>
        <time>2015-06-28T09:14:46Z</time>
      </trkpt>
      <trkpt lat="46.22048" lon="6.79106">
        <ele>1566.61</ele>
        <time>2015-06-28T09:14:51Z</time>
      </trkpt>
      <trkpt lat="46.22044" lon="6.79137">
        <ele>1562.28</ele>
        <time>2015-06-28T09:14:55Z</time>
      </trkpt>
      <trkpt lat="46.22047" lon="6.79131">
        <ele>1560.36</ele>
        <time>2015-06-28T09:14:57Z</time>
      </trkpt>
      <trkpt lat="46.22052" lon="6.79111">
        <ele>1558.43</ele>
        <time>2015-06-28T09:14:59Z</time>
      </trkpt>
      <trkpt lat="46.22063" lon="6.79117">
        <ele>1554.11</ele>
        <time>2015-06-28T09:15:04Z</time>
      </trkpt>
      <trkpt lat="46.22072" lon="6.7912">
        <ele>1546.9</ele>
        <time>2015-06-28T09:15:08Z</time>
      </trkpt>
      <trkpt lat="46.22098" lon="6.79078">
        <ele>1543.05</ele>
        <time>2015-06-28T09:15:13Z</time>
      </trkpt>
      <trkpt lat="46.22123" lon="6.79059">
        <ele>1537.77</ele>
        <time>2015-06-28T09:15:18Z</time>
      </trkpt>
      <trkpt lat="46.22131" lon="6.79035">
        <ele>1532.48</ele>
        <time>2015-06-28T09:15:24Z</time>
      </trkpt>
      <trkpt lat="46.22167" lon="6.79052">
        <ele>1528.15</ele>
        <time>2015-06-28T09:15:29Z</time>
      </trkpt>
      <trkpt lat="46.22178" lon="6.7906">
        <ele>1524.31</ele>
        <time>2015-06-28T09:15:34Z</time>
      </trkpt>
      <trkpt lat="46.22156" lon="6.7908">
        <ele>1519.98</ele>
        <time>2015-06-28T09:15:40Z</time>
      </trkpt>
      <trkpt lat="46.22157" lon="6.79086">
        <ele>1519.5</ele>
        <time>2015-06-28T09:15:41Z</time>
      </trkpt>
      <trkpt lat="46.22149" lon="6.79139">
        <ele>1516.14</ele>
        <time>2015-06-28T09:15:47Z</time>
      </trkpt>
      <trkpt lat="46.2214" lon="6.79171">
        <ele>1511.81</ele>
        <time>2015-06-28T09:15:51Z</time>
      </trkpt>
      <trkpt lat="46.22138" lon="6.79172">
        <ele>1509.41</ele>
        <time>2015-06-28T09:15:55Z</time>
      </trkpt>
      <trkpt lat="46.22147" lon="6.79175">
        <ele>1505.56</ele>
        <time>2015-06-28T09:16:03Z</time>
      </trkpt>
      <trkpt lat="46.22148" lon="6.79173">
        <ele>1505.56</ele>
        <time>2015-06-28T09:16:23Z</time>
      </trkpt>
      <trkpt lat="46.22153" lon="6.79168">
        <ele>1505.56</ele>
        <time>2015-06-28T09:16:50Z</time>
      </trkpt>
      <trkpt lat="46.22154" lon="6.79167">
        <ele>1505.08</ele>
        <time>2015-06-28T09:18:35Z</time>
      </trkpt>
      <trkpt lat="46.22165" lon="6.79159">
        <ele>1502.2</ele>
        <time>2015-06-28T09:18:40Z</time>
      </trkpt>
      <trkpt lat="46.222" lon="6.79144">
        <ele>1496.91</ele>
        <time>2015-06-28T09:18:45Z</time>
      </trkpt>
      <trkpt lat="46.22236" lon="6.79127">
        <ele>1491.62</ele>
        <time>2015-06-28T09:18:50Z</time>
      </trkpt>
      <trkpt lat="46.22255" lon="6.79102">
        <ele>1486.82</ele>
        <time>2015-06-28T09:18:55Z</time>
      </trkpt>
      <trkpt lat="46.22261" lon="6.79101">
        <ele>1481.05</ele>
        <time>2015-06-28T09:19:03Z</time>
      </trkpt>
      <trkpt lat="46.22286" lon="6.79071">
        <ele>1480.09</ele>
        <time>2015-06-28T09:19:12Z</time>
      </trkpt>
      <trkpt lat="46.22291" lon="6.79065">
        <ele>1480.09</ele>
        <time>2015-06-28T09:19:13Z</time>
      </trkpt>
      <trkpt lat="46.22308" lon="6.7905">
        <ele>1480.09</ele>
        <time>2015-06-28T09:19:18Z</time>
      </trkpt>
      <trkpt lat="46.22314" lon="6.79027">
        <ele>1479.13</ele>
        <time>2015-06-28T09:19:22Z</time>
      </trkpt>
      <trkpt lat="46.22318" lon="6.79018">
        <ele>1479.13</ele>
        <time>2015-06-28T09:19:25Z</time>
      </trkpt>
      <trkpt lat="46.22334" lon="6.78994">
        <ele>1482.01</ele>
        <time>2015-06-28T09:19:33Z</time>
      </trkpt>
      <trkpt lat="46.22331" lon="6.78982">
        <ele>1482.01</ele>
        <time>2015-06-28T09:19:35Z</time>
      </trkpt>
      <trkpt lat="46.22326" lon="6.78967">
        <ele>1482.97</ele>
        <time>2015-06-28T09:19:40Z</time>
      </trkpt>
      <trkpt lat="46.22334" lon="6.78977">
        <ele>1482.49</ele>
        <time>2015-06-28T09:19:44Z</time>
      </trkpt>
      <trkpt lat="46.22381" lon="6.78948">
        <ele>1481.05</ele>
        <time>2015-06-28T09:19:51Z</time>
      </trkpt>
      <trkpt lat="46.22386" lon="6.78943">
        <ele>1481.05</ele>
        <time>2015-06-28T09:19:52Z</time>
      </trkpt>
      <trkpt lat="46.22401" lon="6.7893">
        <ele>1480.09</ele>
        <time>2015-06-28T09:19:55Z</time>
      </trkpt>
      <trkpt lat="46.2241" lon="6.78919">
        <ele>1479.61</ele>
        <time>2015-06-28T09:19:57Z</time>
      </trkpt>
      <trkpt lat="46.22426" lon="6.78916">
        <ele>1476.72</ele>
        <time>2015-06-28T09:20:05Z</time>
      </trkpt>
      <trkpt lat="46.22427" lon="6.78917">
        <ele>1476.24</ele>
        <time>2015-06-28T09:20:06Z</time>
      </trkpt>
      <trkpt lat="46.22431" lon="6.78908">
        <ele>1474.32</ele>
        <time>2015-06-28T09:20:10Z</time>
      </trkpt>
      <trkpt lat="46.22444" lon="6.78908">
        <ele>1471.92</ele>
        <time>2015-06-28T09:20:12Z</time>
      </trkpt>
      <trkpt lat="46.22497" lon="6.78862">
        <ele>1466.15</ele>
        <time>2015-06-28T09:20:14Z</time>
      </trkpt>
      <trkpt lat="46.22514" lon="6.78839">
        <ele>1462.3</ele>
        <time>2015-06-28T09:20:17Z</time>
      </trkpt>
      <trkpt lat="46.22527" lon="6.78819">
        <ele>1457.02</ele>
        <time>2015-06-28T09:20:20Z</time>
      </trkpt>
      <trkpt lat="46.2255" lon="6.78806">
        <ele>1450.77</ele>
        <time>2015-06-28T09:20:24Z</time>
      </trkpt>
      <trkpt lat="46.22564" lon="6.78785">
        <ele>1445.48</ele>
        <time>2015-06-28T09:20:29Z</time>
      </trkpt>
      <trkpt lat="46.22586" lon="6.78774">
        <ele>1441.63</ele>
        <time>2015-06-28T09:20:33Z</time>
      </trkpt>
      <trkpt lat="46.2261" lon="6.78767">
        <ele>1437.79</ele>
        <time>2015-06-28T09:20:36Z</time>
      </trkpt>
      <trkpt lat="46.22639" lon="6.78734">
        <ele>1426.25</ele>
        <time>2015-06-28T09:20:44Z</time>
      </trkpt>
      <trkpt lat="46.22641" lon="6.7873">
        <ele>1425.77</ele>
        <time>2015-06-28T09:20:45Z</time>
      </trkpt>
      <trkpt lat="46.22674" lon="6.78691">
        <ele>1422.41</ele>
        <time>2015-06-28T09:20:53Z</time>
      </trkpt>
      <trkpt lat="46.22677" lon="6.78688">
        <ele>1421.45</ele>
        <time>2015-06-28T09:20:54Z</time>
      </trkpt>
      <trkpt lat="46.22701" lon="6.78698">
        <ele>1415.2</ele>
        <time>2015-06-28T09:21:00Z</time>
      </trkpt>
      <trkpt lat="46.22723" lon="6.78703">
        <ele>1406.55</ele>
        <time>2015-06-28T09:21:06Z</time>
      </trkpt>
      <trkpt lat="46.22747" lon="6.78683">
        <ele>1403.18</ele>
        <time>2015-06-28T09:21:12Z</time>
      </trkpt>
      <trkpt lat="46.22761" lon="6.78671">
        <ele>1393.09</ele>
        <time>2015-06-28T09:21:23Z</time>
      </trkpt>
      <trkpt lat="46.22772" lon="6.78663">
        <ele>1386.84</ele>
        <time>2015-06-28T09:21:29Z</time>
      </trkpt>
      <trkpt lat="46.22776" lon="6.78681">
        <ele>1382.03</ele>
        <time>2015-06-28T09:21:35Z</time>
      </trkpt>
      <trkpt lat="46.22777" lon="6.78707">
        <ele>1378.67</ele>
        <time>2015-06-28T09:21:39Z</time>
      </trkpt>
      <trkpt lat="46.22778" lon="6.78694">
        <ele>1372.42</ele>
        <time>2015-06-28T09:21:46Z</time>
      </trkpt>
      <trkpt lat="46.22779" lon="6.78666">
        <ele>1370.02</ele>
        <time>2015-06-28T09:21:49Z</time>
      </trkpt>
      <trkpt lat="46.22775" lon="6.78648">
        <ele>1373.38</ele>
        <time>2015-06-28T09:21:53Z</time>
      </trkpt>
      <trkpt lat="46.22776" lon="6.78687">
        <ele>1372.9</ele>
        <time>2015-06-28T09:21:57Z</time>
      </trkpt>
      <trkpt lat="46.22776" lon="6.78698">
        <ele>1372.9</ele>
        <time>2015-06-28T09:22:01Z</time>
      </trkpt>
      <trkpt lat="46.22778" lon="6.78742">
        <ele>1370.98</ele>
        <time>2015-06-28T09:22:06Z</time>
      </trkpt>
      <trkpt lat="46.22788" lon="6.78722">
        <ele>1369.54</ele>
        <time>2015-06-28T09:22:11Z</time>
      </trkpt>
      <trkpt lat="46.22787" lon="6.78723">
        <ele>1369.54</ele>
        <time>2015-06-28T09:22:12Z</time>
      </trkpt>
      <trkpt lat="46.22798" lon="6.78788">
        <ele>1369.05</ele>
        <time>2015-06-28T09:22:20Z</time>
      </trkpt>
      <trkpt lat="46.22808" lon="6.78817">
        <ele>1368.09</ele>
        <time>2015-06-28T09:22:25Z</time>
      </trkpt>
      <trkpt lat="46.22851" lon="6.78777">
        <ele>1366.17</ele>
        <time>2015-06-28T09:22:32Z</time>
      </trkpt>
      <trkpt lat="46.22883" lon="6.78811">
        <ele>1364.73</ele>
        <time>2015-06-28T09:22:36Z</time>
      </trkpt>
      <trkpt lat="46.22987" lon="6.78843">
        <ele>1362.33</ele>
        <time>2015-06-28T09:22:44Z</time>
      </trkpt>
      <trkpt lat="46.2302" lon="6.78855">
        <ele>1360.4</ele>
        <time>2015-06-28T09:22:49Z</time>
      </trkpt>
      <trkpt lat="46.23024" lon="6.78844">
        <ele>1356.56</ele>
        <time>2015-06-28T09:23:12Z</time>
      </trkpt>
      <trkpt lat="46.23054" lon="6.78812">
        <ele>1345.5</ele>
        <time>2015-06-28T09:32:29Z</time>
      </trkpt>
      <trkpt lat="46.23054" lon="6.78812">
        <ele>1345.02</ele>
        <time>2015-06-28T09:32:58Z</time>
      </trkpt>
      <trkpt lat="46.23061" lon="6.78813">
        <ele>1343.1</ele>
        <time>2015-06-28T09:33:03Z</time>
      </trkpt>
      <trkpt lat="46.23075" lon="6.78838">
        <ele>1338.29</ele>
        <time>2015-06-28T09:33:10Z</time>
      </trkpt>
      <trkpt lat="46.23089" lon="6.7885">
        <ele>1332.52</ele>
        <time>2015-06-28T09:33:18Z</time>
      </trkpt>
      <trkpt lat="46.23149" lon="6.78892">
        <ele>1319.07</ele>
        <time>2015-06-28T09:33:28Z</time>
      </trkpt>
      <trkpt lat="46.23167" lon="6.78912">
        <ele>1316.66</ele>
        <time>2015-06-28T09:33:31Z</time>
      </trkpt>
      <trkpt lat="46.23196" lon="6.78933">
        <ele>1310.9</ele>
        <time>2015-06-28T09:33:38Z</time>
      </trkpt>
      <trkpt lat="46.23207" lon="6.78914">
        <ele>1306.09</ele>
        <time>2015-06-28T09:33:46Z</time>
      </trkpt>
      <trkpt lat="46.23209" lon="6.78915">
        <ele>1305.61</ele>
        <time>2015-06-28T09:34:18Z</time>
      </trkpt>
      <trkpt lat="46.2321" lon="6.7892">
        <ele>1306.09</ele>
        <time>2015-06-28T09:34:36Z</time>
      </trkpt>
      <trkpt lat="46.2321" lon="6.78924">
        <ele>1305.61</ele>
        <time>2015-06-28T09:34:53Z</time>
      </trkpt>
      <trkpt lat="46.23209" lon="6.7892">
        <ele>1305.61</ele>
        <time>2015-06-28T09:35:04Z</time>
      </trkpt>
      <trkpt lat="46.23206" lon="6.78911">
        <ele>1307.05</ele>
        <time>2015-06-28T09:35:24Z</time>
      </trkpt>
      <trkpt lat="46.23208" lon="6.78911">
        <ele>1308.01</ele>
        <time>2015-06-28T09:49:57Z</time>
      </trkpt>
      <trkpt lat="46.2321" lon="6.78906">
        <ele>1308.97</ele>
        <time>2015-06-28T09:50:10Z</time>
      </trkpt>
      <trkpt lat="46.2321" lon="6.78905">
        <ele>1308.97</ele>
        <time>2015-06-28T09:50:27Z</time>
      </trkpt>
      <trkpt lat="46.23213" lon="6.78894">
        <ele>1309.93</ele>
        <time>2015-06-28T09:50:34Z</time>
      </trkpt>
      <trkpt lat="46.23217" lon="6.78894">
        <ele>1308.49</ele>
        <time>2015-06-28T09:50:40Z</time>
      </trkpt>
      <trkpt lat="46.23218" lon="6.78895">
        <ele>1308.01</ele>
        <time>2015-06-28T09:50:42Z</time>
      </trkpt>
      <trkpt lat="46.23229" lon="6.78896">
        <ele>1304.65</ele>
        <time>2015-06-28T09:50:46Z</time>
      </trkpt>
      <trkpt lat="46.23294" lon="6.78918">
        <ele>1298.88</ele>
        <time>2015-06-28T09:50:54Z</time>
      </trkpt>
      <trkpt lat="46.23327" lon="6.78918">
        <ele>1296.96</ele>
        <time>2015-06-28T09:50:58Z</time>
      </trkpt>
      <trkpt lat="46.23364" lon="6.78924">
        <ele>1295.51</ele>
        <time>2015-06-28T09:51:04Z</time>
      </trkpt>
      <trkpt lat="46.23371" lon="6.78927">
        <ele>1294.55</ele>
        <time>2015-06-28T09:51:06Z</time>
      </trkpt>
      <trkpt lat="46.23403" lon="6.78944">
        <ele>1293.11</ele>
        <time>2015-06-28T09:51:12Z</time>
      </trkpt>
      <trkpt lat="46.23424" lon="6.78958">
        <ele>1292.15</ele>
        <time>2015-06-28T09:51:15Z</time>
      </trkpt>
      <trkpt lat="46.23512" lon="6.78998">
        <ele>1287.82</ele>
        <time>2015-06-28T09:51:26Z</time>
      </trkpt>
      <trkpt lat="46.23531" lon="6.79019">
        <ele>1283.98</ele>
        <time>2015-06-28T09:51:31Z</time>
      </trkpt>
      <trkpt lat="46.23535" lon="6.79034">
        <ele>1282.54</ele>
        <time>2015-06-28T09:51:33Z</time>
      </trkpt>
      <trkpt lat="46.2355" lon="6.79065">
        <ele>1282.06</ele>
        <time>2015-06-28T09:51:38Z</time>
      </trkpt>
      <trkpt lat="46.23544" lon="6.79075">
        <ele>1280.61</ele>
        <time>2015-06-28T09:51:43Z</time>
      </trkpt>
      <trkpt lat="46.23541" lon="6.79065">
        <ele>1282.06</ele>
        <time>2015-06-28T09:52:01Z</time>
      </trkpt>
      <trkpt lat="46.23538" lon="6.79058">
        <ele>1282.54</ele>
        <time>2015-06-28T09:52:32Z</time>
      </trkpt>
      <trkpt lat="46.23537" lon="6.79055">
        <ele>1282.54</ele>
        <time>2015-06-28T09:52:57Z</time>
      </trkpt>
      <trkpt lat="46.23535" lon="6.79051">
        <ele>1282.54</ele>
        <time>2015-06-28T09:53:13Z</time>
      </trkpt>
      <trkpt lat="46.23531" lon="6.79053">
        <ele>1283.02</ele>
        <time>2015-06-28T09:53:18Z</time>
      </trkpt>
      <trkpt lat="46.23516" lon="6.79068">
        <ele>1285.42</ele>
        <time>2015-06-28T09:53:24Z</time>
      </trkpt>
      <trkpt lat="46.23504" lon="6.79082">
        <ele>1291.19</ele>
        <time>2015-06-28T09:53:28Z</time>
      </trkpt>
      <trkpt lat="46.23438" lon="6.79161">
        <ele>1319.55</ele>
        <time>2015-06-28T09:53:50Z</time>
      </trkpt>
      <trkpt lat="46.23403" lon="6.79205">
        <ele>1339.25</ele>
        <time>2015-06-28T09:54:03Z</time>
      </trkpt>
      <trkpt lat="46.23352" lon="6.7926">
        <ele>1362.81</ele>
        <time>2015-06-28T09:54:20Z</time>
      </trkpt>
      <trkpt lat="46.23305" lon="6.79321">
        <ele>1411.35</ele>
        <time>2015-06-28T09:54:40Z</time>
      </trkpt>
      <trkpt lat="46.23264" lon="6.79368">
        <ele>1446.92</ele>
        <time>2015-06-28T09:54:56Z</time>
      </trkpt>
      <trkpt lat="46.23217" lon="6.79425">
        <ele>1491.14</ele>
        <time>2015-06-28T09:55:15Z</time>
      </trkpt>
      <trkpt lat="46.23193" lon="6.79469">
        <ele>1539.21</ele>
        <time>2015-06-28T09:55:30Z</time>
      </trkpt>
      <trkpt lat="46.23123" lon="6.79554">
        <ele>1596.41</ele>
        <time>2015-06-28T09:55:57Z</time>
      </trkpt>
      <trkpt lat="46.23077" lon="6.79611">
        <ele>1611.31</ele>
        <time>2015-06-28T09:56:13Z</time>
      </trkpt>
      <trkpt lat="46.23008" lon="6.79695">
        <ele>1636.3</ele>
        <time>2015-06-28T09:56:37Z</time>
      </trkpt>
      <trkpt lat="46.22916" lon="6.79809">
        <ele>1656.49</ele>
        <time>2015-06-28T09:57:09Z</time>
      </trkpt>
      <trkpt lat="46.22744" lon="6.80024">
        <ele>1703.59</ele>
        <time>2015-06-28T09:58:10Z</time>
      </trkpt>
      <trkpt lat="46.22595" lon="6.80209">
        <ele>1779.54</ele>
        <time>2015-06-28T09:59:04Z</time>
      </trkpt>
      <trkpt lat="46.22581" lon="6.80224">
        <ele>1780.02</ele>
        <time>2015-06-28T09:59:13Z</time>
      </trkpt>
      <trkpt lat="46.22577" lon="6.80233">
        <ele>1780.5</ele>
        <time>2015-06-28T09:59:25Z</time>
      </trkpt>
      <trkpt lat="46.22577" lon="6.80237">
        <ele>1781.46</ele>
        <time>2015-06-28T09:59:49Z</time>
      </trkpt>
      <trkpt lat="46.22577" lon="6.80237">
        <ele>1781.46</ele>
        <time>2015-06-28T10:01:01Z</time>
      </trkpt>
      <trkpt lat="46.22582" lon="6.8025">
        <ele>1781.46</ele>
        <time>2015-06-28T10:01:09Z</time>
      </trkpt>
      <trkpt lat="46.22593" lon="6.80295">
        <ele>1782.9</ele>
        <time>2015-06-28T10:01:23Z</time>
      </trkpt>
      <trkpt lat="46.2258" lon="6.80319">
        <ele>1781.46</ele>
        <time>2015-06-28T10:01:31Z</time>
      </trkpt>
      <trkpt lat="46.22593" lon="6.80328">
        <ele>1773.29</ele>
        <time>2015-06-28T10:01:39Z</time>
      </trkpt>
      <trkpt lat="46.22607" lon="6.80324">
        <ele>1771.85</ele>
        <time>2015-06-28T10:01:40Z</time>
      </trkpt>
      <trkpt lat="46.22621" lon="6.80322">
        <ele>1768.48</ele>
        <time>2015-06-28T10:01:42Z</time>
      </trkpt>
      <trkpt lat="46.2265" lon="6.80328">
        <ele>1760.31</ele>
        <time>2015-06-28T10:01:46Z</time>
      </trkpt>
      <trkpt lat="46.22735" lon="6.80307">
        <ele>1742.05</ele>
        <time>2015-06-28T10:01:55Z</time>
      </trkpt>
      <trkpt lat="46.22759" lon="6.8029">
        <ele>1740.6</ele>
        <time>2015-06-28T10:01:58Z</time>
      </trkpt>
      <trkpt lat="46.22763" lon="6.80266">
        <ele>1734.84</ele>
        <time>2015-06-28T10:02:04Z</time>
      </trkpt>
      <trkpt lat="46.22757" lon="6.80264">
        <ele>1734.36</ele>
        <time>2015-06-28T10:02:05Z</time>
      </trkpt>
      <trkpt lat="46.2273" lon="6.8024">
        <ele>1725.7</ele>
        <time>2015-06-28T10:02:11Z</time>
      </trkpt>
      <trkpt lat="46.22728" lon="6.80177">
        <ele>1719.94</ele>
        <time>2015-06-28T10:02:16Z</time>
      </trkpt>
      <trkpt lat="46.22719" lon="6.80145">
        <ele>1719.46</ele>
        <time>2015-06-28T10:02:19Z</time>
      </trkpt>
      <trkpt lat="46.2271" lon="6.80129">
        <ele>1717.53</ele>
        <time>2015-06-28T10:02:21Z</time>
      </trkpt>
      <trkpt lat="46.22707" lon="6.80102">
        <ele>1715.61</ele>
        <time>2015-06-28T10:02:24Z</time>
      </trkpt>
      <trkpt lat="46.22694" lon="6.80062">
        <ele>1712.73</ele>
        <time>2015-06-28T10:02:28Z</time>
      </trkpt>
      <trkpt lat="46.22693" lon="6.79994">
        <ele>1703.59</ele>
        <time>2015-06-28T10:02:34Z</time>
      </trkpt>
      <trkpt lat="46.22681" lon="6.79916">
        <ele>1697.83</ele>
        <time>2015-06-28T10:02:40Z</time>
      </trkpt>
      <trkpt lat="46.22675" lon="6.79896">
        <ele>1695.42</ele>
        <time>2015-06-28T10:02:42Z</time>
      </trkpt>
      <trkpt lat="46.22668" lon="6.79881">
        <ele>1694.46</ele>
        <time>2015-06-28T10:02:44Z</time>
      </trkpt>
      <trkpt lat="46.22673" lon="6.79859">
        <ele>1686.29</ele>
        <time>2015-06-28T10:02:51Z</time>
      </trkpt>
      <trkpt lat="46.22674" lon="6.79846">
        <ele>1683.89</ele>
        <time>2015-06-28T10:03:02Z</time>
      </trkpt>
      <trkpt lat="46.22674" lon="6.79846">
        <ele>1683.89</ele>
        <time>2015-06-28T10:04:11Z</time>
      </trkpt>
      <trkpt lat="46.22691" lon="6.7986">
        <ele>1680.52</ele>
        <time>2015-06-28T10:04:19Z</time>
      </trkpt>
      <trkpt lat="46.22698" lon="6.79886">
        <ele>1677.64</ele>
        <time>2015-06-28T10:04:23Z</time>
      </trkpt>
      <trkpt lat="46.22733" lon="6.79913">
        <ele>1670.91</ele>
        <time>2015-06-28T10:04:30Z</time>
      </trkpt>
      <trkpt lat="46.22774" lon="6.79899">
        <ele>1664.18</ele>
        <time>2015-06-28T10:04:35Z</time>
      </trkpt>
      <trkpt lat="46.22805" lon="6.79875">
        <ele>1659.85</ele>
        <time>2015-06-28T10:04:39Z</time>
      </trkpt>
      <trkpt lat="46.22862" lon="6.79858">
        <ele>1653.6</ele>
        <time>2015-06-28T10:04:45Z</time>
      </trkpt>
      <trkpt lat="46.22919" lon="6.79884">
        <ele>1648.32</ele>
        <time>2015-06-28T10:04:51Z</time>
      </trkpt>
      <trkpt lat="46.22969" lon="6.79872">
        <ele>1647.84</ele>
        <time>2015-06-28T10:04:57Z</time>
      </trkpt>
      <trkpt lat="46.22993" lon="6.7985">
        <ele>1648.8</ele>
        <time>2015-06-28T10:05:01Z</time>
      </trkpt>
      <trkpt lat="46.23004" lon="6.79834">
        <ele>1650.24</ele>
        <time>2015-06-28T10:05:04Z</time>
      </trkpt>
      <trkpt lat="46.2301" lon="6.79824">
        <ele>1651.2</ele>
        <time>2015-06-28T10:05:06Z</time>
      </trkpt>
      <trkpt lat="46.23054" lon="6.79809">
        <ele>1653.6</ele>
        <time>2015-06-28T10:05:20Z</time>
      </trkpt>
      <trkpt lat="46.23092" lon="6.7982">
        <ele>1656.01</ele>
        <time>2015-06-28T10:05:30Z</time>
      </trkpt>
      <trkpt lat="46.23103" lon="6.79824">
        <ele>1656.01</ele>
        <time>2015-06-28T10:05:33Z</time>
      </trkpt>
      <trkpt lat="46.23139" lon="6.79857">
        <ele>1656.49</ele>
        <time>2015-06-28T10:05:43Z</time>
      </trkpt>
      <trkpt lat="46.23151" lon="6.79871">
        <ele>1656.49</ele>
        <time>2015-06-28T10:05:47Z</time>
      </trkpt>
      <trkpt lat="46.23207" lon="6.79912">
        <ele>1656.49</ele>
        <time>2015-06-28T10:05:59Z</time>
      </trkpt>
      <trkpt lat="46.23222" lon="6.79924">
        <ele>1656.01</ele>
        <time>2015-06-28T10:06:02Z</time>
      </trkpt>
      <trkpt lat="46.23237" lon="6.79944">
        <ele>1656.01</ele>
        <time>2015-06-28T10:06:06Z</time>
      </trkpt>
      <trkpt lat="46.2326" lon="6.79983">
        <ele>1656.01</ele>
        <time>2015-06-28T10:06:13Z</time>
      </trkpt>
      <trkpt lat="46.23272" lon="6.80026">
        <ele>1654.09</ele>
        <time>2015-06-28T10:06:18Z</time>
      </trkpt>
      <trkpt lat="46.23292" lon="6.80051">
        <ele>1648.8</ele>
        <time>2015-06-28T10:06:22Z</time>
      </trkpt>
      <trkpt lat="46.23368" lon="6.80089">
        <ele>1647.36</ele>
        <time>2015-06-28T10:06:31Z</time>
      </trkpt>
      <trkpt lat="46.234" lon="6.80085">
        <ele>1647.84</ele>
        <time>2015-06-28T10:06:36Z</time>
      </trkpt>
      <trkpt lat="46.23416" lon="6.80069">
        <ele>1647.36</ele>
        <time>2015-06-28T10:06:39Z</time>
      </trkpt>
      <trkpt lat="46.23447" lon="6.80065">
        <ele>1646.88</ele>
        <time>2015-06-28T10:06:45Z</time>
      </trkpt>
      <trkpt lat="46.23463" lon="6.80083">
        <ele>1646.4</ele>
        <time>2015-06-28T10:06:49Z</time>
      </trkpt>
      <trkpt lat="46.23482" lon="6.80093">
        <ele>1646.88</ele>
        <time>2015-06-28T10:06:53Z</time>
      </trkpt>
      <trkpt lat="46.23511" lon="6.80087">
        <ele>1647.36</ele>
        <time>2015-06-28T10:07:02Z</time>
      </trkpt>
      <trkpt lat="46.23542" lon="6.80074">
        <ele>1648.32</ele>
        <time>2015-06-28T10:07:11Z</time>
      </trkpt>
      <trkpt lat="46.23584" lon="6.8009">
        <ele>1646.4</ele>
        <time>2015-06-28T10:07:19Z</time>
      </trkpt>
      <trkpt lat="46.23602" lon="6.80113">
        <ele>1644.47</ele>
        <time>2015-06-28T10:07:22Z</time>
      </trkpt>
      <trkpt lat="46.23633" lon="6.80155">
        <ele>1641.11</ele>
        <time>2015-06-28T10:07:27Z</time>
      </trkpt>
      <trkpt lat="46.2367" lon="6.80201">
        <ele>1635.82</ele>
        <time>2015-06-28T10:07:32Z</time>
      </trkpt>
      <trkpt lat="46.23695" lon="6.80233">
        <ele>1633.42</ele>
        <time>2015-06-28T10:07:35Z</time>
      </trkpt>
      <trkpt lat="46.23712" lon="6.80278">
        <ele>1631.01</ele>
        <time>2015-06-28T10:07:39Z</time>
      </trkpt>
      <trkpt lat="46.23715" lon="6.80328">
        <ele>1628.61</ele>
        <time>2015-06-28T10:07:43Z</time>
      </trkpt>
      <trkpt lat="46.23699" lon="6.80485">
        <ele>1621.4</ele>
        <time>2015-06-28T10:07:55Z</time>
      </trkpt>
      <trkpt lat="46.23713" lon="6.80537">
        <ele>1616.59</ele>
        <time>2015-06-28T10:08:01Z</time>
      </trkpt>
      <trkpt lat="46.23715" lon="6.80541">
        <ele>1616.11</ele>
        <time>2015-06-28T10:08:02Z</time>
      </trkpt>
      <trkpt lat="46.23715" lon="6.80547">
        <ele>1614.67</ele>
        <time>2015-06-28T10:08:04Z</time>
      </trkpt>
      <trkpt lat="46.23716" lon="6.80564">
        <ele>1612.75</ele>
        <time>2015-06-28T10:08:07Z</time>
      </trkpt>
      <trkpt lat="46.23727" lon="6.80604">
        <ele>1609.38</ele>
        <time>2015-06-28T10:08:11Z</time>
      </trkpt>
      <trkpt lat="46.23757" lon="6.80643">
        <ele>1604.58</ele>
        <time>2015-06-28T10:08:16Z</time>
      </trkpt>
      <trkpt lat="46.23771" lon="6.80672">
        <ele>1601.69</ele>
        <time>2015-06-28T10:08:19Z</time>
      </trkpt>
      <trkpt lat="46.23799" lon="6.80706">
        <ele>1597.37</ele>
        <time>2015-06-28T10:08:23Z</time>
      </trkpt>
      <trkpt lat="46.2385" lon="6.80729">
        <ele>1589.68</ele>
        <time>2015-06-28T10:08:29Z</time>
      </trkpt>
      <trkpt lat="46.23918" lon="6.80755">
        <ele>1582.47</ele>
        <time>2015-06-28T10:08:37Z</time>
      </trkpt>
      <trkpt lat="46.23953" lon="6.8078">
        <ele>1578.62</ele>
        <time>2015-06-28T10:08:41Z</time>
      </trkpt>
      <trkpt lat="46.23976" lon="6.80804">
        <ele>1576.22</ele>
        <time>2015-06-28T10:08:44Z</time>
      </trkpt>
      <trkpt lat="46.23999" lon="6.80825">
        <ele>1573.82</ele>
        <time>2015-06-28T10:08:48Z</time>
      </trkpt>
      <trkpt lat="46.24095" lon="6.80817">
        <ele>1564.2</ele>
        <time>2015-06-28T10:09:01Z</time>
      </trkpt>
      <trkpt lat="46.24136" lon="6.80826">
        <ele>1559.4</ele>
        <time>2015-06-28T10:09:05Z</time>
      </trkpt>
      <trkpt lat="46.24165" lon="6.80842">
        <ele>1558.43</ele>
        <time>2015-06-28T10:09:08Z</time>
      </trkpt>
      <trkpt lat="46.24199" lon="6.80852">
        <ele>1554.59</ele>
        <time>2015-06-28T10:09:13Z</time>
      </trkpt>
      <trkpt lat="46.24218" lon="6.80856">
        <ele>1553.63</ele>
        <time>2015-06-28T10:09:17Z</time>
      </trkpt>
      <trkpt lat="46.24242" lon="6.80873">
        <ele>1554.59</ele>
        <time>2015-06-28T10:09:23Z</time>
      </trkpt>
      <trkpt lat="46.24261" lon="6.80898">
        <ele>1554.11</ele>
        <time>2015-06-28T10:09:27Z</time>
      </trkpt>
      <trkpt lat="46.24318" lon="6.81004">
        <ele>1544.01</ele>
        <time>2015-06-28T10:09:38Z</time>
      </trkpt>
      <trkpt lat="46.24329" lon="6.81035">
        <ele>1541.61</ele>
        <time>2015-06-28T10:09:41Z</time>
      </trkpt>
      <trkpt lat="46.24361" lon="6.81064">
        <ele>1538.25</ele>
        <time>2015-06-28T10:09:47Z</time>
      </trkpt>
      <trkpt lat="46.24376" lon="6.81081">
        <ele>1536.8</ele>
        <time>2015-06-28T10:09:51Z</time>
      </trkpt>
      <trkpt lat="46.24383" lon="6.81091">
        <ele>1535.84</ele>
        <time>2015-06-28T10:09:53Z</time>
      </trkpt>
      <trkpt lat="46.24409" lon="6.81116">
        <ele>1536.8</ele>
        <time>2015-06-28T10:10:00Z</time>
      </trkpt>
      <trkpt lat="46.24411" lon="6.81123">
        <ele>1536.32</ele>
        <time>2015-06-28T10:10:01Z</time>
      </trkpt>
      <trkpt lat="46.24413" lon="6.8114">
        <ele>1535.36</ele>
        <time>2015-06-28T10:10:03Z</time>
      </trkpt>
      <trkpt lat="46.24419" lon="6.81167">
        <ele>1533.44</ele>
        <time>2015-06-28T10:10:06Z</time>
      </trkpt>
      <trkpt lat="46.24429" lon="6.81194">
        <ele>1532.96</ele>
        <time>2015-06-28T10:10:10Z</time>
      </trkpt>
      <trkpt lat="46.24443" lon="6.81211">
        <ele>1532</ele>
        <time>2015-06-28T10:10:13Z</time>
      </trkpt>
      <trkpt lat="46.24472" lon="6.81229">
        <ele>1536.8</ele>
        <time>2015-06-28T10:10:21Z</time>
      </trkpt>
      <trkpt lat="46.2449" lon="6.81245">
        <ele>1539.21</ele>
        <time>2015-06-28T10:10:28Z</time>
      </trkpt>
      <trkpt lat="46.24494" lon="6.81253">
        <ele>1539.69</ele>
        <time>2015-06-28T10:10:32Z</time>
      </trkpt>
      <trkpt lat="46.24501" lon="6.81286">
        <ele>1540.65</ele>
        <time>2015-06-28T10:10:43Z</time>
      </trkpt>
      <trkpt lat="46.24513" lon="6.813">
        <ele>1543.05</ele>
        <time>2015-06-28T10:10:49Z</time>
      </trkpt>
      <trkpt lat="46.24528" lon="6.81318">
        <ele>1544.01</ele>
        <time>2015-06-28T10:10:54Z</time>
      </trkpt>
      <trkpt lat="46.24532" lon="6.8134">
        <ele>1544.01</ele>
        <time>2015-06-28T10:10:58Z</time>
      </trkpt>
      <trkpt lat="46.24535" lon="6.81354">
        <ele>1542.57</ele>
        <time>2015-06-28T10:11:02Z</time>
      </trkpt>
      <trkpt lat="46.24554" lon="6.81392">
        <ele>1539.69</ele>
        <time>2015-06-28T10:11:10Z</time>
      </trkpt>
      <trkpt lat="46.24555" lon="6.81413">
        <ele>1538.73</ele>
        <time>2015-06-28T10:11:12Z</time>
      </trkpt>
      <trkpt lat="46.24543" lon="6.81473">
        <ele>1532</ele>
        <time>2015-06-28T10:11:19Z</time>
      </trkpt>
      <trkpt lat="46.24531" lon="6.81485">
        <ele>1530.56</ele>
        <time>2015-06-28T10:11:21Z</time>
      </trkpt>
      <trkpt lat="46.24513" lon="6.81524">
        <ele>1526.23</ele>
        <time>2015-06-28T10:11:25Z</time>
      </trkpt>
      <trkpt lat="46.24488" lon="6.8159">
        <ele>1519.02</ele>
        <time>2015-06-28T10:11:32Z</time>
      </trkpt>
      <trkpt lat="46.24473" lon="6.8161">
        <ele>1511.81</ele>
        <time>2015-06-28T10:11:39Z</time>
      </trkpt>
      <trkpt lat="46.24455" lon="6.81677">
        <ele>1504.12</ele>
        <time>2015-06-28T10:11:46Z</time>
      </trkpt>
      <trkpt lat="46.24458" lon="6.81712">
        <ele>1500.27</ele>
        <time>2015-06-28T10:11:49Z</time>
      </trkpt>
      <trkpt lat="46.24487" lon="6.81738">
        <ele>1493.55</ele>
        <time>2015-06-28T10:11:54Z</time>
      </trkpt>
      <trkpt lat="46.24551" lon="6.81766">
        <ele>1485.85</ele>
        <time>2015-06-28T10:12:01Z</time>
      </trkpt>
      <trkpt lat="46.24591" lon="6.81767">
        <ele>1484.41</ele>
        <time>2015-06-28T10:12:08Z</time>
      </trkpt>
      <trkpt lat="46.24588" lon="6.81765">
        <ele>1485.37</ele>
        <time>2015-06-28T10:12:22Z</time>
      </trkpt>
      <trkpt lat="46.24588" lon="6.81766">
        <ele>1485.37</ele>
        <time>2015-06-28T10:14:52Z</time>
      </trkpt>
      <trkpt lat="46.24602" lon="6.81759">
        <ele>1483.93</ele>
        <time>2015-06-28T10:14:59Z</time>
      </trkpt>
      <trkpt lat="46.24633" lon="6.81772">
        <ele>1479.61</ele>
        <time>2015-06-28T10:15:04Z</time>
      </trkpt>
      <trkpt lat="46.24658" lon="6.81803">
        <ele>1476.24</ele>
        <time>2015-06-28T10:15:08Z</time>
      </trkpt>
      <trkpt lat="46.24665" lon="6.81822">
        <ele>1474.32</ele>
        <time>2015-06-28T10:15:10Z</time>
      </trkpt>
      <trkpt lat="46.2467" lon="6.81862">
        <ele>1470.47</ele>
        <time>2015-06-28T10:15:14Z</time>
      </trkpt>
      <trkpt lat="46.24669" lon="6.81885">
        <ele>1469.03</ele>
        <time>2015-06-28T10:15:16Z</time>
      </trkpt>
      <trkpt lat="46.24676" lon="6.81912">
        <ele>1466.15</ele>
        <time>2015-06-28T10:15:19Z</time>
      </trkpt>
      <trkpt lat="46.24695" lon="6.81935">
        <ele>1460.38</ele>
        <time>2015-06-28T10:15:23Z</time>
      </trkpt>
      <trkpt lat="46.24726" lon="6.81967">
        <ele>1455.09</ele>
        <time>2015-06-28T10:15:28Z</time>
      </trkpt>
      <trkpt lat="46.24745" lon="6.82008">
        <ele>1449.81</ele>
        <time>2015-06-28T10:15:32Z</time>
      </trkpt>
      <trkpt lat="46.24773" lon="6.82155">
        <ele>1439.23</ele>
        <time>2015-06-28T10:15:42Z</time>
      </trkpt>
      <trkpt lat="46.24775" lon="6.82166">
        <ele>1438.27</ele>
        <time>2015-06-28T10:15:43Z</time>
      </trkpt>
      <trkpt lat="46.24769" lon="6.82272">
        <ele>1428.66</ele>
        <time>2015-06-28T10:15:51Z</time>
      </trkpt>
      <trkpt lat="46.2477" lon="6.82291">
        <ele>1426.73</ele>
        <time>2015-06-28T10:15:53Z</time>
      </trkpt>
      <trkpt lat="46.24753" lon="6.82325">
        <ele>1421.93</ele>
        <time>2015-06-28T10:15:58Z</time>
      </trkpt>
      <trkpt lat="46.24721" lon="6.82395">
        <ele>1414.72</ele>
        <time>2015-06-28T10:16:04Z</time>
      </trkpt>
      <trkpt lat="46.24692" lon="6.82447">
        <ele>1408.95</ele>
        <time>2015-06-28T10:16:09Z</time>
      </trkpt>
      <trkpt lat="46.24704" lon="6.825">
        <ele>1402.7</ele>
        <time>2015-06-28T10:16:15Z</time>
      </trkpt>
      <trkpt lat="46.24765" lon="6.8255">
        <ele>1396.45</ele>
        <time>2015-06-28T10:16:23Z</time>
      </trkpt>
      <trkpt lat="46.2478" lon="6.82563">
        <ele>1394.53</ele>
        <time>2015-06-28T10:16:25Z</time>
      </trkpt>
      <trkpt lat="46.24805" lon="6.82582">
        <ele>1391.65</ele>
        <time>2015-06-28T10:16:28Z</time>
      </trkpt>
      <trkpt lat="46.24834" lon="6.82592">
        <ele>1389.72</ele>
        <time>2015-06-28T10:16:31Z</time>
      </trkpt>
      <trkpt lat="46.24861" lon="6.82595">
        <ele>1387.8</ele>
        <time>2015-06-28T10:16:35Z</time>
      </trkpt>
      <trkpt lat="46.24947" lon="6.826">
        <ele>1379.63</ele>
        <time>2015-06-28T10:16:47Z</time>
      </trkpt>
      <trkpt lat="46.24965" lon="6.826">
        <ele>1376.26</ele>
        <time>2015-06-28T10:16:49Z</time>
      </trkpt>
      <trkpt lat="46.2504" lon="6.82659">
        <ele>1362.81</ele>
        <time>2015-06-28T10:16:57Z</time>
      </trkpt>
      <trkpt lat="46.2505" lon="6.82671">
        <ele>1360.88</ele>
        <time>2015-06-28T10:16:58Z</time>
      </trkpt>
      <trkpt lat="46.25087" lon="6.82711">
        <ele>1355.12</ele>
        <time>2015-06-28T10:17:02Z</time>
      </trkpt>
      <trkpt lat="46.25149" lon="6.82789">
        <ele>1341.18</ele>
        <time>2015-06-28T10:17:11Z</time>
      </trkpt>
      <trkpt lat="46.25181" lon="6.82825">
        <ele>1333.49</ele>
        <time>2015-06-28T10:17:16Z</time>
      </trkpt>
      <trkpt lat="46.2519" lon="6.8285">
        <ele>1328.68</ele>
        <time>2015-06-28T10:17:20Z</time>
      </trkpt>
      <trkpt lat="46.25189" lon="6.82872">
        <ele>1325.31</ele>
        <time>2015-06-28T10:17:22Z</time>
      </trkpt>
      <trkpt lat="46.25199" lon="6.82977">
        <ele>1314.74</ele>
        <time>2015-06-28T10:17:29Z</time>
      </trkpt>
      <trkpt lat="46.25235" lon="6.83101">
        <ele>1303.2</ele>
        <time>2015-06-28T10:17:38Z</time>
      </trkpt>
      <trkpt lat="46.25241" lon="6.83119">
        <ele>1301.76</ele>
        <time>2015-06-28T10:17:39Z</time>
      </trkpt>
      <trkpt lat="46.25263" lon="6.83165">
        <ele>1298.88</ele>
        <time>2015-06-28T10:17:42Z</time>
      </trkpt>
      <trkpt lat="46.25283" lon="6.83199">
        <ele>1295.03</ele>
        <time>2015-06-28T10:17:45Z</time>
      </trkpt>
      <trkpt lat="46.25301" lon="6.83231">
        <ele>1289.75</ele>
        <time>2015-06-28T10:17:48Z</time>
      </trkpt>
      <trkpt lat="46.25329" lon="6.83273">
        <ele>1283.98</ele>
        <time>2015-06-28T10:17:52Z</time>
      </trkpt>
      <trkpt lat="46.25348" lon="6.83301">
        <ele>1281.57</ele>
        <time>2015-06-28T10:17:55Z</time>
      </trkpt>
      <trkpt lat="46.25365" lon="6.83339">
        <ele>1278.69</ele>
        <time>2015-06-28T10:17:59Z</time>
      </trkpt>
      <trkpt lat="46.25398" lon="6.83393">
        <ele>1275.81</ele>
        <time>2015-06-28T10:18:05Z</time>
      </trkpt>
      <trkpt lat="46.25409" lon="6.83416">
        <ele>1273.4</ele>
        <time>2015-06-28T10:18:08Z</time>
      </trkpt>
      <trkpt lat="46.25451" lon="6.83492">
        <ele>1269.56</ele>
        <time>2015-06-28T10:18:21Z</time>
      </trkpt>
      <trkpt lat="46.25462" lon="6.83519">
        <ele>1269.08</ele>
        <time>2015-06-28T10:18:26Z</time>
      </trkpt>
      <trkpt lat="46.25496" lon="6.83603">
        <ele>1268.6</ele>
        <time>2015-06-28T10:18:44Z</time>
      </trkpt>
      <trkpt lat="46.25536" lon="6.83696">
        <ele>1269.56</ele>
        <time>2015-06-28T10:19:05Z</time>
      </trkpt>
      <trkpt lat="46.25547" lon="6.83718">
        <ele>1268.6</ele>
        <time>2015-06-28T10:19:10Z</time>
      </trkpt>
      <trkpt lat="46.25554" lon="6.83731">
        <ele>1268.12</ele>
        <time>2015-06-28T10:19:13Z</time>
      </trkpt>
      <trkpt lat="46.25586" lon="6.8377">
        <ele>1267.64</ele>
        <time>2015-06-28T10:19:22Z</time>
      </trkpt>
      <trkpt lat="46.25627" lon="6.83844">
        <ele>1266.67</ele>
        <time>2015-06-28T10:19:35Z</time>
      </trkpt>
      <trkpt lat="46.25656" lon="6.83921">
        <ele>1264.75</ele>
        <time>2015-06-28T10:19:47Z</time>
      </trkpt>
      <trkpt lat="46.25673" lon="6.83944">
        <ele>1263.31</ele>
        <time>2015-06-28T10:19:51Z</time>
      </trkpt>
      <trkpt lat="46.25735" lon="6.84016">
        <ele>1256.58</ele>
        <time>2015-06-28T10:20:02Z</time>
      </trkpt>
      <trkpt lat="46.25742" lon="6.84035">
        <ele>1255.14</ele>
        <time>2015-06-28T10:20:12Z</time>
      </trkpt>
      <trkpt lat="46.25746" lon="6.84036">
        <ele>1254.66</ele>
        <time>2015-06-28T10:20:27Z</time>
      </trkpt>
      <trkpt lat="46.25746" lon="6.84036">
        <ele>1254.66</ele>
        <time>2015-06-28T10:20:34Z</time>
      </trkpt>
      <trkpt lat="46.25775" lon="6.84042">
        <ele>1252.25</ele>
        <time>2015-06-28T10:20:45Z</time>
      </trkpt>
      <trkpt lat="46.25789" lon="6.84044">
        <ele>1251.77</ele>
        <time>2015-06-28T10:20:49Z</time>
      </trkpt>
      <trkpt lat="46.25855" lon="6.84059">
        <ele>1247.45</ele>
        <time>2015-06-28T10:21:01Z</time>
      </trkpt>
      <trkpt lat="46.25944" lon="6.84082">
        <ele>1243.6</ele>
        <time>2015-06-28T10:21:15Z</time>
      </trkpt>
      <trkpt lat="46.25972" lon="6.84085">
        <ele>1242.64</ele>
        <time>2015-06-28T10:21:19Z</time>
      </trkpt>
      <trkpt lat="46.26078" lon="6.84066">
        <ele>1238.32</ele>
        <time>2015-06-28T10:21:34Z</time>
      </trkpt>
      <trkpt lat="46.26157" lon="6.84068">
        <ele>1233.51</ele>
        <time>2015-06-28T10:21:45Z</time>
      </trkpt>
      <trkpt lat="46.26277" lon="6.84109">
        <ele>1225.34</ele>
        <time>2015-06-28T10:22:00Z</time>
      </trkpt>
      <trkpt lat="46.26392" lon="6.84144">
        <ele>1218.13</ele>
        <time>2015-06-28T10:22:14Z</time>
      </trkpt>
      <trkpt lat="46.26459" lon="6.84166">
        <ele>1214.28</ele>
        <time>2015-06-28T10:22:22Z</time>
      </trkpt>
      <trkpt lat="46.2657" lon="6.84165">
        <ele>1206.11</ele>
        <time>2015-06-28T10:22:33Z</time>
      </trkpt>
      <trkpt lat="46.26649" lon="6.84134">
        <ele>1200.82</ele>
        <time>2015-06-28T10:22:44Z</time>
      </trkpt>
      <trkpt lat="46.26695" lon="6.84115">
        <ele>1196.98</ele>
        <time>2015-06-28T10:22:51Z</time>
      </trkpt>
      <trkpt lat="46.26726" lon="6.84101">
        <ele>1195.06</ele>
        <time>2015-06-28T10:22:56Z</time>
      </trkpt>
      <trkpt lat="46.26764" lon="6.841">
        <ele>1189.77</ele>
        <time>2015-06-28T10:23:06Z</time>
      </trkpt>
      <trkpt lat="46.2677" lon="6.84098">
        <ele>1189.29</ele>
        <time>2015-06-28T10:23:08Z</time>
      </trkpt>
      <trkpt lat="46.26809" lon="6.84081">
        <ele>1184.96</ele>
        <time>2015-06-28T10:23:20Z</time>
      </trkpt>
      <trkpt lat="46.26812" lon="6.84067">
        <ele>1182.56</ele>
        <time>2015-06-28T10:23:31Z</time>
      </trkpt>
      <trkpt lat="46.26811" lon="6.84058">
        <ele>1182.08</ele>
        <time>2015-06-28T10:23:36Z</time>
      </trkpt>
      <trkpt lat="46.26809" lon="6.8406">
        <ele>1181.6</ele>
        <time>2015-06-28T10:23:42Z</time>
      </trkpt>
      <trkpt lat="46.26809" lon="6.84067">
        <ele>1181.6</ele>
        <time>2015-06-28T10:23:47Z</time>
      </trkpt>
      <trkpt lat="46.26796" lon="6.84061">
        <ele>1183.52</ele>
        <time>2015-06-28T10:23:58Z</time>
      </trkpt>
      <trkpt lat="46.26801" lon="6.84059">
        <ele>1185.44</ele>
        <time>2015-06-28T10:24:32Z</time>
      </trkpt>
      <trkpt lat="46.26798" lon="6.84061">
        <ele>1186.4</ele>
        <time>2015-06-28T10:24:49Z</time>
      </trkpt>
      <trkpt lat="46.26803" lon="6.84064">
        <ele>1185.92</ele>
        <time>2015-06-28T10:24:54Z</time>
      </trkpt>
      <trkpt lat="46.26815" lon="6.84058">
        <ele>1185.44</ele>
        <time>2015-06-28T10:25:09Z</time>
      </trkpt>
      <trkpt lat="46.26819" lon="6.84057">
        <ele>1184.48</ele>
        <time>2015-06-28T10:25:23Z</time>
      </trkpt>
      <trkpt lat="46.2681" lon="6.84055">
        <ele>1184.48</ele>
        <time>2015-06-28T10:27:21Z</time>
      </trkpt>
      <trkpt lat="46.26813" lon="6.84059">
        <ele>1182.08</ele>
        <time>2015-06-28T10:28:05Z</time>
      </trkpt>
      <trkpt lat="46.26811" lon="6.84053">
        <ele>1183.52</ele>
        <time>2015-06-28T10:28:40Z</time>
      </trkpt>
      <trkpt lat="46.26813" lon="6.84042">
        <ele>1175.35</ele>
        <time>2015-06-28T10:31:45Z</time>
      </trkpt>
      <trkpt lat="46.26816" lon="6.84041">
        <ele>1174.87</ele>
        <time>2015-06-28T10:32:14Z</time>
      </trkpt>
      <trkpt lat="46.26815" lon="6.84039">
        <ele>1175.35</ele>
        <time>2015-06-28T10:33:16Z</time>
      </trkpt>
      <trkpt lat="46.26817" lon="6.84041">
        <ele>1176.31</ele>
        <time>2015-06-28T10:33:52Z</time>
      </trkpt>
      <trkpt lat="46.26816" lon="6.84035">
        <ele>1176.79</ele>
        <time>2015-06-28T10:34:12Z</time>
      </trkpt>
      <trkpt lat="46.26814" lon="6.84038">
        <ele>1177.27</ele>
        <time>2015-06-28T10:34:29Z</time>
      </trkpt>
      <trkpt lat="46.26814" lon="6.84045">
        <ele>1177.27</ele>
        <time>2015-06-28T10:35:07Z</time>
      </trkpt>
      <trkpt lat="46.26818" lon="6.84053">
        <ele>1175.83</ele>
        <time>2015-06-28T10:36:54Z</time>
      </trkpt>
      <trkpt lat="46.26815" lon="6.84036">
        <ele>1179.19</ele>
        <time>2015-06-28T10:37:15Z</time>
      </trkpt>
      <trkpt lat="46.26802" lon="6.84035">
        <ele>1178.71</ele>
        <time>2015-06-28T10:37:25Z</time>
      </trkpt>
      <trkpt lat="46.26798" lon="6.84041">
        <ele>1177.27</ele>
        <time>2015-06-28T10:37:30Z</time>
      </trkpt>
      <trkpt lat="46.26792" lon="6.84054">
        <ele>1175.35</ele>
        <time>2015-06-28T10:37:43Z</time>
      </trkpt>
      <trkpt lat="46.26793" lon="6.84057">
        <ele>1174.87</ele>
        <time>2015-06-28T10:38:10Z</time>
      </trkpt>
      <trkpt lat="46.26795" lon="6.84057">
        <ele>1172.95</ele>
        <time>2015-06-28T10:42:06Z</time>
      </trkpt>
      <trkpt lat="46.26814" lon="6.84068">
        <ele>1170.54</ele>
        <time>2015-06-28T10:42:16Z</time>
      </trkpt>
      <trkpt lat="46.26807" lon="6.84096">
        <ele>1171.5</ele>
        <time>2015-06-28T10:42:23Z</time>
      </trkpt>
      <trkpt lat="46.26752" lon="6.84112">
        <ele>1178.71</ele>
        <time>2015-06-28T10:42:40Z</time>
      </trkpt>
      <trkpt lat="46.26686" lon="6.84125">
        <ele>1186.4</ele>
        <time>2015-06-28T10:42:58Z</time>
      </trkpt>
      <trkpt lat="46.26657" lon="6.8414">
        <ele>1187.85</ele>
        <time>2015-06-28T10:43:09Z</time>
      </trkpt>
      <trkpt lat="46.26656" lon="6.84143">
        <ele>1187.85</ele>
        <time>2015-06-28T10:43:10Z</time>
      </trkpt>
      <trkpt lat="46.26656" lon="6.84156">
        <ele>1184.96</ele>
        <time>2015-06-28T10:43:14Z</time>
      </trkpt>
      <trkpt lat="46.26661" lon="6.84159">
        <ele>1184.96</ele>
        <time>2015-06-28T10:43:16Z</time>
      </trkpt>
      <trkpt lat="46.26696" lon="6.84149">
        <ele>1184.48</ele>
        <time>2015-06-28T10:43:28Z</time>
      </trkpt>
      <trkpt lat="46.26707" lon="6.84153">
        <ele>1183.04</ele>
        <time>2015-06-28T10:43:32Z</time>
      </trkpt>
      <trkpt lat="46.2674" lon="6.84179">
        <ele>1170.06</ele>
        <time>2015-06-28T10:43:43Z</time>
      </trkpt>
      <trkpt lat="46.26741" lon="6.8419">
        <ele>1168.14</ele>
        <time>2015-06-28T10:43:47Z</time>
      </trkpt>
      <trkpt lat="46.26707" lon="6.84213">
        <ele>1170.54</ele>
        <time>2015-06-28T10:44:06Z</time>
      </trkpt>
      <trkpt lat="46.26702" lon="6.84217">
        <ele>1173.43</ele>
        <time>2015-06-28T10:44:09Z</time>
      </trkpt>
      <trkpt lat="46.26693" lon="6.84224">
        <ele>1177.27</ele>
        <time>2015-06-28T10:44:16Z</time>
      </trkpt>
      <trkpt lat="46.26683" lon="6.84234">
        <ele>1181.6</ele>
        <time>2015-06-28T10:44:29Z</time>
      </trkpt>
      <trkpt lat="46.26682" lon="6.84235">
        <ele>1182.08</ele>
        <time>2015-06-28T10:44:31Z</time>
      </trkpt>
      <trkpt lat="46.26677" lon="6.84243">
        <ele>1183.04</ele>
        <time>2015-06-28T10:44:44Z</time>
      </trkpt>
      <trkpt lat="46.26678" lon="6.84252">
        <ele>1183.52</ele>
        <time>2015-06-28T10:44:54Z</time>
      </trkpt>
      <trkpt lat="46.26666" lon="6.84252">
        <ele>1183.52</ele>
        <time>2015-06-28T10:45:09Z</time>
      </trkpt>
      <trkpt lat="46.26667" lon="6.84257">
        <ele>1183.52</ele>
        <time>2015-06-28T10:45:14Z</time>
      </trkpt>
      <trkpt lat="46.26688" lon="6.84273">
        <ele>1183.52</ele>
        <time>2015-06-28T10:45:27Z</time>
      </trkpt>
      <trkpt lat="46.26683" lon="6.84258">
        <ele>1183.04</ele>
        <time>2015-06-28T10:45:36Z</time>
      </trkpt>
      <trkpt lat="46.26686" lon="6.84262">
        <ele>1182.56</ele>
        <time>2015-06-28T10:45:41Z</time>
      </trkpt>
      <trkpt lat="46.26683" lon="6.84258">
        <ele>1181.6</ele>
        <time>2015-06-28T10:45:46Z</time>
      </trkpt>
      <trkpt lat="46.26648" lon="6.84234">
        <ele>1179.67</ele>
        <time>2015-06-28T10:45:52Z</time>
      </trkpt>
      <trkpt lat="46.2663" lon="6.84209">
        <ele>1177.27</ele>
        <time>2015-06-28T10:46:05Z</time>
      </trkpt>
      <trkpt lat="46.2663" lon="6.84204">
        <ele>1175.83</ele>
        <time>2015-06-28T10:46:12Z</time>
      </trkpt>
      <trkpt lat="46.26639" lon="6.84238">
        <ele>1174.87</ele>
        <time>2015-06-28T10:46:24Z</time>
      </trkpt>
      <trkpt lat="46.26641" lon="6.84239">
        <ele>1174.87</ele>
        <time>2015-06-28T10:46:25Z</time>
      </trkpt>
      <trkpt lat="46.26648" lon="6.84237">
        <ele>1173.91</ele>
        <time>2015-06-28T10:46:32Z</time>
      </trkpt>
      <trkpt lat="46.26646" lon="6.84232">
        <ele>1173.43</ele>
        <time>2015-06-28T10:46:42Z</time>
      </trkpt>
      <trkpt lat="46.26652" lon="6.84232">
        <ele>1172.47</ele>
        <time>2015-06-28T10:46:50Z</time>
      </trkpt>
      <trkpt lat="46.2665" lon="6.84214">
        <ele>1170.06</ele>
        <time>2015-06-28T10:47:06Z</time>
      </trkpt>
      <trkpt lat="46.26646" lon="6.84233">
        <ele>1170.06</ele>
        <time>2015-06-28T10:47:12Z</time>
      </trkpt>
      <trkpt lat="46.26644" lon="6.84242">
        <ele>1170.06</ele>
        <time>2015-06-28T10:47:16Z</time>
      </trkpt>
      <trkpt lat="46.26704" lon="6.84264">
        <ele>1170.54</ele>
        <time>2015-06-28T10:47:26Z</time>
      </trkpt>
      <trkpt lat="46.26706" lon="6.84264">
        <ele>1170.54</ele>
        <time>2015-06-28T10:47:27Z</time>
      </trkpt>
      <trkpt lat="46.26718" lon="6.84256">
        <ele>1170.06</ele>
        <time>2015-06-28T10:47:36Z</time>
      </trkpt>
      <trkpt lat="46.26727" lon="6.84256">
        <ele>1169.58</ele>
        <time>2015-06-28T10:47:49Z</time>
      </trkpt>
      <trkpt lat="46.26719" lon="6.84253">
        <ele>1169.58</ele>
        <time>2015-06-28T10:48:00Z</time>
      </trkpt>
      <trkpt lat="46.26717" lon="6.84247">
        <ele>1169.1</ele>
        <time>2015-06-28T10:48:13Z</time>
      </trkpt>
      <trkpt lat="46.26713" lon="6.84248">
        <ele>1169.1</ele>
        <time>2015-06-28T10:48:26Z</time>
      </trkpt>
      <trkpt lat="46.26712" lon="6.84248">
        <ele>1169.58</ele>
        <time>2015-06-28T10:48:37Z</time>
      </trkpt>
      <trkpt lat="46.2671" lon="6.84246">
        <ele>1169.58</ele>
        <time>2015-06-28T10:48:44Z</time>
      </trkpt>
      <trkpt lat="46.26708" lon="6.84256">
        <ele>1169.58</ele>
        <time>2015-06-28T10:48:46Z</time>
      </trkpt>
      <trkpt lat="46.26697" lon="6.84292">
        <ele>1170.06</ele>
        <time>2015-06-28T10:48:55Z</time>
      </trkpt>
      <trkpt lat="46.26705" lon="6.84342">
        <ele>1173.91</ele>
        <time>2015-06-28T10:49:04Z</time>
      </trkpt>
      <trkpt lat="46.26709" lon="6.84418">
        <ele>1180.64</ele>
        <time>2015-06-28T10:49:18Z</time>
      </trkpt>
      <trkpt lat="46.26714" lon="6.84463">
        <ele>1185.92</ele>
        <time>2015-06-28T10:49:27Z</time>
      </trkpt>
      <trkpt lat="46.2672" lon="6.84523">
        <ele>1206.59</ele>
        <time>2015-06-28T10:49:39Z</time>
      </trkpt>
      <trkpt lat="46.26727" lon="6.84581">
        <ele>1221.49</ele>
        <time>2015-06-28T10:49:52Z</time>
      </trkpt>
      <trkpt lat="46.26729" lon="6.84596">
        <ele>1225.34</ele>
        <time>2015-06-28T10:49:55Z</time>
      </trkpt>
      <trkpt lat="46.26735" lon="6.8465">
        <ele>1238.8</ele>
        <time>2015-06-28T10:50:07Z</time>
      </trkpt>
      <trkpt lat="46.26742" lon="6.84715">
        <ele>1256.58</ele>
        <time>2015-06-28T10:50:21Z</time>
      </trkpt>
      <trkpt lat="46.26752" lon="6.84781">
        <ele>1276.29</ele>
        <time>2015-06-28T10:50:36Z</time>
      </trkpt>
      <trkpt lat="46.26758" lon="6.8484">
        <ele>1304.17</ele>
        <time>2015-06-28T10:50:51Z</time>
      </trkpt>
      <trkpt lat="46.26756" lon="6.84878">
        <ele>1331.08</ele>
        <time>2015-06-28T10:51:01Z</time>
      </trkpt>
      <trkpt lat="46.26757" lon="6.84942">
        <ele>1349.35</ele>
        <time>2015-06-28T10:51:14Z</time>
      </trkpt>
      <trkpt lat="46.26758" lon="6.85003">
        <ele>1369.05</ele>
        <time>2015-06-28T10:51:27Z</time>
      </trkpt>
      <trkpt lat="46.26755" lon="6.85058">
        <ele>1394.05</ele>
        <time>2015-06-28T10:51:40Z</time>
      </trkpt>
      <trkpt lat="46.26754" lon="6.85061">
        <ele>1395.49</ele>
        <time>2015-06-28T10:51:41Z</time>
      </trkpt>
      <trkpt lat="46.26748" lon="6.85092">
        <ele>1410.87</ele>
        <time>2015-06-28T10:51:49Z</time>
      </trkpt>
      <trkpt lat="46.26747" lon="6.85096">
        <ele>1412.31</ele>
        <time>2015-06-28T10:51:50Z</time>
      </trkpt>
      <trkpt lat="46.26748" lon="6.85115">
        <ele>1418.56</ele>
        <time>2015-06-28T10:51:54Z</time>
      </trkpt>
      <trkpt lat="46.2676" lon="6.85186">
        <ele>1438.27</ele>
        <time>2015-06-28T10:52:08Z</time>
      </trkpt>
      <trkpt lat="46.26757" lon="6.85295">
        <ele>1454.13</ele>
        <time>2015-06-28T10:52:31Z</time>
      </trkpt>
      <trkpt lat="46.26759" lon="6.85413">
        <ele>1481.53</ele>
        <time>2015-06-28T10:52:57Z</time>
      </trkpt>
      <trkpt lat="46.26757" lon="6.85466">
        <ele>1509.89</ele>
        <time>2015-06-28T10:53:12Z</time>
      </trkpt>
      <trkpt lat="46.26752" lon="6.85528">
        <ele>1538.25</ele>
        <time>2015-06-28T10:53:27Z</time>
      </trkpt>
      <trkpt lat="46.26758" lon="6.85587">
        <ele>1557.47</ele>
        <time>2015-06-28T10:53:40Z</time>
      </trkpt>
      <trkpt lat="46.26766" lon="6.85676">
        <ele>1605.06</ele>
        <time>2015-06-28T10:53:58Z</time>
      </trkpt>
      <trkpt lat="46.26764" lon="6.85717">
        <ele>1613.71</ele>
        <time>2015-06-28T10:54:06Z</time>
      </trkpt>
      <trkpt lat="46.26765" lon="6.85732">
        <ele>1618.04</ele>
        <time>2015-06-28T10:54:16Z</time>
      </trkpt>
      <trkpt lat="46.26767" lon="6.85731">
        <ele>1619.96</ele>
        <time>2015-06-28T10:54:24Z</time>
      </trkpt>
      <trkpt lat="46.26771" lon="6.8574">
        <ele>1619.48</ele>
        <time>2015-06-28T10:54:28Z</time>
      </trkpt>
      <trkpt lat="46.26775" lon="6.85765">
        <ele>1619.48</ele>
        <time>2015-06-28T10:54:35Z</time>
      </trkpt>
      <trkpt lat="46.26771" lon="6.8577">
        <ele>1621.88</ele>
        <time>2015-06-28T10:54:52Z</time>
      </trkpt>
      <trkpt lat="46.26772" lon="6.85793">
        <ele>1636.3</ele>
        <time>2015-06-28T10:55:02Z</time>
      </trkpt>
      <trkpt lat="46.26771" lon="6.85795">
        <ele>1636.78</ele>
        <time>2015-06-28T10:55:03Z</time>
      </trkpt>
      <trkpt lat="46.26765" lon="6.85801">
        <ele>1637.26</ele>
        <time>2015-06-28T10:55:07Z</time>
      </trkpt>
      <trkpt lat="46.26759" lon="6.85803">
        <ele>1637.26</ele>
        <time>2015-06-28T10:55:25Z</time>
      </trkpt>
      <trkpt lat="46.26757" lon="6.85804">
        <ele>1639.19</ele>
        <time>2015-06-28T10:57:09Z</time>
      </trkpt>
      <trkpt lat="46.26755" lon="6.85804">
        <ele>1637.74</ele>
        <time>2015-06-28T10:59:31Z</time>
      </trkpt>
      <trkpt lat="46.26743" lon="6.85812">
        <ele>1638.7</ele>
        <time>2015-06-28T10:59:49Z</time>
      </trkpt>
      <trkpt lat="46.26711" lon="6.85846">
        <ele>1642.55</ele>
        <time>2015-06-28T11:00:10Z</time>
      </trkpt>
      <trkpt lat="46.26684" lon="6.85881">
        <ele>1643.03</ele>
        <time>2015-06-28T11:00:30Z</time>
      </trkpt>
      <trkpt lat="46.26654" lon="6.85921">
        <ele>1642.55</ele>
        <time>2015-06-28T11:00:50Z</time>
      </trkpt>
      <trkpt lat="46.26633" lon="6.8594">
        <ele>1644.47</ele>
        <time>2015-06-28T11:01:05Z</time>
      </trkpt>
      <trkpt lat="46.26604" lon="6.8597">
        <ele>1650.24</ele>
        <time>2015-06-28T11:01:29Z</time>
      </trkpt>
      <trkpt lat="46.26602" lon="6.85971">
        <ele>1650.24</ele>
        <time>2015-06-28T11:01:30Z</time>
      </trkpt>
      <trkpt lat="46.26578" lon="6.85994">
        <ele>1654.09</ele>
        <time>2015-06-28T11:01:53Z</time>
      </trkpt>
      <trkpt lat="46.26565" lon="6.86011">
        <ele>1656.97</ele>
        <time>2015-06-28T11:02:06Z</time>
      </trkpt>
      <trkpt lat="46.26546" lon="6.86032">
        <ele>1659.85</ele>
        <time>2015-06-28T11:02:25Z</time>
      </trkpt>
      <trkpt lat="46.26524" lon="6.86052">
        <ele>1660.81</ele>
        <time>2015-06-28T11:02:47Z</time>
      </trkpt>
      <trkpt lat="46.265" lon="6.86073">
        <ele>1663.22</ele>
        <time>2015-06-28T11:03:09Z</time>
      </trkpt>
      <trkpt lat="46.26485" lon="6.8609">
        <ele>1666.1</ele>
        <time>2015-06-28T11:03:25Z</time>
      </trkpt>
      <trkpt lat="46.26474" lon="6.86114">
        <ele>1670.91</ele>
        <time>2015-06-28T11:03:42Z</time>
      </trkpt>
      <trkpt lat="46.26468" lon="6.86134">
        <ele>1675.23</ele>
        <time>2015-06-28T11:03:56Z</time>
      </trkpt>
      <trkpt lat="46.2647" lon="6.86164">
        <ele>1678.6</ele>
        <time>2015-06-28T11:04:17Z</time>
      </trkpt>
      <trkpt lat="46.26478" lon="6.86164">
        <ele>1678.12</ele>
        <time>2015-06-28T11:04:30Z</time>
      </trkpt>
      <trkpt lat="46.26476" lon="6.86168">
        <ele>1677.16</ele>
        <time>2015-06-28T11:06:54Z</time>
      </trkpt>
      <trkpt lat="46.26479" lon="6.86174">
        <ele>1675.23</ele>
        <time>2015-06-28T11:06:59Z</time>
      </trkpt>
      <trkpt lat="46.26507" lon="6.8618">
        <ele>1679.08</ele>
        <time>2015-06-28T11:07:15Z</time>
      </trkpt>
      <trkpt lat="46.26529" lon="6.86184">
        <ele>1680.52</ele>
        <time>2015-06-28T11:07:28Z</time>
      </trkpt>
      <trkpt lat="46.26557" lon="6.86185">
        <ele>1682.93</ele>
        <time>2015-06-28T11:07:43Z</time>
      </trkpt>
      <trkpt lat="46.26567" lon="6.86186">
        <ele>1683.89</ele>
        <time>2015-06-28T11:07:49Z</time>
      </trkpt>
      <trkpt lat="46.26602" lon="6.8622">
        <ele>1689.17</ele>
        <time>2015-06-28T11:08:09Z</time>
      </trkpt>
      <trkpt lat="46.266" lon="6.86271">
        <ele>1688.69</ele>
        <time>2015-06-28T11:08:22Z</time>
      </trkpt>
      <trkpt lat="46.26562" lon="6.86331">
        <ele>1688.21</ele>
        <time>2015-06-28T11:08:39Z</time>
      </trkpt>
      <trkpt lat="46.26547" lon="6.86382">
        <ele>1693.02</ele>
        <time>2015-06-28T11:08:55Z</time>
      </trkpt>
      <trkpt lat="46.2654" lon="6.8643">
        <ele>1693.5</ele>
        <time>2015-06-28T11:09:10Z</time>
      </trkpt>
      <trkpt lat="46.26542" lon="6.86452">
        <ele>1692.06</ele>
        <time>2015-06-28T11:09:21Z</time>
      </trkpt>
      <trkpt lat="46.26534" lon="6.86484">
        <ele>1690.14</ele>
        <time>2015-06-28T11:09:29Z</time>
      </trkpt>
      <trkpt lat="46.26535" lon="6.86493">
        <ele>1689.65</ele>
        <time>2015-06-28T11:09:32Z</time>
      </trkpt>
      <trkpt lat="46.26554" lon="6.86541">
        <ele>1688.69</ele>
        <time>2015-06-28T11:09:44Z</time>
      </trkpt>
      <trkpt lat="46.2655" lon="6.86556">
        <ele>1689.17</ele>
        <time>2015-06-28T11:09:50Z</time>
      </trkpt>
      <trkpt lat="46.26553" lon="6.86571">
        <ele>1691.1</ele>
        <time>2015-06-28T11:09:57Z</time>
      </trkpt>
      <trkpt lat="46.26561" lon="6.86612">
        <ele>1694.94</ele>
        <time>2015-06-28T11:10:12Z</time>
      </trkpt>
      <trkpt lat="46.26557" lon="6.86645">
        <ele>1693.02</ele>
        <time>2015-06-28T11:10:25Z</time>
      </trkpt>
      <trkpt lat="46.26546" lon="6.86675">
        <ele>1691.58</ele>
        <time>2015-06-28T11:10:39Z</time>
      </trkpt>
      <trkpt lat="46.26547" lon="6.86675">
        <ele>1691.58</ele>
        <time>2015-06-28T11:11:46Z</time>
      </trkpt>
      <trkpt lat="46.26547" lon="6.86674">
        <ele>1691.58</ele>
        <time>2015-06-28T11:13:28Z</time>
      </trkpt>
      <trkpt lat="46.26548" lon="6.86675">
        <ele>1692.06</ele>
        <time>2015-06-28T11:15:35Z</time>
      </trkpt>
      <trkpt lat="46.26531" lon="6.86718">
        <ele>1692.06</ele>
        <time>2015-06-28T11:15:50Z</time>
      </trkpt>
      <trkpt lat="46.26524" lon="6.86746">
        <ele>1690.14</ele>
        <time>2015-06-28T11:15:57Z</time>
      </trkpt>
      <trkpt lat="46.26514" lon="6.86776">
        <ele>1688.69</ele>
        <time>2015-06-28T11:16:02Z</time>
      </trkpt>
      <trkpt lat="46.26415" lon="6.86854">
        <ele>1683.89</ele>
        <time>2015-06-28T11:16:14Z</time>
      </trkpt>
      <trkpt lat="46.26383" lon="6.86872">
        <ele>1685.33</ele>
        <time>2015-06-28T11:16:18Z</time>
      </trkpt>
      <trkpt lat="46.26336" lon="6.86901">
        <ele>1688.21</ele>
        <time>2015-06-28T11:16:29Z</time>
      </trkpt>
      <trkpt lat="46.26286" lon="6.86936">
        <ele>1692.54</ele>
        <time>2015-06-28T11:16:48Z</time>
      </trkpt>
      <trkpt lat="46.26259" lon="6.86981">
        <ele>1695.42</ele>
        <time>2015-06-28T11:17:04Z</time>
      </trkpt>
      <trkpt lat="46.2625" lon="6.87041">
        <ele>1702.63</ele>
        <time>2015-06-28T11:17:24Z</time>
      </trkpt>
      <trkpt lat="46.26246" lon="6.87088">
        <ele>1704.07</ele>
        <time>2015-06-28T11:17:42Z</time>
      </trkpt>
      <trkpt lat="46.26247" lon="6.8711">
        <ele>1705.04</ele>
        <time>2015-06-28T11:17:50Z</time>
      </trkpt>
      <trkpt lat="46.26236" lon="6.87113">
        <ele>1704.07</ele>
        <time>2015-06-28T11:17:56Z</time>
      </trkpt>
      <trkpt lat="46.26207" lon="6.87086">
        <ele>1708.88</ele>
        <time>2015-06-28T11:18:16Z</time>
      </trkpt>
      <trkpt lat="46.2619" lon="6.87044">
        <ele>1708.88</ele>
        <time>2015-06-28T11:18:33Z</time>
      </trkpt>
      <trkpt lat="46.26195" lon="6.86987">
        <ele>1711.28</ele>
        <time>2015-06-28T11:18:53Z</time>
      </trkpt>
      <trkpt lat="46.26189" lon="6.86928">
        <ele>1716.57</ele>
        <time>2015-06-28T11:19:14Z</time>
      </trkpt>
      <trkpt lat="46.26183" lon="6.86864">
        <ele>1723.78</ele>
        <time>2015-06-28T11:19:35Z</time>
      </trkpt>
      <trkpt lat="46.26179" lon="6.86812">
        <ele>1728.59</ele>
        <time>2015-06-28T11:19:53Z</time>
      </trkpt>
      <trkpt lat="46.26197" lon="6.86784">
        <ele>1730.51</ele>
        <time>2015-06-28T11:20:04Z</time>
      </trkpt>
      <trkpt lat="46.26189" lon="6.86782">
        <ele>1732.43</ele>
        <time>2015-06-28T11:20:09Z</time>
      </trkpt>
      <trkpt lat="46.26161" lon="6.86826">
        <ele>1735.8</ele>
        <time>2015-06-28T11:20:28Z</time>
      </trkpt>
      <trkpt lat="46.26153" lon="6.86882">
        <ele>1733.88</ele>
        <time>2015-06-28T11:20:50Z</time>
      </trkpt>
      <trkpt lat="46.26137" lon="6.86941">
        <ele>1736.28</ele>
        <time>2015-06-28T11:21:11Z</time>
      </trkpt>
      <trkpt lat="46.26115" lon="6.86976">
        <ele>1740.12</ele>
        <time>2015-06-28T11:21:27Z</time>
      </trkpt>
      <trkpt lat="46.26086" lon="6.87018">
        <ele>1746.85</ele>
        <time>2015-06-28T11:21:47Z</time>
      </trkpt>
      <trkpt lat="46.2605" lon="6.87066">
        <ele>1754.06</ele>
        <time>2015-06-28T11:22:11Z</time>
      </trkpt>
      <trkpt lat="46.26017" lon="6.87085">
        <ele>1758.39</ele>
        <time>2015-06-28T11:22:30Z</time>
      </trkpt>
      <trkpt lat="46.25983" lon="6.87074">
        <ele>1760.31</ele>
        <time>2015-06-28T11:22:48Z</time>
      </trkpt>
      <trkpt lat="46.25948" lon="6.8707">
        <ele>1763.68</ele>
        <time>2015-06-28T11:23:07Z</time>
      </trkpt>
      <trkpt lat="46.25949" lon="6.87104">
        <ele>1766.08</ele>
        <time>2015-06-28T11:23:21Z</time>
      </trkpt>
      <trkpt lat="46.25961" lon="6.87155">
        <ele>1770.41</ele>
        <time>2015-06-28T11:23:40Z</time>
      </trkpt>
      <trkpt lat="46.25931" lon="6.87168">
        <ele>1773.29</ele>
        <time>2015-06-28T11:23:56Z</time>
      </trkpt>
      <trkpt lat="46.25888" lon="6.87164">
        <ele>1776.65</ele>
        <time>2015-06-28T11:24:16Z</time>
      </trkpt>
      <trkpt lat="46.25866" lon="6.87186">
        <ele>1779.06</ele>
        <time>2015-06-28T11:24:29Z</time>
      </trkpt>
      <trkpt lat="46.25853" lon="6.8725">
        <ele>1783.86</ele>
        <time>2015-06-28T11:24:50Z</time>
      </trkpt>
      <trkpt lat="46.25825" lon="6.87306">
        <ele>1786.27</ele>
        <time>2015-06-28T11:25:12Z</time>
      </trkpt>
      <trkpt lat="46.25819" lon="6.87307">
        <ele>1786.75</ele>
        <time>2015-06-28T11:25:16Z</time>
      </trkpt>
      <trkpt lat="46.25814" lon="6.87301">
        <ele>1786.75</ele>
        <time>2015-06-28T11:25:28Z</time>
      </trkpt>
      <trkpt lat="46.25814" lon="6.87303">
        <ele>1787.71</ele>
        <time>2015-06-28T11:29:46Z</time>
      </trkpt>
      <trkpt lat="46.25814" lon="6.87303">
        <ele>1788.19</ele>
        <time>2015-06-28T11:29:53Z</time>
      </trkpt>
      <trkpt lat="46.25811" lon="6.87305">
        <ele>1789.15</ele>
        <time>2015-06-28T11:29:57Z</time>
      </trkpt>
      <trkpt lat="46.25806" lon="6.87309">
        <ele>1789.63</ele>
        <time>2015-06-28T11:30:07Z</time>
      </trkpt>
      <trkpt lat="46.25804" lon="6.87309">
        <ele>1788.67</ele>
        <time>2015-06-28T11:30:10Z</time>
      </trkpt>
      <trkpt lat="46.2578" lon="6.87317">
        <ele>1783.86</ele>
        <time>2015-06-28T11:30:17Z</time>
      </trkpt>
      <trkpt lat="46.2577" lon="6.87318">
        <ele>1781.94</ele>
        <time>2015-06-28T11:30:19Z</time>
      </trkpt>
      <trkpt lat="46.25747" lon="6.87326">
        <ele>1778.58</ele>
        <time>2015-06-28T11:30:23Z</time>
      </trkpt>
      <trkpt lat="46.25723" lon="6.87343">
        <ele>1773.77</ele>
        <time>2015-06-28T11:30:29Z</time>
      </trkpt>
      <trkpt lat="46.25712" lon="6.87327">
        <ele>1770.41</ele>
        <time>2015-06-28T11:30:34Z</time>
      </trkpt>
      <trkpt lat="46.25693" lon="6.87311">
        <ele>1767.04</ele>
        <time>2015-06-28T11:30:38Z</time>
      </trkpt>
      <trkpt lat="46.2566" lon="6.87308">
        <ele>1760.79</ele>
        <time>2015-06-28T11:30:47Z</time>
      </trkpt>
      <trkpt lat="46.25638" lon="6.87311">
        <ele>1758.39</ele>
        <time>2015-06-28T11:30:53Z</time>
      </trkpt>
      <trkpt lat="46.25626" lon="6.87311">
        <ele>1756.95</ele>
        <time>2015-06-28T11:30:58Z</time>
      </trkpt>
      <trkpt lat="46.25614" lon="6.87317">
        <ele>1755.99</ele>
        <time>2015-06-28T11:31:01Z</time>
      </trkpt>
      <trkpt lat="46.25582" lon="6.8731">
        <ele>1753.58</ele>
        <time>2015-06-28T11:31:08Z</time>
      </trkpt>
      <trkpt lat="46.25557" lon="6.87309">
        <ele>1750.7</ele>
        <time>2015-06-28T11:31:13Z</time>
      </trkpt>
      <trkpt lat="46.2549" lon="6.87306">
        <ele>1747.81</ele>
        <time>2015-06-28T11:31:23Z</time>
      </trkpt>
      <trkpt lat="46.25465" lon="6.87314">
        <ele>1747.33</ele>
        <time>2015-06-28T11:31:26Z</time>
      </trkpt>
      <trkpt lat="46.25403" lon="6.87335">
        <ele>1747.81</ele>
        <time>2015-06-28T11:31:35Z</time>
      </trkpt>
      <trkpt lat="46.2534" lon="6.87328">
        <ele>1747.33</ele>
        <time>2015-06-28T11:31:48Z</time>
      </trkpt>
      <trkpt lat="46.25326" lon="6.87321">
        <ele>1746.37</ele>
        <time>2015-06-28T11:31:51Z</time>
      </trkpt>
      <trkpt lat="46.25318" lon="6.87317">
        <ele>1745.89</ele>
        <time>2015-06-28T11:31:53Z</time>
      </trkpt>
      <trkpt lat="46.25306" lon="6.87315">
        <ele>1743.97</ele>
        <time>2015-06-28T11:31:56Z</time>
      </trkpt>
      <trkpt lat="46.25263" lon="6.87297">
        <ele>1740.6</ele>
        <time>2015-06-28T11:32:04Z</time>
      </trkpt>
      <trkpt lat="46.25231" lon="6.87298">
        <ele>1738.2</ele>
        <time>2015-06-28T11:32:09Z</time>
      </trkpt>
      <trkpt lat="46.25199" lon="6.87323">
        <ele>1734.36</ele>
        <time>2015-06-28T11:32:14Z</time>
      </trkpt>
      <trkpt lat="46.25184" lon="6.87334">
        <ele>1732.43</ele>
        <time>2015-06-28T11:32:16Z</time>
      </trkpt>
      <trkpt lat="46.25145" lon="6.87328">
        <ele>1728.11</ele>
        <time>2015-06-28T11:32:23Z</time>
      </trkpt>
      <trkpt lat="46.25127" lon="6.87313">
        <ele>1722.82</ele>
        <time>2015-06-28T11:32:27Z</time>
      </trkpt>
      <trkpt lat="46.25113" lon="6.87288">
        <ele>1711.28</ele>
        <time>2015-06-28T11:32:31Z</time>
      </trkpt>
      <trkpt lat="46.25099" lon="6.87228">
        <ele>1699.27</ele>
        <time>2015-06-28T11:32:40Z</time>
      </trkpt>
      <trkpt lat="46.25097" lon="6.87221">
        <ele>1697.34</ele>
        <time>2015-06-28T11:32:43Z</time>
      </trkpt>
      <trkpt lat="46.2509" lon="6.87218">
        <ele>1694.94</ele>
        <time>2015-06-28T11:32:47Z</time>
      </trkpt>
      <trkpt lat="46.25094" lon="6.87169">
        <ele>1687.25</ele>
        <time>2015-06-28T11:32:55Z</time>
      </trkpt>
      <trkpt lat="46.251" lon="6.8716">
        <ele>1686.29</ele>
        <time>2015-06-28T11:32:56Z</time>
      </trkpt>
      <trkpt lat="46.25123" lon="6.87134">
        <ele>1682.44</ele>
        <time>2015-06-28T11:33:00Z</time>
      </trkpt>
      <trkpt lat="46.2511" lon="6.87104">
        <ele>1676.68</ele>
        <time>2015-06-28T11:33:06Z</time>
      </trkpt>
      <trkpt lat="46.25078" lon="6.87096">
        <ele>1672.35</ele>
        <time>2015-06-28T11:33:11Z</time>
      </trkpt>
      <trkpt lat="46.25048" lon="6.87086">
        <ele>1668.02</ele>
        <time>2015-06-28T11:33:16Z</time>
      </trkpt>
      <trkpt lat="46.25015" lon="6.87089">
        <ele>1663.22</ele>
        <time>2015-06-28T11:33:20Z</time>
      </trkpt>
      <trkpt lat="46.24981" lon="6.8708">
        <ele>1656.97</ele>
        <time>2015-06-28T11:33:24Z</time>
      </trkpt>
      <trkpt lat="46.24969" lon="6.87058">
        <ele>1653.6</ele>
        <time>2015-06-28T11:33:26Z</time>
      </trkpt>
      <trkpt lat="46.24898" lon="6.8703">
        <ele>1643.99</ele>
        <time>2015-06-28T11:33:32Z</time>
      </trkpt>
      <trkpt lat="46.24865" lon="6.87012">
        <ele>1640.63</ele>
        <time>2015-06-28T11:33:35Z</time>
      </trkpt>
      <trkpt lat="46.24803" lon="6.87019">
        <ele>1632.94</ele>
        <time>2015-06-28T11:33:42Z</time>
      </trkpt>
      <trkpt lat="46.24783" lon="6.87021">
        <ele>1630.05</ele>
        <time>2015-06-28T11:33:44Z</time>
      </trkpt>
      <trkpt lat="46.24746" lon="6.87039">
        <ele>1623.8</ele>
        <time>2015-06-28T11:33:48Z</time>
      </trkpt>
      <trkpt lat="46.24719" lon="6.87065">
        <ele>1625.73</ele>
        <time>2015-06-28T11:33:52Z</time>
      </trkpt>
      <trkpt lat="46.24684" lon="6.87087">
        <ele>1627.65</ele>
        <time>2015-06-28T11:33:58Z</time>
      </trkpt>
      <trkpt lat="46.24656" lon="6.87097">
        <ele>1630.05</ele>
        <time>2015-06-28T11:34:03Z</time>
      </trkpt>
      <trkpt lat="46.24638" lon="6.87086">
        <ele>1630.53</ele>
        <time>2015-06-28T11:34:07Z</time>
      </trkpt>
      <trkpt lat="46.24635" lon="6.87071">
        <ele>1629.57</ele>
        <time>2015-06-28T11:34:09Z</time>
      </trkpt>
      <trkpt lat="46.24622" lon="6.87041">
        <ele>1628.61</ele>
        <time>2015-06-28T11:34:13Z</time>
      </trkpt>
      <trkpt lat="46.24588" lon="6.86923">
        <ele>1625.25</ele>
        <time>2015-06-28T11:34:27Z</time>
      </trkpt>
      <trkpt lat="46.24581" lon="6.8686">
        <ele>1626.69</ele>
        <time>2015-06-28T11:34:39Z</time>
      </trkpt>
      <trkpt lat="46.24599" lon="6.86823">
        <ele>1628.13</ele>
        <time>2015-06-28T11:34:48Z</time>
      </trkpt>
      <trkpt lat="46.24603" lon="6.8678">
        <ele>1627.17</ele>
        <time>2015-06-28T11:34:59Z</time>
      </trkpt>
      <trkpt lat="46.2461" lon="6.86706">
        <ele>1629.09</ele>
        <time>2015-06-28T11:35:12Z</time>
      </trkpt>
      <trkpt lat="46.24621" lon="6.86652">
        <ele>1631.49</ele>
        <time>2015-06-28T11:35:23Z</time>
      </trkpt>
      <trkpt lat="46.2462" lon="6.86587">
        <ele>1632.94</ele>
        <time>2015-06-28T11:35:35Z</time>
      </trkpt>
      <trkpt lat="46.24606" lon="6.86556">
        <ele>1631.98</ele>
        <time>2015-06-28T11:35:42Z</time>
      </trkpt>
      <trkpt lat="46.24581" lon="6.86509">
        <ele>1631.98</ele>
        <time>2015-06-28T11:35:53Z</time>
      </trkpt>
      <trkpt lat="46.24583" lon="6.86435">
        <ele>1632.46</ele>
        <time>2015-06-28T11:36:05Z</time>
      </trkpt>
      <trkpt lat="46.24587" lon="6.86368">
        <ele>1634.38</ele>
        <time>2015-06-28T11:36:17Z</time>
      </trkpt>
      <trkpt lat="46.24595" lon="6.8632">
        <ele>1637.74</ele>
        <time>2015-06-28T11:36:27Z</time>
      </trkpt>
      <trkpt lat="46.24597" lon="6.86304">
        <ele>1639.19</ele>
        <time>2015-06-28T11:36:32Z</time>
      </trkpt>
      <trkpt lat="46.24599" lon="6.86299">
        <ele>1639.67</ele>
        <time>2015-06-28T11:36:34Z</time>
      </trkpt>
      <trkpt lat="46.24593" lon="6.86262">
        <ele>1643.99</ele>
        <time>2015-06-28T11:36:47Z</time>
      </trkpt>
      <trkpt lat="46.24593" lon="6.86214">
        <ele>1648.32</ele>
        <time>2015-06-28T11:37:04Z</time>
      </trkpt>
      <trkpt lat="46.24596" lon="6.86178">
        <ele>1652.64</ele>
        <time>2015-06-28T11:37:17Z</time>
      </trkpt>
      <trkpt lat="46.24612" lon="6.86137">
        <ele>1653.12</ele>
        <time>2015-06-28T11:37:32Z</time>
      </trkpt>
      <trkpt lat="46.24616" lon="6.86119">
        <ele>1652.16</ele>
        <time>2015-06-28T11:37:36Z</time>
      </trkpt>
      <trkpt lat="46.24607" lon="6.86074">
        <ele>1650.24</ele>
        <time>2015-06-28T11:37:43Z</time>
      </trkpt>
      <trkpt lat="46.24603" lon="6.86017">
        <ele>1647.36</ele>
        <time>2015-06-28T11:37:50Z</time>
      </trkpt>
      <trkpt lat="46.24612" lon="6.85932">
        <ele>1645.91</ele>
        <time>2015-06-28T11:37:58Z</time>
      </trkpt>
      <trkpt lat="46.24645" lon="6.85882">
        <ele>1642.55</ele>
        <time>2015-06-28T11:38:03Z</time>
      </trkpt>
      <trkpt lat="46.24652" lon="6.85854">
        <ele>1640.63</ele>
        <time>2015-06-28T11:38:05Z</time>
      </trkpt>
      <trkpt lat="46.2467" lon="6.85829">
        <ele>1638.22</ele>
        <time>2015-06-28T11:38:08Z</time>
      </trkpt>
      <trkpt lat="46.24695" lon="6.85756">
        <ele>1635.34</ele>
        <time>2015-06-28T11:38:14Z</time>
      </trkpt>
      <trkpt lat="46.24729" lon="6.85737">
        <ele>1630.05</ele>
        <time>2015-06-28T11:38:20Z</time>
      </trkpt>
      <trkpt lat="46.24748" lon="6.85741">
        <ele>1628.13</ele>
        <time>2015-06-28T11:38:22Z</time>
      </trkpt>
      <trkpt lat="46.24783" lon="6.85735">
        <ele>1621.88</ele>
        <time>2015-06-28T11:38:26Z</time>
      </trkpt>
      <trkpt lat="46.24801" lon="6.85719">
        <ele>1619.96</ele>
        <time>2015-06-28T11:38:28Z</time>
      </trkpt>
      <trkpt lat="46.24833" lon="6.85647">
        <ele>1614.67</ele>
        <time>2015-06-28T11:38:34Z</time>
      </trkpt>
      <trkpt lat="46.24848" lon="6.85546">
        <ele>1609.86</ele>
        <time>2015-06-28T11:38:41Z</time>
      </trkpt>
      <trkpt lat="46.24895" lon="6.85491">
        <ele>1603.62</ele>
        <time>2015-06-28T11:38:48Z</time>
      </trkpt>
      <trkpt lat="46.24932" lon="6.85482">
        <ele>1598.81</ele>
        <time>2015-06-28T11:38:52Z</time>
      </trkpt>
      <trkpt lat="46.24969" lon="6.85496">
        <ele>1592.56</ele>
        <time>2015-06-28T11:38:56Z</time>
      </trkpt>
      <trkpt lat="46.24998" lon="6.8547">
        <ele>1588.24</ele>
        <time>2015-06-28T11:39:01Z</time>
      </trkpt>
      <trkpt lat="46.25004" lon="6.85442">
        <ele>1586.79</ele>
        <time>2015-06-28T11:39:03Z</time>
      </trkpt>
      <trkpt lat="46.25062" lon="6.85377">
        <ele>1581.03</ele>
        <time>2015-06-28T11:39:11Z</time>
      </trkpt>
      <trkpt lat="46.25078" lon="6.85385">
        <ele>1579.58</ele>
        <time>2015-06-28T11:39:13Z</time>
      </trkpt>
      <trkpt lat="46.25095" lon="6.85398">
        <ele>1577.18</ele>
        <time>2015-06-28T11:39:15Z</time>
      </trkpt>
      <trkpt lat="46.25123" lon="6.85397">
        <ele>1574.3</ele>
        <time>2015-06-28T11:39:18Z</time>
      </trkpt>
      <trkpt lat="46.25137" lon="6.85356">
        <ele>1569.01</ele>
        <time>2015-06-28T11:39:23Z</time>
      </trkpt>
      <trkpt lat="46.25123" lon="6.8533">
        <ele>1567.57</ele>
        <time>2015-06-28T11:39:25Z</time>
      </trkpt>
      <trkpt lat="46.25071" lon="6.85264">
        <ele>1561.8</ele>
        <time>2015-06-28T11:39:32Z</time>
      </trkpt>
      <trkpt lat="46.25024" lon="6.85265">
        <ele>1555.55</ele>
        <time>2015-06-28T11:39:38Z</time>
      </trkpt>
      <trkpt lat="46.24973" lon="6.85306">
        <ele>1549.3</ele>
        <time>2015-06-28T11:39:45Z</time>
      </trkpt>
      <trkpt lat="46.24952" lon="6.8534">
        <ele>1545.94</ele>
        <time>2015-06-28T11:39:48Z</time>
      </trkpt>
      <trkpt lat="46.24914" lon="6.85367">
        <ele>1541.13</ele>
        <time>2015-06-28T11:39:53Z</time>
      </trkpt>
      <trkpt lat="46.24889" lon="6.85347">
        <ele>1537.77</ele>
        <time>2015-06-28T11:39:56Z</time>
      </trkpt>
      <trkpt lat="46.24836" lon="6.85364">
        <ele>1533.92</ele>
        <time>2015-06-28T11:40:02Z</time>
      </trkpt>
      <trkpt lat="46.24793" lon="6.85408">
        <ele>1531.04</ele>
        <time>2015-06-28T11:40:08Z</time>
      </trkpt>
      <trkpt lat="46.24778" lon="6.85451">
        <ele>1529.59</ele>
        <time>2015-06-28T11:40:12Z</time>
      </trkpt>
      <trkpt lat="46.24758" lon="6.85487">
        <ele>1529.59</ele>
        <time>2015-06-28T11:40:16Z</time>
      </trkpt>
      <trkpt lat="46.24734" lon="6.85501">
        <ele>1529.11</ele>
        <time>2015-06-28T11:40:19Z</time>
      </trkpt>
      <trkpt lat="46.24701" lon="6.85514">
        <ele>1531.04</ele>
        <time>2015-06-28T11:40:23Z</time>
      </trkpt>
      <trkpt lat="46.24659" lon="6.85572">
        <ele>1532.96</ele>
        <time>2015-06-28T11:40:30Z</time>
      </trkpt>
      <trkpt lat="46.24631" lon="6.85591">
        <ele>1532.96</ele>
        <time>2015-06-28T11:40:34Z</time>
      </trkpt>
      <trkpt lat="46.24615" lon="6.85593">
        <ele>1532.96</ele>
        <time>2015-06-28T11:40:36Z</time>
      </trkpt>
      <trkpt lat="46.24587" lon="6.85623">
        <ele>1533.44</ele>
        <time>2015-06-28T11:40:41Z</time>
      </trkpt>
      <trkpt lat="46.24548" lon="6.8568">
        <ele>1533.92</ele>
        <time>2015-06-28T11:40:48Z</time>
      </trkpt>
      <trkpt lat="46.24512" lon="6.85701">
        <ele>1532.96</ele>
        <time>2015-06-28T11:40:53Z</time>
      </trkpt>
      <trkpt lat="46.24479" lon="6.85759">
        <ele>1532</ele>
        <time>2015-06-28T11:41:00Z</time>
      </trkpt>
      <trkpt lat="46.24467" lon="6.8579">
        <ele>1531.04</ele>
        <time>2015-06-28T11:41:03Z</time>
      </trkpt>
      <trkpt lat="46.24457" lon="6.85822">
        <ele>1530.08</ele>
        <time>2015-06-28T11:41:06Z</time>
      </trkpt>
      <trkpt lat="46.24449" lon="6.85867">
        <ele>1528.15</ele>
        <time>2015-06-28T11:41:10Z</time>
      </trkpt>
      <trkpt lat="46.2443" lon="6.85893">
        <ele>1528.63</ele>
        <time>2015-06-28T11:41:14Z</time>
      </trkpt>
      <trkpt lat="46.24411" lon="6.85895">
        <ele>1528.15</ele>
        <time>2015-06-28T11:41:16Z</time>
      </trkpt>
      <trkpt lat="46.24385" lon="6.85913">
        <ele>1525.75</ele>
        <time>2015-06-28T11:41:19Z</time>
      </trkpt>
      <trkpt lat="46.24369" lon="6.85949">
        <ele>1522.39</ele>
        <time>2015-06-28T11:41:23Z</time>
      </trkpt>
      <trkpt lat="46.24357" lon="6.85953">
        <ele>1515.18</ele>
        <time>2015-06-28T11:41:29Z</time>
      </trkpt>
      <trkpt lat="46.24356" lon="6.85894">
        <ele>1507.48</ele>
        <time>2015-06-28T11:41:33Z</time>
      </trkpt>
      <trkpt lat="46.2436" lon="6.85864">
        <ele>1504.12</ele>
        <time>2015-06-28T11:41:35Z</time>
      </trkpt>
      <trkpt lat="46.24374" lon="6.85828">
        <ele>1498.83</ele>
        <time>2015-06-28T11:41:39Z</time>
      </trkpt>
      <trkpt lat="46.24376" lon="6.85806">
        <ele>1494.03</ele>
        <time>2015-06-28T11:41:44Z</time>
      </trkpt>
      <trkpt lat="46.24361" lon="6.85815">
        <ele>1491.14</ele>
        <time>2015-06-28T11:41:46Z</time>
      </trkpt>
      <trkpt lat="46.24332" lon="6.85837">
        <ele>1487.3</ele>
        <time>2015-06-28T11:41:50Z</time>
      </trkpt>
      <trkpt lat="46.24325" lon="6.85862">
        <ele>1485.37</ele>
        <time>2015-06-28T11:41:52Z</time>
      </trkpt>
      <trkpt lat="46.24312" lon="6.85885">
        <ele>1485.37</ele>
        <time>2015-06-28T11:41:55Z</time>
      </trkpt>
      <trkpt lat="46.24294" lon="6.85898">
        <ele>1481.05</ele>
        <time>2015-06-28T11:42:00Z</time>
      </trkpt>
      <trkpt lat="46.24294" lon="6.85887">
        <ele>1481.53</ele>
        <time>2015-06-28T11:42:02Z</time>
      </trkpt>
      <trkpt lat="46.24301" lon="6.85865">
        <ele>1482.01</ele>
        <time>2015-06-28T11:42:04Z</time>
      </trkpt>
      <trkpt lat="46.24301" lon="6.85811">
        <ele>1481.05</ele>
        <time>2015-06-28T11:42:08Z</time>
      </trkpt>
      <trkpt lat="46.24314" lon="6.85769">
        <ele>1478.16</ele>
        <time>2015-06-28T11:42:13Z</time>
      </trkpt>
      <trkpt lat="46.24333" lon="6.85764">
        <ele>1477.68</ele>
        <time>2015-06-28T11:42:15Z</time>
      </trkpt>
      <trkpt lat="46.24363" lon="6.8573">
        <ele>1475.28</ele>
        <time>2015-06-28T11:42:19Z</time>
      </trkpt>
      <trkpt lat="46.24379" lon="6.85695">
        <ele>1474.32</ele>
        <time>2015-06-28T11:42:22Z</time>
      </trkpt>
      <trkpt lat="46.24404" lon="6.85649">
        <ele>1472.4</ele>
        <time>2015-06-28T11:42:26Z</time>
      </trkpt>
      <trkpt lat="46.24418" lon="6.85624">
        <ele>1470.47</ele>
        <time>2015-06-28T11:42:28Z</time>
      </trkpt>
      <trkpt lat="46.24438" lon="6.85583">
        <ele>1467.11</ele>
        <time>2015-06-28T11:42:31Z</time>
      </trkpt>
      <trkpt lat="46.24487" lon="6.85451">
        <ele>1460.38</ele>
        <time>2015-06-28T11:42:39Z</time>
      </trkpt>
      <trkpt lat="46.24501" lon="6.8537">
        <ele>1453.65</ele>
        <time>2015-06-28T11:42:44Z</time>
      </trkpt>
      <trkpt lat="46.24507" lon="6.85332">
        <ele>1451.73</ele>
        <time>2015-06-28T11:42:46Z</time>
      </trkpt>
      <trkpt lat="46.2455" lon="6.8525">
        <ele>1445</ele>
        <time>2015-06-28T11:42:51Z</time>
      </trkpt>
      <trkpt lat="46.24601" lon="6.85163">
        <ele>1436.35</ele>
        <time>2015-06-28T11:42:57Z</time>
      </trkpt>
      <trkpt lat="46.24646" lon="6.85122">
        <ele>1431.54</ele>
        <time>2015-06-28T11:43:01Z</time>
      </trkpt>
      <trkpt lat="46.24693" lon="6.85109">
        <ele>1424.33</ele>
        <time>2015-06-28T11:43:05Z</time>
      </trkpt>
      <trkpt lat="46.24717" lon="6.85103">
        <ele>1420.97</ele>
        <time>2015-06-28T11:43:07Z</time>
      </trkpt>
      <trkpt lat="46.24746" lon="6.8504">
        <ele>1415.68</ele>
        <time>2015-06-28T11:43:12Z</time>
      </trkpt>
      <trkpt lat="46.24802" lon="6.84889">
        <ele>1402.22</ele>
        <time>2015-06-28T11:43:22Z</time>
      </trkpt>
      <trkpt lat="46.2481" lon="6.84875">
        <ele>1400.78</ele>
        <time>2015-06-28T11:43:23Z</time>
      </trkpt>
      <trkpt lat="46.24825" lon="6.84844">
        <ele>1397.89</ele>
        <time>2015-06-28T11:43:25Z</time>
      </trkpt>
      <trkpt lat="46.24866" lon="6.84816">
        <ele>1390.68</ele>
        <time>2015-06-28T11:43:29Z</time>
      </trkpt>
      <trkpt lat="46.2489" lon="6.84815">
        <ele>1388.28</ele>
        <time>2015-06-28T11:43:31Z</time>
      </trkpt>
      <trkpt lat="46.24954" lon="6.84773">
        <ele>1381.55</ele>
        <time>2015-06-28T11:43:37Z</time>
      </trkpt>
      <trkpt lat="46.24968" lon="6.84746">
        <ele>1379.63</ele>
        <time>2015-06-28T11:43:39Z</time>
      </trkpt>
      <trkpt lat="46.24979" lon="6.84726">
        <ele>1377.23</ele>
        <time>2015-06-28T11:43:41Z</time>
      </trkpt>
      <trkpt lat="46.24972" lon="6.84714">
        <ele>1373.38</ele>
        <time>2015-06-28T11:43:45Z</time>
      </trkpt>
      <trkpt lat="46.24946" lon="6.84753">
        <ele>1369.54</ele>
        <time>2015-06-28T11:43:50Z</time>
      </trkpt>
      <trkpt lat="46.24918" lon="6.84752">
        <ele>1368.09</ele>
        <time>2015-06-28T11:43:56Z</time>
      </trkpt>
      <trkpt lat="46.24921" lon="6.84738">
        <ele>1368.09</ele>
        <time>2015-06-28T11:43:58Z</time>
      </trkpt>
      <trkpt lat="46.24929" lon="6.84726">
        <ele>1367.61</ele>
        <time>2015-06-28T11:44:00Z</time>
      </trkpt>
      <trkpt lat="46.24942" lon="6.84687">
        <ele>1369.54</ele>
        <time>2015-06-28T11:44:05Z</time>
      </trkpt>
      <trkpt lat="46.24946" lon="6.84654">
        <ele>1369.05</ele>
        <time>2015-06-28T11:44:09Z</time>
      </trkpt>
      <trkpt lat="46.24954" lon="6.84623">
        <ele>1369.05</ele>
        <time>2015-06-28T11:44:14Z</time>
      </trkpt>
      <trkpt lat="46.24956" lon="6.84599">
        <ele>1370.02</ele>
        <time>2015-06-28T11:44:19Z</time>
      </trkpt>
      <trkpt lat="46.24941" lon="6.84597">
        <ele>1369.54</ele>
        <time>2015-06-28T11:44:26Z</time>
      </trkpt>
      <trkpt lat="46.24938" lon="6.84599">
        <ele>1369.05</ele>
        <time>2015-06-28T11:44:28Z</time>
      </trkpt>
      <trkpt lat="46.24935" lon="6.84605">
        <ele>1368.09</ele>
        <time>2015-06-28T11:44:32Z</time>
      </trkpt>
      <trkpt lat="46.24936" lon="6.84611">
        <ele>1366.65</ele>
        <time>2015-06-28T11:44:55Z</time>
      </trkpt>
      <trkpt lat="46.24935" lon="6.84613">
        <ele>1368.57</ele>
        <time>2015-06-28T11:48:15Z</time>
      </trkpt>
      <trkpt lat="46.24935" lon="6.84612">
        <ele>1368.57</ele>
        <time>2015-06-28T11:48:57Z</time>
      </trkpt>
      <trkpt lat="46.24899" lon="6.84619">
        <ele>1368.57</ele>
        <time>2015-06-28T11:49:12Z</time>
      </trkpt>
      <trkpt lat="46.24859" lon="6.84633">
        <ele>1367.61</ele>
        <time>2015-06-28T11:49:26Z</time>
      </trkpt>
      <trkpt lat="46.24814" lon="6.84647">
        <ele>1366.17</ele>
        <time>2015-06-28T11:49:39Z</time>
      </trkpt>
      <trkpt lat="46.24741" lon="6.84652">
        <ele>1362.81</ele>
        <time>2015-06-28T11:50:00Z</time>
      </trkpt>
      <trkpt lat="46.24709" lon="6.84667">
        <ele>1360.88</ele>
        <time>2015-06-28T11:50:11Z</time>
      </trkpt>
      <trkpt lat="46.24657" lon="6.8468">
        <ele>1361.84</ele>
        <time>2015-06-28T11:50:26Z</time>
      </trkpt>
      <trkpt lat="46.24596" lon="6.84715">
        <ele>1366.65</ele>
        <time>2015-06-28T11:50:43Z</time>
      </trkpt>
      <trkpt lat="46.24516" lon="6.84737">
        <ele>1375.3</ele>
        <time>2015-06-28T11:51:03Z</time>
      </trkpt>
      <trkpt lat="46.24461" lon="6.84769">
        <ele>1377.71</ele>
        <time>2015-06-28T11:51:19Z</time>
      </trkpt>
      <trkpt lat="46.2444" lon="6.84798">
        <ele>1377.71</ele>
        <time>2015-06-28T11:51:26Z</time>
      </trkpt>
      <trkpt lat="46.24424" lon="6.84856">
        <ele>1377.23</ele>
        <time>2015-06-28T11:51:35Z</time>
      </trkpt>
      <trkpt lat="46.24422" lon="6.84927">
        <ele>1375.78</ele>
        <time>2015-06-28T11:51:44Z</time>
      </trkpt>
      <trkpt lat="46.24369" lon="6.84983">
        <ele>1375.78</ele>
        <time>2015-06-28T11:51:57Z</time>
      </trkpt>
      <trkpt lat="46.24355" lon="6.85003">
        <ele>1376.26</ele>
        <time>2015-06-28T11:52:01Z</time>
      </trkpt>
      <trkpt lat="46.24345" lon="6.85028">
        <ele>1375.78</ele>
        <time>2015-06-28T11:52:06Z</time>
      </trkpt>
      <trkpt lat="46.24289" lon="6.85062">
        <ele>1375.78</ele>
        <time>2015-06-28T11:52:17Z</time>
      </trkpt>
      <trkpt lat="46.24253" lon="6.85083">
        <ele>1374.34</ele>
        <time>2015-06-28T11:52:22Z</time>
      </trkpt>
      <trkpt lat="46.24226" lon="6.85093">
        <ele>1371.94</ele>
        <time>2015-06-28T11:52:25Z</time>
      </trkpt>
      <trkpt lat="46.24071" lon="6.85101">
        <ele>1369.54</ele>
        <time>2015-06-28T11:52:41Z</time>
      </trkpt>
      <trkpt lat="46.2403" lon="6.8512">
        <ele>1366.17</ele>
        <time>2015-06-28T11:52:45Z</time>
      </trkpt>
      <trkpt lat="46.23987" lon="6.85121">
        <ele>1363.77</ele>
        <time>2015-06-28T11:52:49Z</time>
      </trkpt>
      <trkpt lat="46.23934" lon="6.85096">
        <ele>1361.36</ele>
        <time>2015-06-28T11:52:54Z</time>
      </trkpt>
      <trkpt lat="46.23862" lon="6.85119">
        <ele>1356.56</ele>
        <time>2015-06-28T11:53:00Z</time>
      </trkpt>
      <trkpt lat="46.2383" lon="6.85146">
        <ele>1353.67</ele>
        <time>2015-06-28T11:53:03Z</time>
      </trkpt>
      <trkpt lat="46.23763" lon="6.85176">
        <ele>1352.23</ele>
        <time>2015-06-28T11:53:09Z</time>
      </trkpt>
      <trkpt lat="46.23719" lon="6.85225">
        <ele>1349.35</ele>
        <time>2015-06-28T11:53:14Z</time>
      </trkpt>
      <trkpt lat="46.23683" lon="6.85284">
        <ele>1346.46</ele>
        <time>2015-06-28T11:53:19Z</time>
      </trkpt>
      <trkpt lat="46.23651" lon="6.85303">
        <ele>1345.5</ele>
        <time>2015-06-28T11:53:22Z</time>
      </trkpt>
      <trkpt lat="46.23635" lon="6.85363">
        <ele>1337.81</ele>
        <time>2015-06-28T11:53:27Z</time>
      </trkpt>
      <trkpt lat="46.2365" lon="6.85383">
        <ele>1334.93</ele>
        <time>2015-06-28T11:53:29Z</time>
      </trkpt>
      <trkpt lat="46.23676" lon="6.85408">
        <ele>1332.04</ele>
        <time>2015-06-28T11:53:32Z</time>
      </trkpt>
      <trkpt lat="46.23701" lon="6.85472">
        <ele>1328.2</ele>
        <time>2015-06-28T11:53:37Z</time>
      </trkpt>
      <trkpt lat="46.23697" lon="6.85555">
        <ele>1324.35</ele>
        <time>2015-06-28T11:53:42Z</time>
      </trkpt>
      <trkpt lat="46.23711" lon="6.8564">
        <ele>1320.03</ele>
        <time>2015-06-28T11:53:47Z</time>
      </trkpt>
      <trkpt lat="46.23707" lon="6.85752">
        <ele>1316.18</ele>
        <time>2015-06-28T11:53:54Z</time>
      </trkpt>
      <trkpt lat="46.23691" lon="6.8579">
        <ele>1317.14</ele>
        <time>2015-06-28T11:54:00Z</time>
      </trkpt>
      <trkpt lat="46.23686" lon="6.85795">
        <ele>1318.1</ele>
        <time>2015-06-28T11:54:04Z</time>
      </trkpt>
      <trkpt lat="46.23683" lon="6.85795">
        <ele>1319.07</ele>
        <time>2015-06-28T11:54:19Z</time>
      </trkpt>
      <trkpt lat="46.23681" lon="6.85796">
        <ele>1319.07</ele>
        <time>2015-06-28T11:54:21Z</time>
      </trkpt>
      <trkpt lat="46.23678" lon="6.85804">
        <ele>1318.1</ele>
        <time>2015-06-28T11:54:32Z</time>
      </trkpt>
      <trkpt lat="46.23676" lon="6.85808">
        <ele>1318.59</ele>
        <time>2015-06-28T11:54:57Z</time>
      </trkpt>
      <trkpt lat="46.23673" lon="6.85806">
        <ele>1319.55</ele>
        <time>2015-06-28T11:55:47Z</time>
      </trkpt>
      <trkpt lat="46.23668" lon="6.85806">
        <ele>1319.55</ele>
        <time>2015-06-28T11:56:05Z</time>
      </trkpt>
      <trkpt lat="46.23669" lon="6.85798">
        <ele>1320.03</ele>
        <time>2015-06-28T11:56:32Z</time>
      </trkpt>
      <trkpt lat="46.23671" lon="6.8581">
        <ele>1319.07</ele>
        <time>2015-06-28T11:56:53Z</time>
      </trkpt>
      <trkpt lat="46.23669" lon="6.85815">
        <ele>1318.59</ele>
        <time>2015-06-28T11:57:01Z</time>
      </trkpt>
      <trkpt lat="46.23629" lon="6.85831">
        <ele>1329.64</ele>
        <time>2015-06-28T11:57:12Z</time>
      </trkpt>
      <trkpt lat="46.23615" lon="6.85835">
        <ele>1332.52</ele>
        <time>2015-06-28T11:57:17Z</time>
      </trkpt>
      <trkpt lat="46.23597" lon="6.8584">
        <ele>1337.33</ele>
        <time>2015-06-28T11:57:24Z</time>
      </trkpt>
      <trkpt lat="46.2356" lon="6.85851">
        <ele>1346.94</ele>
        <time>2015-06-28T11:57:38Z</time>
      </trkpt>
      <trkpt lat="46.23536" lon="6.85859">
        <ele>1354.63</ele>
        <time>2015-06-28T11:57:48Z</time>
      </trkpt>
      <trkpt lat="46.23499" lon="6.85864">
        <ele>1368.09</ele>
        <time>2015-06-28T11:58:02Z</time>
      </trkpt>
      <trkpt lat="46.23469" lon="6.85873">
        <ele>1380.11</ele>
        <time>2015-06-28T11:58:15Z</time>
      </trkpt>
      <trkpt lat="46.23425" lon="6.85889">
        <ele>1419.04</ele>
        <time>2015-06-28T11:58:35Z</time>
      </trkpt>
      <trkpt lat="46.2338" lon="6.85901">
        <ele>1455.09</ele>
        <time>2015-06-28T11:58:54Z</time>
      </trkpt>
      <trkpt lat="46.23331" lon="6.85914">
        <ele>1489.7</ele>
        <time>2015-06-28T11:59:15Z</time>
      </trkpt>
      <trkpt lat="46.23286" lon="6.85924">
        <ele>1518.06</ele>
        <time>2015-06-28T11:59:33Z</time>
      </trkpt>
      <trkpt lat="46.23236" lon="6.85938">
        <ele>1547.38</ele>
        <time>2015-06-28T11:59:54Z</time>
      </trkpt>
      <trkpt lat="46.23185" lon="6.85957">
        <ele>1580.06</ele>
        <time>2015-06-28T12:00:17Z</time>
      </trkpt>
      <trkpt lat="46.23154" lon="6.85968">
        <ele>1596.41</ele>
        <time>2015-06-28T12:00:33Z</time>
      </trkpt>
      <trkpt lat="46.23106" lon="6.85981">
        <ele>1612.75</ele>
        <time>2015-06-28T12:00:52Z</time>
      </trkpt>
      <trkpt lat="46.23023" lon="6.86002">
        <ele>1640.63</ele>
        <time>2015-06-28T12:01:23Z</time>
      </trkpt>
      <trkpt lat="46.2294" lon="6.86025">
        <ele>1667.54</ele>
        <time>2015-06-28T12:01:54Z</time>
      </trkpt>
      <trkpt lat="46.22874" lon="6.86041">
        <ele>1687.73</ele>
        <time>2015-06-28T12:02:18Z</time>
      </trkpt>
      <trkpt lat="46.22822" lon="6.86057">
        <ele>1704.07</ele>
        <time>2015-06-28T12:02:38Z</time>
      </trkpt>
      <trkpt lat="46.22767" lon="6.8607">
        <ele>1712.25</ele>
        <time>2015-06-28T12:02:57Z</time>
      </trkpt>
      <trkpt lat="46.22732" lon="6.86081">
        <ele>1728.59</ele>
        <time>2015-06-28T12:03:12Z</time>
      </trkpt>
      <trkpt lat="46.22698" lon="6.86088">
        <ele>1747.33</ele>
        <time>2015-06-28T12:03:26Z</time>
      </trkpt>
      <trkpt lat="46.22659" lon="6.86099">
        <ele>1772.81</ele>
        <time>2015-06-28T12:03:43Z</time>
      </trkpt>
      <trkpt lat="46.22628" lon="6.86109">
        <ele>1795.4</ele>
        <time>2015-06-28T12:03:58Z</time>
      </trkpt>
      <trkpt lat="46.22549" lon="6.86129">
        <ele>1825.68</ele>
        <time>2015-06-28T12:04:28Z</time>
      </trkpt>
      <trkpt lat="46.2252" lon="6.86137">
        <ele>1826.16</ele>
        <time>2015-06-28T12:04:39Z</time>
      </trkpt>
      <trkpt lat="46.22512" lon="6.86134">
        <ele>1824.72</ele>
        <time>2015-06-28T12:04:51Z</time>
      </trkpt>
      <trkpt lat="46.22511" lon="6.86135">
        <ele>1824.72</ele>
        <time>2015-06-28T12:04:57Z</time>
      </trkpt>
      <trkpt lat="46.22497" lon="6.86143">
        <ele>1825.2</ele>
        <time>2015-06-28T12:05:10Z</time>
      </trkpt>
      <trkpt lat="46.22499" lon="6.86142">
        <ele>1823.28</ele>
        <time>2015-06-28T12:05:51Z</time>
      </trkpt>
      <trkpt lat="46.22501" lon="6.86144">
        <ele>1824.72</ele>
        <time>2015-06-28T12:07:57Z</time>
      </trkpt>
      <trkpt lat="46.22495" lon="6.86151">
        <ele>1822.32</ele>
        <time>2015-06-28T12:08:02Z</time>
      </trkpt>
      <trkpt lat="46.22472" lon="6.86153">
        <ele>1819.43</ele>
        <time>2015-06-28T12:08:05Z</time>
      </trkpt>
      <trkpt lat="46.22421" lon="6.86184">
        <ele>1815.59</ele>
        <time>2015-06-28T12:08:13Z</time>
      </trkpt>
      <trkpt lat="46.22415" lon="6.86188">
        <ele>1815.11</ele>
        <time>2015-06-28T12:08:14Z</time>
      </trkpt>
      <trkpt lat="46.22364" lon="6.86185">
        <ele>1805.01</ele>
        <time>2015-06-28T12:08:21Z</time>
      </trkpt>
      <trkpt lat="46.22323" lon="6.86166">
        <ele>1797.8</ele>
        <time>2015-06-28T12:08:26Z</time>
      </trkpt>
      <trkpt lat="46.22298" lon="6.86171">
        <ele>1791.07</ele>
        <time>2015-06-28T12:08:32Z</time>
      </trkpt>
      <trkpt lat="46.22288" lon="6.8617">
        <ele>1789.15</ele>
        <time>2015-06-28T12:08:34Z</time>
      </trkpt>
      <trkpt lat="46.22251" lon="6.86177">
        <ele>1779.54</ele>
        <time>2015-06-28T12:08:42Z</time>
      </trkpt>
      <trkpt lat="46.22222" lon="6.86186">
        <ele>1772.33</ele>
        <time>2015-06-28T12:08:51Z</time>
      </trkpt>
      <trkpt lat="46.22209" lon="6.86191">
        <ele>1767.52</ele>
        <time>2015-06-28T12:08:56Z</time>
      </trkpt>
      <trkpt lat="46.22179" lon="6.86204">
        <ele>1761.27</ele>
        <time>2015-06-28T12:09:01Z</time>
      </trkpt>
      <trkpt lat="46.22152" lon="6.86229">
        <ele>1753.58</ele>
        <time>2015-06-28T12:09:08Z</time>
      </trkpt>
      <trkpt lat="46.22131" lon="6.86205">
        <ele>1745.89</ele>
        <time>2015-06-28T12:09:15Z</time>
      </trkpt>
      <trkpt lat="46.22125" lon="6.86189">
        <ele>1743.49</ele>
        <time>2015-06-28T12:09:17Z</time>
      </trkpt>
      <trkpt lat="46.22089" lon="6.86173">
        <ele>1733.88</ele>
        <time>2015-06-28T12:09:25Z</time>
      </trkpt>
      <trkpt lat="46.22076" lon="6.86138">
        <ele>1730.03</ele>
        <time>2015-06-28T12:09:31Z</time>
      </trkpt>
      <trkpt lat="46.22074" lon="6.86115">
        <ele>1728.59</ele>
        <time>2015-06-28T12:09:34Z</time>
      </trkpt>
      <trkpt lat="46.22072" lon="6.86101">
        <ele>1727.63</ele>
        <time>2015-06-28T12:09:36Z</time>
      </trkpt>
      <trkpt lat="46.22071" lon="6.86088">
        <ele>1727.63</ele>
        <time>2015-06-28T12:09:38Z</time>
      </trkpt>
      <trkpt lat="46.22039" lon="6.86027">
        <ele>1727.15</ele>
        <time>2015-06-28T12:09:47Z</time>
      </trkpt>
      <trkpt lat="46.22027" lon="6.86011">
        <ele>1728.11</ele>
        <time>2015-06-28T12:09:51Z</time>
      </trkpt>
      <trkpt lat="46.22019" lon="6.85986">
        <ele>1729.07</ele>
        <time>2015-06-28T12:09:55Z</time>
      </trkpt>
      <trkpt lat="46.22014" lon="6.85972">
        <ele>1729.07</ele>
        <time>2015-06-28T12:09:57Z</time>
      </trkpt>
      <trkpt lat="46.22003" lon="6.8595">
        <ele>1729.55</ele>
        <time>2015-06-28T12:10:01Z</time>
      </trkpt>
      <trkpt lat="46.21955" lon="6.85927">
        <ele>1730.03</ele>
        <time>2015-06-28T12:10:11Z</time>
      </trkpt>
      <trkpt lat="46.21936" lon="6.85926">
        <ele>1733.88</ele>
        <time>2015-06-28T12:10:15Z</time>
      </trkpt>
      <trkpt lat="46.21888" lon="6.85946">
        <ele>1743.01</ele>
        <time>2015-06-28T12:10:28Z</time>
      </trkpt>
      <trkpt lat="46.21827" lon="6.85958">
        <ele>1744.93</ele>
        <time>2015-06-28T12:10:41Z</time>
      </trkpt>
      <trkpt lat="46.21801" lon="6.85974">
        <ele>1745.89</ele>
        <time>2015-06-28T12:10:47Z</time>
      </trkpt>
      <trkpt lat="46.21791" lon="6.85987">
        <ele>1745.89</ele>
        <time>2015-06-28T12:10:50Z</time>
      </trkpt>
      <trkpt lat="46.2178" lon="6.86018">
        <ele>1745.89</ele>
        <time>2015-06-28T12:10:55Z</time>
      </trkpt>
      <trkpt lat="46.21767" lon="6.86052">
        <ele>1745.89</ele>
        <time>2015-06-28T12:11:01Z</time>
      </trkpt>
      <trkpt lat="46.21753" lon="6.86067">
        <ele>1745.89</ele>
        <time>2015-06-28T12:11:05Z</time>
      </trkpt>
      <trkpt lat="46.21723" lon="6.86112">
        <ele>1745.41</ele>
        <time>2015-06-28T12:11:17Z</time>
      </trkpt>
      <trkpt lat="46.21713" lon="6.86126">
        <ele>1746.85</ele>
        <time>2015-06-28T12:11:21Z</time>
      </trkpt>
      <trkpt lat="46.21699" lon="6.86126">
        <ele>1746.37</ele>
        <time>2015-06-28T12:11:25Z</time>
      </trkpt>
      <trkpt lat="46.2165" lon="6.86074">
        <ele>1745.89</ele>
        <time>2015-06-28T12:11:42Z</time>
      </trkpt>
      <trkpt lat="46.21615" lon="6.86014">
        <ele>1746.37</ele>
        <time>2015-06-28T12:11:57Z</time>
      </trkpt>
      <trkpt lat="46.21575" lon="6.85945">
        <ele>1747.33</ele>
        <time>2015-06-28T12:12:13Z</time>
      </trkpt>
      <trkpt lat="46.21555" lon="6.85919">
        <ele>1747.81</ele>
        <time>2015-06-28T12:12:20Z</time>
      </trkpt>
      <trkpt lat="46.21529" lon="6.85842">
        <ele>1748.78</ele>
        <time>2015-06-28T12:12:35Z</time>
      </trkpt>
      <trkpt lat="46.21507" lon="6.85806">
        <ele>1751.18</ele>
        <time>2015-06-28T12:12:44Z</time>
      </trkpt>
      <trkpt lat="46.21466" lon="6.85743">
        <ele>1753.1</ele>
        <time>2015-06-28T12:13:01Z</time>
      </trkpt>
      <trkpt lat="46.21416" lon="6.85675">
        <ele>1754.06</ele>
        <time>2015-06-28T12:13:18Z</time>
      </trkpt>
      <trkpt lat="46.21363" lon="6.85633">
        <ele>1750.7</ele>
        <time>2015-06-28T12:13:29Z</time>
      </trkpt>
      <trkpt lat="46.21346" lon="6.85612">
        <ele>1750.22</ele>
        <time>2015-06-28T12:13:32Z</time>
      </trkpt>
      <trkpt lat="46.21335" lon="6.85588">
        <ele>1751.66</ele>
        <time>2015-06-28T12:13:35Z</time>
      </trkpt>
      <trkpt lat="46.21285" lon="6.85542">
        <ele>1752.62</ele>
        <time>2015-06-28T12:13:47Z</time>
      </trkpt>
      <trkpt lat="46.21266" lon="6.85511">
        <ele>1752.62</ele>
        <time>2015-06-28T12:13:52Z</time>
      </trkpt>
      <trkpt lat="46.21239" lon="6.85464">
        <ele>1753.58</ele>
        <time>2015-06-28T12:14:00Z</time>
      </trkpt>
      <trkpt lat="46.21217" lon="6.85442">
        <ele>1752.62</ele>
        <time>2015-06-28T12:14:04Z</time>
      </trkpt>
      <trkpt lat="46.21166" lon="6.85404">
        <ele>1744.93</ele>
        <time>2015-06-28T12:14:11Z</time>
      </trkpt>
      <trkpt lat="46.21122" lon="6.85347">
        <ele>1739.64</ele>
        <time>2015-06-28T12:14:17Z</time>
      </trkpt>
      <trkpt lat="46.21113" lon="6.85344">
        <ele>1736.76</ele>
        <time>2015-06-28T12:14:23Z</time>
      </trkpt>
      <trkpt lat="46.21113" lon="6.85348">
        <ele>1736.28</ele>
        <time>2015-06-28T12:14:24Z</time>
      </trkpt>
      <trkpt lat="46.21133" lon="6.85412">
        <ele>1731.95</ele>
        <time>2015-06-28T12:14:29Z</time>
      </trkpt>
      <trkpt lat="46.21136" lon="6.85472">
        <ele>1725.22</ele>
        <time>2015-06-28T12:14:35Z</time>
      </trkpt>
      <trkpt lat="46.2113" lon="6.85477">
        <ele>1724.74</ele>
        <time>2015-06-28T12:14:36Z</time>
      </trkpt>
      <trkpt lat="46.21115" lon="6.85485">
        <ele>1723.3</ele>
        <time>2015-06-28T12:14:38Z</time>
      </trkpt>
      <trkpt lat="46.21076" lon="6.8552">
        <ele>1719.94</ele>
        <time>2015-06-28T12:14:44Z</time>
      </trkpt>
      <trkpt lat="46.2101" lon="6.85578">
        <ele>1710.32</ele>
        <time>2015-06-28T12:14:51Z</time>
      </trkpt>
      <trkpt lat="46.20965" lon="6.85643">
        <ele>1706.48</ele>
        <time>2015-06-28T12:14:57Z</time>
      </trkpt>
      <trkpt lat="46.20946" lon="6.85664">
        <ele>1705.04</ele>
        <time>2015-06-28T12:15:01Z</time>
      </trkpt>
      <trkpt lat="46.20928" lon="6.85677">
        <ele>1703.59</ele>
        <time>2015-06-28T12:15:05Z</time>
      </trkpt>
      <trkpt lat="46.20883" lon="6.85668">
        <ele>1703.59</ele>
        <time>2015-06-28T12:15:15Z</time>
      </trkpt>
      <trkpt lat="46.20869" lon="6.85647">
        <ele>1703.59</ele>
        <time>2015-06-28T12:15:19Z</time>
      </trkpt>
      <trkpt lat="46.20837" lon="6.85646">
        <ele>1701.19</ele>
        <time>2015-06-28T12:15:26Z</time>
      </trkpt>
      <trkpt lat="46.20829" lon="6.8566">
        <ele>1701.67</ele>
        <time>2015-06-28T12:15:28Z</time>
      </trkpt>
      <trkpt lat="46.20819" lon="6.85682">
        <ele>1704.55</ele>
        <time>2015-06-28T12:15:32Z</time>
      </trkpt>
      <trkpt lat="46.20762" lon="6.85752">
        <ele>1706.96</ele>
        <time>2015-06-28T12:15:48Z</time>
      </trkpt>
      <trkpt lat="46.20731" lon="6.85766">
        <ele>1710.8</ele>
        <time>2015-06-28T12:15:59Z</time>
      </trkpt>
      <trkpt lat="46.20689" lon="6.85789">
        <ele>1714.65</ele>
        <time>2015-06-28T12:16:15Z</time>
      </trkpt>
      <trkpt lat="46.20676" lon="6.85803">
        <ele>1714.65</ele>
        <time>2015-06-28T12:16:20Z</time>
      </trkpt>
      <trkpt lat="46.20671" lon="6.85812">
        <ele>1713.69</ele>
        <time>2015-06-28T12:16:22Z</time>
      </trkpt>
      <trkpt lat="46.20664" lon="6.85831">
        <ele>1712.25</ele>
        <time>2015-06-28T12:16:25Z</time>
      </trkpt>
      <trkpt lat="46.20644" lon="6.85851">
        <ele>1712.25</ele>
        <time>2015-06-28T12:16:29Z</time>
      </trkpt>
      <trkpt lat="46.2058" lon="6.85838">
        <ele>1714.65</ele>
        <time>2015-06-28T12:16:43Z</time>
      </trkpt>
      <trkpt lat="46.20573" lon="6.85834">
        <ele>1713.69</ele>
        <time>2015-06-28T12:16:45Z</time>
      </trkpt>
      <trkpt lat="46.20556" lon="6.85832">
        <ele>1713.21</ele>
        <time>2015-06-28T12:16:49Z</time>
      </trkpt>
      <trkpt lat="46.20536" lon="6.85838">
        <ele>1711.76</ele>
        <time>2015-06-28T12:16:53Z</time>
      </trkpt>
      <trkpt lat="46.20505" lon="6.85834">
        <ele>1707.92</ele>
        <time>2015-06-28T12:17:00Z</time>
      </trkpt>
      <trkpt lat="46.20537" lon="6.85865">
        <ele>1701.19</ele>
        <time>2015-06-28T12:17:06Z</time>
      </trkpt>
      <trkpt lat="46.20592" lon="6.85884">
        <ele>1693.02</ele>
        <time>2015-06-28T12:17:12Z</time>
      </trkpt>
      <trkpt lat="46.20616" lon="6.85907">
        <ele>1688.69</ele>
        <time>2015-06-28T12:17:17Z</time>
      </trkpt>
      <trkpt lat="46.20652" lon="6.85916">
        <ele>1682.44</ele>
        <time>2015-06-28T12:17:22Z</time>
      </trkpt>
      <trkpt lat="46.20692" lon="6.85925">
        <ele>1677.64</ele>
        <time>2015-06-28T12:17:26Z</time>
      </trkpt>
      <trkpt lat="46.20734" lon="6.85947">
        <ele>1674.75</ele>
        <time>2015-06-28T12:17:30Z</time>
      </trkpt>
      <trkpt lat="46.20748" lon="6.85986">
        <ele>1672.35</ele>
        <time>2015-06-28T12:17:36Z</time>
      </trkpt>
      <trkpt lat="46.20744" lon="6.85992">
        <ele>1671.39</ele>
        <time>2015-06-28T12:17:37Z</time>
      </trkpt>
      <trkpt lat="46.20736" lon="6.86004">
        <ele>1671.39</ele>
        <time>2015-06-28T12:17:40Z</time>
      </trkpt>
      <trkpt lat="46.20731" lon="6.86001">
        <ele>1671.87</ele>
        <time>2015-06-28T12:17:57Z</time>
      </trkpt>
      <trkpt lat="46.20728" lon="6.86002">
        <ele>1671.87</ele>
        <time>2015-06-28T12:18:13Z</time>
      </trkpt>
      <trkpt lat="46.20725" lon="6.86004">
        <ele>1671.87</ele>
        <time>2015-06-28T12:19:13Z</time>
      </trkpt>
      <trkpt lat="46.20723" lon="6.86007">
        <ele>1672.35</ele>
        <time>2015-06-28T12:19:54Z</time>
      </trkpt>
      <trkpt lat="46.20719" lon="6.8601">
        <ele>1671.87</ele>
        <time>2015-06-28T12:20:20Z</time>
      </trkpt>
      <trkpt lat="46.20718" lon="6.86011">
        <ele>1671.39</ele>
        <time>2015-06-28T12:21:45Z</time>
      </trkpt>
      <trkpt lat="46.20716" lon="6.86014">
        <ele>1671.39</ele>
        <time>2015-06-28T12:23:01Z</time>
      </trkpt>
      <trkpt lat="46.20715" lon="6.86014">
        <ele>1671.39</ele>
        <time>2015-06-28T12:23:24Z</time>
      </trkpt>
      <trkpt lat="46.20715" lon="6.86014">
        <ele>1670.91</ele>
        <time>2015-06-28T12:24:47Z</time>
      </trkpt>
      <trkpt lat="46.20714" lon="6.86014">
        <ele>1670.91</ele>
        <time>2015-06-28T12:25:24Z</time>
      </trkpt>
      <trkpt lat="46.20713" lon="6.86015">
        <ele>1670.43</ele>
        <time>2015-06-28T12:26:20Z</time>
      </trkpt>
      <trkpt lat="46.20712" lon="6.86015">
        <ele>1670.43</ele>
        <time>2015-06-28T12:27:15Z</time>
      </trkpt>
      <trkpt lat="46.20709" lon="6.86018">
        <ele>1670.43</ele>
        <time>2015-06-28T12:27:54Z</time>
      </trkpt>
      <trkpt lat="46.20708" lon="6.86015">
        <ele>1668.51</ele>
        <time>2015-06-28T12:28:51Z</time>
      </trkpt>
      <trkpt lat="46.20706" lon="6.86014">
        <ele>1666.1</ele>
        <time>2015-06-28T12:29:19Z</time>
      </trkpt>
      <trkpt lat="46.20704" lon="6.86013">
        <ele>1666.58</ele>
        <time>2015-06-28T12:30:54Z</time>
      </trkpt>
      <trkpt lat="46.20703" lon="6.86012">
        <ele>1666.1</ele>
        <time>2015-06-28T12:32:25Z</time>
      </trkpt>
      <trkpt lat="46.20699" lon="6.86012">
        <ele>1665.62</ele>
        <time>2015-06-28T12:33:20Z</time>
      </trkpt>
      <trkpt lat="46.20696" lon="6.86012">
        <ele>1665.62</ele>
        <time>2015-06-28T12:34:26Z</time>
      </trkpt>
      <trkpt lat="46.20694" lon="6.86011">
        <ele>1665.14</ele>
        <time>2015-06-28T12:35:35Z</time>
      </trkpt>
      <trkpt lat="46.2069" lon="6.86009">
        <ele>1663.7</ele>
        <time>2015-06-28T12:35:58Z</time>
      </trkpt>
      <trkpt lat="46.20689" lon="6.86009">
        <ele>1662.74</ele>
        <time>2015-06-28T12:36:35Z</time>
      </trkpt>
      <trkpt lat="46.20688" lon="6.86008">
        <ele>1662.74</ele>
        <time>2015-06-28T12:37:32Z</time>
      </trkpt>
      <trkpt lat="46.20685" lon="6.86007">
        <ele>1662.74</ele>
        <time>2015-06-28T12:38:26Z</time>
      </trkpt>
      <trkpt lat="46.20683" lon="6.86007">
        <ele>1662.74</ele>
        <time>2015-06-28T12:39:38Z</time>
      </trkpt>
      <trkpt lat="46.20681" lon="6.86006">
        <ele>1662.26</ele>
        <time>2015-06-28T12:40:31Z</time>
      </trkpt>
      <trkpt lat="46.2068" lon="6.86007">
        <ele>1663.22</ele>
        <time>2015-06-28T12:41:33Z</time>
      </trkpt>
      <trkpt lat="46.20678" lon="6.86008">
        <ele>1663.22</ele>
        <time>2015-06-28T12:44:05Z</time>
      </trkpt>
      <trkpt lat="46.20675" lon="6.86011">
        <ele>1664.18</ele>
        <time>2015-06-28T12:45:03Z</time>
      </trkpt>
      <trkpt lat="46.20673" lon="6.8601">
        <ele>1664.66</ele>
        <time>2015-06-28T12:45:57Z</time>
      </trkpt>
      <trkpt lat="46.20667" lon="6.85989">
        <ele>1667.06</ele>
        <time>2015-06-28T12:47:00Z</time>
      </trkpt>
      <trkpt lat="46.20666" lon="6.85986">
        <ele>1668.51</ele>
        <time>2015-06-28T12:47:02Z</time>
      </trkpt>
      <trkpt lat="46.20662" lon="6.85963">
        <ele>1676.2</ele>
        <time>2015-06-28T12:47:15Z</time>
      </trkpt>
      <trkpt lat="46.20659" lon="6.85938">
        <ele>1682.44</ele>
        <time>2015-06-28T12:47:31Z</time>
      </trkpt>
      <trkpt lat="46.20653" lon="6.85866">
        <ele>1703.11</ele>
        <time>2015-06-28T12:48:16Z</time>
      </trkpt>
      <trkpt lat="46.20636" lon="6.85772">
        <ele>1719.46</ele>
        <time>2015-06-28T12:49:18Z</time>
      </trkpt>
      <trkpt lat="46.20617" lon="6.85667">
        <ele>1744.45</ele>
        <time>2015-06-28T12:50:29Z</time>
      </trkpt>
      <trkpt lat="46.20597" lon="6.85549">
        <ele>1793</ele>
        <time>2015-06-28T12:51:53Z</time>
      </trkpt>
      <trkpt lat="46.20579" lon="6.8544">
        <ele>1831.45</ele>
        <time>2015-06-28T12:53:10Z</time>
      </trkpt>
      <trkpt lat="46.20566" lon="6.85366">
        <ele>1844.43</ele>
        <time>2015-06-28T12:54:04Z</time>
      </trkpt>
      <trkpt lat="46.20565" lon="6.85367">
        <ele>1845.39</ele>
        <time>2015-06-28T12:54:21Z</time>
      </trkpt>
      <trkpt lat="46.20556" lon="6.85314">
        <ele>1864.61</ele>
        <time>2015-06-28T12:54:58Z</time>
      </trkpt>
      <trkpt lat="46.20537" lon="6.85197">
        <ele>1911.24</ele>
        <time>2015-06-28T12:56:20Z</time>
      </trkpt>
      <trkpt lat="46.20531" lon="6.85157">
        <ele>1931.91</ele>
        <time>2015-06-28T12:56:55Z</time>
      </trkpt>
      <trkpt lat="46.20515" lon="6.85063">
        <ele>1974.2</ele>
        <time>2015-06-28T12:58:06Z</time>
      </trkpt>
      <trkpt lat="46.2051" lon="6.85036">
        <ele>1981.41</ele>
        <time>2015-06-28T12:58:35Z</time>
      </trkpt>
      <trkpt lat="46.2051" lon="6.85034">
        <ele>1981.9</ele>
        <time>2015-06-28T12:58:49Z</time>
      </trkpt>
      <trkpt lat="46.20504" lon="6.84994">
        <ele>1989.1</ele>
        <time>2015-06-28T12:59:27Z</time>
      </trkpt>
      <trkpt lat="46.20487" lon="6.84894">
        <ele>2015.06</ele>
        <time>2015-06-28T13:00:34Z</time>
      </trkpt>
      <trkpt lat="46.20482" lon="6.84869">
        <ele>2021.31</ele>
        <time>2015-06-28T13:00:56Z</time>
      </trkpt>
      <trkpt lat="46.20469" lon="6.84805">
        <ele>2031.4</ele>
        <time>2015-06-28T13:01:42Z</time>
      </trkpt>
      <trkpt lat="46.20467" lon="6.84799">
        <ele>2031.4</ele>
        <time>2015-06-28T13:01:44Z</time>
      </trkpt>
      <trkpt lat="46.20457" lon="6.84771">
        <ele>2032.36</ele>
        <time>2015-06-28T13:01:52Z</time>
      </trkpt>
      <trkpt lat="46.20459" lon="6.84774">
        <ele>2030.92</ele>
        <time>2015-06-28T13:02:08Z</time>
      </trkpt>
      <trkpt lat="46.20459" lon="6.84774">
        <ele>2030.92</ele>
        <time>2015-06-28T13:02:10Z</time>
      </trkpt>
      <trkpt lat="46.20456" lon="6.84759">
        <ele>2032.36</ele>
        <time>2015-06-28T13:02:18Z</time>
      </trkpt>
      <trkpt lat="46.20453" lon="6.84751">
        <ele>2032.84</ele>
        <time>2015-06-28T13:02:22Z</time>
      </trkpt>
      <trkpt lat="46.20437" lon="6.84717">
        <ele>2034.77</ele>
        <time>2015-06-28T13:02:40Z</time>
      </trkpt>
      <trkpt lat="46.20421" lon="6.84696">
        <ele>2039.09</ele>
        <time>2015-06-28T13:02:57Z</time>
      </trkpt>
      <trkpt lat="46.20403" lon="6.84668">
        <ele>2041.98</ele>
        <time>2015-06-28T13:03:18Z</time>
      </trkpt>
      <trkpt lat="46.20385" lon="6.8464">
        <ele>2044.38</ele>
        <time>2015-06-28T13:03:36Z</time>
      </trkpt>
      <trkpt lat="46.20369" lon="6.84622">
        <ele>2044.38</ele>
        <time>2015-06-28T13:03:51Z</time>
      </trkpt>
      <trkpt lat="46.20368" lon="6.84622">
        <ele>2044.86</ele>
        <time>2015-06-28T13:04:08Z</time>
      </trkpt>
      <trkpt lat="46.20367" lon="6.84621">
        <ele>2044.86</ele>
        <time>2015-06-28T13:05:46Z</time>
      </trkpt>
      <trkpt lat="46.20367" lon="6.84624">
        <ele>2045.34</ele>
        <time>2015-06-28T13:06:15Z</time>
      </trkpt>
      <trkpt lat="46.20365" lon="6.84626">
        <ele>2047.75</ele>
        <time>2015-06-28T13:07:51Z</time>
      </trkpt>
      <trkpt lat="46.20365" lon="6.84624">
        <ele>2049.19</ele>
        <time>2015-06-28T13:11:01Z</time>
      </trkpt>
      <trkpt lat="46.20344" lon="6.84595">
        <ele>2044.86</ele>
        <time>2015-06-28T13:11:11Z</time>
      </trkpt>
      <trkpt lat="46.20283" lon="6.84547">
        <ele>2036.69</ele>
        <time>2015-06-28T13:11:19Z</time>
      </trkpt>
      <trkpt lat="46.20249" lon="6.84522">
        <ele>2033.81</ele>
        <time>2015-06-28T13:11:26Z</time>
      </trkpt>
      <trkpt lat="46.20211" lon="6.84486">
        <ele>2032.84</ele>
        <time>2015-06-28T13:11:38Z</time>
      </trkpt>
      <trkpt lat="46.20197" lon="6.84467">
        <ele>2033.81</ele>
        <time>2015-06-28T13:11:49Z</time>
      </trkpt>
      <trkpt lat="46.20171" lon="6.84446">
        <ele>2039.09</ele>
        <time>2015-06-28T13:12:10Z</time>
      </trkpt>
      <trkpt lat="46.20155" lon="6.84433">
        <ele>2042.46</ele>
        <time>2015-06-28T13:12:33Z</time>
      </trkpt>
      <trkpt lat="46.20153" lon="6.84434">
        <ele>2042.94</ele>
        <time>2015-06-28T13:12:37Z</time>
      </trkpt>
      <trkpt lat="46.20143" lon="6.84429">
        <ele>2042.94</ele>
        <time>2015-06-28T13:12:41Z</time>
      </trkpt>
      <trkpt lat="46.2012" lon="6.84422">
        <ele>2043.9</ele>
        <time>2015-06-28T13:12:48Z</time>
      </trkpt>
      <trkpt lat="46.20084" lon="6.84406">
        <ele>2047.26</ele>
        <time>2015-06-28T13:13:05Z</time>
      </trkpt>
      <trkpt lat="46.20057" lon="6.84384">
        <ele>2050.63</ele>
        <time>2015-06-28T13:13:21Z</time>
      </trkpt>
      <trkpt lat="46.20045" lon="6.84392">
        <ele>2050.15</ele>
        <time>2015-06-28T13:13:26Z</time>
      </trkpt>
      <trkpt lat="46.20013" lon="6.844">
        <ele>2049.19</ele>
        <time>2015-06-28T13:13:39Z</time>
      </trkpt>
      <trkpt lat="46.19996" lon="6.84399">
        <ele>2049.19</ele>
        <time>2015-06-28T13:13:45Z</time>
      </trkpt>
      <trkpt lat="46.19987" lon="6.84386">
        <ele>2048.23</ele>
        <time>2015-06-28T13:13:48Z</time>
      </trkpt>
      <trkpt lat="46.19962" lon="6.84357">
        <ele>2049.67</ele>
        <time>2015-06-28T13:13:59Z</time>
      </trkpt>
      <trkpt lat="46.19934" lon="6.84341">
        <ele>2050.63</ele>
        <time>2015-06-28T13:14:14Z</time>
      </trkpt>
      <trkpt lat="46.19916" lon="6.84314">
        <ele>2051.59</ele>
        <time>2015-06-28T13:14:24Z</time>
      </trkpt>
      <trkpt lat="46.19904" lon="6.84285">
        <ele>2051.11</ele>
        <time>2015-06-28T13:14:36Z</time>
      </trkpt>
      <trkpt lat="46.19902" lon="6.84279">
        <ele>2051.59</ele>
        <time>2015-06-28T13:14:38Z</time>
      </trkpt>
      <trkpt lat="46.19873" lon="6.84265">
        <ele>2051.11</ele>
        <time>2015-06-28T13:14:50Z</time>
      </trkpt>
      <trkpt lat="46.19859" lon="6.84256">
        <ele>2049.67</ele>
        <time>2015-06-28T13:14:55Z</time>
      </trkpt>
      <trkpt lat="46.19832" lon="6.84241">
        <ele>2047.26</ele>
        <time>2015-06-28T13:15:01Z</time>
      </trkpt>
      <trkpt lat="46.19804" lon="6.84236">
        <ele>2044.86</ele>
        <time>2015-06-28T13:15:07Z</time>
      </trkpt>
      <trkpt lat="46.19785" lon="6.84227">
        <ele>2043.9</ele>
        <time>2015-06-28T13:15:12Z</time>
      </trkpt>
      <trkpt lat="46.19737" lon="6.84239">
        <ele>2035.73</ele>
        <time>2015-06-28T13:15:20Z</time>
      </trkpt>
      <trkpt lat="46.19711" lon="6.84233">
        <ele>2032.36</ele>
        <time>2015-06-28T13:15:27Z</time>
      </trkpt>
      <trkpt lat="46.19709" lon="6.842">
        <ele>2029.48</ele>
        <time>2015-06-28T13:15:34Z</time>
      </trkpt>
      <trkpt lat="46.19704" lon="6.84198">
        <ele>2029</ele>
        <time>2015-06-28T13:15:35Z</time>
      </trkpt>
      <trkpt lat="46.19681" lon="6.842">
        <ele>2027.08</ele>
        <time>2015-06-28T13:15:39Z</time>
      </trkpt>
      <trkpt lat="46.1968" lon="6.84199">
        <ele>2028.04</ele>
        <time>2015-06-28T13:15:56Z</time>
      </trkpt>
      <trkpt lat="46.1968" lon="6.84199">
        <ele>2028.04</ele>
        <time>2015-06-28T13:18:10Z</time>
      </trkpt>
      <trkpt lat="46.19674" lon="6.84204">
        <ele>2026.6</ele>
        <time>2015-06-28T13:18:15Z</time>
      </trkpt>
      <trkpt lat="46.19673" lon="6.84211">
        <ele>2025.15</ele>
        <time>2015-06-28T13:18:17Z</time>
      </trkpt>
      <trkpt lat="46.1966" lon="6.84234">
        <ele>2018.91</ele>
        <time>2015-06-28T13:18:21Z</time>
      </trkpt>
      <trkpt lat="46.19646" lon="6.84247">
        <ele>2014.1</ele>
        <time>2015-06-28T13:18:23Z</time>
      </trkpt>
      <trkpt lat="46.19593" lon="6.84247">
        <ele>2004.97</ele>
        <time>2015-06-28T13:18:29Z</time>
      </trkpt>
      <trkpt lat="46.19583" lon="6.84226">
        <ele>2003.52</ele>
        <time>2015-06-28T13:18:31Z</time>
      </trkpt>
      <trkpt lat="46.19575" lon="6.84185">
        <ele>2002.08</ele>
        <time>2015-06-28T13:18:34Z</time>
      </trkpt>
      <trkpt lat="46.19548" lon="6.84051">
        <ele>1991.51</ele>
        <time>2015-06-28T13:18:44Z</time>
      </trkpt>
      <trkpt lat="46.19543" lon="6.84035">
        <ele>1989.59</ele>
        <time>2015-06-28T13:18:46Z</time>
      </trkpt>
      <trkpt lat="46.19538" lon="6.83975">
        <ele>1981.41</ele>
        <time>2015-06-28T13:18:51Z</time>
      </trkpt>
      <trkpt lat="46.19525" lon="6.83919">
        <ele>1975.65</ele>
        <time>2015-06-28T13:18:58Z</time>
      </trkpt>
      <trkpt lat="46.19495" lon="6.83903">
        <ele>1966.51</ele>
        <time>2015-06-28T13:19:04Z</time>
      </trkpt>
      <trkpt lat="46.19481" lon="6.83905">
        <ele>1962.67</ele>
        <time>2015-06-28T13:19:06Z</time>
      </trkpt>
      <trkpt lat="46.19468" lon="6.83926">
        <ele>1957.86</ele>
        <time>2015-06-28T13:19:10Z</time>
      </trkpt>
      <trkpt lat="46.19465" lon="6.83966">
        <ele>1950.17</ele>
        <time>2015-06-28T13:19:15Z</time>
      </trkpt>
      <trkpt lat="46.19437" lon="6.83978">
        <ele>1942</ele>
        <time>2015-06-28T13:19:21Z</time>
      </trkpt>
      <trkpt lat="46.19431" lon="6.83973">
        <ele>1941.04</ele>
        <time>2015-06-28T13:19:22Z</time>
      </trkpt>
      <trkpt lat="46.19405" lon="6.83923">
        <ele>1933.35</ele>
        <time>2015-06-28T13:19:29Z</time>
      </trkpt>
      <trkpt lat="46.19394" lon="6.83901">
        <ele>1931.91</ele>
        <time>2015-06-28T13:19:32Z</time>
      </trkpt>
      <trkpt lat="46.19385" lon="6.83879">
        <ele>1930.46</ele>
        <time>2015-06-28T13:19:36Z</time>
      </trkpt>
      <trkpt lat="46.19368" lon="6.83838">
        <ele>1927.58</ele>
        <time>2015-06-28T13:19:41Z</time>
      </trkpt>
      <trkpt lat="46.19353" lon="6.83814">
        <ele>1924.7</ele>
        <time>2015-06-28T13:19:45Z</time>
      </trkpt>
      <trkpt lat="46.19352" lon="6.83772">
        <ele>1920.85</ele>
        <time>2015-06-28T13:19:51Z</time>
      </trkpt>
      <trkpt lat="46.1938" lon="6.83711">
        <ele>1916.53</ele>
        <time>2015-06-28T13:19:59Z</time>
      </trkpt>
      <trkpt lat="46.19386" lon="6.8368">
        <ele>1912.2</ele>
        <time>2015-06-28T13:20:04Z</time>
      </trkpt>
      <trkpt lat="46.1937" lon="6.83685">
        <ele>1907.87</ele>
        <time>2015-06-28T13:20:10Z</time>
      </trkpt>
      <trkpt lat="46.19369" lon="6.83685">
        <ele>1907.87</ele>
        <time>2015-06-28T13:20:11Z</time>
      </trkpt>
      <trkpt lat="46.19339" lon="6.83715">
        <ele>1900.66</ele>
        <time>2015-06-28T13:20:19Z</time>
      </trkpt>
      <trkpt lat="46.19304" lon="6.83739">
        <ele>1895.86</ele>
        <time>2015-06-28T13:20:23Z</time>
      </trkpt>
      <trkpt lat="46.1929" lon="6.83767">
        <ele>1892.49</ele>
        <time>2015-06-28T13:20:27Z</time>
      </trkpt>
      <trkpt lat="46.19292" lon="6.83792">
        <ele>1890.09</ele>
        <time>2015-06-28T13:20:29Z</time>
      </trkpt>
      <trkpt lat="46.19277" lon="6.83829">
        <ele>1885.28</ele>
        <time>2015-06-28T13:20:33Z</time>
      </trkpt>
      <trkpt lat="46.19249" lon="6.83834">
        <ele>1879.51</ele>
        <time>2015-06-28T13:20:38Z</time>
      </trkpt>
      <trkpt lat="46.19224" lon="6.83795">
        <ele>1875.19</ele>
        <time>2015-06-28T13:20:42Z</time>
      </trkpt>
      <trkpt lat="46.19229" lon="6.83746">
        <ele>1870.38</ele>
        <time>2015-06-28T13:20:47Z</time>
      </trkpt>
      <trkpt lat="46.19228" lon="6.83705">
        <ele>1867.98</ele>
        <time>2015-06-28T13:20:50Z</time>
      </trkpt>
      <trkpt lat="46.19227" lon="6.83623">
        <ele>1861.73</ele>
        <time>2015-06-28T13:20:56Z</time>
      </trkpt>
      <trkpt lat="46.19235" lon="6.83575">
        <ele>1857.89</ele>
        <time>2015-06-28T13:21:00Z</time>
      </trkpt>
      <trkpt lat="46.19228" lon="6.83554">
        <ele>1854.52</ele>
        <time>2015-06-28T13:21:05Z</time>
      </trkpt>
      <trkpt lat="46.19187" lon="6.83571">
        <ele>1849.71</ele>
        <time>2015-06-28T13:21:10Z</time>
      </trkpt>
      <trkpt lat="46.19146" lon="6.83569">
        <ele>1842.98</ele>
        <time>2015-06-28T13:21:14Z</time>
      </trkpt>
      <trkpt lat="46.19107" lon="6.83582">
        <ele>1833.85</ele>
        <time>2015-06-28T13:21:20Z</time>
      </trkpt>
      <trkpt lat="46.19078" lon="6.83639">
        <ele>1822.8</ele>
        <time>2015-06-28T13:21:26Z</time>
      </trkpt>
      <trkpt lat="46.19036" lon="6.83652">
        <ele>1819.43</ele>
        <time>2015-06-28T13:21:33Z</time>
      </trkpt>
      <trkpt lat="46.19032" lon="6.83645">
        <ele>1819.91</ele>
        <time>2015-06-28T13:21:34Z</time>
      </trkpt>
      <trkpt lat="46.19019" lon="6.83621">
        <ele>1819.91</ele>
        <time>2015-06-28T13:21:37Z</time>
      </trkpt>
      <trkpt lat="46.18993" lon="6.83605">
        <ele>1819.43</ele>
        <time>2015-06-28T13:21:41Z</time>
      </trkpt>
      <trkpt lat="46.18974" lon="6.83557">
        <ele>1817.99</ele>
        <time>2015-06-28T13:21:46Z</time>
      </trkpt>
      <trkpt lat="46.18962" lon="6.835">
        <ele>1816.07</ele>
        <time>2015-06-28T13:21:51Z</time>
      </trkpt>
      <trkpt lat="46.18944" lon="6.83463">
        <ele>1815.11</ele>
        <time>2015-06-28T13:21:55Z</time>
      </trkpt>
      <trkpt lat="46.18919" lon="6.8344">
        <ele>1815.11</ele>
        <time>2015-06-28T13:22:03Z</time>
      </trkpt>
      <trkpt lat="46.18922" lon="6.83441">
        <ele>1815.11</ele>
        <time>2015-06-28T13:22:24Z</time>
      </trkpt>
      <trkpt lat="46.18922" lon="6.83442">
        <ele>1814.63</ele>
        <time>2015-06-28T13:25:21Z</time>
      </trkpt>
      <trkpt lat="46.18917" lon="6.83439">
        <ele>1814.15</ele>
        <time>2015-06-28T13:25:40Z</time>
      </trkpt>
      <trkpt lat="46.18904" lon="6.83418">
        <ele>1813.18</ele>
        <time>2015-06-28T13:26:20Z</time>
      </trkpt>
      <trkpt lat="46.18896" lon="6.83408">
        <ele>1811.74</ele>
        <time>2015-06-28T13:26:22Z</time>
      </trkpt>
      <trkpt lat="46.18877" lon="6.83391">
        <ele>1810.3</ele>
        <time>2015-06-28T13:26:26Z</time>
      </trkpt>
      <trkpt lat="46.18854" lon="6.83351">
        <ele>1808.38</ele>
        <time>2015-06-28T13:26:32Z</time>
      </trkpt>
      <trkpt lat="46.1882" lon="6.83252">
        <ele>1805.01</ele>
        <time>2015-06-28T13:26:43Z</time>
      </trkpt>
      <trkpt lat="46.18796" lon="6.83218">
        <ele>1805.49</ele>
        <time>2015-06-28T13:26:48Z</time>
      </trkpt>
      <trkpt lat="46.18784" lon="6.83211">
        <ele>1805.97</ele>
        <time>2015-06-28T13:26:50Z</time>
      </trkpt>
      <trkpt lat="46.18769" lon="6.83176">
        <ele>1806.45</ele>
        <time>2015-06-28T13:26:55Z</time>
      </trkpt>
      <trkpt lat="46.18741" lon="6.83124">
        <ele>1807.42</ele>
        <time>2015-06-28T13:27:03Z</time>
      </trkpt>
      <trkpt lat="46.18733" lon="6.83088">
        <ele>1808.86</ele>
        <time>2015-06-28T13:27:08Z</time>
      </trkpt>
      <trkpt lat="46.18727" lon="6.83">
        <ele>1813.66</ele>
        <time>2015-06-28T13:27:24Z</time>
      </trkpt>
      <trkpt lat="46.18713" lon="6.82945">
        <ele>1817.03</ele>
        <time>2015-06-28T13:27:41Z</time>
      </trkpt>
      <trkpt lat="46.18715" lon="6.82893">
        <ele>1823.28</ele>
        <time>2015-06-28T13:28:00Z</time>
      </trkpt>
      <trkpt lat="46.18713" lon="6.82842">
        <ele>1828.56</ele>
        <time>2015-06-28T13:28:20Z</time>
      </trkpt>
      <trkpt lat="46.18707" lon="6.82781">
        <ele>1832.89</ele>
        <time>2015-06-28T13:28:41Z</time>
      </trkpt>
      <trkpt lat="46.18711" lon="6.82721">
        <ele>1834.81</ele>
        <time>2015-06-28T13:28:58Z</time>
      </trkpt>
      <trkpt lat="46.1871" lon="6.82667">
        <ele>1835.29</ele>
        <time>2015-06-28T13:29:10Z</time>
      </trkpt>
      <trkpt lat="46.18703" lon="6.82644">
        <ele>1834.81</ele>
        <time>2015-06-28T13:29:14Z</time>
      </trkpt>
      <trkpt lat="46.18701" lon="6.82628">
        <ele>1833.85</ele>
        <time>2015-06-28T13:29:16Z</time>
      </trkpt>
      <trkpt lat="46.18679" lon="6.826">
        <ele>1833.85</ele>
        <time>2015-06-28T13:29:21Z</time>
      </trkpt>
      <trkpt lat="46.18663" lon="6.82582">
        <ele>1834.33</ele>
        <time>2015-06-28T13:29:25Z</time>
      </trkpt>
      <trkpt lat="46.18603" lon="6.82538">
        <ele>1832.89</ele>
        <time>2015-06-28T13:29:42Z</time>
      </trkpt>
      <trkpt lat="46.18527" lon="6.82507">
        <ele>1831.93</ele>
        <time>2015-06-28T13:30:01Z</time>
      </trkpt>
      <trkpt lat="46.18465" lon="6.82452">
        <ele>1834.33</ele>
        <time>2015-06-28T13:30:19Z</time>
      </trkpt>
      <trkpt lat="46.18434" lon="6.82423">
        <ele>1834.81</ele>
        <time>2015-06-28T13:30:30Z</time>
      </trkpt>
      <trkpt lat="46.18419" lon="6.82465">
        <ele>1835.77</ele>
        <time>2015-06-28T13:30:39Z</time>
      </trkpt>
      <trkpt lat="46.18379" lon="6.82466">
        <ele>1838.66</ele>
        <time>2015-06-28T13:30:53Z</time>
      </trkpt>
      <trkpt lat="46.18352" lon="6.82435">
        <ele>1842.02</ele>
        <time>2015-06-28T13:31:07Z</time>
      </trkpt>
      <trkpt lat="46.18305" lon="6.824">
        <ele>1845.87</ele>
        <time>2015-06-28T13:31:29Z</time>
      </trkpt>
      <trkpt lat="46.18265" lon="6.82371">
        <ele>1845.87</ele>
        <time>2015-06-28T13:31:42Z</time>
      </trkpt>
      <trkpt lat="46.18257" lon="6.82371">
        <ele>1845.87</ele>
        <time>2015-06-28T13:31:44Z</time>
      </trkpt>
      <trkpt lat="46.18236" lon="6.82352">
        <ele>1844.43</ele>
        <time>2015-06-28T13:31:50Z</time>
      </trkpt>
      <trkpt lat="46.18227" lon="6.82333">
        <ele>1844.43</ele>
        <time>2015-06-28T13:31:53Z</time>
      </trkpt>
      <trkpt lat="46.18193" lon="6.82331">
        <ele>1843.47</ele>
        <time>2015-06-28T13:32:01Z</time>
      </trkpt>
      <trkpt lat="46.18187" lon="6.82347">
        <ele>1842.02</ele>
        <time>2015-06-28T13:32:03Z</time>
      </trkpt>
      <trkpt lat="46.1817" lon="6.82371">
        <ele>1838.18</ele>
        <time>2015-06-28T13:32:06Z</time>
      </trkpt>
      <trkpt lat="46.18147" lon="6.82417">
        <ele>1834.81</ele>
        <time>2015-06-28T13:32:10Z</time>
      </trkpt>
      <trkpt lat="46.18119" lon="6.82437">
        <ele>1830.49</ele>
        <time>2015-06-28T13:32:14Z</time>
      </trkpt>
      <trkpt lat="46.18064" lon="6.8245">
        <ele>1824.72</ele>
        <time>2015-06-28T13:32:19Z</time>
      </trkpt>
      <trkpt lat="46.18031" lon="6.82459">
        <ele>1824.24</ele>
        <time>2015-06-28T13:32:22Z</time>
      </trkpt>
      <trkpt lat="46.17995" lon="6.82484">
        <ele>1826.16</ele>
        <time>2015-06-28T13:32:26Z</time>
      </trkpt>
      <trkpt lat="46.17981" lon="6.82495">
        <ele>1826.64</ele>
        <time>2015-06-28T13:32:28Z</time>
      </trkpt>
      <trkpt lat="46.17954" lon="6.8254">
        <ele>1827.12</ele>
        <time>2015-06-28T13:32:34Z</time>
      </trkpt>
      <trkpt lat="46.1792" lon="6.82582">
        <ele>1825.68</ele>
        <time>2015-06-28T13:32:41Z</time>
      </trkpt>
      <trkpt lat="46.17902" lon="6.82618">
        <ele>1828.08</ele>
        <time>2015-06-28T13:32:47Z</time>
      </trkpt>
      <trkpt lat="46.17898" lon="6.82635">
        <ele>1829.05</ele>
        <time>2015-06-28T13:32:50Z</time>
      </trkpt>
      <trkpt lat="46.17879" lon="6.82729">
        <ele>1829.05</ele>
        <time>2015-06-28T13:33:05Z</time>
      </trkpt>
      <trkpt lat="46.17871" lon="6.82774">
        <ele>1826.64</ele>
        <time>2015-06-28T13:33:10Z</time>
      </trkpt>
      <trkpt lat="46.17862" lon="6.82805">
        <ele>1825.68</ele>
        <time>2015-06-28T13:33:13Z</time>
      </trkpt>
      <trkpt lat="46.17854" lon="6.82838">
        <ele>1824.72</ele>
        <time>2015-06-28T13:33:16Z</time>
      </trkpt>
      <trkpt lat="46.17856" lon="6.82909">
        <ele>1821.35</ele>
        <time>2015-06-28T13:33:22Z</time>
      </trkpt>
      <trkpt lat="46.17849" lon="6.83018">
        <ele>1810.78</ele>
        <time>2015-06-28T13:33:29Z</time>
      </trkpt>
      <trkpt lat="46.17844" lon="6.83087">
        <ele>1810.3</ele>
        <time>2015-06-28T13:33:33Z</time>
      </trkpt>
      <trkpt lat="46.17818" lon="6.83185">
        <ele>1811.26</ele>
        <time>2015-06-28T13:33:42Z</time>
      </trkpt>
      <trkpt lat="46.17801" lon="6.83227">
        <ele>1810.3</ele>
        <time>2015-06-28T13:33:46Z</time>
      </trkpt>
      <trkpt lat="46.17751" lon="6.83301">
        <ele>1807.42</ele>
        <time>2015-06-28T13:33:55Z</time>
      </trkpt>
      <trkpt lat="46.17712" lon="6.8335">
        <ele>1805.49</ele>
        <time>2015-06-28T13:34:07Z</time>
      </trkpt>
      <trkpt lat="46.17701" lon="6.83362">
        <ele>1803.57</ele>
        <time>2015-06-28T13:34:16Z</time>
      </trkpt>
      <trkpt lat="46.177" lon="6.83361">
        <ele>1803.09</ele>
        <time>2015-06-28T13:35:34Z</time>
      </trkpt>
      <trkpt lat="46.17698" lon="6.8336">
        <ele>1802.13</ele>
        <time>2015-06-28T13:36:15Z</time>
      </trkpt>
      <trkpt lat="46.17696" lon="6.83362">
        <ele>1801.65</ele>
        <time>2015-06-28T13:36:20Z</time>
      </trkpt>
      <trkpt lat="46.17694" lon="6.83375">
        <ele>1802.13</ele>
        <time>2015-06-28T13:36:24Z</time>
      </trkpt>
      <trkpt lat="46.17689" lon="6.83405">
        <ele>1800.69</ele>
        <time>2015-06-28T13:36:28Z</time>
      </trkpt>
      <trkpt lat="46.17664" lon="6.83465">
        <ele>1798.28</ele>
        <time>2015-06-28T13:36:34Z</time>
      </trkpt>
      <trkpt lat="46.17621" lon="6.83492">
        <ele>1797.8</ele>
        <time>2015-06-28T13:36:39Z</time>
      </trkpt>
      <trkpt lat="46.176" lon="6.83508">
        <ele>1795.88</ele>
        <time>2015-06-28T13:36:42Z</time>
      </trkpt>
      <trkpt lat="46.17592" lon="6.83498">
        <ele>1793.96</ele>
        <time>2015-06-28T13:36:48Z</time>
      </trkpt>
      <trkpt lat="46.176" lon="6.83481">
        <ele>1793.48</ele>
        <time>2015-06-28T13:36:50Z</time>
      </trkpt>
      <trkpt lat="46.17619" lon="6.83397">
        <ele>1789.15</ele>
        <time>2015-06-28T13:36:57Z</time>
      </trkpt>
      <trkpt lat="46.17631" lon="6.83369">
        <ele>1786.75</ele>
        <time>2015-06-28T13:37:00Z</time>
      </trkpt>
      <trkpt lat="46.17643" lon="6.83326">
        <ele>1783.86</ele>
        <time>2015-06-28T13:37:04Z</time>
      </trkpt>
      <trkpt lat="46.1765" lon="6.83298">
        <ele>1781.94</ele>
        <time>2015-06-28T13:37:06Z</time>
      </trkpt>
      <trkpt lat="46.17641" lon="6.83217">
        <ele>1776.65</ele>
        <time>2015-06-28T13:37:12Z</time>
      </trkpt>
      <trkpt lat="46.17633" lon="6.83207">
        <ele>1775.69</ele>
        <time>2015-06-28T13:37:13Z</time>
      </trkpt>
      <trkpt lat="46.17618" lon="6.83189">
        <ele>1772.81</ele>
        <time>2015-06-28T13:37:15Z</time>
      </trkpt>
      <trkpt lat="46.17623" lon="6.83128">
        <ele>1766.56</ele>
        <time>2015-06-28T13:37:20Z</time>
      </trkpt>
      <trkpt lat="46.17635" lon="6.83099">
        <ele>1763.68</ele>
        <time>2015-06-28T13:37:22Z</time>
      </trkpt>
      <trkpt lat="46.17647" lon="6.83012">
        <ele>1757.91</ele>
        <time>2015-06-28T13:37:28Z</time>
      </trkpt>
      <trkpt lat="46.17636" lon="6.83005">
        <ele>1755.99</ele>
        <time>2015-06-28T13:37:30Z</time>
      </trkpt>
      <trkpt lat="46.17595" lon="6.82999">
        <ele>1750.22</ele>
        <time>2015-06-28T13:37:34Z</time>
      </trkpt>
      <trkpt lat="46.17525" lon="6.83015">
        <ele>1741.08</ele>
        <time>2015-06-28T13:37:41Z</time>
      </trkpt>
      <trkpt lat="46.1752" lon="6.83028">
        <ele>1739.64</ele>
        <time>2015-06-28T13:37:42Z</time>
      </trkpt>
      <trkpt lat="46.17512" lon="6.83052">
        <ele>1737.72</ele>
        <time>2015-06-28T13:37:44Z</time>
      </trkpt>
      <trkpt lat="46.17489" lon="6.83057">
        <ele>1733.39</ele>
        <time>2015-06-28T13:37:49Z</time>
      </trkpt>
      <trkpt lat="46.17493" lon="6.83012">
        <ele>1732.43</ele>
        <time>2015-06-28T13:37:52Z</time>
      </trkpt>
      <trkpt lat="46.17505" lon="6.82953">
        <ele>1728.59</ele>
        <time>2015-06-28T13:37:56Z</time>
      </trkpt>
      <trkpt lat="46.17543" lon="6.82886">
        <ele>1722.82</ele>
        <time>2015-06-28T13:38:02Z</time>
      </trkpt>
      <trkpt lat="46.17556" lon="6.82874">
        <ele>1721.38</ele>
        <time>2015-06-28T13:38:04Z</time>
      </trkpt>
      <trkpt lat="46.17556" lon="6.8284">
        <ele>1717.53</ele>
        <time>2015-06-28T13:38:09Z</time>
      </trkpt>
      <trkpt lat="46.17546" lon="6.82822">
        <ele>1717.53</ele>
        <time>2015-06-28T13:38:11Z</time>
      </trkpt>
      <trkpt lat="46.17539" lon="6.82802">
        <ele>1716.09</ele>
        <time>2015-06-28T13:38:13Z</time>
      </trkpt>
      <trkpt lat="46.17545" lon="6.82739">
        <ele>1710.8</ele>
        <time>2015-06-28T13:38:19Z</time>
      </trkpt>
      <trkpt lat="46.17559" lon="6.82712">
        <ele>1708.88</ele>
        <time>2015-06-28T13:38:22Z</time>
      </trkpt>
      <trkpt lat="46.17555" lon="6.82689">
        <ele>1707.44</ele>
        <time>2015-06-28T13:38:24Z</time>
      </trkpt>
      <trkpt lat="46.17557" lon="6.82642">
        <ele>1705.04</ele>
        <time>2015-06-28T13:38:28Z</time>
      </trkpt>
      <trkpt lat="46.17548" lon="6.82627">
        <ele>1701.19</ele>
        <time>2015-06-28T13:38:33Z</time>
      </trkpt>
      <trkpt lat="46.17546" lon="6.82638">
        <ele>1700.23</ele>
        <time>2015-06-28T13:38:34Z</time>
      </trkpt>
      <trkpt lat="46.17523" lon="6.8271">
        <ele>1696.38</ele>
        <time>2015-06-28T13:38:40Z</time>
      </trkpt>
      <trkpt lat="46.17502" lon="6.82742">
        <ele>1694.94</ele>
        <time>2015-06-28T13:38:43Z</time>
      </trkpt>
      <trkpt lat="46.17464" lon="6.82754">
        <ele>1692.54</ele>
        <time>2015-06-28T13:38:47Z</time>
      </trkpt>
      <trkpt lat="46.17383" lon="6.82773">
        <ele>1681</ele>
        <time>2015-06-28T13:38:55Z</time>
      </trkpt>
      <trkpt lat="46.17319" lon="6.82815">
        <ele>1671.87</ele>
        <time>2015-06-28T13:39:01Z</time>
      </trkpt>
      <trkpt lat="46.17283" lon="6.82852">
        <ele>1667.54</ele>
        <time>2015-06-28T13:39:08Z</time>
      </trkpt>
      <trkpt lat="46.17286" lon="6.82863">
        <ele>1667.06</ele>
        <time>2015-06-28T13:39:17Z</time>
      </trkpt>
      <trkpt lat="46.17288" lon="6.82867">
        <ele>1667.54</ele>
        <time>2015-06-28T13:39:28Z</time>
      </trkpt>
      <trkpt lat="46.17288" lon="6.82866">
        <ele>1667.54</ele>
        <time>2015-06-28T13:39:38Z</time>
      </trkpt>
      <trkpt lat="46.17278" lon="6.82883">
        <ele>1664.66</ele>
        <time>2015-06-28T13:39:43Z</time>
      </trkpt>
      <trkpt lat="46.17272" lon="6.82898">
        <ele>1662.74</ele>
        <time>2015-06-28T13:39:45Z</time>
      </trkpt>
      <trkpt lat="46.17257" lon="6.82924">
        <ele>1658.89</ele>
        <time>2015-06-28T13:39:49Z</time>
      </trkpt>
      <trkpt lat="46.17244" lon="6.82934">
        <ele>1656.01</ele>
        <time>2015-06-28T13:39:53Z</time>
      </trkpt>
      <trkpt lat="46.17232" lon="6.82949">
        <ele>1653.6</ele>
        <time>2015-06-28T13:39:57Z</time>
      </trkpt>
      <trkpt lat="46.17229" lon="6.82957">
        <ele>1652.64</ele>
        <time>2015-06-28T13:39:59Z</time>
      </trkpt>
      <trkpt lat="46.17221" lon="6.82976">
        <ele>1650.24</ele>
        <time>2015-06-28T13:40:04Z</time>
      </trkpt>
      <trkpt lat="46.17221" lon="6.82984">
        <ele>1648.8</ele>
        <time>2015-06-28T13:40:07Z</time>
      </trkpt>
      <trkpt lat="46.17218" lon="6.82999">
        <ele>1646.88</ele>
        <time>2015-06-28T13:40:10Z</time>
      </trkpt>
      <trkpt lat="46.1721" lon="6.83023">
        <ele>1644.47</ele>
        <time>2015-06-28T13:40:14Z</time>
      </trkpt>
      <trkpt lat="46.17204" lon="6.83057">
        <ele>1640.63</ele>
        <time>2015-06-28T13:40:18Z</time>
      </trkpt>
      <trkpt lat="46.17198" lon="6.83082">
        <ele>1637.26</ele>
        <time>2015-06-28T13:40:22Z</time>
      </trkpt>
      <trkpt lat="46.1719" lon="6.831">
        <ele>1635.82</ele>
        <time>2015-06-28T13:40:25Z</time>
      </trkpt>
      <trkpt lat="46.17181" lon="6.8312">
        <ele>1632.94</ele>
        <time>2015-06-28T13:40:29Z</time>
      </trkpt>
      <trkpt lat="46.17177" lon="6.83132">
        <ele>1631.98</ele>
        <time>2015-06-28T13:40:31Z</time>
      </trkpt>
      <trkpt lat="46.17172" lon="6.83155">
        <ele>1628.61</ele>
        <time>2015-06-28T13:40:35Z</time>
      </trkpt>
      <trkpt lat="46.17174" lon="6.83169">
        <ele>1626.21</ele>
        <time>2015-06-28T13:40:38Z</time>
      </trkpt>
      <trkpt lat="46.17175" lon="6.83194">
        <ele>1623.32</ele>
        <time>2015-06-28T13:40:42Z</time>
      </trkpt>
      <trkpt lat="46.17173" lon="6.83262">
        <ele>1617.07</ele>
        <time>2015-06-28T13:40:49Z</time>
      </trkpt>
      <trkpt lat="46.17155" lon="6.83293">
        <ele>1608.9</ele>
        <time>2015-06-28T13:40:56Z</time>
      </trkpt>
      <trkpt lat="46.17145" lon="6.83327">
        <ele>1604.58</ele>
        <time>2015-06-28T13:41:03Z</time>
      </trkpt>
      <trkpt lat="46.17133" lon="6.83343">
        <ele>1603.62</ele>
        <time>2015-06-28T13:41:08Z</time>
      </trkpt>
      <trkpt lat="46.17107" lon="6.83364">
        <ele>1598.81</ele>
        <time>2015-06-28T13:41:13Z</time>
      </trkpt>
      <trkpt lat="46.17088" lon="6.83373">
        <ele>1595.45</ele>
        <time>2015-06-28T13:41:17Z</time>
      </trkpt>
      <trkpt lat="46.17082" lon="6.83382">
        <ele>1593.52</ele>
        <time>2015-06-28T13:41:19Z</time>
      </trkpt>
      <trkpt lat="46.17073" lon="6.83392">
        <ele>1592.56</ele>
        <time>2015-06-28T13:41:21Z</time>
      </trkpt>
      <trkpt lat="46.17064" lon="6.83397">
        <ele>1590.64</ele>
        <time>2015-06-28T13:41:23Z</time>
      </trkpt>
      <trkpt lat="46.17056" lon="6.83406">
        <ele>1588.24</ele>
        <time>2015-06-28T13:41:25Z</time>
      </trkpt>
      <trkpt lat="46.17043" lon="6.83429">
        <ele>1584.39</ele>
        <time>2015-06-28T13:41:29Z</time>
      </trkpt>
      <trkpt lat="46.17028" lon="6.83457">
        <ele>1582.47</ele>
        <time>2015-06-28T13:41:37Z</time>
      </trkpt>
      <trkpt lat="46.17011" lon="6.83484">
        <ele>1579.58</ele>
        <time>2015-06-28T13:41:45Z</time>
      </trkpt>
      <trkpt lat="46.16996" lon="6.83507">
        <ele>1577.66</ele>
        <time>2015-06-28T13:41:50Z</time>
      </trkpt>
      <trkpt lat="46.16976" lon="6.83549">
        <ele>1574.78</ele>
        <time>2015-06-28T13:41:57Z</time>
      </trkpt>
      <trkpt lat="46.16975" lon="6.83557">
        <ele>1574.3</ele>
        <time>2015-06-28T13:41:59Z</time>
      </trkpt>
      <trkpt lat="46.16951" lon="6.83607">
        <ele>1571.41</ele>
        <time>2015-06-28T13:42:09Z</time>
      </trkpt>
      <trkpt lat="46.16951" lon="6.8361">
        <ele>1571.41</ele>
        <time>2015-06-28T13:42:10Z</time>
      </trkpt>
      <trkpt lat="46.16949" lon="6.83623">
        <ele>1570.45</ele>
        <time>2015-06-28T13:42:15Z</time>
      </trkpt>
      <trkpt lat="46.16922" lon="6.83623">
        <ele>1568.05</ele>
        <time>2015-06-28T13:42:23Z</time>
      </trkpt>
      <trkpt lat="46.16908" lon="6.83625">
        <ele>1567.09</ele>
        <time>2015-06-28T13:42:26Z</time>
      </trkpt>
      <trkpt lat="46.16877" lon="6.83634">
        <ele>1564.2</ele>
        <time>2015-06-28T13:42:32Z</time>
      </trkpt>
      <trkpt lat="46.16848" lon="6.8364">
        <ele>1560.36</ele>
        <time>2015-06-28T13:42:41Z</time>
      </trkpt>
      <trkpt lat="46.16837" lon="6.83653">
        <ele>1560.36</ele>
        <time>2015-06-28T13:42:46Z</time>
      </trkpt>
      <trkpt lat="46.16821" lon="6.83663">
        <ele>1559.4</ele>
        <time>2015-06-28T13:42:50Z</time>
      </trkpt>
      <trkpt lat="46.16798" lon="6.83677">
        <ele>1557.47</ele>
        <time>2015-06-28T13:42:54Z</time>
      </trkpt>
      <trkpt lat="46.16759" lon="6.83695">
        <ele>1554.11</ele>
        <time>2015-06-28T13:43:01Z</time>
      </trkpt>
      <trkpt lat="46.16741" lon="6.83704">
        <ele>1553.63</ele>
        <time>2015-06-28T13:43:04Z</time>
      </trkpt>
      <trkpt lat="46.16721" lon="6.83739">
        <ele>1551.71</ele>
        <time>2015-06-28T13:43:11Z</time>
      </trkpt>
      <trkpt lat="46.16716" lon="6.8374">
        <ele>1552.67</ele>
        <time>2015-06-28T13:43:18Z</time>
      </trkpt>
      <trkpt lat="46.16708" lon="6.83741">
        <ele>1552.67</ele>
        <time>2015-06-28T13:43:22Z</time>
      </trkpt>
      <trkpt lat="46.16687" lon="6.83745">
        <ele>1552.67</ele>
        <time>2015-06-28T13:43:29Z</time>
      </trkpt>
      <trkpt lat="46.16627" lon="6.83769">
        <ele>1553.15</ele>
        <time>2015-06-28T13:43:39Z</time>
      </trkpt>
      <trkpt lat="46.16617" lon="6.83775">
        <ele>1553.15</ele>
        <time>2015-06-28T13:43:41Z</time>
      </trkpt>
      <trkpt lat="46.16601" lon="6.83782">
        <ele>1553.15</ele>
        <time>2015-06-28T13:43:44Z</time>
      </trkpt>
      <trkpt lat="46.1659" lon="6.83786">
        <ele>1552.19</ele>
        <time>2015-06-28T13:43:47Z</time>
      </trkpt>
      <trkpt lat="46.16578" lon="6.83791">
        <ele>1552.19</ele>
        <time>2015-06-28T13:43:50Z</time>
      </trkpt>
      <trkpt lat="46.16563" lon="6.83802">
        <ele>1551.71</ele>
        <time>2015-06-28T13:43:54Z</time>
      </trkpt>
      <trkpt lat="46.16553" lon="6.83802">
        <ele>1551.71</ele>
        <time>2015-06-28T13:43:56Z</time>
      </trkpt>
      <trkpt lat="46.16539" lon="6.83822">
        <ele>1548.82</ele>
        <time>2015-06-28T13:44:00Z</time>
      </trkpt>
      <trkpt lat="46.16518" lon="6.8386">
        <ele>1545.94</ele>
        <time>2015-06-28T13:44:06Z</time>
      </trkpt>
      <trkpt lat="46.16494" lon="6.83877">
        <ele>1542.57</ele>
        <time>2015-06-28T13:44:10Z</time>
      </trkpt>
      <trkpt lat="46.16483" lon="6.83882">
        <ele>1539.69</ele>
        <time>2015-06-28T13:44:13Z</time>
      </trkpt>
      <trkpt lat="46.16464" lon="6.83906">
        <ele>1534.4</ele>
        <time>2015-06-28T13:44:19Z</time>
      </trkpt>
      <trkpt lat="46.16448" lon="6.8392">
        <ele>1530.56</ele>
        <time>2015-06-28T13:44:23Z</time>
      </trkpt>
      <trkpt lat="46.16424" lon="6.83951">
        <ele>1524.79</ele>
        <time>2015-06-28T13:44:30Z</time>
      </trkpt>
      <trkpt lat="46.16406" lon="6.83968">
        <ele>1515.18</ele>
        <time>2015-06-28T13:44:36Z</time>
      </trkpt>
      <trkpt lat="46.16403" lon="6.83978">
        <ele>1507</ele>
        <time>2015-06-28T13:44:47Z</time>
      </trkpt>
      <trkpt lat="46.16388" lon="6.83983">
        <ele>1501.72</ele>
        <time>2015-06-28T13:44:55Z</time>
      </trkpt>
      <trkpt lat="46.16377" lon="6.83995">
        <ele>1494.99</ele>
        <time>2015-06-28T13:44:59Z</time>
      </trkpt>
      <trkpt lat="46.1636" lon="6.84022">
        <ele>1486.82</ele>
        <time>2015-06-28T13:45:04Z</time>
      </trkpt>
      <trkpt lat="46.16346" lon="6.84053">
        <ele>1477.68</ele>
        <time>2015-06-28T13:45:10Z</time>
      </trkpt>
      <trkpt lat="46.16326" lon="6.841">
        <ele>1463.74</ele>
        <time>2015-06-28T13:45:19Z</time>
      </trkpt>
      <trkpt lat="46.16317" lon="6.84129">
        <ele>1451.73</ele>
        <time>2015-06-28T13:45:27Z</time>
      </trkpt>
      <trkpt lat="46.16311" lon="6.84151">
        <ele>1446.44</ele>
        <time>2015-06-28T13:45:31Z</time>
      </trkpt>
      <trkpt lat="46.16301" lon="6.84171">
        <ele>1441.63</ele>
        <time>2015-06-28T13:45:35Z</time>
      </trkpt>
      <trkpt lat="46.16277" lon="6.8424">
        <ele>1428.66</ele>
        <time>2015-06-28T13:45:45Z</time>
      </trkpt>
      <trkpt lat="46.16273" lon="6.84262">
        <ele>1422.89</ele>
        <time>2015-06-28T13:45:53Z</time>
      </trkpt>
      <trkpt lat="46.1627" lon="6.84257">
        <ele>1418.56</ele>
        <time>2015-06-28T13:46:20Z</time>
      </trkpt>
      <trkpt lat="46.16269" lon="6.84254">
        <ele>1417.6</ele>
        <time>2015-06-28T13:46:41Z</time>
      </trkpt>
      <trkpt lat="46.16267" lon="6.84252">
        <ele>1416.16</ele>
        <time>2015-06-28T13:47:25Z</time>
      </trkpt>
      <trkpt lat="46.1626" lon="6.84271">
        <ele>1414.24</ele>
        <time>2015-06-28T13:47:29Z</time>
      </trkpt>
      <trkpt lat="46.1625" lon="6.84291">
        <ele>1412.31</ele>
        <time>2015-06-28T13:47:31Z</time>
      </trkpt>
      <trkpt lat="46.16213" lon="6.84381">
        <ele>1402.22</ele>
        <time>2015-06-28T13:47:40Z</time>
      </trkpt>
      <trkpt lat="46.16206" lon="6.84409">
        <ele>1398.37</ele>
        <time>2015-06-28T13:47:44Z</time>
      </trkpt>
      <trkpt lat="46.16203" lon="6.84479">
        <ele>1391.65</ele>
        <time>2015-06-28T13:47:53Z</time>
      </trkpt>
      <trkpt lat="46.16196" lon="6.84528">
        <ele>1388.76</ele>
        <time>2015-06-28T13:47:58Z</time>
      </trkpt>
      <trkpt lat="46.16192" lon="6.84609">
        <ele>1383.96</ele>
        <time>2015-06-28T13:48:04Z</time>
      </trkpt>
      <trkpt lat="46.16203" lon="6.84702">
        <ele>1378.19</ele>
        <time>2015-06-28T13:48:10Z</time>
      </trkpt>
      <trkpt lat="46.16202" lon="6.84748">
        <ele>1375.78</ele>
        <time>2015-06-28T13:48:13Z</time>
      </trkpt>
      <trkpt lat="46.16227" lon="6.8484">
        <ele>1358.96</ele>
        <time>2015-06-28T13:48:17Z</time>
      </trkpt>
      <trkpt lat="46.16255" lon="6.84931">
        <ele>1346.46</ele>
        <time>2015-06-28T13:48:22Z</time>
      </trkpt>
      <trkpt lat="46.16267" lon="6.84995">
        <ele>1338.77</ele>
        <time>2015-06-28T13:48:26Z</time>
      </trkpt>
      <trkpt lat="46.1629" lon="6.85051">
        <ele>1329.16</ele>
        <time>2015-06-28T13:48:31Z</time>
      </trkpt>
      <trkpt lat="46.1631" lon="6.85089">
        <ele>1322.43</ele>
        <time>2015-06-28T13:48:34Z</time>
      </trkpt>
      <trkpt lat="46.16342" lon="6.8518">
        <ele>1313.3</ele>
        <time>2015-06-28T13:48:40Z</time>
      </trkpt>
      <trkpt lat="46.1638" lon="6.8523">
        <ele>1297.92</ele>
        <time>2015-06-28T13:48:46Z</time>
      </trkpt>
      <trkpt lat="46.16445" lon="6.8534">
        <ele>1285.42</ele>
        <time>2015-06-28T13:48:55Z</time>
      </trkpt>
      <trkpt lat="46.16478" lon="6.85394">
        <ele>1273.4</ele>
        <time>2015-06-28T13:49:01Z</time>
      </trkpt>
      <trkpt lat="46.1649" lon="6.85415">
        <ele>1269.56</ele>
        <time>2015-06-28T13:49:03Z</time>
      </trkpt>
      <trkpt lat="46.16507" lon="6.85473">
        <ele>1262.83</ele>
        <time>2015-06-28T13:49:08Z</time>
      </trkpt>
      <trkpt lat="46.16538" lon="6.85498">
        <ele>1257.06</ele>
        <time>2015-06-28T13:49:13Z</time>
      </trkpt>
      <trkpt lat="46.16573" lon="6.85531">
        <ele>1254.66</ele>
        <time>2015-06-28T13:49:19Z</time>
      </trkpt>
      <trkpt lat="46.1659" lon="6.85592">
        <ele>1251.29</ele>
        <time>2015-06-28T13:49:25Z</time>
      </trkpt>
      <trkpt lat="46.16608" lon="6.8563">
        <ele>1247.93</ele>
        <time>2015-06-28T13:49:31Z</time>
      </trkpt>
      <trkpt lat="46.16644" lon="6.85689">
        <ele>1242.16</ele>
        <time>2015-06-28T13:49:39Z</time>
      </trkpt>
      <trkpt lat="46.16654" lon="6.85736">
        <ele>1234.47</ele>
        <time>2015-06-28T13:49:42Z</time>
      </trkpt>
      <trkpt lat="46.16688" lon="6.85762">
        <ele>1229.18</ele>
        <time>2015-06-28T13:49:45Z</time>
      </trkpt>
      <trkpt lat="46.16748" lon="6.85843">
        <ele>1224.38</ele>
        <time>2015-06-28T13:49:52Z</time>
      </trkpt>
      <trkpt lat="46.16782" lon="6.85881">
        <ele>1220.53</ele>
        <time>2015-06-28T13:49:56Z</time>
      </trkpt>
      <trkpt lat="46.16837" lon="6.85896">
        <ele>1205.63</ele>
        <time>2015-06-28T13:50:02Z</time>
      </trkpt>
      <trkpt lat="46.1684" lon="6.85902">
        <ele>1205.15</ele>
        <time>2015-06-28T13:50:03Z</time>
      </trkpt>
      <trkpt lat="46.16839" lon="6.85927">
        <ele>1200.34</ele>
        <time>2015-06-28T13:50:05Z</time>
      </trkpt>
      <trkpt lat="46.16877" lon="6.86002">
        <ele>1184.96</ele>
        <time>2015-06-28T13:50:11Z</time>
      </trkpt>
      <trkpt lat="46.16958" lon="6.86075">
        <ele>1173.43</ele>
        <time>2015-06-28T13:50:18Z</time>
      </trkpt>
      <trkpt lat="46.17027" lon="6.86121">
        <ele>1163.81</ele>
        <time>2015-06-28T13:50:25Z</time>
      </trkpt>
      <trkpt lat="46.17067" lon="6.86146">
        <ele>1148.91</ele>
        <time>2015-06-28T13:50:31Z</time>
      </trkpt>
      <trkpt lat="46.1712" lon="6.86222">
        <ele>1140.74</ele>
        <time>2015-06-28T13:50:38Z</time>
      </trkpt>
      <trkpt lat="46.17151" lon="6.8625">
        <ele>1132.57</ele>
        <time>2015-06-28T13:50:42Z</time>
      </trkpt>
      <trkpt lat="46.17195" lon="6.8626">
        <ele>1127.28</ele>
        <time>2015-06-28T13:50:47Z</time>
      </trkpt>
      <trkpt lat="46.1724" lon="6.86271">
        <ele>1119.11</ele>
        <time>2015-06-28T13:50:52Z</time>
      </trkpt>
      <trkpt lat="46.17268" lon="6.86306">
        <ele>1115.75</ele>
        <time>2015-06-28T13:50:55Z</time>
      </trkpt>
      <trkpt lat="46.17291" lon="6.86334">
        <ele>1109.98</ele>
        <time>2015-06-28T13:50:58Z</time>
      </trkpt>
      <trkpt lat="46.17306" lon="6.86367">
        <ele>1105.17</ele>
        <time>2015-06-28T13:51:01Z</time>
      </trkpt>
      <trkpt lat="46.17324" lon="6.86394">
        <ele>1101.81</ele>
        <time>2015-06-28T13:51:04Z</time>
      </trkpt>
      <trkpt lat="46.17351" lon="6.86405">
        <ele>1099.4</ele>
        <time>2015-06-28T13:51:07Z</time>
      </trkpt>
      <trkpt lat="46.17363" lon="6.86437">
        <ele>1096.04</ele>
        <time>2015-06-28T13:51:11Z</time>
      </trkpt>
      <trkpt lat="46.1736" lon="6.86465">
        <ele>1093.64</ele>
        <time>2015-06-28T13:51:13Z</time>
      </trkpt>
      <trkpt lat="46.17388" lon="6.86576">
        <ele>1084.5</ele>
        <time>2015-06-28T13:51:22Z</time>
      </trkpt>
      <trkpt lat="46.17395" lon="6.86596">
        <ele>1082.1</ele>
        <time>2015-06-28T13:51:24Z</time>
      </trkpt>
      <trkpt lat="46.17416" lon="6.86622">
        <ele>1078.74</ele>
        <time>2015-06-28T13:51:28Z</time>
      </trkpt>
      <trkpt lat="46.17435" lon="6.86628">
        <ele>1077.29</ele>
        <time>2015-06-28T13:51:30Z</time>
      </trkpt>
      <trkpt lat="46.17494" lon="6.86652">
        <ele>1073.93</ele>
        <time>2015-06-28T13:51:36Z</time>
      </trkpt>
      <trkpt lat="46.17514" lon="6.8666">
        <ele>1072.01</ele>
        <time>2015-06-28T13:51:39Z</time>
      </trkpt>
      <trkpt lat="46.17514" lon="6.86694">
        <ele>1067.68</ele>
        <time>2015-06-28T13:51:44Z</time>
      </trkpt>
      <trkpt lat="46.17457" lon="6.86752">
        <ele>1059.51</ele>
        <time>2015-06-28T13:51:51Z</time>
      </trkpt>
      <trkpt lat="46.17447" lon="6.86811">
        <ele>1054.7</ele>
        <time>2015-06-28T13:51:56Z</time>
      </trkpt>
      <trkpt lat="46.17454" lon="6.86822">
        <ele>1054.22</ele>
        <time>2015-06-28T13:51:57Z</time>
      </trkpt>
      <trkpt lat="46.17522" lon="6.86919">
        <ele>1047.49</ele>
        <time>2015-06-28T13:52:06Z</time>
      </trkpt>
      <trkpt lat="46.17538" lon="6.86968">
        <ele>1043.65</ele>
        <time>2015-06-28T13:52:11Z</time>
      </trkpt>
      <trkpt lat="46.17533" lon="6.86988">
        <ele>1042.69</ele>
        <time>2015-06-28T13:52:13Z</time>
      </trkpt>
      <trkpt lat="46.17525" lon="6.87015">
        <ele>1040.76</ele>
        <time>2015-06-28T13:52:16Z</time>
      </trkpt>
      <trkpt lat="46.17517" lon="6.87039">
        <ele>1038.84</ele>
        <time>2015-06-28T13:52:20Z</time>
      </trkpt>
      <trkpt lat="46.17517" lon="6.8705">
        <ele>1037.4</ele>
        <time>2015-06-28T13:52:23Z</time>
      </trkpt>
      <trkpt lat="46.17519" lon="6.87059">
        <ele>1036.44</ele>
        <time>2015-06-28T13:52:33Z</time>
      </trkpt>
      <trkpt lat="46.17516" lon="6.87072">
        <ele>1036.44</ele>
        <time>2015-06-28T13:52:38Z</time>
      </trkpt>
      <trkpt lat="46.17511" lon="6.87108">
        <ele>1039.32</ele>
        <time>2015-06-28T13:52:50Z</time>
      </trkpt>
      <trkpt lat="46.17507" lon="6.87118">
        <ele>1042.69</ele>
        <time>2015-06-28T13:52:55Z</time>
      </trkpt>
      <trkpt lat="46.17508" lon="6.87128">
        <ele>1044.13</ele>
        <time>2015-06-28T13:52:59Z</time>
      </trkpt>
      <trkpt lat="46.17506" lon="6.87132">
        <ele>1045.57</ele>
        <time>2015-06-28T13:53:08Z</time>
      </trkpt>
      <trkpt lat="46.17505" lon="6.87132">
        <ele>1045.09</ele>
        <time>2015-06-28T13:53:26Z</time>
      </trkpt>
      <trkpt lat="46.17495" lon="6.87133">
        <ele>1043.65</ele>
        <time>2015-06-28T13:53:30Z</time>
      </trkpt>
      <trkpt lat="46.17492" lon="6.87129">
        <ele>1043.17</ele>
        <time>2015-06-28T13:53:32Z</time>
      </trkpt>
      <trkpt lat="46.17503" lon="6.87117">
        <ele>1042.21</ele>
        <time>2015-06-28T13:53:43Z</time>
      </trkpt>
      <trkpt lat="46.17506" lon="6.87113">
        <ele>1042.21</ele>
        <time>2015-06-28T13:53:55Z</time>
      </trkpt>
      <trkpt lat="46.17495" lon="6.87087">
        <ele>1041.25</ele>
        <time>2015-06-28T13:54:11Z</time>
      </trkpt>
      <trkpt lat="46.17489" lon="6.87067">
        <ele>1041.25</ele>
        <time>2015-06-28T13:54:39Z</time>
      </trkpt>
      <trkpt lat="46.1749" lon="6.87077">
        <ele>1039.32</ele>
        <time>2015-06-28T13:55:00Z</time>
      </trkpt>
      <trkpt lat="46.17503" lon="6.87087">
        <ele>1035.48</ele>
        <time>2015-06-28T13:55:27Z</time>
      </trkpt>
      <trkpt lat="46.17507" lon="6.87079">
        <ele>1033.07</ele>
        <time>2015-06-28T13:55:44Z</time>
      </trkpt>
      <trkpt lat="46.17509" lon="6.87085">
        <ele>1031.63</ele>
        <time>2015-06-28T13:56:00Z</time>
      </trkpt>
      <trkpt lat="46.17498" lon="6.87069">
        <ele>1030.19</ele>
        <time>2015-06-28T13:56:39Z</time>
      </trkpt>
      <trkpt lat="46.17491" lon="6.87006">
        <ele>1017.69</ele>
        <time>2015-06-28T13:56:51Z</time>
      </trkpt>
      <trkpt lat="46.17489" lon="6.8689">
        <ele>1011.44</ele>
        <time>2015-06-28T13:57:03Z</time>
      </trkpt>
      <trkpt lat="46.17487" lon="6.8675">
        <ele>1009.52</ele>
        <time>2015-06-28T13:57:14Z</time>
      </trkpt>
      <trkpt lat="46.17479" lon="6.86569">
        <ele>1010</ele>
        <time>2015-06-28T13:57:28Z</time>
      </trkpt>
      <trkpt lat="46.17466" lon="6.86336">
        <ele>1014.81</ele>
        <time>2015-06-28T13:57:46Z</time>
      </trkpt>
      <trkpt lat="46.17444" lon="6.86108">
        <ele>1025.86</ele>
        <time>2015-06-28T13:58:04Z</time>
      </trkpt>
      <trkpt lat="46.17424" lon="6.85973">
        <ele>1037.4</ele>
        <time>2015-06-28T13:58:17Z</time>
      </trkpt>
      <trkpt lat="46.17408" lon="6.85854">
        <ele>1043.65</ele>
        <time>2015-06-28T13:58:29Z</time>
      </trkpt>
      <trkpt lat="46.17396" lon="6.8569">
        <ele>1052.3</ele>
        <time>2015-06-28T13:58:42Z</time>
      </trkpt>
      <trkpt lat="46.17386" lon="6.85537">
        <ele>1059.99</ele>
        <time>2015-06-28T13:58:54Z</time>
      </trkpt>
      <trkpt lat="46.1737" lon="6.8543">
        <ele>1068.16</ele>
        <time>2015-06-28T13:59:04Z</time>
      </trkpt>
      <trkpt lat="46.17345" lon="6.85356">
        <ele>1076.33</ele>
        <time>2015-06-28T13:59:12Z</time>
      </trkpt>
      <trkpt lat="46.17339" lon="6.85303">
        <ele>1077.78</ele>
        <time>2015-06-28T13:59:17Z</time>
      </trkpt>
      <trkpt lat="46.1732" lon="6.85151">
        <ele>1081.14</ele>
        <time>2015-06-28T13:59:29Z</time>
      </trkpt>
      <trkpt lat="46.17291" lon="6.84973">
        <ele>1087.39</ele>
        <time>2015-06-28T13:59:43Z</time>
      </trkpt>
      <trkpt lat="46.17259" lon="6.84733">
        <ele>1094.6</ele>
        <time>2015-06-28T14:00:02Z</time>
      </trkpt>
      <trkpt lat="46.1723" lon="6.84548">
        <ele>1099.89</ele>
        <time>2015-06-28T14:00:17Z</time>
      </trkpt>
      <trkpt lat="46.1721" lon="6.84463">
        <ele>1104.21</ele>
        <time>2015-06-28T14:00:25Z</time>
      </trkpt>
      <trkpt lat="46.17193" lon="6.84391">
        <ele>1108.54</ele>
        <time>2015-06-28T14:00:36Z</time>
      </trkpt>
      <trkpt lat="46.17182" lon="6.8437">
        <ele>1108.54</ele>
        <time>2015-06-28T14:00:44Z</time>
      </trkpt>
      <trkpt lat="46.17167" lon="6.84344">
        <ele>1107.58</ele>
        <time>2015-06-28T14:00:55Z</time>
      </trkpt>
      <trkpt lat="46.17156" lon="6.84332">
        <ele>1105.17</ele>
        <time>2015-06-28T14:01:20Z</time>
      </trkpt>
      <trkpt lat="46.17149" lon="6.84326">
        <ele>1104.21</ele>
        <time>2015-06-28T14:02:00Z</time>
      </trkpt>
      <trkpt lat="46.17146" lon="6.84317">
        <ele>1104.21</ele>
        <time>2015-06-28T14:02:14Z</time>
      </trkpt>
      <trkpt lat="46.17356" lon="6.84359">
        <ele>1189.77</ele>
        <time>2015-06-28T14:03:02Z</time>
      </trkpt>
      <trkpt lat="46.17361" lon="6.84366">
        <ele>1221.49</ele>
        <time>2015-06-28T14:03:19Z</time>
      </trkpt>
      <trkpt lat="46.17367" lon="6.84375">
        <ele>1254.66</ele>
        <time>2015-06-28T14:03:59Z</time>
      </trkpt>
      <trkpt lat="46.17394" lon="6.84401">
        <ele>1361.36</ele>
        <time>2015-06-28T14:05:35Z</time>
      </trkpt>
      <trkpt lat="46.17447" lon="6.84459">
        <ele>1491.62</ele>
        <time>2015-06-28T14:14:11Z</time>
      </trkpt>
      <trkpt lat="46.17446" lon="6.84459">
        <ele>1492.1</ele>
        <time>2015-06-28T14:14:15Z</time>
      </trkpt>
      <trkpt lat="46.17483" lon="6.84404">
        <ele>1783.86</ele>
        <time>2015-06-28T14:14:27Z</time>
      </trkpt>
      <trkpt lat="46.17541" lon="6.84401">
        <ele>1828.08</ele>
        <time>2015-06-28T14:14:42Z</time>
      </trkpt>
      <trkpt lat="46.17547" lon="6.84386">
        <ele>1845.87</ele>
        <time>2015-06-28T14:14:48Z</time>
      </trkpt>
      <trkpt lat="46.17558" lon="6.84307">
        <ele>1865.58</ele>
        <time>2015-06-28T14:14:54Z</time>
      </trkpt>
      <trkpt lat="46.17554" lon="6.84251">
        <ele>1868.94</ele>
        <time>2015-06-28T14:14:58Z</time>
      </trkpt>
      <trkpt lat="46.17551" lon="6.84212">
        <ele>1872.3</ele>
        <time>2015-06-28T14:15:02Z</time>
      </trkpt>
      <trkpt lat="46.17553" lon="6.84192">
        <ele>1872.3</ele>
        <time>2015-06-28T14:15:04Z</time>
      </trkpt>
      <trkpt lat="46.17568" lon="6.84131">
        <ele>1872.3</ele>
        <time>2015-06-28T14:15:09Z</time>
      </trkpt>
      <trkpt lat="46.17577" lon="6.84078">
        <ele>1872.79</ele>
        <time>2015-06-28T14:15:13Z</time>
      </trkpt>
      <trkpt lat="46.17602" lon="6.83974">
        <ele>1874.71</ele>
        <time>2015-06-28T14:15:23Z</time>
      </trkpt>
      <trkpt lat="46.17616" lon="6.83872">
        <ele>1869.9</ele>
        <time>2015-06-28T14:15:31Z</time>
      </trkpt>
      <trkpt lat="46.17654" lon="6.83773">
        <ele>1864.13</ele>
        <time>2015-06-28T14:15:40Z</time>
      </trkpt>
      <trkpt lat="46.1769" lon="6.83742">
        <ele>1864.13</ele>
        <time>2015-06-28T14:15:45Z</time>
      </trkpt>
      <trkpt lat="46.17712" lon="6.83737">
        <ele>1861.73</ele>
        <time>2015-06-28T14:15:47Z</time>
      </trkpt>
      <trkpt lat="46.17741" lon="6.83732">
        <ele>1860.29</ele>
        <time>2015-06-28T14:15:50Z</time>
      </trkpt>
      <trkpt lat="46.17781" lon="6.83715">
        <ele>1855</ele>
        <time>2015-06-28T14:15:58Z</time>
      </trkpt>
      <trkpt lat="46.17784" lon="6.83715">
        <ele>1855</ele>
        <time>2015-06-28T14:15:59Z</time>
      </trkpt>
      <trkpt lat="46.17768" lon="6.83678">
        <ele>1853.08</ele>
        <time>2015-06-28T14:16:06Z</time>
      </trkpt>
      <trkpt lat="46.1775" lon="6.83647">
        <ele>1850.68</ele>
        <time>2015-06-28T14:16:10Z</time>
      </trkpt>
      <trkpt lat="46.17742" lon="6.83586">
        <ele>1844.43</ele>
        <time>2015-06-28T14:16:16Z</time>
      </trkpt>
      <trkpt lat="46.17764" lon="6.8352">
        <ele>1836.74</ele>
        <time>2015-06-28T14:16:21Z</time>
      </trkpt>
      <trkpt lat="46.17772" lon="6.8348">
        <ele>1833.85</ele>
        <time>2015-06-28T14:16:24Z</time>
      </trkpt>
      <trkpt lat="46.17777" lon="6.83448">
        <ele>1831.93</ele>
        <time>2015-06-28T14:16:27Z</time>
      </trkpt>
      <trkpt lat="46.17774" lon="6.83395">
        <ele>1827.6</ele>
        <time>2015-06-28T14:16:31Z</time>
      </trkpt>
      <trkpt lat="46.17755" lon="6.83356">
        <ele>1822.8</ele>
        <time>2015-06-28T14:16:35Z</time>
      </trkpt>
      <trkpt lat="46.17762" lon="6.83331">
        <ele>1818.95</ele>
        <time>2015-06-28T14:16:39Z</time>
      </trkpt>
      <trkpt lat="46.17786" lon="6.83276">
        <ele>1817.03</ele>
        <time>2015-06-28T14:16:50Z</time>
      </trkpt>
      <trkpt lat="46.17798" lon="6.83243">
        <ele>1816.07</ele>
        <time>2015-06-28T14:16:56Z</time>
      </trkpt>
      <trkpt lat="46.17812" lon="6.83182">
        <ele>1813.66</ele>
        <time>2015-06-28T14:17:08Z</time>
      </trkpt>
      <trkpt lat="46.17827" lon="6.83106">
        <ele>1812.7</ele>
        <time>2015-06-28T14:17:22Z</time>
      </trkpt>
      <trkpt lat="46.17835" lon="6.83074">
        <ele>1809.82</ele>
        <time>2015-06-28T14:17:26Z</time>
      </trkpt>
      <trkpt lat="46.17855" lon="6.8305">
        <ele>1807.9</ele>
        <time>2015-06-28T14:17:32Z</time>
      </trkpt>
      <trkpt lat="46.1787" lon="6.83039">
        <ele>1806.94</ele>
        <time>2015-06-28T14:17:35Z</time>
      </trkpt>
      <trkpt lat="46.17881" lon="6.8301">
        <ele>1805.49</ele>
        <time>2015-06-28T14:17:38Z</time>
      </trkpt>
      <trkpt lat="46.17893" lon="6.82965">
        <ele>1803.09</ele>
        <time>2015-06-28T14:17:42Z</time>
      </trkpt>
      <trkpt lat="46.17911" lon="6.82949">
        <ele>1799.73</ele>
        <time>2015-06-28T14:17:47Z</time>
      </trkpt>
      <trkpt lat="46.17917" lon="6.82967">
        <ele>1798.28</ele>
        <time>2015-06-28T14:17:49Z</time>
      </trkpt>
      <trkpt lat="46.17918" lon="6.82976">
        <ele>1797.8</ele>
        <time>2015-06-28T14:17:59Z</time>
      </trkpt>
      <trkpt lat="46.17922" lon="6.82986">
        <ele>1796.36</ele>
        <time>2015-06-28T14:18:03Z</time>
      </trkpt>
      <trkpt lat="46.17928" lon="6.83008">
        <ele>1794.44</ele>
        <time>2015-06-28T14:18:06Z</time>
      </trkpt>
      <trkpt lat="46.17934" lon="6.83095">
        <ele>1787.71</ele>
        <time>2015-06-28T14:18:13Z</time>
      </trkpt>
      <trkpt lat="46.17947" lon="6.83097">
        <ele>1784.82</ele>
        <time>2015-06-28T14:18:18Z</time>
      </trkpt>
      <trkpt lat="46.17954" lon="6.8304">
        <ele>1781.46</ele>
        <time>2015-06-28T14:18:23Z</time>
      </trkpt>
      <trkpt lat="46.17965" lon="6.83003">
        <ele>1779.06</ele>
        <time>2015-06-28T14:18:26Z</time>
      </trkpt>
      <trkpt lat="46.17971" lon="6.82963">
        <ele>1776.17</ele>
        <time>2015-06-28T14:18:29Z</time>
      </trkpt>
      <trkpt lat="46.18001" lon="6.82927">
        <ele>1770.41</ele>
        <time>2015-06-28T14:18:35Z</time>
      </trkpt>
      <trkpt lat="46.18038" lon="6.82926">
        <ele>1766.56</ele>
        <time>2015-06-28T14:18:39Z</time>
      </trkpt>
      <trkpt lat="46.18069" lon="6.82901">
        <ele>1763.68</ele>
        <time>2015-06-28T14:18:43Z</time>
      </trkpt>
      <trkpt lat="46.18116" lon="6.82887">
        <ele>1758.39</ele>
        <time>2015-06-28T14:18:49Z</time>
      </trkpt>
      <trkpt lat="46.18147" lon="6.82893">
        <ele>1755.02</ele>
        <time>2015-06-28T14:18:55Z</time>
      </trkpt>
      <trkpt lat="46.18135" lon="6.82929">
        <ele>1751.18</ele>
        <time>2015-06-28T14:18:59Z</time>
      </trkpt>
      <trkpt lat="46.18122" lon="6.82947">
        <ele>1749.26</ele>
        <time>2015-06-28T14:19:01Z</time>
      </trkpt>
      <trkpt lat="46.18105" lon="6.8298">
        <ele>1745.41</ele>
        <time>2015-06-28T14:19:04Z</time>
      </trkpt>
      <trkpt lat="46.18082" lon="6.83034">
        <ele>1739.64</ele>
        <time>2015-06-28T14:19:09Z</time>
      </trkpt>
      <trkpt lat="46.18086" lon="6.83072">
        <ele>1735.8</ele>
        <time>2015-06-28T14:19:13Z</time>
      </trkpt>
      <trkpt lat="46.18097" lon="6.83089">
        <ele>1733.88</ele>
        <time>2015-06-28T14:19:15Z</time>
      </trkpt>
      <trkpt lat="46.18106" lon="6.83123">
        <ele>1730.99</ele>
        <time>2015-06-28T14:19:18Z</time>
      </trkpt>
      <trkpt lat="46.18151" lon="6.83177">
        <ele>1729.07</ele>
        <time>2015-06-28T14:19:25Z</time>
      </trkpt>
      <trkpt lat="46.18171" lon="6.83197">
        <ele>1727.15</ele>
        <time>2015-06-28T14:19:28Z</time>
      </trkpt>
      <trkpt lat="46.18205" lon="6.83212">
        <ele>1724.26</ele>
        <time>2015-06-28T14:19:33Z</time>
      </trkpt>
      <trkpt lat="46.18216" lon="6.832">
        <ele>1719.46</ele>
        <time>2015-06-28T14:19:40Z</time>
      </trkpt>
      <trkpt lat="46.18217" lon="6.83146">
        <ele>1715.13</ele>
        <time>2015-06-28T14:19:46Z</time>
      </trkpt>
      <trkpt lat="46.18268" lon="6.83124">
        <ele>1707.92</ele>
        <time>2015-06-28T14:19:51Z</time>
      </trkpt>
      <trkpt lat="46.18295" lon="6.83134">
        <ele>1702.15</ele>
        <time>2015-06-28T14:19:55Z</time>
      </trkpt>
      <trkpt lat="46.18295" lon="6.83147">
        <ele>1701.67</ele>
        <time>2015-06-28T14:19:57Z</time>
      </trkpt>
      <trkpt lat="46.18306" lon="6.83166">
        <ele>1698.31</ele>
        <time>2015-06-28T14:20:01Z</time>
      </trkpt>
      <trkpt lat="46.18314" lon="6.83174">
        <ele>1695.42</ele>
        <time>2015-06-28T14:20:03Z</time>
      </trkpt>
      <trkpt lat="46.18325" lon="6.83223">
        <ele>1690.14</ele>
        <time>2015-06-28T14:20:09Z</time>
      </trkpt>
      <trkpt lat="46.18336" lon="6.83246">
        <ele>1688.21</ele>
        <time>2015-06-28T14:20:13Z</time>
      </trkpt>
      <trkpt lat="46.18353" lon="6.83299">
        <ele>1685.33</ele>
        <time>2015-06-28T14:20:21Z</time>
      </trkpt>
      <trkpt lat="46.18351" lon="6.83356">
        <ele>1684.85</ele>
        <time>2015-06-28T14:20:27Z</time>
      </trkpt>
      <trkpt lat="46.18349" lon="6.834">
        <ele>1683.41</ele>
        <time>2015-06-28T14:20:32Z</time>
      </trkpt>
      <trkpt lat="46.18356" lon="6.83414">
        <ele>1683.89</ele>
        <time>2015-06-28T14:20:34Z</time>
      </trkpt>
      <trkpt lat="46.18365" lon="6.83431">
        <ele>1684.37</ele>
        <time>2015-06-28T14:20:37Z</time>
      </trkpt>
      <trkpt lat="46.18375" lon="6.83437">
        <ele>1685.33</ele>
        <time>2015-06-28T14:20:41Z</time>
      </trkpt>
      <trkpt lat="46.18377" lon="6.83429">
        <ele>1686.29</ele>
        <time>2015-06-28T14:20:53Z</time>
      </trkpt>
      <trkpt lat="46.18379" lon="6.8342">
        <ele>1685.81</ele>
        <time>2015-06-28T14:21:05Z</time>
      </trkpt>
      <trkpt lat="46.18382" lon="6.83415">
        <ele>1685.81</ele>
        <time>2015-06-28T14:21:09Z</time>
      </trkpt>
      <trkpt lat="46.18383" lon="6.83412">
        <ele>1685.81</ele>
        <time>2015-06-28T14:21:11Z</time>
      </trkpt>
      <trkpt lat="46.18384" lon="6.83409">
        <ele>1684.37</ele>
        <time>2015-06-28T14:21:25Z</time>
      </trkpt>
      <trkpt lat="46.18384" lon="6.83406">
        <ele>1684.37</ele>
        <time>2015-06-28T14:21:29Z</time>
      </trkpt>
      <trkpt lat="46.18399" lon="6.83369">
        <ele>1686.77</ele>
        <time>2015-06-28T14:21:41Z</time>
      </trkpt>
      <trkpt lat="46.18425" lon="6.83314">
        <ele>1697.34</ele>
        <time>2015-06-28T14:21:58Z</time>
      </trkpt>
      <trkpt lat="46.18472" lon="6.8321">
        <ele>1715.13</ele>
        <time>2015-06-28T14:22:31Z</time>
      </trkpt>
      <trkpt lat="46.18536" lon="6.83062">
        <ele>1739.64</ele>
        <time>2015-06-28T14:23:18Z</time>
      </trkpt>
      <trkpt lat="46.18612" lon="6.82893">
        <ele>1774.73</ele>
        <time>2015-06-28T14:24:12Z</time>
      </trkpt>
      <trkpt lat="46.18667" lon="6.82769">
        <ele>1816.07</ele>
        <time>2015-06-28T14:24:54Z</time>
      </trkpt>
      <trkpt lat="46.18728" lon="6.82631">
        <ele>1857.89</ele>
        <time>2015-06-28T14:25:39Z</time>
      </trkpt>
      <trkpt lat="46.18802" lon="6.82466">
        <ele>1929.98</ele>
        <time>2015-06-28T14:26:36Z</time>
      </trkpt>
      <trkpt lat="46.18862" lon="6.8233">
        <ele>1982.38</ele>
        <time>2015-06-28T14:27:22Z</time>
      </trkpt>
      <trkpt lat="46.18944" lon="6.82144">
        <ele>2016.98</ele>
        <time>2015-06-28T14:28:21Z</time>
      </trkpt>
      <trkpt lat="46.18992" lon="6.82038">
        <ele>2058.32</ele>
        <time>2015-06-28T14:28:57Z</time>
      </trkpt>
      <trkpt lat="46.19073" lon="6.81856">
        <ele>2163.58</ele>
        <time>2015-06-28T14:30:04Z</time>
      </trkpt>
      <trkpt lat="46.19113" lon="6.81766">
        <ele>2208.29</ele>
        <time>2015-06-28T14:30:36Z</time>
      </trkpt>
      <trkpt lat="46.19156" lon="6.81669">
        <ele>2240.49</ele>
        <time>2015-06-28T14:31:08Z</time>
      </trkpt>
      <trkpt lat="46.19193" lon="6.8158">
        <ele>2258.75</ele>
        <time>2015-06-28T14:31:37Z</time>
      </trkpt>
      <trkpt lat="46.19191" lon="6.81572">
        <ele>2255.87</ele>
        <time>2015-06-28T14:31:50Z</time>
      </trkpt>
      <trkpt lat="46.19191" lon="6.81571">
        <ele>2255.39</ele>
        <time>2015-06-28T14:31:51Z</time>
      </trkpt>
      <trkpt lat="46.19191" lon="6.81547">
        <ele>2253.95</ele>
        <time>2015-06-28T14:31:56Z</time>
      </trkpt>
      <trkpt lat="46.19179" lon="6.81499">
        <ele>2250.58</ele>
        <time>2015-06-28T14:32:07Z</time>
      </trkpt>
      <trkpt lat="46.19176" lon="6.81489">
        <ele>2249.62</ele>
        <time>2015-06-28T14:32:18Z</time>
      </trkpt>
      <trkpt lat="46.19176" lon="6.81489">
        <ele>2249.62</ele>
        <time>2015-06-28T14:33:41Z</time>
      </trkpt>
      <trkpt lat="46.19175" lon="6.81488">
        <ele>2249.62</ele>
        <time>2015-06-28T14:33:43Z</time>
      </trkpt>
      <trkpt lat="46.19133" lon="6.8147">
        <ele>2242.89</ele>
        <time>2015-06-28T14:33:49Z</time>
      </trkpt>
      <trkpt lat="46.19117" lon="6.81469">
        <ele>2240.01</ele>
        <time>2015-06-28T14:33:51Z</time>
      </trkpt>
      <trkpt lat="46.191" lon="6.81472">
        <ele>2237.61</ele>
        <time>2015-06-28T14:33:53Z</time>
      </trkpt>
      <trkpt lat="46.19067" lon="6.81496">
        <ele>2235.2</ele>
        <time>2015-06-28T14:33:57Z</time>
      </trkpt>
      <trkpt lat="46.19051" lon="6.81519">
        <ele>2233.28</ele>
        <time>2015-06-28T14:33:59Z</time>
      </trkpt>
      <trkpt lat="46.19029" lon="6.81568">
        <ele>2229.92</ele>
        <time>2015-06-28T14:34:03Z</time>
      </trkpt>
      <trkpt lat="46.1897" lon="6.81647">
        <ele>2217.9</ele>
        <time>2015-06-28T14:34:13Z</time>
      </trkpt>
      <trkpt lat="46.18937" lon="6.81681">
        <ele>2210.69</ele>
        <time>2015-06-28T14:34:19Z</time>
      </trkpt>
      <trkpt lat="46.18883" lon="6.81699">
        <ele>2194.35</ele>
        <time>2015-06-28T14:34:27Z</time>
      </trkpt>
      <trkpt lat="46.18855" lon="6.8172">
        <ele>2188.1</ele>
        <time>2015-06-28T14:34:34Z</time>
      </trkpt>
      <trkpt lat="46.18862" lon="6.81723">
        <ele>2187.14</ele>
        <time>2015-06-28T14:34:36Z</time>
      </trkpt>
      <trkpt lat="46.18881" lon="6.81714">
        <ele>2186.18</ele>
        <time>2015-06-28T14:34:40Z</time>
      </trkpt>
      <trkpt lat="46.18902" lon="6.81718">
        <ele>2185.21</ele>
        <time>2015-06-28T14:34:44Z</time>
      </trkpt>
      <trkpt lat="46.18911" lon="6.8173">
        <ele>2183.77</ele>
        <time>2015-06-28T14:34:46Z</time>
      </trkpt>
      <trkpt lat="46.18927" lon="6.81739">
        <ele>2182.81</ele>
        <time>2015-06-28T14:34:49Z</time>
      </trkpt>
      <trkpt lat="46.1895" lon="6.81752">
        <ele>2178.48</ele>
        <time>2015-06-28T14:34:53Z</time>
      </trkpt>
      <trkpt lat="46.18981" lon="6.81766">
        <ele>2172.72</ele>
        <time>2015-06-28T14:35:00Z</time>
      </trkpt>
      <trkpt lat="46.18987" lon="6.81766">
        <ele>2171.76</ele>
        <time>2015-06-28T14:35:01Z</time>
      </trkpt>
      <trkpt lat="46.19015" lon="6.81798">
        <ele>2167.91</ele>
        <time>2015-06-28T14:35:06Z</time>
      </trkpt>
      <trkpt lat="46.19042" lon="6.81814">
        <ele>2163.58</ele>
        <time>2015-06-28T14:35:11Z</time>
      </trkpt>
      <trkpt lat="46.19069" lon="6.81819">
        <ele>2160.22</ele>
        <time>2015-06-28T14:35:15Z</time>
      </trkpt>
      <trkpt lat="46.19085" lon="6.81867">
        <ele>2155.89</ele>
        <time>2015-06-28T14:35:20Z</time>
      </trkpt>
      <trkpt lat="46.19108" lon="6.81912">
        <ele>2150.61</ele>
        <time>2015-06-28T14:35:25Z</time>
      </trkpt>
      <trkpt lat="46.19131" lon="6.81933">
        <ele>2146.28</ele>
        <time>2015-06-28T14:35:29Z</time>
      </trkpt>
      <trkpt lat="46.19156" lon="6.81939">
        <ele>2141.95</ele>
        <time>2015-06-28T14:35:33Z</time>
      </trkpt>
      <trkpt lat="46.19169" lon="6.81966">
        <ele>2130.42</ele>
        <time>2015-06-28T14:35:39Z</time>
      </trkpt>
      <trkpt lat="46.19168" lon="6.81986">
        <ele>2127.05</ele>
        <time>2015-06-28T14:35:42Z</time>
      </trkpt>
      <trkpt lat="46.19176" lon="6.81992">
        <ele>2123.21</ele>
        <time>2015-06-28T14:35:46Z</time>
      </trkpt>
      <trkpt lat="46.19187" lon="6.81974">
        <ele>2120.32</ele>
        <time>2015-06-28T14:35:49Z</time>
      </trkpt>
      <trkpt lat="46.19197" lon="6.81961">
        <ele>2106.87</ele>
        <time>2015-06-28T14:35:56Z</time>
      </trkpt>
      <trkpt lat="46.19192" lon="6.81983">
        <ele>2106.87</ele>
        <time>2015-06-28T14:35:59Z</time>
      </trkpt>
      <trkpt lat="46.19188" lon="6.81999">
        <ele>2106.39</ele>
        <time>2015-06-28T14:36:01Z</time>
      </trkpt>
      <trkpt lat="46.1918" lon="6.82019">
        <ele>2105.42</ele>
        <time>2015-06-28T14:36:04Z</time>
      </trkpt>
      <trkpt lat="46.19178" lon="6.82047">
        <ele>2102.54</ele>
        <time>2015-06-28T14:36:08Z</time>
      </trkpt>
      <trkpt lat="46.19184" lon="6.82086">
        <ele>2101.58</ele>
        <time>2015-06-28T14:36:13Z</time>
      </trkpt>
      <trkpt lat="46.19194" lon="6.82119">
        <ele>2098.21</ele>
        <time>2015-06-28T14:36:18Z</time>
      </trkpt>
      <trkpt lat="46.19206" lon="6.8212">
        <ele>2094.85</ele>
        <time>2015-06-28T14:36:21Z</time>
      </trkpt>
      <trkpt lat="46.19229" lon="6.82123">
        <ele>2091.49</ele>
        <time>2015-06-28T14:36:24Z</time>
      </trkpt>
      <trkpt lat="46.19233" lon="6.82105">
        <ele>2086.68</ele>
        <time>2015-06-28T14:36:28Z</time>
      </trkpt>
      <trkpt lat="46.19226" lon="6.8207">
        <ele>2084.28</ele>
        <time>2015-06-28T14:36:31Z</time>
      </trkpt>
      <trkpt lat="46.19236" lon="6.82059">
        <ele>2078.51</ele>
        <time>2015-06-28T14:36:36Z</time>
      </trkpt>
      <trkpt lat="46.19244" lon="6.82076">
        <ele>2077.55</ele>
        <time>2015-06-28T14:36:38Z</time>
      </trkpt>
      <trkpt lat="46.19296" lon="6.821">
        <ele>2070.34</ele>
        <time>2015-06-28T14:36:44Z</time>
      </trkpt>
      <trkpt lat="46.19317" lon="6.82093">
        <ele>2067.93</ele>
        <time>2015-06-28T14:36:46Z</time>
      </trkpt>
      <trkpt lat="46.19336" lon="6.8209">
        <ele>2064.09</ele>
        <time>2015-06-28T14:36:48Z</time>
      </trkpt>
      <trkpt lat="46.19385" lon="6.82073">
        <ele>2055.44</ele>
        <time>2015-06-28T14:36:53Z</time>
      </trkpt>
      <trkpt lat="46.1944" lon="6.82051">
        <ele>2043.9</ele>
        <time>2015-06-28T14:36:59Z</time>
      </trkpt>
      <trkpt lat="46.19505" lon="6.8202">
        <ele>2030.92</ele>
        <time>2015-06-28T14:37:05Z</time>
      </trkpt>
      <trkpt lat="46.1956" lon="6.8198">
        <ele>2014.58</ele>
        <time>2015-06-28T14:37:10Z</time>
      </trkpt>
      <trkpt lat="46.19611" lon="6.81948">
        <ele>2005.45</ele>
        <time>2015-06-28T14:37:14Z</time>
      </trkpt>
      <trkpt lat="46.19642" lon="6.81895">
        <ele>2001.12</ele>
        <time>2015-06-28T14:37:18Z</time>
      </trkpt>
      <trkpt lat="46.19675" lon="6.81809">
        <ele>1997.28</ele>
        <time>2015-06-28T14:37:24Z</time>
      </trkpt>
      <trkpt lat="46.19701" lon="6.81714">
        <ele>1992.95</ele>
        <time>2015-06-28T14:37:30Z</time>
      </trkpt>
      <trkpt lat="46.19704" lon="6.81667">
        <ele>1996.32</ele>
        <time>2015-06-28T14:37:34Z</time>
      </trkpt>
      <trkpt lat="46.19706" lon="6.81579">
        <ele>1991.99</ele>
        <time>2015-06-28T14:37:44Z</time>
      </trkpt>
      <trkpt lat="46.19698" lon="6.81542">
        <ele>1989.1</ele>
        <time>2015-06-28T14:37:48Z</time>
      </trkpt>
      <trkpt lat="46.1969" lon="6.81491">
        <ele>1986.7</ele>
        <time>2015-06-28T14:37:53Z</time>
      </trkpt>
      <trkpt lat="46.1968" lon="6.81459">
        <ele>1985.74</ele>
        <time>2015-06-28T14:37:56Z</time>
      </trkpt>
      <trkpt lat="46.1968" lon="6.8143">
        <ele>1985.26</ele>
        <time>2015-06-28T14:37:59Z</time>
      </trkpt>
      <trkpt lat="46.19669" lon="6.81367">
        <ele>1986.7</ele>
        <time>2015-06-28T14:38:06Z</time>
      </trkpt>
      <trkpt lat="46.19654" lon="6.81329">
        <ele>1989.1</ele>
        <time>2015-06-28T14:38:16Z</time>
      </trkpt>
      <trkpt lat="46.19654" lon="6.81318">
        <ele>1990.07</ele>
        <time>2015-06-28T14:38:19Z</time>
      </trkpt>
      <trkpt lat="46.19663" lon="6.81305">
        <ele>1988.14</ele>
        <time>2015-06-28T14:38:26Z</time>
      </trkpt>
      <trkpt lat="46.1967" lon="6.81296">
        <ele>1985.74</ele>
        <time>2015-06-28T14:38:38Z</time>
      </trkpt>
      <trkpt lat="46.19694" lon="6.81291">
        <ele>1983.34</ele>
        <time>2015-06-28T14:39:05Z</time>
      </trkpt>
      <trkpt lat="46.19724" lon="6.81293">
        <ele>1980.93</ele>
        <time>2015-06-28T14:39:11Z</time>
      </trkpt>
      <trkpt lat="46.19765" lon="6.81268">
        <ele>1974.2</ele>
        <time>2015-06-28T14:39:18Z</time>
      </trkpt>
      <trkpt lat="46.19785" lon="6.81233">
        <ele>1972.76</ele>
        <time>2015-06-28T14:39:22Z</time>
      </trkpt>
      <trkpt lat="46.19801" lon="6.81204">
        <ele>1971.32</ele>
        <time>2015-06-28T14:39:25Z</time>
      </trkpt>
      <trkpt lat="46.19813" lon="6.81183">
        <ele>1970.84</ele>
        <time>2015-06-28T14:39:27Z</time>
      </trkpt>
      <trkpt lat="46.19818" lon="6.81147">
        <ele>1971.8</ele>
        <time>2015-06-28T14:39:31Z</time>
      </trkpt>
      <trkpt lat="46.19797" lon="6.81123">
        <ele>1972.76</ele>
        <time>2015-06-28T14:39:35Z</time>
      </trkpt>
      <trkpt lat="46.19785" lon="6.8109">
        <ele>1973.24</ele>
        <time>2015-06-28T14:39:40Z</time>
      </trkpt>
      <trkpt lat="46.19779" lon="6.81078">
        <ele>1974.2</ele>
        <time>2015-06-28T14:39:42Z</time>
      </trkpt>
      <trkpt lat="46.19779" lon="6.81048">
        <ele>1976.13</ele>
        <time>2015-06-28T14:39:49Z</time>
      </trkpt>
      <trkpt lat="46.19787" lon="6.81022">
        <ele>1972.76</ele>
        <time>2015-06-28T14:39:54Z</time>
      </trkpt>
      <trkpt lat="46.19797" lon="6.81011">
        <ele>1972.76</ele>
        <time>2015-06-28T14:39:56Z</time>
      </trkpt>
      <trkpt lat="46.19805" lon="6.80985">
        <ele>1972.76</ele>
        <time>2015-06-28T14:40:00Z</time>
      </trkpt>
      <trkpt lat="46.19794" lon="6.80959">
        <ele>1972.76</ele>
        <time>2015-06-28T14:40:05Z</time>
      </trkpt>
      <trkpt lat="46.19788" lon="6.80955">
        <ele>1973.72</ele>
        <time>2015-06-28T14:40:07Z</time>
      </trkpt>
      <trkpt lat="46.19783" lon="6.80916">
        <ele>1974.69</ele>
        <time>2015-06-28T14:40:17Z</time>
      </trkpt>
      <trkpt lat="46.19777" lon="6.80907">
        <ele>1975.65</ele>
        <time>2015-06-28T14:40:20Z</time>
      </trkpt>
      <trkpt lat="46.19787" lon="6.80888">
        <ele>1974.69</ele>
        <time>2015-06-28T14:40:28Z</time>
      </trkpt>
      <trkpt lat="46.19786" lon="6.80872">
        <ele>1975.17</ele>
        <time>2015-06-28T14:40:32Z</time>
      </trkpt>
      <trkpt lat="46.19773" lon="6.80842">
        <ele>1978.05</ele>
        <time>2015-06-28T14:40:46Z</time>
      </trkpt>
      <trkpt lat="46.19759" lon="6.80824">
        <ele>1978.53</ele>
        <time>2015-06-28T14:40:57Z</time>
      </trkpt>
      <trkpt lat="46.19761" lon="6.80815">
        <ele>1979.49</ele>
        <time>2015-06-28T14:41:01Z</time>
      </trkpt>
      <trkpt lat="46.19752" lon="6.80773">
        <ele>1982.86</ele>
        <time>2015-06-28T14:41:19Z</time>
      </trkpt>
      <trkpt lat="46.19744" lon="6.8076">
        <ele>1984.3</ele>
        <time>2015-06-28T14:41:28Z</time>
      </trkpt>
      <trkpt lat="46.19734" lon="6.80721">
        <ele>1990.07</ele>
        <time>2015-06-28T14:41:48Z</time>
      </trkpt>
      <trkpt lat="46.19727" lon="6.80675">
        <ele>1990.55</ele>
        <time>2015-06-28T14:42:02Z</time>
      </trkpt>
      <trkpt lat="46.1971" lon="6.80629">
        <ele>1994.39</ele>
        <time>2015-06-28T14:42:22Z</time>
      </trkpt>
      <trkpt lat="46.19694" lon="6.806">
        <ele>2001.6</ele>
        <time>2015-06-28T14:42:41Z</time>
      </trkpt>
      <trkpt lat="46.1969" lon="6.8055">
        <ele>2003.04</ele>
        <time>2015-06-28T14:42:56Z</time>
      </trkpt>
      <trkpt lat="46.197" lon="6.80506">
        <ele>2002.56</ele>
        <time>2015-06-28T14:43:08Z</time>
      </trkpt>
      <trkpt lat="46.19711" lon="6.8047">
        <ele>2001.12</ele>
        <time>2015-06-28T14:43:20Z</time>
      </trkpt>
      <trkpt lat="46.19726" lon="6.80448">
        <ele>1997.76</ele>
        <time>2015-06-28T14:43:29Z</time>
      </trkpt>
      <trkpt lat="46.19746" lon="6.8042">
        <ele>1995.35</ele>
        <time>2015-06-28T14:43:34Z</time>
      </trkpt>
      <trkpt lat="46.19765" lon="6.80375">
        <ele>1994.87</ele>
        <time>2015-06-28T14:43:39Z</time>
      </trkpt>
      <trkpt lat="46.1979" lon="6.8033">
        <ele>1992.95</ele>
        <time>2015-06-28T14:43:45Z</time>
      </trkpt>
      <trkpt lat="46.19804" lon="6.80296">
        <ele>1989.59</ele>
        <time>2015-06-28T14:43:49Z</time>
      </trkpt>
      <trkpt lat="46.19822" lon="6.8023">
        <ele>1985.74</ele>
        <time>2015-06-28T14:43:56Z</time>
      </trkpt>
      <trkpt lat="46.19827" lon="6.80199">
        <ele>1983.34</ele>
        <time>2015-06-28T14:43:59Z</time>
      </trkpt>
      <trkpt lat="46.19831" lon="6.80149">
        <ele>1980.93</ele>
        <time>2015-06-28T14:44:04Z</time>
      </trkpt>
      <trkpt lat="46.1984" lon="6.80109">
        <ele>1978.53</ele>
        <time>2015-06-28T14:44:08Z</time>
      </trkpt>
      <trkpt lat="46.19854" lon="6.80069">
        <ele>1975.17</ele>
        <time>2015-06-28T14:44:12Z</time>
      </trkpt>
      <trkpt lat="46.19893" lon="6.80004">
        <ele>1968.44</ele>
        <time>2015-06-28T14:44:19Z</time>
      </trkpt>
      <trkpt lat="46.19912" lon="6.7996">
        <ele>1964.59</ele>
        <time>2015-06-28T14:44:23Z</time>
      </trkpt>
      <trkpt lat="46.19935" lon="6.79925">
        <ele>1958.82</ele>
        <time>2015-06-28T14:44:27Z</time>
      </trkpt>
      <trkpt lat="46.1995" lon="6.79914">
        <ele>1955.94</ele>
        <time>2015-06-28T14:44:29Z</time>
      </trkpt>
      <trkpt lat="46.19973" lon="6.79901">
        <ele>1952.57</ele>
        <time>2015-06-28T14:44:32Z</time>
      </trkpt>
      <trkpt lat="46.20003" lon="6.79873">
        <ele>1948.25</ele>
        <time>2015-06-28T14:44:36Z</time>
      </trkpt>
      <trkpt lat="46.20024" lon="6.79848">
        <ele>1946.81</ele>
        <time>2015-06-28T14:44:39Z</time>
      </trkpt>
      <trkpt lat="46.20039" lon="6.79813">
        <ele>1944.88</ele>
        <time>2015-06-28T14:44:43Z</time>
      </trkpt>
      <trkpt lat="46.20048" lon="6.79782">
        <ele>1942.48</ele>
        <time>2015-06-28T14:44:46Z</time>
      </trkpt>
      <trkpt lat="46.20072" lon="6.79759">
        <ele>1936.71</ele>
        <time>2015-06-28T14:44:50Z</time>
      </trkpt>
      <trkpt lat="46.201" lon="6.79745">
        <ele>1933.35</ele>
        <time>2015-06-28T14:44:56Z</time>
      </trkpt>
      <trkpt lat="46.201" lon="6.79722">
        <ele>1929.5</ele>
        <time>2015-06-28T14:45:03Z</time>
      </trkpt>
      <trkpt lat="46.20105" lon="6.79713">
        <ele>1929.02</ele>
        <time>2015-06-28T14:45:08Z</time>
      </trkpt>
      <trkpt lat="46.20098" lon="6.79709">
        <ele>1926.62</ele>
        <time>2015-06-28T14:45:10Z</time>
      </trkpt>
      <trkpt lat="46.20087" lon="6.79695">
        <ele>1925.66</ele>
        <time>2015-06-28T14:45:14Z</time>
      </trkpt>
      <trkpt lat="46.20088" lon="6.79682">
        <ele>1923.25</ele>
        <time>2015-06-28T14:45:18Z</time>
      </trkpt>
      <trkpt lat="46.20111" lon="6.79641">
        <ele>1917.01</ele>
        <time>2015-06-28T14:45:26Z</time>
      </trkpt>
      <trkpt lat="46.20112" lon="6.79637">
        <ele>1916.53</ele>
        <time>2015-06-28T14:45:27Z</time>
      </trkpt>
      <trkpt lat="46.2012" lon="6.7963">
        <ele>1914.12</ele>
        <time>2015-06-28T14:45:30Z</time>
      </trkpt>
      <trkpt lat="46.20139" lon="6.79601">
        <ele>1906.43</ele>
        <time>2015-06-28T14:45:36Z</time>
      </trkpt>
      <trkpt lat="46.20141" lon="6.79586">
        <ele>1904.51</ele>
        <time>2015-06-28T14:45:38Z</time>
      </trkpt>
      <trkpt lat="46.20169" lon="6.79518">
        <ele>1898.74</ele>
        <time>2015-06-28T14:45:47Z</time>
      </trkpt>
      <trkpt lat="46.20189" lon="6.79494">
        <ele>1895.86</ele>
        <time>2015-06-28T14:45:51Z</time>
      </trkpt>
      <trkpt lat="46.20202" lon="6.79472">
        <ele>1892.49</ele>
        <time>2015-06-28T14:45:55Z</time>
      </trkpt>
      <trkpt lat="46.20215" lon="6.79453">
        <ele>1888.65</ele>
        <time>2015-06-28T14:45:59Z</time>
      </trkpt>
      <trkpt lat="46.20239" lon="6.79429">
        <ele>1884.8</ele>
        <time>2015-06-28T14:46:10Z</time>
      </trkpt>
      <trkpt lat="46.20244" lon="6.79422">
        <ele>1884.8</ele>
        <time>2015-06-28T14:46:18Z</time>
      </trkpt>
      <trkpt lat="46.20244" lon="6.79423">
        <ele>1884.8</ele>
        <time>2015-06-28T14:46:49Z</time>
      </trkpt>
      <trkpt lat="46.20244" lon="6.79423">
        <ele>1884.8</ele>
        <time>2015-06-28T14:46:54Z</time>
      </trkpt>
      <trkpt lat="46.20254" lon="6.79404">
        <ele>1882.88</ele>
        <time>2015-06-28T14:47:00Z</time>
      </trkpt>
      <trkpt lat="46.20277" lon="6.79376">
        <ele>1880</ele>
        <time>2015-06-28T14:47:05Z</time>
      </trkpt>
      <trkpt lat="46.20283" lon="6.79361">
        <ele>1879.03</ele>
        <time>2015-06-28T14:47:07Z</time>
      </trkpt>
      <trkpt lat="46.20304" lon="6.79327">
        <ele>1876.15</ele>
        <time>2015-06-28T14:47:13Z</time>
      </trkpt>
      <trkpt lat="46.20318" lon="6.7931">
        <ele>1874.23</ele>
        <time>2015-06-28T14:47:16Z</time>
      </trkpt>
      <trkpt lat="46.20338" lon="6.79266">
        <ele>1871.34</ele>
        <time>2015-06-28T14:47:21Z</time>
      </trkpt>
      <trkpt lat="46.2037" lon="6.79258">
        <ele>1867.98</ele>
        <time>2015-06-28T14:47:30Z</time>
      </trkpt>
      <trkpt lat="46.20391" lon="6.79253">
        <ele>1867.02</ele>
        <time>2015-06-28T14:47:37Z</time>
      </trkpt>
      <trkpt lat="46.2041" lon="6.79246">
        <ele>1865.09</ele>
        <time>2015-06-28T14:47:42Z</time>
      </trkpt>
      <trkpt lat="46.20469" lon="6.79209">
        <ele>1858.37</ele>
        <time>2015-06-28T14:47:52Z</time>
      </trkpt>
      <trkpt lat="46.20473" lon="6.79204">
        <ele>1857.4</ele>
        <time>2015-06-28T14:47:53Z</time>
      </trkpt>
      <trkpt lat="46.20495" lon="6.7919">
        <ele>1853.56</ele>
        <time>2015-06-28T14:47:57Z</time>
      </trkpt>
      <trkpt lat="46.2051" lon="6.79186">
        <ele>1852.12</ele>
        <time>2015-06-28T14:47:59Z</time>
      </trkpt>
      <trkpt lat="46.20541" lon="6.79145">
        <ele>1848.75</ele>
        <time>2015-06-28T14:48:05Z</time>
      </trkpt>
      <trkpt lat="46.20563" lon="6.79125">
        <ele>1846.35</ele>
        <time>2015-06-28T14:48:09Z</time>
      </trkpt>
      <trkpt lat="46.20606" lon="6.79072">
        <ele>1843.47</ele>
        <time>2015-06-28T14:48:19Z</time>
      </trkpt>
      <trkpt lat="46.20625" lon="6.7904">
        <ele>1840.1</ele>
        <time>2015-06-28T14:48:23Z</time>
      </trkpt>
      <trkpt lat="46.20651" lon="6.79018">
        <ele>1833.37</ele>
        <time>2015-06-28T14:48:27Z</time>
      </trkpt>
      <trkpt lat="46.20667" lon="6.78996">
        <ele>1830.97</ele>
        <time>2015-06-28T14:48:31Z</time>
      </trkpt>
      <trkpt lat="46.2068" lon="6.78976">
        <ele>1825.2</ele>
        <time>2015-06-28T14:48:35Z</time>
      </trkpt>
      <trkpt lat="46.20698" lon="6.78961">
        <ele>1822.32</ele>
        <time>2015-06-28T14:48:41Z</time>
      </trkpt>
      <trkpt lat="46.20708" lon="6.789">
        <ele>1817.99</ele>
        <time>2015-06-28T14:48:48Z</time>
      </trkpt>
      <trkpt lat="46.20719" lon="6.78872">
        <ele>1817.03</ele>
        <time>2015-06-28T14:48:51Z</time>
      </trkpt>
      <trkpt lat="46.2073" lon="6.78851">
        <ele>1817.03</ele>
        <time>2015-06-28T14:48:54Z</time>
      </trkpt>
      <trkpt lat="46.20742" lon="6.78831">
        <ele>1814.15</ele>
        <time>2015-06-28T14:49:00Z</time>
      </trkpt>
      <trkpt lat="46.20742" lon="6.78823">
        <ele>1813.66</ele>
        <time>2015-06-28T14:49:02Z</time>
      </trkpt>
      <trkpt lat="46.20748" lon="6.78776">
        <ele>1810.3</ele>
        <time>2015-06-28T14:49:12Z</time>
      </trkpt>
      <trkpt lat="46.20749" lon="6.78777">
        <ele>1809.82</ele>
        <time>2015-06-28T14:49:27Z</time>
      </trkpt>
      <trkpt lat="46.20749" lon="6.78777">
        <ele>1809.82</ele>
        <time>2015-06-28T14:50:31Z</time>
      </trkpt>
      <trkpt lat="46.2075" lon="6.78777">
        <ele>1809.82</ele>
        <time>2015-06-28T14:50:57Z</time>
      </trkpt>
      <trkpt lat="46.2075" lon="6.78777">
        <ele>1809.82</ele>
        <time>2015-06-28T14:51:10Z</time>
      </trkpt>
      <trkpt lat="46.20768" lon="6.78764">
        <ele>1807.42</ele>
        <time>2015-06-28T14:51:16Z</time>
      </trkpt>
      <trkpt lat="46.20841" lon="6.78721">
        <ele>1796.84</ele>
        <time>2015-06-28T14:51:27Z</time>
      </trkpt>
      <trkpt lat="46.20855" lon="6.78714">
        <ele>1794.44</ele>
        <time>2015-06-28T14:51:29Z</time>
      </trkpt>
      <trkpt lat="46.20873" lon="6.78705">
        <ele>1790.59</ele>
        <time>2015-06-28T14:51:32Z</time>
      </trkpt>
      <trkpt lat="46.20901" lon="6.78678">
        <ele>1785.79</ele>
        <time>2015-06-28T14:51:36Z</time>
      </trkpt>
      <trkpt lat="46.2094" lon="6.7867">
        <ele>1778.58</ele>
        <time>2015-06-28T14:51:42Z</time>
      </trkpt>
      <trkpt lat="46.20943" lon="6.78665">
        <ele>1779.06</ele>
        <time>2015-06-28T14:51:44Z</time>
      </trkpt>
      <trkpt lat="46.20942" lon="6.78615">
        <ele>1772.81</ele>
        <time>2015-06-28T14:51:50Z</time>
      </trkpt>
      <trkpt lat="46.20987" lon="6.78572">
        <ele>1763.68</ele>
        <time>2015-06-28T14:51:56Z</time>
      </trkpt>
      <trkpt lat="46.21012" lon="6.78568">
        <ele>1757.91</ele>
        <time>2015-06-28T14:51:59Z</time>
      </trkpt>
      <trkpt lat="46.21029" lon="6.78546">
        <ele>1751.66</ele>
        <time>2015-06-28T14:52:04Z</time>
      </trkpt>
      <trkpt lat="46.21062" lon="6.78461">
        <ele>1745.89</ele>
        <time>2015-06-28T14:52:12Z</time>
      </trkpt>
      <trkpt lat="46.21073" lon="6.78408">
        <ele>1742.05</ele>
        <time>2015-06-28T14:52:16Z</time>
      </trkpt>
      <trkpt lat="46.21081" lon="6.78361">
        <ele>1738.2</ele>
        <time>2015-06-28T14:52:20Z</time>
      </trkpt>
      <trkpt lat="46.21086" lon="6.78295">
        <ele>1733.39</ele>
        <time>2015-06-28T14:52:26Z</time>
      </trkpt>
      <trkpt lat="46.21099" lon="6.7826">
        <ele>1726.67</ele>
        <time>2015-06-28T14:52:30Z</time>
      </trkpt>
      <trkpt lat="46.21107" lon="6.78244">
        <ele>1724.26</ele>
        <time>2015-06-28T14:52:32Z</time>
      </trkpt>
      <trkpt lat="46.21112" lon="6.78209">
        <ele>1720.9</ele>
        <time>2015-06-28T14:52:36Z</time>
      </trkpt>
      <trkpt lat="46.21116" lon="6.78162">
        <ele>1715.13</ele>
        <time>2015-06-28T14:52:41Z</time>
      </trkpt>
      <trkpt lat="46.21129" lon="6.78109">
        <ele>1707.92</ele>
        <time>2015-06-28T14:52:46Z</time>
      </trkpt>
      <trkpt lat="46.21135" lon="6.7806">
        <ele>1696.86</ele>
        <time>2015-06-28T14:52:53Z</time>
      </trkpt>
      <trkpt lat="46.21141" lon="6.78038">
        <ele>1693.5</ele>
        <time>2015-06-28T14:52:56Z</time>
      </trkpt>
      <trkpt lat="46.21171" lon="6.77953">
        <ele>1682.93</ele>
        <time>2015-06-28T14:53:05Z</time>
      </trkpt>
      <trkpt lat="46.21183" lon="6.77918">
        <ele>1672.83</ele>
        <time>2015-06-28T14:53:11Z</time>
      </trkpt>
      <trkpt lat="46.21195" lon="6.77881">
        <ele>1667.54</ele>
        <time>2015-06-28T14:53:15Z</time>
      </trkpt>
      <trkpt lat="46.21217" lon="6.77848">
        <ele>1660.33</ele>
        <time>2015-06-28T14:53:19Z</time>
      </trkpt>
      <trkpt lat="46.21237" lon="6.77814">
        <ele>1653.12</ele>
        <time>2015-06-28T14:53:23Z</time>
      </trkpt>
      <trkpt lat="46.21248" lon="6.77799">
        <ele>1649.76</ele>
        <time>2015-06-28T14:53:25Z</time>
      </trkpt>
      <trkpt lat="46.2126" lon="6.77738">
        <ele>1642.55</ele>
        <time>2015-06-28T14:53:32Z</time>
      </trkpt>
      <trkpt lat="46.21238" lon="6.77741">
        <ele>1637.74</ele>
        <time>2015-06-28T14:53:35Z</time>
      </trkpt>
      <trkpt lat="46.21194" lon="6.77771">
        <ele>1631.49</ele>
        <time>2015-06-28T14:53:40Z</time>
      </trkpt>
      <trkpt lat="46.21166" lon="6.77786">
        <ele>1629.09</ele>
        <time>2015-06-28T14:53:43Z</time>
      </trkpt>
      <trkpt lat="46.21097" lon="6.77838">
        <ele>1620.92</ele>
        <time>2015-06-28T14:53:51Z</time>
      </trkpt>
      <trkpt lat="46.21056" lon="6.77858">
        <ele>1612.27</ele>
        <time>2015-06-28T14:53:56Z</time>
      </trkpt>
      <trkpt lat="46.20993" lon="6.77919">
        <ele>1601.69</ele>
        <time>2015-06-28T14:54:04Z</time>
      </trkpt>
      <trkpt lat="46.20961" lon="6.77966">
        <ele>1597.85</ele>
        <time>2015-06-28T14:54:08Z</time>
      </trkpt>
      <trkpt lat="46.20923" lon="6.77996">
        <ele>1592.08</ele>
        <time>2015-06-28T14:54:13Z</time>
      </trkpt>
      <trkpt lat="46.20851" lon="6.78041">
        <ele>1579.58</ele>
        <time>2015-06-28T14:54:21Z</time>
      </trkpt>
      <trkpt lat="46.20816" lon="6.78048">
        <ele>1568.05</ele>
        <time>2015-06-28T14:54:25Z</time>
      </trkpt>
      <trkpt lat="46.20768" lon="6.78041">
        <ele>1560.36</ele>
        <time>2015-06-28T14:54:30Z</time>
      </trkpt>
      <trkpt lat="46.20713" lon="6.78053">
        <ele>1550.26</ele>
        <time>2015-06-28T14:54:38Z</time>
      </trkpt>
      <trkpt lat="46.20711" lon="6.78024">
        <ele>1542.09</ele>
        <time>2015-06-28T14:54:42Z</time>
      </trkpt>
      <trkpt lat="46.20721" lon="6.77992">
        <ele>1538.25</ele>
        <time>2015-06-28T14:54:45Z</time>
      </trkpt>
      <trkpt lat="46.20736" lon="6.7796">
        <ele>1532.96</ele>
        <time>2015-06-28T14:54:48Z</time>
      </trkpt>
      <trkpt lat="46.20748" lon="6.77898">
        <ele>1527.19</ele>
        <time>2015-06-28T14:54:53Z</time>
      </trkpt>
      <trkpt lat="46.20714" lon="6.77773">
        <ele>1515.66</ele>
        <time>2015-06-28T14:55:02Z</time>
      </trkpt>
      <trkpt lat="46.20717" lon="6.77723">
        <ele>1512.77</ele>
        <time>2015-06-28T14:55:07Z</time>
      </trkpt>
      <trkpt lat="46.20724" lon="6.77706">
        <ele>1510.85</ele>
        <time>2015-06-28T14:55:09Z</time>
      </trkpt>
      <trkpt lat="46.20748" lon="6.77684">
        <ele>1507</ele>
        <time>2015-06-28T14:55:16Z</time>
      </trkpt>
      <trkpt lat="46.20752" lon="6.77677">
        <ele>1506.04</ele>
        <time>2015-06-28T14:55:18Z</time>
      </trkpt>
      <trkpt lat="46.20756" lon="6.77667">
        <ele>1506.04</ele>
        <time>2015-06-28T14:55:23Z</time>
      </trkpt>
      <trkpt lat="46.20725" lon="6.77657">
        <ele>1505.08</ele>
        <time>2015-06-28T14:55:33Z</time>
      </trkpt>
      <trkpt lat="46.20729" lon="6.77655">
        <ele>1508.45</ele>
        <time>2015-06-28T15:05:55Z</time>
      </trkpt>
      <trkpt lat="46.20752" lon="6.77663">
        <ele>1507</ele>
        <time>2015-06-28T15:06:07Z</time>
      </trkpt>
      <trkpt lat="46.20756" lon="6.77667">
        <ele>1505.56</ele>
        <time>2015-06-28T15:06:09Z</time>
      </trkpt>
      <trkpt lat="46.20759" lon="6.77677">
        <ele>1505.08</ele>
        <time>2015-06-28T15:06:13Z</time>
      </trkpt>
      <trkpt lat="46.20755" lon="6.77683">
        <ele>1504.12</ele>
        <time>2015-06-28T15:06:16Z</time>
      </trkpt>
      <trkpt lat="46.20751" lon="6.77682">
        <ele>1503.16</ele>
        <time>2015-06-28T15:06:38Z</time>
      </trkpt>
      <trkpt lat="46.20751" lon="6.77681">
        <ele>1503.16</ele>
        <time>2015-06-28T15:07:15Z</time>
      </trkpt>
      <trkpt lat="46.2075" lon="6.77687">
        <ele>1499.79</ele>
        <time>2015-06-28T15:08:01Z</time>
      </trkpt>
      <trkpt lat="46.20754" lon="6.77687">
        <ele>1501.72</ele>
        <time>2015-06-28T15:08:17Z</time>
      </trkpt>
      <trkpt lat="46.20751" lon="6.77689">
        <ele>1501.24</ele>
        <time>2015-06-28T15:08:51Z</time>
      </trkpt>
      <trkpt lat="46.20739" lon="6.77681">
        <ele>1499.79</ele>
        <time>2015-06-28T15:09:08Z</time>
      </trkpt>
      <trkpt lat="46.20734" lon="6.7768">
        <ele>1499.31</ele>
        <time>2015-06-28T15:09:27Z</time>
      </trkpt>
      <trkpt lat="46.20733" lon="6.77681">
        <ele>1499.31</ele>
        <time>2015-06-28T15:09:55Z</time>
      </trkpt>
      <trkpt lat="46.20732" lon="6.77682">
        <ele>1504.12</ele>
        <time>2015-06-28T15:11:27Z</time>
      </trkpt>
      <trkpt lat="46.20719" lon="6.77681">
        <ele>1511.33</ele>
        <time>2015-06-28T15:11:39Z</time>
      </trkpt>
      <trkpt lat="46.20695" lon="6.77674">
        <ele>1512.77</ele>
        <time>2015-06-28T15:11:49Z</time>
      </trkpt>
      <trkpt lat="46.20641" lon="6.77651">
        <ele>1528.15</ele>
        <time>2015-06-28T15:12:08Z</time>
      </trkpt>
      <trkpt lat="46.20536" lon="6.77611">
        <ele>1553.63</ele>
        <time>2015-06-28T15:12:41Z</time>
      </trkpt>
      <trkpt lat="46.20462" lon="6.77587">
        <ele>1569.01</ele>
        <time>2015-06-28T15:13:04Z</time>
      </trkpt>
      <trkpt lat="46.20414" lon="6.77572">
        <ele>1586.79</ele>
        <time>2015-06-28T15:13:19Z</time>
      </trkpt>
      <trkpt lat="46.20329" lon="6.77539">
        <ele>1626.69</ele>
        <time>2015-06-28T15:13:48Z</time>
      </trkpt>
      <trkpt lat="46.20234" lon="6.77504">
        <ele>1668.02</ele>
        <time>2015-06-28T15:14:20Z</time>
      </trkpt>
      <trkpt lat="46.20169" lon="6.77485">
        <ele>1685.81</ele>
        <time>2015-06-28T15:14:40Z</time>
      </trkpt>
      <trkpt lat="46.2008" lon="6.77454">
        <ele>1711.76</ele>
        <time>2015-06-28T15:15:08Z</time>
      </trkpt>
      <trkpt lat="46.19989" lon="6.77421">
        <ele>1740.12</ele>
        <time>2015-06-28T15:15:37Z</time>
      </trkpt>
      <trkpt lat="46.19829" lon="6.77362">
        <ele>1796.84</ele>
        <time>2015-06-28T15:16:29Z</time>
      </trkpt>
      <trkpt lat="46.19718" lon="6.77323">
        <ele>1873.27</ele>
        <time>2015-06-28T15:17:09Z</time>
      </trkpt>
      <trkpt lat="46.19696" lon="6.77317">
        <ele>1875.67</ele>
        <time>2015-06-28T15:17:20Z</time>
      </trkpt>
      <trkpt lat="46.1968" lon="6.77308">
        <ele>1875.67</ele>
        <time>2015-06-28T15:17:31Z</time>
      </trkpt>
      <trkpt lat="46.19676" lon="6.77305">
        <ele>1876.15</ele>
        <time>2015-06-28T15:17:48Z</time>
      </trkpt>
      <trkpt lat="46.19676" lon="6.77304">
        <ele>1876.15</ele>
        <time>2015-06-28T15:20:48Z</time>
      </trkpt>
      <trkpt lat="46.19668" lon="6.77307">
        <ele>1875.19</ele>
        <time>2015-06-28T15:20:54Z</time>
      </trkpt>
      <trkpt lat="46.19649" lon="6.77313">
        <ele>1874.23</ele>
        <time>2015-06-28T15:20:58Z</time>
      </trkpt>
      <trkpt lat="46.19623" lon="6.77307">
        <ele>1874.71</ele>
        <time>2015-06-28T15:21:04Z</time>
      </trkpt>
      <trkpt lat="46.19553" lon="6.77307">
        <ele>1862.21</ele>
        <time>2015-06-28T15:21:13Z</time>
      </trkpt>
      <trkpt lat="46.19465" lon="6.77298">
        <ele>1846.35</ele>
        <time>2015-06-28T15:21:21Z</time>
      </trkpt>
      <trkpt lat="46.19422" lon="6.77282">
        <ele>1840.1</ele>
        <time>2015-06-28T15:21:26Z</time>
      </trkpt>
      <trkpt lat="46.19381" lon="6.77277">
        <ele>1837.22</ele>
        <time>2015-06-28T15:21:31Z</time>
      </trkpt>
      <trkpt lat="46.19341" lon="6.77285">
        <ele>1836.26</ele>
        <time>2015-06-28T15:21:39Z</time>
      </trkpt>
      <trkpt lat="46.19344" lon="6.77282">
        <ele>1836.26</ele>
        <time>2015-06-28T15:21:56Z</time>
      </trkpt>
      <trkpt lat="46.19355" lon="6.77271">
        <ele>1835.77</ele>
        <time>2015-06-28T15:22:04Z</time>
      </trkpt>
      <trkpt lat="46.19391" lon="6.77272">
        <ele>1835.29</ele>
        <time>2015-06-28T15:22:16Z</time>
      </trkpt>
      <trkpt lat="46.19416" lon="6.77245">
        <ele>1834.33</ele>
        <time>2015-06-28T15:22:26Z</time>
      </trkpt>
      <trkpt lat="46.19471" lon="6.77152">
        <ele>1832.89</ele>
        <time>2015-06-28T15:22:42Z</time>
      </trkpt>
      <trkpt lat="46.19508" lon="6.77048">
        <ele>1829.53</ele>
        <time>2015-06-28T15:22:54Z</time>
      </trkpt>
      <trkpt lat="46.19538" lon="6.76934">
        <ele>1827.12</ele>
        <time>2015-06-28T15:23:06Z</time>
      </trkpt>
      <trkpt lat="46.19543" lon="6.76878">
        <ele>1826.16</ele>
        <time>2015-06-28T15:23:11Z</time>
      </trkpt>
      <trkpt lat="46.19568" lon="6.76819">
        <ele>1822.8</ele>
        <time>2015-06-28T15:23:17Z</time>
      </trkpt>
      <trkpt lat="46.19592" lon="6.76801">
        <ele>1820.87</ele>
        <time>2015-06-28T15:23:20Z</time>
      </trkpt>
      <trkpt lat="46.19611" lon="6.7678">
        <ele>1817.99</ele>
        <time>2015-06-28T15:23:25Z</time>
      </trkpt>
      <trkpt lat="46.1962" lon="6.76744">
        <ele>1814.63</ele>
        <time>2015-06-28T15:23:30Z</time>
      </trkpt>
      <trkpt lat="46.19627" lon="6.76715">
        <ele>1813.66</ele>
        <time>2015-06-28T15:23:33Z</time>
      </trkpt>
      <trkpt lat="46.19656" lon="6.76679">
        <ele>1809.82</ele>
        <time>2015-06-28T15:23:38Z</time>
      </trkpt>
      <trkpt lat="46.19685" lon="6.76671">
        <ele>1806.94</ele>
        <time>2015-06-28T15:23:46Z</time>
      </trkpt>
      <trkpt lat="46.19684" lon="6.76672">
        <ele>1806.94</ele>
        <time>2015-06-28T15:24:32Z</time>
      </trkpt>
      <trkpt lat="46.19685" lon="6.76672">
        <ele>1806.94</ele>
        <time>2015-06-28T15:24:38Z</time>
      </trkpt>
      <trkpt lat="46.19699" lon="6.76663">
        <ele>1804.05</ele>
        <time>2015-06-28T15:24:42Z</time>
      </trkpt>
      <trkpt lat="46.19747" lon="6.76643">
        <ele>1798.76</ele>
        <time>2015-06-28T15:24:48Z</time>
      </trkpt>
      <trkpt lat="46.19816" lon="6.76588">
        <ele>1789.15</ele>
        <time>2015-06-28T15:24:57Z</time>
      </trkpt>
      <trkpt lat="46.1984" lon="6.76569">
        <ele>1786.27</ele>
        <time>2015-06-28T15:25:01Z</time>
      </trkpt>
      <trkpt lat="46.19855" lon="6.76545">
        <ele>1781.46</ele>
        <time>2015-06-28T15:25:10Z</time>
      </trkpt>
      <trkpt lat="46.19865" lon="6.76503">
        <ele>1777.13</ele>
        <time>2015-06-28T15:25:23Z</time>
      </trkpt>
      <trkpt lat="46.19866" lon="6.76491">
        <ele>1775.69</ele>
        <time>2015-06-28T15:25:26Z</time>
      </trkpt>
      <trkpt lat="46.19872" lon="6.76464">
        <ele>1774.73</ele>
        <time>2015-06-28T15:25:31Z</time>
      </trkpt>
      <trkpt lat="46.19881" lon="6.76353">
        <ele>1773.77</ele>
        <time>2015-06-28T15:25:43Z</time>
      </trkpt>
      <trkpt lat="46.19887" lon="6.7621">
        <ele>1766.56</ele>
        <time>2015-06-28T15:25:55Z</time>
      </trkpt>
      <trkpt lat="46.19888" lon="6.76196">
        <ele>1765.6</ele>
        <time>2015-06-28T15:25:56Z</time>
      </trkpt>
      <trkpt lat="46.19929" lon="6.76054">
        <ele>1756.47</ele>
        <time>2015-06-28T15:26:07Z</time>
      </trkpt>
      <trkpt lat="46.19932" lon="6.76042">
        <ele>1755.5</ele>
        <time>2015-06-28T15:26:08Z</time>
      </trkpt>
      <trkpt lat="46.19943" lon="6.76011">
        <ele>1753.1</ele>
        <time>2015-06-28T15:26:11Z</time>
      </trkpt>
      <trkpt lat="46.19976" lon="6.759">
        <ele>1747.33</ele>
        <time>2015-06-28T15:26:21Z</time>
      </trkpt>
      <trkpt lat="46.19989" lon="6.7587">
        <ele>1748.29</ele>
        <time>2015-06-28T15:26:24Z</time>
      </trkpt>
      <trkpt lat="46.20015" lon="6.7583">
        <ele>1751.66</ele>
        <time>2015-06-28T15:26:30Z</time>
      </trkpt>
      <trkpt lat="46.20027" lon="6.75813">
        <ele>1752.14</ele>
        <time>2015-06-28T15:26:34Z</time>
      </trkpt>
      <trkpt lat="46.20033" lon="6.75803">
        <ele>1752.14</ele>
        <time>2015-06-28T15:26:36Z</time>
      </trkpt>
      <trkpt lat="46.20046" lon="6.75785">
        <ele>1753.58</ele>
        <time>2015-06-28T15:26:39Z</time>
      </trkpt>
      <trkpt lat="46.20061" lon="6.75768">
        <ele>1755.5</ele>
        <time>2015-06-28T15:26:43Z</time>
      </trkpt>
      <trkpt lat="46.20082" lon="6.75724">
        <ele>1756.95</ele>
        <time>2015-06-28T15:26:51Z</time>
      </trkpt>
      <trkpt lat="46.20096" lon="6.75677">
        <ele>1755.99</ele>
        <time>2015-06-28T15:26:58Z</time>
      </trkpt>
      <trkpt lat="46.201" lon="6.75646">
        <ele>1755.99</ele>
        <time>2015-06-28T15:27:02Z</time>
      </trkpt>
      <trkpt lat="46.20103" lon="6.75561">
        <ele>1754.54</ele>
        <time>2015-06-28T15:27:13Z</time>
      </trkpt>
      <trkpt lat="46.20105" lon="6.75528">
        <ele>1754.06</ele>
        <time>2015-06-28T15:27:18Z</time>
      </trkpt>
      <trkpt lat="46.20102" lon="6.75499">
        <ele>1753.58</ele>
        <time>2015-06-28T15:27:22Z</time>
      </trkpt>
      <trkpt lat="46.20104" lon="6.75469">
        <ele>1751.66</ele>
        <time>2015-06-28T15:27:26Z</time>
      </trkpt>
      <trkpt lat="46.20109" lon="6.75435">
        <ele>1748.78</ele>
        <time>2015-06-28T15:27:30Z</time>
      </trkpt>
      <trkpt lat="46.20111" lon="6.75419">
        <ele>1747.33</ele>
        <time>2015-06-28T15:27:32Z</time>
      </trkpt>
      <trkpt lat="46.20121" lon="6.75321">
        <ele>1745.41</ele>
        <time>2015-06-28T15:27:43Z</time>
      </trkpt>
      <trkpt lat="46.20125" lon="6.7529">
        <ele>1743.49</ele>
        <time>2015-06-28T15:27:47Z</time>
      </trkpt>
      <trkpt lat="46.2013" lon="6.75251">
        <ele>1740.12</ele>
        <time>2015-06-28T15:27:53Z</time>
      </trkpt>
      <trkpt lat="46.20129" lon="6.75168">
        <ele>1742.53</ele>
        <time>2015-06-28T15:28:02Z</time>
      </trkpt>
      <trkpt lat="46.20111" lon="6.75067">
        <ele>1748.78</ele>
        <time>2015-06-28T15:28:12Z</time>
      </trkpt>
      <trkpt lat="46.20105" lon="6.75026">
        <ele>1749.74</ele>
        <time>2015-06-28T15:28:16Z</time>
      </trkpt>
      <trkpt lat="46.20095" lon="6.7497">
        <ele>1747.81</ele>
        <time>2015-06-28T15:28:21Z</time>
      </trkpt>
      <trkpt lat="46.20091" lon="6.74943">
        <ele>1747.33</ele>
        <time>2015-06-28T15:28:23Z</time>
      </trkpt>
      <trkpt lat="46.20089" lon="6.74869">
        <ele>1744.45</ele>
        <time>2015-06-28T15:28:29Z</time>
      </trkpt>
      <trkpt lat="46.20083" lon="6.7479">
        <ele>1744.45</ele>
        <time>2015-06-28T15:28:35Z</time>
      </trkpt>
      <trkpt lat="46.20065" lon="6.74707">
        <ele>1746.37</ele>
        <time>2015-06-28T15:28:42Z</time>
      </trkpt>
      <trkpt lat="46.20062" lon="6.74632">
        <ele>1747.81</ele>
        <time>2015-06-28T15:28:50Z</time>
      </trkpt>
      <trkpt lat="46.20061" lon="6.74624">
        <ele>1747.81</ele>
        <time>2015-06-28T15:28:51Z</time>
      </trkpt>
      <trkpt lat="46.20056" lon="6.74567">
        <ele>1749.74</ele>
        <time>2015-06-28T15:29:02Z</time>
      </trkpt>
      <trkpt lat="46.20054" lon="6.74562">
        <ele>1749.26</ele>
        <time>2015-06-28T15:29:03Z</time>
      </trkpt>
      <trkpt lat="46.20049" lon="6.74521">
        <ele>1747.33</ele>
        <time>2015-06-28T15:29:11Z</time>
      </trkpt>
      <trkpt lat="46.20049" lon="6.74485">
        <ele>1752.14</ele>
        <time>2015-06-28T15:29:24Z</time>
      </trkpt>
      <trkpt lat="46.20047" lon="6.74474">
        <ele>1752.62</ele>
        <time>2015-06-28T15:29:30Z</time>
      </trkpt>
      <trkpt lat="46.20043" lon="6.7444">
        <ele>1756.47</ele>
        <time>2015-06-28T15:29:46Z</time>
      </trkpt>
      <trkpt lat="46.20038" lon="6.74405">
        <ele>1758.39</ele>
        <time>2015-06-28T15:30:01Z</time>
      </trkpt>
      <trkpt lat="46.20028" lon="6.7436">
        <ele>1763.68</ele>
        <time>2015-06-28T15:30:18Z</time>
      </trkpt>
      <trkpt lat="46.20031" lon="6.74323">
        <ele>1763.68</ele>
        <time>2015-06-28T15:30:29Z</time>
      </trkpt>
      <trkpt lat="46.2003" lon="6.7431">
        <ele>1763.2</ele>
        <time>2015-06-28T15:30:33Z</time>
      </trkpt>
      <trkpt lat="46.20036" lon="6.74269">
        <ele>1762.71</ele>
        <time>2015-06-28T15:30:44Z</time>
      </trkpt>
      <trkpt lat="46.20027" lon="6.74226">
        <ele>1756.95</ele>
        <time>2015-06-28T15:30:55Z</time>
      </trkpt>
      <trkpt lat="46.20024" lon="6.74218">
        <ele>1756.95</ele>
        <time>2015-06-28T15:30:56Z</time>
      </trkpt>
      <trkpt lat="46.20007" lon="6.7416">
        <ele>1762.71</ele>
        <time>2015-06-28T15:31:09Z</time>
      </trkpt>
      <trkpt lat="46.19991" lon="6.74122">
        <ele>1768.96</ele>
        <time>2015-06-28T15:31:27Z</time>
      </trkpt>
      <trkpt lat="46.19973" lon="6.74091">
        <ele>1770.89</ele>
        <time>2015-06-28T15:31:43Z</time>
      </trkpt>
      <trkpt lat="46.19944" lon="6.74064">
        <ele>1767.52</ele>
        <time>2015-06-28T15:31:55Z</time>
      </trkpt>
      <trkpt lat="46.1994" lon="6.7406">
        <ele>1767.04</ele>
        <time>2015-06-28T15:31:56Z</time>
      </trkpt>
      <trkpt lat="46.19914" lon="6.7402">
        <ele>1764.16</ele>
        <time>2015-06-28T15:32:02Z</time>
      </trkpt>
      <trkpt lat="46.19892" lon="6.73993">
        <ele>1762.23</ele>
        <time>2015-06-28T15:32:06Z</time>
      </trkpt>
      <trkpt lat="46.19871" lon="6.73961">
        <ele>1760.79</ele>
        <time>2015-06-28T15:32:10Z</time>
      </trkpt>
      <trkpt lat="46.19855" lon="6.73937">
        <ele>1759.83</ele>
        <time>2015-06-28T15:32:13Z</time>
      </trkpt>
      <trkpt lat="46.1984" lon="6.73899">
        <ele>1757.91</ele>
        <time>2015-06-28T15:32:17Z</time>
      </trkpt>
      <trkpt lat="46.19813" lon="6.73842">
        <ele>1753.58</ele>
        <time>2015-06-28T15:32:23Z</time>
      </trkpt>
      <trkpt lat="46.19736" lon="6.73708">
        <ele>1745.89</ele>
        <time>2015-06-28T15:32:37Z</time>
      </trkpt>
      <trkpt lat="46.19717" lon="6.73682">
        <ele>1745.41</ele>
        <time>2015-06-28T15:32:40Z</time>
      </trkpt>
      <trkpt lat="46.19673" lon="6.73624">
        <ele>1743.97</ele>
        <time>2015-06-28T15:32:47Z</time>
      </trkpt>
      <trkpt lat="46.19651" lon="6.7359">
        <ele>1743.97</ele>
        <time>2015-06-28T15:32:51Z</time>
      </trkpt>
      <trkpt lat="46.19636" lon="6.73555">
        <ele>1744.93</ele>
        <time>2015-06-28T15:32:55Z</time>
      </trkpt>
      <trkpt lat="46.19629" lon="6.7354">
        <ele>1744.45</ele>
        <time>2015-06-28T15:32:57Z</time>
      </trkpt>
      <trkpt lat="46.19602" lon="6.73436">
        <ele>1740.6</ele>
        <time>2015-06-28T15:33:08Z</time>
      </trkpt>
      <trkpt lat="46.19596" lon="6.73393">
        <ele>1741.57</ele>
        <time>2015-06-28T15:33:16Z</time>
      </trkpt>
      <trkpt lat="46.19596" lon="6.73396">
        <ele>1741.08</ele>
        <time>2015-06-28T15:33:17Z</time>
      </trkpt>
      <trkpt lat="46.19599" lon="6.73411">
        <ele>1740.6</ele>
        <time>2015-06-28T15:33:29Z</time>
      </trkpt>
      <trkpt lat="46.19599" lon="6.73411">
        <ele>1740.6</ele>
        <time>2015-06-28T15:33:31Z</time>
      </trkpt>
      <trkpt lat="46.19598" lon="6.73407">
        <ele>1742.05</ele>
        <time>2015-06-28T15:33:55Z</time>
      </trkpt>
      <trkpt lat="46.19598" lon="6.73407">
        <ele>1742.05</ele>
        <time>2015-06-28T15:35:15Z</time>
      </trkpt>
      <trkpt lat="46.19592" lon="6.7341">
        <ele>1740.12</ele>
        <time>2015-06-28T15:35:21Z</time>
      </trkpt>
      <trkpt lat="46.19557" lon="6.73291">
        <ele>1733.88</ele>
        <time>2015-06-28T15:35:34Z</time>
      </trkpt>
      <trkpt lat="46.19556" lon="6.73261">
        <ele>1732.91</ele>
        <time>2015-06-28T15:35:37Z</time>
      </trkpt>
      <trkpt lat="46.1956" lon="6.73217">
        <ele>1730.51</ele>
        <time>2015-06-28T15:35:42Z</time>
      </trkpt>
      <trkpt lat="46.19561" lon="6.73184">
        <ele>1728.11</ele>
        <time>2015-06-28T15:35:46Z</time>
      </trkpt>
      <trkpt lat="46.19555" lon="6.73154">
        <ele>1721.86</ele>
        <time>2015-06-28T15:35:52Z</time>
      </trkpt>
      <trkpt lat="46.19532" lon="6.73157">
        <ele>1713.21</ele>
        <time>2015-06-28T15:35:59Z</time>
      </trkpt>
      <trkpt lat="46.19526" lon="6.73133">
        <ele>1706.96</ele>
        <time>2015-06-28T15:36:05Z</time>
      </trkpt>
      <trkpt lat="46.19528" lon="6.73103">
        <ele>1702.63</ele>
        <time>2015-06-28T15:36:10Z</time>
      </trkpt>
      <trkpt lat="46.19542" lon="6.73077">
        <ele>1699.75</ele>
        <time>2015-06-28T15:36:15Z</time>
      </trkpt>
      <trkpt lat="46.19531" lon="6.73045">
        <ele>1702.15</ele>
        <time>2015-06-28T15:36:20Z</time>
      </trkpt>
      <trkpt lat="46.19519" lon="6.73065">
        <ele>1701.67</ele>
        <time>2015-06-28T15:36:23Z</time>
      </trkpt>
      <trkpt lat="46.19511" lon="6.73074">
        <ele>1701.19</ele>
        <time>2015-06-28T15:36:25Z</time>
      </trkpt>
      <trkpt lat="46.19498" lon="6.73081">
        <ele>1698.79</ele>
        <time>2015-06-28T15:36:31Z</time>
      </trkpt>
      <trkpt lat="46.19502" lon="6.7306">
        <ele>1696.38</ele>
        <time>2015-06-28T15:36:35Z</time>
      </trkpt>
      <trkpt lat="46.1951" lon="6.73011">
        <ele>1692.54</ele>
        <time>2015-06-28T15:36:41Z</time>
      </trkpt>
      <trkpt lat="46.19511" lon="6.72975">
        <ele>1692.54</ele>
        <time>2015-06-28T15:36:46Z</time>
      </trkpt>
      <trkpt lat="46.195" lon="6.72981">
        <ele>1691.1</ele>
        <time>2015-06-28T15:36:48Z</time>
      </trkpt>
      <trkpt lat="46.1948" lon="6.73016">
        <ele>1684.85</ele>
        <time>2015-06-28T15:36:55Z</time>
      </trkpt>
      <trkpt lat="46.19477" lon="6.73005">
        <ele>1682.93</ele>
        <time>2015-06-28T15:36:58Z</time>
      </trkpt>
      <trkpt lat="46.19482" lon="6.72985">
        <ele>1681</ele>
        <time>2015-06-28T15:37:01Z</time>
      </trkpt>
      <trkpt lat="46.19472" lon="6.72966">
        <ele>1681.48</ele>
        <time>2015-06-28T15:37:06Z</time>
      </trkpt>
      <trkpt lat="46.19462" lon="6.7296">
        <ele>1682.93</ele>
        <time>2015-06-28T15:37:10Z</time>
      </trkpt>
      <trkpt lat="46.1946" lon="6.72959">
        <ele>1682.93</ele>
        <time>2015-06-28T15:37:11Z</time>
      </trkpt>
      <trkpt lat="46.19466" lon="6.72923">
        <ele>1680.52</ele>
        <time>2015-06-28T15:37:15Z</time>
      </trkpt>
      <trkpt lat="46.19469" lon="6.72905">
        <ele>1679.56</ele>
        <time>2015-06-28T15:37:17Z</time>
      </trkpt>
      <trkpt lat="46.19478" lon="6.72869">
        <ele>1678.6</ele>
        <time>2015-06-28T15:37:22Z</time>
      </trkpt>
      <trkpt lat="46.19463" lon="6.72874">
        <ele>1674.75</ele>
        <time>2015-06-28T15:37:26Z</time>
      </trkpt>
      <trkpt lat="46.19457" lon="6.72867">
        <ele>1672.35</ele>
        <time>2015-06-28T15:37:30Z</time>
      </trkpt>
      <trkpt lat="46.19463" lon="6.7283">
        <ele>1670.91</ele>
        <time>2015-06-28T15:37:35Z</time>
      </trkpt>
      <trkpt lat="46.19455" lon="6.7282">
        <ele>1668.99</ele>
        <time>2015-06-28T15:37:37Z</time>
      </trkpt>
      <trkpt lat="46.19434" lon="6.72775">
        <ele>1661.3</ele>
        <time>2015-06-28T15:37:47Z</time>
      </trkpt>
      <trkpt lat="46.19433" lon="6.72776">
        <ele>1659.37</ele>
        <time>2015-06-28T15:38:27Z</time>
      </trkpt>
      <trkpt lat="46.19432" lon="6.72772">
        <ele>1658.89</ele>
        <time>2015-06-28T15:40:41Z</time>
      </trkpt>
      <trkpt lat="46.19431" lon="6.7277">
        <ele>1658.89</ele>
        <time>2015-06-28T15:40:42Z</time>
      </trkpt>
      <trkpt lat="46.19425" lon="6.72763">
        <ele>1657.45</ele>
        <time>2015-06-28T15:40:44Z</time>
      </trkpt>
      <trkpt lat="46.1941" lon="6.7274">
        <ele>1653.6</ele>
        <time>2015-06-28T15:40:48Z</time>
      </trkpt>
      <trkpt lat="46.19392" lon="6.72692">
        <ele>1647.36</ele>
        <time>2015-06-28T15:40:55Z</time>
      </trkpt>
      <trkpt lat="46.19387" lon="6.7268">
        <ele>1645.43</ele>
        <time>2015-06-28T15:40:57Z</time>
      </trkpt>
      <trkpt lat="46.1938" lon="6.72637">
        <ele>1641.59</ele>
        <time>2015-06-28T15:41:03Z</time>
      </trkpt>
      <trkpt lat="46.19391" lon="6.72583">
        <ele>1639.19</ele>
        <time>2015-06-28T15:41:09Z</time>
      </trkpt>
      <trkpt lat="46.19393" lon="6.72567">
        <ele>1638.7</ele>
        <time>2015-06-28T15:41:11Z</time>
      </trkpt>
      <trkpt lat="46.19415" lon="6.72536">
        <ele>1635.34</ele>
        <time>2015-06-28T15:41:17Z</time>
      </trkpt>
      <trkpt lat="46.19415" lon="6.7252">
        <ele>1632.46</ele>
        <time>2015-06-28T15:41:21Z</time>
      </trkpt>
      <trkpt lat="46.19397" lon="6.72509">
        <ele>1629.09</ele>
        <time>2015-06-28T15:41:27Z</time>
      </trkpt>
      <trkpt lat="46.19384" lon="6.72502">
        <ele>1626.69</ele>
        <time>2015-06-28T15:41:30Z</time>
      </trkpt>
      <trkpt lat="46.19341" lon="6.72512">
        <ele>1621.88</ele>
        <time>2015-06-28T15:41:39Z</time>
      </trkpt>
      <trkpt lat="46.19328" lon="6.72512">
        <ele>1619.96</ele>
        <time>2015-06-28T15:41:42Z</time>
      </trkpt>
      <trkpt lat="46.19322" lon="6.72518">
        <ele>1619.48</ele>
        <time>2015-06-28T15:41:44Z</time>
      </trkpt>
      <trkpt lat="46.19312" lon="6.72509">
        <ele>1616.59</ele>
        <time>2015-06-28T15:41:50Z</time>
      </trkpt>
      <trkpt lat="46.19314" lon="6.72497">
        <ele>1615.15</ele>
        <time>2015-06-28T15:41:52Z</time>
      </trkpt>
      <trkpt lat="46.19305" lon="6.72465">
        <ele>1607.94</ele>
        <time>2015-06-28T15:41:59Z</time>
      </trkpt>
      <trkpt lat="46.19286" lon="6.72461">
        <ele>1603.62</ele>
        <time>2015-06-28T15:42:04Z</time>
      </trkpt>
      <trkpt lat="46.19284" lon="6.72444">
        <ele>1598.81</ele>
        <time>2015-06-28T15:42:09Z</time>
      </trkpt>
      <trkpt lat="46.19288" lon="6.72427">
        <ele>1594.48</ele>
        <time>2015-06-28T15:42:12Z</time>
      </trkpt>
      <trkpt lat="46.1931" lon="6.72388">
        <ele>1594</ele>
        <time>2015-06-28T15:42:19Z</time>
      </trkpt>
      <trkpt lat="46.19332" lon="6.72353">
        <ele>1594</ele>
        <time>2015-06-28T15:42:25Z</time>
      </trkpt>
      <trkpt lat="46.19357" lon="6.72334">
        <ele>1594</ele>
        <time>2015-06-28T15:42:32Z</time>
      </trkpt>
      <trkpt lat="46.19361" lon="6.72333">
        <ele>1594</ele>
        <time>2015-06-28T15:42:33Z</time>
      </trkpt>
      <trkpt lat="46.19375" lon="6.72325">
        <ele>1592.56</ele>
        <time>2015-06-28T15:42:37Z</time>
      </trkpt>
      <trkpt lat="46.19404" lon="6.72323">
        <ele>1595.45</ele>
        <time>2015-06-28T15:42:45Z</time>
      </trkpt>
      <trkpt lat="46.19419" lon="6.72305">
        <ele>1602.66</ele>
        <time>2015-06-28T15:42:54Z</time>
      </trkpt>
      <trkpt lat="46.19427" lon="6.72306">
        <ele>1604.1</ele>
        <time>2015-06-28T15:43:04Z</time>
      </trkpt>
      <trkpt lat="46.19427" lon="6.72306">
        <ele>1604.1</ele>
        <time>2015-06-28T15:43:38Z</time>
      </trkpt>
      <trkpt lat="46.19428" lon="6.72303">
        <ele>1604.58</ele>
        <time>2015-06-28T15:43:40Z</time>
      </trkpt>
      <trkpt lat="46.19426" lon="6.72279">
        <ele>1603.62</ele>
        <time>2015-06-28T15:43:46Z</time>
      </trkpt>
      <trkpt lat="46.19424" lon="6.72278">
        <ele>1604.1</ele>
        <time>2015-06-28T15:43:47Z</time>
      </trkpt>
      <trkpt lat="46.19402" lon="6.7227">
        <ele>1600.73</ele>
        <time>2015-06-28T15:43:54Z</time>
      </trkpt>
      <trkpt lat="46.1941" lon="6.72259">
        <ele>1597.85</ele>
        <time>2015-06-28T15:43:56Z</time>
      </trkpt>
      <trkpt lat="46.19403" lon="6.72243">
        <ele>1590.16</ele>
        <time>2015-06-28T15:44:03Z</time>
      </trkpt>
      <trkpt lat="46.19408" lon="6.72235">
        <ele>1587.27</ele>
        <time>2015-06-28T15:44:05Z</time>
      </trkpt>
      <trkpt lat="46.19406" lon="6.72207">
        <ele>1581.99</ele>
        <time>2015-06-28T15:44:12Z</time>
      </trkpt>
      <trkpt lat="46.19392" lon="6.72207">
        <ele>1578.62</ele>
        <time>2015-06-28T15:44:15Z</time>
      </trkpt>
      <trkpt lat="46.19374" lon="6.722">
        <ele>1575.26</ele>
        <time>2015-06-28T15:44:18Z</time>
      </trkpt>
      <trkpt lat="46.19373" lon="6.7218">
        <ele>1570.45</ele>
        <time>2015-06-28T15:44:24Z</time>
      </trkpt>
      <trkpt lat="46.19371" lon="6.72171">
        <ele>1566.12</ele>
        <time>2015-06-28T15:44:28Z</time>
      </trkpt>
      <trkpt lat="46.19359" lon="6.72165">
        <ele>1562.76</ele>
        <time>2015-06-28T15:44:32Z</time>
      </trkpt>
      <trkpt lat="46.19377" lon="6.72143">
        <ele>1556.51</ele>
        <time>2015-06-28T15:44:39Z</time>
      </trkpt>
      <trkpt lat="46.1935" lon="6.72134">
        <ele>1553.15</ele>
        <time>2015-06-28T15:44:43Z</time>
      </trkpt>
      <trkpt lat="46.19334" lon="6.72143">
        <ele>1554.11</ele>
        <time>2015-06-28T15:44:47Z</time>
      </trkpt>
      <trkpt lat="46.19331" lon="6.72139">
        <ele>1552.19</ele>
        <time>2015-06-28T15:44:52Z</time>
      </trkpt>
      <trkpt lat="46.19337" lon="6.72128">
        <ele>1549.78</ele>
        <time>2015-06-28T15:44:54Z</time>
      </trkpt>
      <trkpt lat="46.19361" lon="6.72109">
        <ele>1542.57</ele>
        <time>2015-06-28T15:45:01Z</time>
      </trkpt>
      <trkpt lat="46.19365" lon="6.72093">
        <ele>1536.32</ele>
        <time>2015-06-28T15:45:07Z</time>
      </trkpt>
      <trkpt lat="46.19374" lon="6.72093">
        <ele>1533.92</ele>
        <time>2015-06-28T15:45:10Z</time>
      </trkpt>
      <trkpt lat="46.19406" lon="6.72089">
        <ele>1527.19</ele>
        <time>2015-06-28T15:45:17Z</time>
      </trkpt>
      <trkpt lat="46.19417" lon="6.72089">
        <ele>1524.31</ele>
        <time>2015-06-28T15:45:19Z</time>
      </trkpt>
      <trkpt lat="46.19431" lon="6.72068">
        <ele>1516.62</ele>
        <time>2015-06-28T15:45:25Z</time>
      </trkpt>
      <trkpt lat="46.19415" lon="6.72066">
        <ele>1511.33</ele>
        <time>2015-06-28T15:45:32Z</time>
      </trkpt>
      <trkpt lat="46.19417" lon="6.72066">
        <ele>1510.37</ele>
        <time>2015-06-28T15:46:07Z</time>
      </trkpt>
      <trkpt lat="46.19416" lon="6.72066">
        <ele>1510.37</ele>
        <time>2015-06-28T15:46:19Z</time>
      </trkpt>
      <trkpt lat="46.19401" lon="6.7205">
        <ele>1510.85</ele>
        <time>2015-06-28T15:46:23Z</time>
      </trkpt>
      <trkpt lat="46.19377" lon="6.72028">
        <ele>1510.85</ele>
        <time>2015-06-28T15:46:27Z</time>
      </trkpt>
      <trkpt lat="46.19332" lon="6.71975">
        <ele>1508.45</ele>
        <time>2015-06-28T15:46:34Z</time>
      </trkpt>
      <trkpt lat="46.19311" lon="6.71943">
        <ele>1506.04</ele>
        <time>2015-06-28T15:46:40Z</time>
      </trkpt>
      <trkpt lat="46.19291" lon="6.71944">
        <ele>1503.64</ele>
        <time>2015-06-28T15:46:43Z</time>
      </trkpt>
      <trkpt lat="46.19287" lon="6.71904">
        <ele>1497.87</ele>
        <time>2015-06-28T15:46:49Z</time>
      </trkpt>
      <trkpt lat="46.19282" lon="6.71836">
        <ele>1491.14</ele>
        <time>2015-06-28T15:46:55Z</time>
      </trkpt>
      <trkpt lat="46.19257" lon="6.71786">
        <ele>1483.45</ele>
        <time>2015-06-28T15:47:01Z</time>
      </trkpt>
      <trkpt lat="46.19235" lon="6.71784">
        <ele>1478.16</ele>
        <time>2015-06-28T15:47:05Z</time>
      </trkpt>
      <trkpt lat="46.19207" lon="6.71789">
        <ele>1474.32</ele>
        <time>2015-06-28T15:47:08Z</time>
      </trkpt>
      <trkpt lat="46.19157" lon="6.71812">
        <ele>1462.78</ele>
        <time>2015-06-28T15:47:13Z</time>
      </trkpt>
      <trkpt lat="46.19123" lon="6.71836">
        <ele>1458.94</ele>
        <time>2015-06-28T15:47:19Z</time>
      </trkpt>
      <trkpt lat="46.191" lon="6.71812">
        <ele>1456.53</ele>
        <time>2015-06-28T15:47:27Z</time>
      </trkpt>
      <trkpt lat="46.19076" lon="6.71768">
        <ele>1450.29</ele>
        <time>2015-06-28T15:47:37Z</time>
      </trkpt>
      <trkpt lat="46.19069" lon="6.71758">
        <ele>1446.92</ele>
        <time>2015-06-28T15:47:40Z</time>
      </trkpt>
      <trkpt lat="46.19055" lon="6.71751">
        <ele>1440.67</ele>
        <time>2015-06-28T15:47:44Z</time>
      </trkpt>
      <trkpt lat="46.19053" lon="6.7174">
        <ele>1437.79</ele>
        <time>2015-06-28T15:47:46Z</time>
      </trkpt>
      <trkpt lat="46.19043" lon="6.71706">
        <ele>1427.7</ele>
        <time>2015-06-28T15:47:54Z</time>
      </trkpt>
      <trkpt lat="46.19041" lon="6.71699">
        <ele>1426.73</ele>
        <time>2015-06-28T15:47:55Z</time>
      </trkpt>
      <trkpt lat="46.19033" lon="6.71658">
        <ele>1420</ele>
        <time>2015-06-28T15:48:02Z</time>
      </trkpt>
      <trkpt lat="46.19018" lon="6.71641">
        <ele>1416.64</ele>
        <time>2015-06-28T15:48:06Z</time>
      </trkpt>
      <trkpt lat="46.19009" lon="6.71623">
        <ele>1413.28</ele>
        <time>2015-06-28T15:48:09Z</time>
      </trkpt>
      <trkpt lat="46.19014" lon="6.71584">
        <ele>1406.55</ele>
        <time>2015-06-28T15:48:16Z</time>
      </trkpt>
      <trkpt lat="46.19018" lon="6.71578">
        <ele>1401.26</ele>
        <time>2015-06-28T15:48:23Z</time>
      </trkpt>
      <trkpt lat="46.19017" lon="6.71567">
        <ele>1398.86</ele>
        <time>2015-06-28T15:48:31Z</time>
      </trkpt>
      <trkpt lat="46.19015" lon="6.71562">
        <ele>1398.37</ele>
        <time>2015-06-28T15:48:38Z</time>
      </trkpt>
      <trkpt lat="46.19005" lon="6.71551">
        <ele>1397.89</ele>
        <time>2015-06-28T15:48:42Z</time>
      </trkpt>
      <trkpt lat="46.18984" lon="6.7154">
        <ele>1395.01</ele>
        <time>2015-06-28T15:48:46Z</time>
      </trkpt>
      <trkpt lat="46.18964" lon="6.71543">
        <ele>1390.2</ele>
        <time>2015-06-28T15:48:53Z</time>
      </trkpt>
      <trkpt lat="46.18961" lon="6.71533">
        <ele>1389.72</ele>
        <time>2015-06-28T15:49:14Z</time>
      </trkpt>
      <trkpt lat="46.18961" lon="6.71505">
        <ele>1386.36</ele>
        <time>2015-06-28T15:49:25Z</time>
      </trkpt>
      <trkpt lat="46.18958" lon="6.71494">
        <ele>1383.96</ele>
        <time>2015-06-28T15:49:34Z</time>
      </trkpt>
      <trkpt lat="46.18955" lon="6.71489">
        <ele>1382.51</ele>
        <time>2015-06-28T15:49:57Z</time>
      </trkpt>
      <trkpt lat="46.18958" lon="6.71479">
        <ele>1380.59</ele>
        <time>2015-06-28T15:50:07Z</time>
      </trkpt>
      <trkpt lat="46.18965" lon="6.7147">
        <ele>1378.19</ele>
        <time>2015-06-28T15:50:18Z</time>
      </trkpt>
      <trkpt lat="46.18968" lon="6.71457">
        <ele>1377.23</ele>
        <time>2015-06-28T15:50:30Z</time>
      </trkpt>
      <trkpt lat="46.18976" lon="6.71432">
        <ele>1371.94</ele>
        <time>2015-06-28T15:50:38Z</time>
      </trkpt>
      <trkpt lat="46.18973" lon="6.71424">
        <ele>1370.5</ele>
        <time>2015-06-28T15:50:40Z</time>
      </trkpt>
      <trkpt lat="46.18974" lon="6.71387">
        <ele>1357.52</ele>
        <time>2015-06-28T15:50:49Z</time>
      </trkpt>
      <trkpt lat="46.18972" lon="6.71376">
        <ele>1353.67</ele>
        <time>2015-06-28T15:50:53Z</time>
      </trkpt>
      <trkpt lat="46.18971" lon="6.71364">
        <ele>1347.43</ele>
        <time>2015-06-28T15:51:04Z</time>
      </trkpt>
      <trkpt lat="46.18974" lon="6.71364">
        <ele>1346.94</ele>
        <time>2015-06-28T15:51:12Z</time>
      </trkpt>
      <trkpt lat="46.18982" lon="6.71342">
        <ele>1341.66</ele>
        <time>2015-06-28T15:51:19Z</time>
      </trkpt>
      <trkpt lat="46.18982" lon="6.71339">
        <ele>1339.73</ele>
        <time>2015-06-28T15:51:21Z</time>
      </trkpt>
      <trkpt lat="46.1898" lon="6.71321">
        <ele>1334.45</ele>
        <time>2015-06-28T15:51:26Z</time>
      </trkpt>
      <trkpt lat="46.18979" lon="6.71317">
        <ele>1331.08</ele>
        <time>2015-06-28T15:51:29Z</time>
      </trkpt>
      <trkpt lat="46.18974" lon="6.71307">
        <ele>1328.2</ele>
        <time>2015-06-28T15:51:40Z</time>
      </trkpt>
      <trkpt lat="46.18971" lon="6.71309">
        <ele>1330.12</ele>
        <time>2015-06-28T15:51:55Z</time>
      </trkpt>
      <trkpt lat="46.18959" lon="6.71283">
        <ele>1330.6</ele>
        <time>2015-06-28T15:52:05Z</time>
      </trkpt>
      <trkpt lat="46.18958" lon="6.7128">
        <ele>1330.6</ele>
        <time>2015-06-28T15:52:09Z</time>
      </trkpt>
      <trkpt lat="46.18955" lon="6.71258">
        <ele>1330.6</ele>
        <time>2015-06-28T15:52:19Z</time>
      </trkpt>
      <trkpt lat="46.18953" lon="6.71245">
        <ele>1327.72</ele>
        <time>2015-06-28T15:52:37Z</time>
      </trkpt>
      <trkpt lat="46.18953" lon="6.71248">
        <ele>1327.24</ele>
        <time>2015-06-28T15:52:52Z</time>
      </trkpt>
      <trkpt lat="46.18948" lon="6.71238">
        <ele>1327.24</ele>
        <time>2015-06-28T15:52:56Z</time>
      </trkpt>
      <trkpt lat="46.18957" lon="6.71225">
        <ele>1324.35</ele>
        <time>2015-06-28T15:53:05Z</time>
      </trkpt>
      <trkpt lat="46.18967" lon="6.71221">
        <ele>1314.74</ele>
        <time>2015-06-28T15:53:21Z</time>
      </trkpt>
      <trkpt lat="46.18973" lon="6.71215">
        <ele>1311.38</ele>
        <time>2015-06-28T15:53:26Z</time>
      </trkpt>
      <trkpt lat="46.18971" lon="6.71212">
        <ele>1310.41</ele>
        <time>2015-06-28T15:53:30Z</time>
      </trkpt>
      <trkpt lat="46.18966" lon="6.71207">
        <ele>1308.97</ele>
        <time>2015-06-28T15:53:44Z</time>
      </trkpt>
      <trkpt lat="46.18968" lon="6.71194">
        <ele>1306.09</ele>
        <time>2015-06-28T15:53:58Z</time>
      </trkpt>
      <trkpt lat="46.18964" lon="6.71175">
        <ele>1299.36</ele>
        <time>2015-06-28T15:54:11Z</time>
      </trkpt>
      <trkpt lat="46.18967" lon="6.7116">
        <ele>1291.67</ele>
        <time>2015-06-28T15:54:32Z</time>
      </trkpt>
      <trkpt lat="46.18964" lon="6.71153">
        <ele>1290.71</ele>
        <time>2015-06-28T15:54:50Z</time>
      </trkpt>
      <trkpt lat="46.18964" lon="6.71138">
        <ele>1286.86</ele>
        <time>2015-06-28T15:55:03Z</time>
      </trkpt>
      <trkpt lat="46.18967" lon="6.7113">
        <ele>1284.94</ele>
        <time>2015-06-28T15:55:09Z</time>
      </trkpt>
      <trkpt lat="46.18968" lon="6.71126">
        <ele>1282.54</ele>
        <time>2015-06-28T15:55:12Z</time>
      </trkpt>
      <trkpt lat="46.18973" lon="6.71118">
        <ele>1276.77</ele>
        <time>2015-06-28T15:55:18Z</time>
      </trkpt>
      <trkpt lat="46.1898" lon="6.71106">
        <ele>1269.56</ele>
        <time>2015-06-28T15:55:28Z</time>
      </trkpt>
      <trkpt lat="46.18981" lon="6.71094">
        <ele>1266.19</ele>
        <time>2015-06-28T15:55:46Z</time>
      </trkpt>
      <trkpt lat="46.1899" lon="6.71096">
        <ele>1263.31</ele>
        <time>2015-06-28T15:55:59Z</time>
      </trkpt>
      <trkpt lat="46.1899" lon="6.71095">
        <ele>1263.31</ele>
        <time>2015-06-28T15:56:11Z</time>
      </trkpt>
      <trkpt lat="46.1898" lon="6.71065">
        <ele>1255.14</ele>
        <time>2015-06-28T15:56:19Z</time>
      </trkpt>
      <trkpt lat="46.18978" lon="6.71052">
        <ele>1252.25</ele>
        <time>2015-06-28T15:56:25Z</time>
      </trkpt>
      <trkpt lat="46.18981" lon="6.71052">
        <ele>1252.25</ele>
        <time>2015-06-28T15:56:42Z</time>
      </trkpt>
      <trkpt lat="46.1898" lon="6.71051">
        <ele>1252.74</ele>
        <time>2015-06-28T15:58:43Z</time>
      </trkpt>
      <trkpt lat="46.18979" lon="6.71051">
        <ele>1252.74</ele>
        <time>2015-06-28T15:58:52Z</time>
      </trkpt>
      <trkpt lat="46.1897" lon="6.71037">
        <ele>1251.29</ele>
        <time>2015-06-28T15:59:12Z</time>
      </trkpt>
      <trkpt lat="46.18968" lon="6.71037">
        <ele>1251.77</ele>
        <time>2015-06-28T15:59:45Z</time>
      </trkpt>
      <trkpt lat="46.18968" lon="6.7104">
        <ele>1251.77</ele>
        <time>2015-06-28T16:00:11Z</time>
      </trkpt>
      <trkpt lat="46.18968" lon="6.71039">
        <ele>1251.77</ele>
        <time>2015-06-28T16:00:14Z</time>
      </trkpt>
      <trkpt lat="46.18969" lon="6.71056">
        <ele>1252.74</ele>
        <time>2015-06-28T16:00:20Z</time>
      </trkpt>
      <trkpt lat="46.18991" lon="6.71072">
        <ele>1250.81</ele>
        <time>2015-06-28T16:00:30Z</time>
      </trkpt>
      <trkpt lat="46.18988" lon="6.71073">
        <ele>1251.29</ele>
        <time>2015-06-28T16:01:30Z</time>
      </trkpt>
      <trkpt lat="46.18987" lon="6.71074">
        <ele>1251.77</ele>
        <time>2015-06-28T16:02:19Z</time>
      </trkpt>
      <trkpt lat="46.18963" lon="6.71035">
        <ele>1251.77</ele>
        <time>2015-06-28T16:02:28Z</time>
      </trkpt>
      <trkpt lat="46.18962" lon="6.71038">
        <ele>1250.81</ele>
        <time>2015-06-28T16:02:53Z</time>
      </trkpt>
      <trkpt lat="46.18962" lon="6.71038">
        <ele>1250.81</ele>
        <time>2015-06-28T16:02:58Z</time>
      </trkpt>
      <trkpt lat="46.18926" lon="6.71029">
        <ele>1249.85</ele>
        <time>2015-06-28T16:03:07Z</time>
      </trkpt>
      <trkpt lat="46.18912" lon="6.71025">
        <ele>1247.93</ele>
        <time>2015-06-28T16:03:09Z</time>
      </trkpt>
      <trkpt lat="46.18876" lon="6.71024">
        <ele>1244.08</ele>
        <time>2015-06-28T16:03:13Z</time>
      </trkpt>
      <trkpt lat="46.18835" lon="6.71035">
        <ele>1239.76</ele>
        <time>2015-06-28T16:03:17Z</time>
      </trkpt>
      <trkpt lat="46.18763" lon="6.71078">
        <ele>1232.07</ele>
        <time>2015-06-28T16:03:23Z</time>
      </trkpt>
      <trkpt lat="46.18675" lon="6.71145">
        <ele>1221.01</ele>
        <time>2015-06-28T16:03:30Z</time>
      </trkpt>
      <trkpt lat="46.18625" lon="6.71196">
        <ele>1216.21</ele>
        <time>2015-06-28T16:03:34Z</time>
      </trkpt>
      <trkpt lat="46.18553" lon="6.7128">
        <ele>1208.51</ele>
        <time>2015-06-28T16:03:41Z</time>
      </trkpt>
      <trkpt lat="46.18526" lon="6.71307">
        <ele>1204.19</ele>
        <time>2015-06-28T16:03:46Z</time>
      </trkpt>
      <trkpt lat="46.18533" lon="6.71276">
        <ele>1201.79</ele>
        <time>2015-06-28T16:03:50Z</time>
      </trkpt>
      <trkpt lat="46.18547" lon="6.71261">
        <ele>1199.86</ele>
        <time>2015-06-28T16:03:52Z</time>
      </trkpt>
      <trkpt lat="46.18615" lon="6.71146">
        <ele>1191.69</ele>
        <time>2015-06-28T16:04:02Z</time>
      </trkpt>
      <trkpt lat="46.18623" lon="6.71133">
        <ele>1190.73</ele>
        <time>2015-06-28T16:04:03Z</time>
      </trkpt>
      <trkpt lat="46.18641" lon="6.71109">
        <ele>1188.33</ele>
        <time>2015-06-28T16:04:05Z</time>
      </trkpt>
      <trkpt lat="46.18681" lon="6.71076">
        <ele>1183.04</ele>
        <time>2015-06-28T16:04:09Z</time>
      </trkpt>
      <trkpt lat="46.18688" lon="6.71042">
        <ele>1178.71</ele>
        <time>2015-06-28T16:04:14Z</time>
      </trkpt>
      <trkpt lat="46.18671" lon="6.71041">
        <ele>1177.27</ele>
        <time>2015-06-28T16:04:16Z</time>
      </trkpt>
      <trkpt lat="46.1865" lon="6.71065">
        <ele>1174.87</ele>
        <time>2015-06-28T16:04:19Z</time>
      </trkpt>
      <trkpt lat="46.18619" lon="6.71096">
        <ele>1172.95</ele>
        <time>2015-06-28T16:04:23Z</time>
      </trkpt>
      <trkpt lat="46.18593" lon="6.71103">
        <ele>1171.98</ele>
        <time>2015-06-28T16:04:28Z</time>
      </trkpt>
      <trkpt lat="46.18601" lon="6.71085">
        <ele>1171.5</ele>
        <time>2015-06-28T16:04:30Z</time>
      </trkpt>
      <trkpt lat="46.18618" lon="6.71072">
        <ele>1171.02</ele>
        <time>2015-06-28T16:04:32Z</time>
      </trkpt>
      <trkpt lat="46.18656" lon="6.7102">
        <ele>1168.62</ele>
        <time>2015-06-28T16:04:37Z</time>
      </trkpt>
      <trkpt lat="46.18704" lon="6.70977">
        <ele>1165.74</ele>
        <time>2015-06-28T16:04:42Z</time>
      </trkpt>
      <trkpt lat="46.18718" lon="6.70948">
        <ele>1158.53</ele>
        <time>2015-06-28T16:04:48Z</time>
      </trkpt>
      <trkpt lat="46.18703" lon="6.70954">
        <ele>1156.12</ele>
        <time>2015-06-28T16:04:50Z</time>
      </trkpt>
      <trkpt lat="46.18688" lon="6.70971">
        <ele>1155.16</ele>
        <time>2015-06-28T16:04:52Z</time>
      </trkpt>
      <trkpt lat="46.18628" lon="6.71005">
        <ele>1149.39</ele>
        <time>2015-06-28T16:04:59Z</time>
      </trkpt>
      <trkpt lat="46.18556" lon="6.71107">
        <ele>1142.66</ele>
        <time>2015-06-28T16:05:08Z</time>
      </trkpt>
      <trkpt lat="46.18518" lon="6.71151">
        <ele>1138.82</ele>
        <time>2015-06-28T16:05:12Z</time>
      </trkpt>
      <trkpt lat="46.18413" lon="6.71245">
        <ele>1131.61</ele>
        <time>2015-06-28T16:05:21Z</time>
      </trkpt>
      <trkpt lat="46.18394" lon="6.71296">
        <ele>1131.13</ele>
        <time>2015-06-28T16:05:25Z</time>
      </trkpt>
      <trkpt lat="46.1838" lon="6.71306">
        <ele>1126.8</ele>
        <time>2015-06-28T16:05:29Z</time>
      </trkpt>
      <trkpt lat="46.18386" lon="6.71277">
        <ele>1125.36</ele>
        <time>2015-06-28T16:05:32Z</time>
      </trkpt>
      <trkpt lat="46.18394" lon="6.71257">
        <ele>1123.44</ele>
        <time>2015-06-28T16:05:34Z</time>
      </trkpt>
      <trkpt lat="46.18411" lon="6.7119">
        <ele>1119.11</ele>
        <time>2015-06-28T16:05:39Z</time>
      </trkpt>
      <trkpt lat="46.18446" lon="6.71132">
        <ele>1115.27</ele>
        <time>2015-06-28T16:05:44Z</time>
      </trkpt>
      <trkpt lat="46.18489" lon="6.71108">
        <ele>1110.94</ele>
        <time>2015-06-28T16:05:48Z</time>
      </trkpt>
      <trkpt lat="46.18503" lon="6.71073">
        <ele>1103.25</ele>
        <time>2015-06-28T16:05:53Z</time>
      </trkpt>
      <trkpt lat="46.18483" lon="6.71082">
        <ele>1100.37</ele>
        <time>2015-06-28T16:05:56Z</time>
      </trkpt>
      <trkpt lat="46.18471" lon="6.711">
        <ele>1097.96</ele>
        <time>2015-06-28T16:05:58Z</time>
      </trkpt>
      <trkpt lat="46.18405" lon="6.7113">
        <ele>1092.68</ele>
        <time>2015-06-28T16:06:05Z</time>
      </trkpt>
      <trkpt lat="46.18364" lon="6.71167">
        <ele>1091.71</ele>
        <time>2015-06-28T16:06:09Z</time>
      </trkpt>
      <trkpt lat="46.18356" lon="6.71219">
        <ele>1090.75</ele>
        <time>2015-06-28T16:06:12Z</time>
      </trkpt>
      <trkpt lat="46.18342" lon="6.71228">
        <ele>1083.06</ele>
        <time>2015-06-28T16:06:17Z</time>
      </trkpt>
      <trkpt lat="46.18359" lon="6.7116">
        <ele>1080.66</ele>
        <time>2015-06-28T16:06:23Z</time>
      </trkpt>
      <trkpt lat="46.18381" lon="6.71111">
        <ele>1077.78</ele>
        <time>2015-06-28T16:06:27Z</time>
      </trkpt>
      <trkpt lat="46.18437" lon="6.7104">
        <ele>1071.53</ele>
        <time>2015-06-28T16:06:34Z</time>
      </trkpt>
      <trkpt lat="46.185" lon="6.70951">
        <ele>1064.32</ele>
        <time>2015-06-28T16:06:41Z</time>
      </trkpt>
      <trkpt lat="46.18529" lon="6.70933">
        <ele>1059.99</ele>
        <time>2015-06-28T16:06:44Z</time>
      </trkpt>
      <trkpt lat="46.18517" lon="6.70905">
        <ele>1057.59</ele>
        <time>2015-06-28T16:06:49Z</time>
      </trkpt>
      <trkpt lat="46.18511" lon="6.70911">
        <ele>1057.11</ele>
        <time>2015-06-28T16:06:50Z</time>
      </trkpt>
      <trkpt lat="46.18489" lon="6.70933">
        <ele>1055.67</ele>
        <time>2015-06-28T16:06:53Z</time>
      </trkpt>
      <trkpt lat="46.18361" lon="6.71022">
        <ele>1047.97</ele>
        <time>2015-06-28T16:07:05Z</time>
      </trkpt>
      <trkpt lat="46.1827" lon="6.71118">
        <ele>1041.73</ele>
        <time>2015-06-28T16:07:13Z</time>
      </trkpt>
      <trkpt lat="46.18216" lon="6.71205">
        <ele>1039.8</ele>
        <time>2015-06-28T16:07:19Z</time>
      </trkpt>
      <trkpt lat="46.18199" lon="6.71246">
        <ele>1039.8</ele>
        <time>2015-06-28T16:07:22Z</time>
      </trkpt>
      <trkpt lat="46.18192" lon="6.71256">
        <ele>1039.32</ele>
        <time>2015-06-28T16:07:30Z</time>
      </trkpt>
      <trkpt lat="46.18192" lon="6.71257">
        <ele>1039.8</ele>
        <time>2015-06-28T16:07:57Z</time>
      </trkpt>
      <trkpt lat="46.18187" lon="6.71241">
        <ele>1038.36</ele>
        <time>2015-06-28T16:08:02Z</time>
      </trkpt>
      <trkpt lat="46.18192" lon="6.71131">
        <ele>1031.63</ele>
        <time>2015-06-28T16:08:12Z</time>
      </trkpt>
      <trkpt lat="46.18206" lon="6.71084">
        <ele>1027.79</ele>
        <time>2015-06-28T16:08:16Z</time>
      </trkpt>
      <trkpt lat="46.18221" lon="6.71063">
        <ele>1025.38</ele>
        <time>2015-06-28T16:08:18Z</time>
      </trkpt>
      <trkpt lat="46.18287" lon="6.70907">
        <ele>1013.37</ele>
        <time>2015-06-28T16:08:29Z</time>
      </trkpt>
      <trkpt lat="46.18303" lon="6.70824">
        <ele>1005.68</ele>
        <time>2015-06-28T16:08:34Z</time>
      </trkpt>
      <trkpt lat="46.1835" lon="6.70724">
        <ele>998.95</ele>
        <time>2015-06-28T16:08:42Z</time>
      </trkpt>
      <trkpt lat="46.18359" lon="6.70711">
        <ele>994.62</ele>
        <time>2015-06-28T16:08:48Z</time>
      </trkpt>
      <trkpt lat="46.18355" lon="6.70711">
        <ele>994.62</ele>
        <time>2015-06-28T16:09:34Z</time>
      </trkpt>
      <trkpt lat="46.1835" lon="6.70712">
        <ele>994.62</ele>
        <time>2015-06-28T16:09:45Z</time>
      </trkpt>
      <trkpt lat="46.18365" lon="6.70699">
        <ele>993.66</ele>
        <time>2015-06-28T16:09:52Z</time>
      </trkpt>
      <trkpt lat="46.18428" lon="6.70641">
        <ele>986.45</ele>
        <time>2015-06-28T16:10:03Z</time>
      </trkpt>
      <trkpt lat="46.18481" lon="6.70606">
        <ele>983.57</ele>
        <time>2015-06-28T16:10:10Z</time>
      </trkpt>
      <trkpt lat="46.18489" lon="6.70584">
        <ele>980.2</ele>
        <time>2015-06-28T16:10:16Z</time>
      </trkpt>
      <trkpt lat="46.18473" lon="6.70563">
        <ele>977.8</ele>
        <time>2015-06-28T16:10:25Z</time>
      </trkpt>
      <trkpt lat="46.1847" lon="6.70558">
        <ele>973.95</ele>
        <time>2015-06-28T16:10:38Z</time>
      </trkpt>
      <trkpt lat="46.18466" lon="6.70562">
        <ele>972.51</ele>
        <time>2015-06-28T16:10:43Z</time>
      </trkpt>
      <trkpt lat="46.18463" lon="6.70559">
        <ele>971.07</ele>
        <time>2015-06-28T16:10:52Z</time>
      </trkpt>
      <trkpt lat="46.18467" lon="6.70547">
        <ele>972.03</ele>
        <time>2015-06-28T16:10:58Z</time>
      </trkpt>
      <trkpt lat="46.18466" lon="6.70539">
        <ele>972.03</ele>
        <time>2015-06-28T16:11:11Z</time>
      </trkpt>
      <trkpt lat="46.18446" lon="6.70506">
        <ele>972.51</ele>
        <time>2015-06-28T16:11:30Z</time>
      </trkpt>
      <trkpt lat="46.18426" lon="6.70467">
        <ele>970.11</ele>
        <time>2015-06-28T16:11:51Z</time>
      </trkpt>
      <trkpt lat="46.18392" lon="6.70401">
        <ele>967.7</ele>
        <time>2015-06-28T16:12:26Z</time>
      </trkpt>
      <trkpt lat="46.18364" lon="6.70346">
        <ele>967.7</ele>
        <time>2015-06-28T16:12:37Z</time>
      </trkpt>
      <trkpt lat="46.18358" lon="6.70334">
        <ele>967.22</ele>
        <time>2015-06-28T16:12:40Z</time>
      </trkpt>
      <trkpt lat="46.18336" lon="6.70316">
        <ele>967.7</ele>
        <time>2015-06-28T16:12:49Z</time>
      </trkpt>
      <trkpt lat="46.18324" lon="6.70287">
        <ele>969.63</ele>
        <time>2015-06-28T16:12:58Z</time>
      </trkpt>
      <trkpt lat="46.18321" lon="6.70281">
        <ele>969.63</ele>
        <time>2015-06-28T16:12:59Z</time>
      </trkpt>
      <trkpt lat="46.18292" lon="6.70227">
        <ele>967.22</ele>
        <time>2015-06-28T16:13:13Z</time>
      </trkpt>
      <trkpt lat="46.18291" lon="6.70226">
        <ele>967.7</ele>
        <time>2015-06-28T16:13:33Z</time>
      </trkpt>
      <trkpt lat="46.18289" lon="6.70204">
        <ele>968.18</ele>
        <time>2015-06-28T16:13:51Z</time>
      </trkpt>
      <trkpt lat="46.18279" lon="6.70196">
        <ele>968.67</ele>
        <time>2015-06-28T16:13:55Z</time>
      </trkpt>
      <trkpt lat="46.1827" lon="6.70202">
        <ele>969.15</ele>
        <time>2015-06-28T16:14:07Z</time>
      </trkpt>
      <trkpt lat="46.18267" lon="6.70199">
        <ele>970.11</ele>
        <time>2015-06-28T16:14:24Z</time>
      </trkpt>
      <trkpt lat="46.18267" lon="6.70198">
        <ele>969.63</ele>
        <time>2015-06-28T16:15:03Z</time>
      </trkpt>
      <trkpt lat="46.18269" lon="6.70212">
        <ele>969.63</ele>
        <time>2015-06-28T16:15:08Z</time>
      </trkpt>
      <trkpt lat="46.18273" lon="6.70222">
        <ele>970.11</ele>
        <time>2015-06-28T16:15:11Z</time>
      </trkpt>
      <trkpt lat="46.18272" lon="6.70235">
        <ele>971.07</ele>
        <time>2015-06-28T16:15:15Z</time>
      </trkpt>
      <trkpt lat="46.18249" lon="6.7027">
        <ele>974.91</ele>
        <time>2015-06-28T16:15:29Z</time>
      </trkpt>
      <trkpt lat="46.18246" lon="6.7027">
        <ele>976.36</ele>
        <time>2015-06-28T16:15:38Z</time>
      </trkpt>
      <trkpt lat="46.18247" lon="6.70273">
        <ele>976.84</ele>
        <time>2015-06-28T16:15:51Z</time>
      </trkpt>
      <trkpt lat="46.18247" lon="6.70272">
        <ele>977.32</ele>
        <time>2015-06-28T16:16:36Z</time>
      </trkpt>
      <trkpt lat="46.18238" lon="6.70282">
        <ele>975.88</ele>
        <time>2015-06-28T16:16:42Z</time>
      </trkpt>
      <trkpt lat="46.18221" lon="6.70309">
        <ele>976.36</ele>
        <time>2015-06-28T16:16:51Z</time>
      </trkpt>
      <trkpt lat="46.18214" lon="6.70328">
        <ele>977.32</ele>
        <time>2015-06-28T16:17:00Z</time>
      </trkpt>
      <trkpt lat="46.18184" lon="6.70368">
        <ele>985.49</ele>
        <time>2015-06-28T16:17:12Z</time>
      </trkpt>
      <trkpt lat="46.18167" lon="6.70382">
        <ele>985.97</ele>
        <time>2015-06-28T16:17:24Z</time>
      </trkpt>
      <trkpt lat="46.18178" lon="6.70381">
        <ele>995.58</ele>
        <time>2015-06-28T16:17:41Z</time>
      </trkpt>
      <trkpt lat="46.18188" lon="6.70384">
        <ele>1006.16</ele>
        <time>2015-06-28T16:18:08Z</time>
      </trkpt>
      <trkpt lat="46.18193" lon="6.70375">
        <ele>999.91</ele>
        <time>2015-06-28T16:18:23Z</time>
      </trkpt>
      <trkpt lat="46.18233" lon="6.70316">
        <ele>992.22</ele>
        <time>2015-06-28T16:18:37Z</time>
      </trkpt>
      <trkpt lat="46.18233" lon="6.70318">
        <ele>991.74</ele>
        <time>2015-06-28T16:19:33Z</time>
      </trkpt>
      <trkpt lat="46.18236" lon="6.70316">
        <ele>991.74</ele>
        <time>2015-06-28T16:19:55Z</time>
      </trkpt>
      <trkpt lat="46.18236" lon="6.7031">
        <ele>990.3</ele>
        <time>2015-06-28T16:20:22Z</time>
      </trkpt>
      <trkpt lat="46.18247" lon="6.70277">
        <ele>986.93</ele>
        <time>2015-06-28T16:20:32Z</time>
      </trkpt>
      <trkpt lat="46.18277" lon="6.7024">
        <ele>977.8</ele>
        <time>2015-06-28T16:20:44Z</time>
      </trkpt>
      <trkpt lat="46.18271" lon="6.70219">
        <ele>974.43</ele>
        <time>2015-06-28T16:20:50Z</time>
      </trkpt>
      <trkpt lat="46.18269" lon="6.70205">
        <ele>974.43</ele>
        <time>2015-06-28T16:20:54Z</time>
      </trkpt>
      <trkpt lat="46.18246" lon="6.70164">
        <ele>974.91</ele>
        <time>2015-06-28T16:21:09Z</time>
      </trkpt>
      <trkpt lat="46.18204" lon="6.70094">
        <ele>972.99</ele>
        <time>2015-06-28T16:21:27Z</time>
      </trkpt>
      <trkpt lat="46.18198" lon="6.70081">
        <ele>973.47</ele>
        <time>2015-06-28T16:21:31Z</time>
      </trkpt>
      <trkpt lat="46.18193" lon="6.70068">
        <ele>974.91</ele>
        <time>2015-06-28T16:21:36Z</time>
      </trkpt>
      <trkpt lat="46.18172" lon="6.70028">
        <ele>972.51</ele>
        <time>2015-06-28T16:21:49Z</time>
      </trkpt>
      <trkpt lat="46.18174" lon="6.70015">
        <ele>972.99</ele>
        <time>2015-06-28T16:21:53Z</time>
      </trkpt>
      <trkpt lat="46.18195" lon="6.69969">
        <ele>977.32</ele>
        <time>2015-06-28T16:22:06Z</time>
      </trkpt>
      <trkpt lat="46.18252" lon="6.69854">
        <ele>985.49</ele>
        <time>2015-06-28T16:22:38Z</time>
      </trkpt>
      <trkpt lat="46.18282" lon="6.69753">
        <ele>987.89</ele>
        <time>2015-06-28T16:23:02Z</time>
      </trkpt>
      <trkpt lat="46.18303" lon="6.69675">
        <ele>987.89</ele>
        <time>2015-06-28T16:23:20Z</time>
      </trkpt>
      <trkpt lat="46.18346" lon="6.69614">
        <ele>993.18</ele>
        <time>2015-06-28T16:23:38Z</time>
      </trkpt>
      <trkpt lat="46.18405" lon="6.69556">
        <ele>997.51</ele>
        <time>2015-06-28T16:23:58Z</time>
      </trkpt>
      <trkpt lat="46.18453" lon="6.69485">
        <ele>998.95</ele>
        <time>2015-06-28T16:24:17Z</time>
      </trkpt>
      <trkpt lat="46.18476" lon="6.69462">
        <ele>998.47</ele>
        <time>2015-06-28T16:24:24Z</time>
      </trkpt>
      <trkpt lat="46.18516" lon="6.6944">
        <ele>997.99</ele>
        <time>2015-06-28T16:24:34Z</time>
      </trkpt>
      <trkpt lat="46.18543" lon="6.6942">
        <ele>993.66</ele>
        <time>2015-06-28T16:24:41Z</time>
      </trkpt>
      <trkpt lat="46.18551" lon="6.69413">
        <ele>993.18</ele>
        <time>2015-06-28T16:24:43Z</time>
      </trkpt>
      <trkpt lat="46.18583" lon="6.69377">
        <ele>990.3</ele>
        <time>2015-06-28T16:24:52Z</time>
      </trkpt>
      <trkpt lat="46.18601" lon="6.69363">
        <ele>986.93</ele>
        <time>2015-06-28T16:24:58Z</time>
      </trkpt>
      <trkpt lat="46.18641" lon="6.69335">
        <ele>985.49</ele>
        <time>2015-06-28T16:25:08Z</time>
      </trkpt>
      <trkpt lat="46.18671" lon="6.69297">
        <ele>991.26</ele>
        <time>2015-06-28T16:25:18Z</time>
      </trkpt>
      <trkpt lat="46.18678" lon="6.69283">
        <ele>992.22</ele>
        <time>2015-06-28T16:25:21Z</time>
      </trkpt>
      <trkpt lat="46.18702" lon="6.69261">
        <ele>991.26</ele>
        <time>2015-06-28T16:25:28Z</time>
      </trkpt>
      <trkpt lat="46.18752" lon="6.69213">
        <ele>992.22</ele>
        <time>2015-06-28T16:25:42Z</time>
      </trkpt>
      <trkpt lat="46.18794" lon="6.69171">
        <ele>1001.35</ele>
        <time>2015-06-28T16:25:55Z</time>
      </trkpt>
      <trkpt lat="46.18838" lon="6.69127">
        <ele>1007.12</ele>
        <time>2015-06-28T16:26:09Z</time>
      </trkpt>
      <trkpt lat="46.18845" lon="6.69075">
        <ele>1010</ele>
        <time>2015-06-28T16:26:19Z</time>
      </trkpt>
      <trkpt lat="46.18886" lon="6.69044">
        <ele>1016.73</ele>
        <time>2015-06-28T16:26:33Z</time>
      </trkpt>
      <trkpt lat="46.18923" lon="6.69004">
        <ele>1031.63</ele>
        <time>2015-06-28T16:26:48Z</time>
      </trkpt>
      <trkpt lat="46.18949" lon="6.68971">
        <ele>1035</ele>
        <time>2015-06-28T16:26:57Z</time>
      </trkpt>
      <trkpt lat="46.18962" lon="6.68946">
        <ele>1039.8</ele>
        <time>2015-06-28T16:27:06Z</time>
      </trkpt>
      <trkpt lat="46.18983" lon="6.68914">
        <ele>1044.61</ele>
        <time>2015-06-28T16:27:16Z</time>
      </trkpt>
      <trkpt lat="46.19006" lon="6.68888">
        <ele>1045.09</ele>
        <time>2015-06-28T16:27:24Z</time>
      </trkpt>
      <trkpt lat="46.19032" lon="6.68848">
        <ele>1046.05</ele>
        <time>2015-06-28T16:27:34Z</time>
      </trkpt>
      <trkpt lat="46.19063" lon="6.688">
        <ele>1047.01</ele>
        <time>2015-06-28T16:27:46Z</time>
      </trkpt>
      <trkpt lat="46.19088" lon="6.68756">
        <ele>1045.57</ele>
        <time>2015-06-28T16:27:58Z</time>
      </trkpt>
      <trkpt lat="46.1909" lon="6.68749">
        <ele>1045.57</ele>
        <time>2015-06-28T16:28:00Z</time>
      </trkpt>
      <trkpt lat="46.19094" lon="6.68722">
        <ele>1047.01</ele>
        <time>2015-06-28T16:28:08Z</time>
      </trkpt>
      <trkpt lat="46.19097" lon="6.68689">
        <ele>1052.78</ele>
        <time>2015-06-28T16:28:17Z</time>
      </trkpt>
      <trkpt lat="46.19097" lon="6.68685">
        <ele>1053.74</ele>
        <time>2015-06-28T16:28:19Z</time>
      </trkpt>
      <trkpt lat="46.19097" lon="6.68664">
        <ele>1057.11</ele>
        <time>2015-06-28T16:28:25Z</time>
      </trkpt>
      <trkpt lat="46.19086" lon="6.68619">
        <ele>1064.32</ele>
        <time>2015-06-28T16:28:36Z</time>
      </trkpt>
      <trkpt lat="46.19057" lon="6.68571">
        <ele>1069.12</ele>
        <time>2015-06-28T16:28:47Z</time>
      </trkpt>
      <trkpt lat="46.19031" lon="6.68547">
        <ele>1070.57</ele>
        <time>2015-06-28T16:28:58Z</time>
      </trkpt>
      <trkpt lat="46.19012" lon="6.68528">
        <ele>1070.57</ele>
        <time>2015-06-28T16:29:06Z</time>
      </trkpt>
      <trkpt lat="46.18983" lon="6.68508">
        <ele>1070.08</ele>
        <time>2015-06-28T16:29:18Z</time>
      </trkpt>
      <trkpt lat="46.18945" lon="6.68475">
        <ele>1065.76</ele>
        <time>2015-06-28T16:29:32Z</time>
      </trkpt>
      <trkpt lat="46.18934" lon="6.68468">
        <ele>1063.36</ele>
        <time>2015-06-28T16:29:36Z</time>
      </trkpt>
      <trkpt lat="46.18904" lon="6.68442">
        <ele>1059.51</ele>
        <time>2015-06-28T16:29:46Z</time>
      </trkpt>
      <trkpt lat="46.1886" lon="6.68397">
        <ele>1055.18</ele>
        <time>2015-06-28T16:30:00Z</time>
      </trkpt>
      <trkpt lat="46.18825" lon="6.68373">
        <ele>1053.74</ele>
        <time>2015-06-28T16:30:12Z</time>
      </trkpt>
      <trkpt lat="46.18797" lon="6.68354">
        <ele>1058.55</ele>
        <time>2015-06-28T16:30:22Z</time>
      </trkpt>
      <trkpt lat="46.18759" lon="6.68324">
        <ele>1054.7</ele>
        <time>2015-06-28T16:30:35Z</time>
      </trkpt>
      <trkpt lat="46.18729" lon="6.68311">
        <ele>1062.39</ele>
        <time>2015-06-28T16:30:47Z</time>
      </trkpt>
      <trkpt lat="46.1868" lon="6.68271">
        <ele>1067.2</ele>
        <time>2015-06-28T16:31:04Z</time>
      </trkpt>
      <trkpt lat="46.18629" lon="6.68255">
        <ele>1065.76</ele>
        <time>2015-06-28T16:31:20Z</time>
      </trkpt>
      <trkpt lat="46.18553" lon="6.68245">
        <ele>1068.16</ele>
        <time>2015-06-28T16:31:45Z</time>
      </trkpt>
      <trkpt lat="46.18521" lon="6.68234">
        <ele>1073.45</ele>
        <time>2015-06-28T16:31:57Z</time>
      </trkpt>
      <trkpt lat="46.18471" lon="6.68196">
        <ele>1075.37</ele>
        <time>2015-06-28T16:32:14Z</time>
      </trkpt>
      <trkpt lat="46.1841" lon="6.68162">
        <ele>1074.89</ele>
        <time>2015-06-28T16:32:35Z</time>
      </trkpt>
      <trkpt lat="46.18373" lon="6.68145">
        <ele>1077.78</ele>
        <time>2015-06-28T16:32:48Z</time>
      </trkpt>
      <trkpt lat="46.18328" lon="6.68137">
        <ele>1074.89</ele>
        <time>2015-06-28T16:33:01Z</time>
      </trkpt>
      <trkpt lat="46.18282" lon="6.68158">
        <ele>1074.41</ele>
        <time>2015-06-28T16:33:18Z</time>
      </trkpt>
      <trkpt lat="46.18223" lon="6.68207">
        <ele>1079.7</ele>
        <time>2015-06-28T16:33:41Z</time>
      </trkpt>
      <trkpt lat="46.18173" lon="6.68249">
        <ele>1084.99</ele>
        <time>2015-06-28T16:34:01Z</time>
      </trkpt>
      <trkpt lat="46.18126" lon="6.68279">
        <ele>1088.83</ele>
        <time>2015-06-28T16:34:20Z</time>
      </trkpt>
      <trkpt lat="46.18077" lon="6.6829">
        <ele>1092.68</ele>
        <time>2015-06-28T16:34:38Z</time>
      </trkpt>
      <trkpt lat="46.18024" lon="6.68315">
        <ele>1095.56</ele>
        <time>2015-06-28T16:34:59Z</time>
      </trkpt>
      <trkpt lat="46.17961" lon="6.68336">
        <ele>1099.89</ele>
        <time>2015-06-28T16:35:22Z</time>
      </trkpt>
      <trkpt lat="46.17908" lon="6.68321">
        <ele>1103.73</ele>
        <time>2015-06-28T16:35:42Z</time>
      </trkpt>
      <trkpt lat="46.17853" lon="6.68321">
        <ele>1107.1</ele>
        <time>2015-06-28T16:36:04Z</time>
      </trkpt>
      <trkpt lat="46.17809" lon="6.68316">
        <ele>1106.61</ele>
        <time>2015-06-28T16:36:20Z</time>
      </trkpt>
      <trkpt lat="46.17785" lon="6.68307">
        <ele>1115.27</ele>
        <time>2015-06-28T16:36:32Z</time>
      </trkpt>
      <trkpt lat="46.17754" lon="6.68276">
        <ele>1121.03</ele>
        <time>2015-06-28T16:36:46Z</time>
      </trkpt>
      <trkpt lat="46.17708" lon="6.68226">
        <ele>1118.63</ele>
        <time>2015-06-28T16:37:06Z</time>
      </trkpt>
      <trkpt lat="46.17674" lon="6.68174">
        <ele>1117.67</ele>
        <time>2015-06-28T16:37:23Z</time>
      </trkpt>
      <trkpt lat="46.17627" lon="6.68124">
        <ele>1116.71</ele>
        <time>2015-06-28T16:37:41Z</time>
      </trkpt>
      <trkpt lat="46.17587" lon="6.68133">
        <ele>1117.67</ele>
        <time>2015-06-28T16:37:52Z</time>
      </trkpt>
      <trkpt lat="46.17573" lon="6.68145">
        <ele>1118.15</ele>
        <time>2015-06-28T16:37:56Z</time>
      </trkpt>
      <trkpt lat="46.17558" lon="6.68152">
        <ele>1118.15</ele>
        <time>2015-06-28T16:38:00Z</time>
      </trkpt>
      <trkpt lat="46.1749" lon="6.68136">
        <ele>1120.55</ele>
        <time>2015-06-28T16:38:16Z</time>
      </trkpt>
      <trkpt lat="46.17458" lon="6.68125">
        <ele>1122.48</ele>
        <time>2015-06-28T16:38:24Z</time>
      </trkpt>
      <trkpt lat="46.17402" lon="6.68089">
        <ele>1126.8</ele>
        <time>2015-06-28T16:38:39Z</time>
      </trkpt>
      <trkpt lat="46.17368" lon="6.68072">
        <ele>1135.45</ele>
        <time>2015-06-28T16:38:48Z</time>
      </trkpt>
      <trkpt lat="46.17356" lon="6.68071">
        <ele>1141.7</ele>
        <time>2015-06-28T16:38:51Z</time>
      </trkpt>
      <trkpt lat="46.1734" lon="6.68072">
        <ele>1145.55</ele>
        <time>2015-06-28T16:38:55Z</time>
      </trkpt>
      <trkpt lat="46.17263" lon="6.68062">
        <ele>1150.35</ele>
        <time>2015-06-28T16:39:12Z</time>
      </trkpt>
      <trkpt lat="46.17217" lon="6.68024">
        <ele>1152.28</ele>
        <time>2015-06-28T16:39:25Z</time>
      </trkpt>
      <trkpt lat="46.17207" lon="6.68012">
        <ele>1152.28</ele>
        <time>2015-06-28T16:39:28Z</time>
      </trkpt>
      <trkpt lat="46.17149" lon="6.67943">
        <ele>1151.32</ele>
        <time>2015-06-28T16:39:45Z</time>
      </trkpt>
      <trkpt lat="46.17083" lon="6.67881">
        <ele>1152.76</ele>
        <time>2015-06-28T16:40:01Z</time>
      </trkpt>
      <trkpt lat="46.17066" lon="6.6787">
        <ele>1152.76</ele>
        <time>2015-06-28T16:40:05Z</time>
      </trkpt>
      <trkpt lat="46.17017" lon="6.67857">
        <ele>1154.68</ele>
        <time>2015-06-28T16:40:17Z</time>
      </trkpt>
      <trkpt lat="46.16991" lon="6.67861">
        <ele>1155.16</ele>
        <time>2015-06-28T16:40:23Z</time>
      </trkpt>
      <trkpt lat="46.16972" lon="6.67848">
        <ele>1155.16</ele>
        <time>2015-06-28T16:40:26Z</time>
      </trkpt>
      <trkpt lat="46.1694" lon="6.67834">
        <ele>1156.12</ele>
        <time>2015-06-28T16:40:33Z</time>
      </trkpt>
      <trkpt lat="46.16883" lon="6.67797">
        <ele>1154.68</ele>
        <time>2015-06-28T16:40:46Z</time>
      </trkpt>
      <trkpt lat="46.16843" lon="6.67779">
        <ele>1153.72</ele>
        <time>2015-06-28T16:40:56Z</time>
      </trkpt>
      <trkpt lat="46.16823" lon="6.67754">
        <ele>1153.24</ele>
        <time>2015-06-28T16:40:59Z</time>
      </trkpt>
      <trkpt lat="46.16772" lon="6.67729">
        <ele>1155.16</ele>
        <time>2015-06-28T16:41:11Z</time>
      </trkpt>
      <trkpt lat="46.16725" lon="6.67694">
        <ele>1156.12</ele>
        <time>2015-06-28T16:41:22Z</time>
      </trkpt>
      <trkpt lat="46.16673" lon="6.67653">
        <ele>1158.53</ele>
        <time>2015-06-28T16:41:37Z</time>
      </trkpt>
      <trkpt lat="46.16609" lon="6.67615">
        <ele>1152.28</ele>
        <time>2015-06-28T16:41:57Z</time>
      </trkpt>
      <trkpt lat="46.16561" lon="6.67564">
        <ele>1144.59</ele>
        <time>2015-06-28T16:42:16Z</time>
      </trkpt>
      <trkpt lat="46.16492" lon="6.67519">
        <ele>1143.63</ele>
        <time>2015-06-28T16:42:42Z</time>
      </trkpt>
      <trkpt lat="46.16435" lon="6.67485">
        <ele>1147.47</ele>
        <time>2015-06-28T16:43:03Z</time>
      </trkpt>
      <trkpt lat="46.16369" lon="6.67437">
        <ele>1151.8</ele>
        <time>2015-06-28T16:43:27Z</time>
      </trkpt>
      <trkpt lat="46.16305" lon="6.67379">
        <ele>1153.72</ele>
        <time>2015-06-28T16:43:52Z</time>
      </trkpt>
      <trkpt lat="46.16237" lon="6.67329">
        <ele>1153.72</ele>
        <time>2015-06-28T16:44:15Z</time>
      </trkpt>
      <trkpt lat="46.16174" lon="6.67312">
        <ele>1155.16</ele>
        <time>2015-06-28T16:44:31Z</time>
      </trkpt>
      <trkpt lat="46.16137" lon="6.67273">
        <ele>1155.16</ele>
        <time>2015-06-28T16:44:46Z</time>
      </trkpt>
      <trkpt lat="46.16098" lon="6.67202">
        <ele>1156.12</ele>
        <time>2015-06-28T16:45:03Z</time>
      </trkpt>
      <trkpt lat="46.16063" lon="6.67148">
        <ele>1156.6</ele>
        <time>2015-06-28T16:45:16Z</time>
      </trkpt>
      <trkpt lat="46.16002" lon="6.67045">
        <ele>1159.01</ele>
        <time>2015-06-28T16:45:41Z</time>
      </trkpt>
      <trkpt lat="46.15951" lon="6.66984">
        <ele>1162.85</ele>
        <time>2015-06-28T16:45:58Z</time>
      </trkpt>
      <trkpt lat="46.15908" lon="6.66935">
        <ele>1163.81</ele>
        <time>2015-06-28T16:46:12Z</time>
      </trkpt>
      <trkpt lat="46.15893" lon="6.66938">
        <ele>1164.77</ele>
        <time>2015-06-28T16:46:16Z</time>
      </trkpt>
      <trkpt lat="46.1588" lon="6.66961">
        <ele>1166.22</ele>
        <time>2015-06-28T16:46:22Z</time>
      </trkpt>
      <trkpt lat="46.15847" lon="6.6695">
        <ele>1166.22</ele>
        <time>2015-06-28T16:46:31Z</time>
      </trkpt>
      <trkpt lat="46.15822" lon="6.66935">
        <ele>1166.22</ele>
        <time>2015-06-28T16:46:37Z</time>
      </trkpt>
      <trkpt lat="46.15805" lon="6.6692">
        <ele>1165.74</ele>
        <time>2015-06-28T16:46:41Z</time>
      </trkpt>
      <trkpt lat="46.15746" lon="6.66873">
        <ele>1164.77</ele>
        <time>2015-06-28T16:46:54Z</time>
      </trkpt>
      <trkpt lat="46.15738" lon="6.66866">
        <ele>1165.26</ele>
        <time>2015-06-28T16:46:56Z</time>
      </trkpt>
      <trkpt lat="46.15706" lon="6.66834">
        <ele>1165.74</ele>
        <time>2015-06-28T16:47:07Z</time>
      </trkpt>
      <trkpt lat="46.15696" lon="6.66847">
        <ele>1167.18</ele>
        <time>2015-06-28T16:47:16Z</time>
      </trkpt>
    </trkseg>
  </trk>
</gpx>